Wetterdaten: Samstag, 15.10.2016
Datum Zeit Temp. A. Temp. A. max Feuchte A. Luftdruck Regen Wind Richtung Richtung Sonnenschein ET UV Solar Taupunkt Windböen
15.10.2016 00:00 11,7 °C 11,8 °C 77 % 1005,2 hPa 0,0 mm 7,7 km/h (2 Bft) O 91 ° 0 min 0,000 mm 0,0 UV-I 0 W/m² 7,8 °C 12,9 km/h (3 Bft)
15.10.2016 00:01 11,6 °C 11,7 °C 77 % 1005,2 hPa 0,0 mm 3,8 km/h (1 Bft) O 81 ° 0 min 0,000 mm 0,0 UV-I 0 W/m² 7,7 °C 9,7 km/h (2 Bft)
15.10.2016 00:02 11,6 °C 11,6 °C 77 % 1005,2 hPa 0,0 mm 3,4 km/h (1 Bft) O-NO 74 ° 0 min 0,000 mm 0,0 UV-I 0 W/m² 7,7 °C 6,4 km/h (2 Bft)
15.10.2016 00:03 11,7 °C 11,7 °C 77 % 1005,2 hPa 0,0 mm 2,0 km/h (1 Bft) O-NO 74 ° 0 min 0,000 mm 0,0 UV-I 0 W/m² 7,8 °C 3,2 km/h (1 Bft)
15.10.2016 00:04 11,7 °C 11,7 °C 76 % 1005,2 hPa 0,0 mm 2,4 km/h (1 Bft) O-NO 76 ° 0 min 0,000 mm 0,0 UV-I 0 W/m² 7,6 °C 4,8 km/h (1 Bft)
15.10.2016 00:05 11,7 °C 11,7 °C 76 % 1005,1 hPa 0,0 mm 2,8 km/h (1 Bft) O-SO 105 ° 0 min 0,000 mm 0,0 UV-I 0 W/m² 7,6 °C 4,8 km/h (1 Bft)
15.10.2016 00:06 11,8 °C 11,8 °C 75 % 1005,2 hPa 0,0 mm 2,4 km/h (1 Bft) O-NO 74 ° 0 min 0,000 mm 0,0 UV-I 0 W/m² 7,5 °C 4,8 km/h (1 Bft)
15.10.2016 00:07 11,8 °C 11,8 °C 75 % 1005,1 hPa 0,0 mm 4,2 km/h (1 Bft) NO 44 ° 0 min 0,000 mm 0,0 UV-I 0 W/m² 7,5 °C 6,4 km/h (2 Bft)
15.10.2016 00:08 11,8 °C 11,8 °C 75 % 1005,1 hPa 0,0 mm 3,0 km/h (1 Bft) O-NO 74 ° 0 min 0,000 mm 0,0 UV-I 0 W/m² 7,5 °C 4,8 km/h (1 Bft)
15.10.2016 00:09 11,8 °C 11,8 °C 75 % 1005,1 hPa 0,0 mm 1,5 km/h (1 Bft) O-NO 57 ° 0 min 0,000 mm 0,0 UV-I 0 W/m² 7,5 °C 3,2 km/h (1 Bft)
15.10.2016 00:10 11,8 °C 11,8 °C 74 % 1005,1 hPa 0,0 mm 3,7 km/h (1 Bft) N-NW 336 ° 0 min 0,000 mm 0,0 UV-I 0 W/m² 7,3 °C 8,0 km/h (2 Bft)
15.10.2016 00:11 11,8 °C 11,8 °C 74 % 1005,1 hPa 0,0 mm 7,4 km/h (2 Bft) O-NO 70 ° 0 min 0,000 mm 0,0 UV-I 0 W/m² 7,3 °C 11,3 km/h (2 Bft)
15.10.2016 00:12 11,9 °C 11,9 °C 74 % 1005,1 hPa 0,0 mm 5,4 km/h (1 Bft) SO 140 ° 0 min 0,000 mm 0,0 UV-I 0 W/m² 7,4 °C 9,7 km/h (2 Bft)
15.10.2016 00:13 11,9 °C 11,9 °C 74 % 1005,1 hPa 0,0 mm 3,4 km/h (1 Bft) O-NO 63 ° 0 min 0,000 mm 0,0 UV-I 0 W/m² 7,4 °C 8,0 km/h (2 Bft)
15.10.2016 00:14 12,1 °C 12,1 °C 73 % 1005,2 hPa 0,0 mm 3,6 km/h (1 Bft) O-SO 103 ° 0 min 0,000 mm 0,0 UV-I 0 W/m² 7,4 °C 8,0 km/h (2 Bft)
15.10.2016 00:15 12,1 °C 12,1 °C 72 % 1005,2 hPa 0,0 mm 3,8 km/h (1 Bft) N 355 ° 0 min 0,000 mm 0,0 UV-I 0 W/m² 7,2 °C 6,4 km/h (2 Bft)
15.10.2016 00:16 12,2 °C 12,2 °C 72 % 1005,2 hPa 0,0 mm 2,5 km/h (1 Bft) N-NW 331 ° 0 min 0,000 mm 0,0 UV-I 0 W/m² 7,3 °C 4,8 km/h (1 Bft)
15.10.2016 00:17 12,3 °C 12,3 °C 72 % 1005,2 hPa 0,0 mm 2,7 km/h (1 Bft) N-NO 20 ° 0 min 0,000 mm 0,0 UV-I 0 W/m² 7,4 °C 11,3 km/h (2 Bft)
15.10.2016 00:18 12,4 °C 12,4 °C 71 % 1005,2 hPa 0,0 mm 5,5 km/h (1 Bft) O-SO 113 ° 0 min 0,000 mm 0,0 UV-I 0 W/m² 7,3 °C 11,3 km/h (2 Bft)
15.10.2016 00:19 12,4 °C 12,4 °C 73 % 1005,2 hPa 0,0 mm 4,2 km/h (1 Bft) N-NW 344 ° 0 min 0,000 mm 0,0 UV-I 0 W/m² 7,7 °C 6,4 km/h (2 Bft)
15.10.2016 00:20 12,4 °C 12,4 °C 72 % 1005,2 hPa 0,0 mm 2,9 km/h (1 Bft) O-NO 67 ° 0 min 0,000 mm 0,0 UV-I 0 W/m² 7,5 °C 6,4 km/h (2 Bft)
15.10.2016 00:21 12,5 °C 12,5 °C 71 % 1005,3 hPa 0,0 mm 4,4 km/h (1 Bft) O 79 ° 0 min 0,000 mm 0,0 UV-I 0 W/m² 7,4 °C 9,7 km/h (2 Bft)
15.10.2016 00:22 12,6 °C 12,6 °C 71 % 1005,3 hPa 0,0 mm 4,4 km/h (1 Bft) N 9 ° 0 min 0,000 mm 0,0 UV-I 0 W/m² 7,5 °C 11,3 km/h (2 Bft)
15.10.2016 00:23 12,6 °C 12,6 °C 70 % 1005,3 hPa 0,0 mm 3,0 km/h (1 Bft) W-SW 254 ° 0 min 0,000 mm 0,0 UV-I 0 W/m² 7,3 °C 11,3 km/h (2 Bft)
15.10.2016 00:24 12,6 °C 12,6 °C 71 % 1005,4 hPa 0,0 mm 1,9 km/h (1 Bft) S 181 ° 0 min 0,000 mm 0,0 UV-I 0 W/m² 7,5 °C 4,8 km/h (1 Bft)
15.10.2016 00:25 12,6 °C 12,6 °C 70 % 1005,3 hPa 0,0 mm 4,3 km/h (1 Bft) S-SW 207 ° 0 min 0,000 mm 0,0 UV-I 0 W/m² 7,3 °C 8,0 km/h (2 Bft)
15.10.2016 00:26 12,7 °C 12,7 °C 69 % 1005,3 hPa 0,0 mm 4,8 km/h (1 Bft) SO 138 ° 0 min 0,000 mm 0,0 UV-I 0 W/m² 7,2 °C 8,0 km/h (2 Bft)
15.10.2016 00:27 12,7 °C 12,7 °C 71 % 1005,2 hPa 0,0 mm 2,5 km/h (1 Bft) N-NO 28 ° 0 min 0,000 mm 0,0 UV-I 0 W/m² 7,6 °C 3,2 km/h (1 Bft)
15.10.2016 00:28 12,8 °C 12,8 °C 70 % 1005,2 hPa 0,0 mm 3,3 km/h (1 Bft) N-NW 331 ° 0 min 0,000 mm 0,0 UV-I 0 W/m² 7,5 °C 4,8 km/h (1 Bft)
15.10.2016 00:29 12,8 °C 12,8 °C 69 % 1005,2 hPa 0,0 mm 2,8 km/h (1 Bft) N-NW 342 ° 0 min 0,000 mm 0,0 UV-I 0 W/m² 7,3 °C 8,0 km/h (2 Bft)
15.10.2016 00:30 12,9 °C 12,9 °C 67 % 1005,2 hPa 0,0 mm 4,3 km/h (1 Bft) O-NO 65 ° 0 min 0,000 mm 0,0 UV-I 0 W/m² 6,9 °C 8,0 km/h (2 Bft)
15.10.2016 00:31 12,9 °C 12,9 °C 69 % 1005,2 hPa 0,0 mm 4,1 km/h (1 Bft) N-NO 13 ° 0 min 0,000 mm 0,0 UV-I 0 W/m² 7,4 °C 6,4 km/h (2 Bft)
15.10.2016 00:32 13,0 °C 13,0 °C 68 % 1005,2 hPa 0,0 mm 4,4 km/h (1 Bft) O-SO 123 ° 0 min 0,000 mm 0,0 UV-I 0 W/m² 7,2 °C 11,3 km/h (2 Bft)
15.10.2016 00:33 13,0 °C 13,0 °C 68 % 1005,3 hPa 0,0 mm 4,2 km/h (1 Bft) W-SW 254 ° 0 min 0,000 mm 0,0 UV-I 0 W/m² 7,2 °C 12,9 km/h (3 Bft)
15.10.2016 00:34 12,9 °C 13,0 °C 68 % 1005,2 hPa 0,0 mm 4,7 km/h (1 Bft) O 100 ° 0 min 0,000 mm 0,0 UV-I 0 W/m² 7,1 °C 11,3 km/h (2 Bft)
15.10.2016 00:35 12,9 °C 12,9 °C 67 % 1005,2 hPa 0,0 mm 4,9 km/h (1 Bft) NW 324 ° 0 min 0,000 mm 0,0 UV-I 0 W/m² 6,9 °C 9,7 km/h (2 Bft)
15.10.2016 00:36 13,0 °C 13,0 °C 68 % 1005,2 hPa 0,0 mm 4,7 km/h (1 Bft) N 9 ° 0 min 0,000 mm 0,0 UV-I 0 W/m² 7,2 °C 11,3 km/h (2 Bft)
15.10.2016 00:37 13,0 °C 13,1 °C 68 % 1005,2 hPa 0,0 mm 3,3 km/h (1 Bft) N 355 ° 0 min 0,000 mm 0,0 UV-I 0 W/m² 7,2 °C 4,8 km/h (1 Bft)
15.10.2016 00:38 13,1 °C 13,1 °C 67 % 1005,2 hPa 0,0 mm 4,8 km/h (1 Bft) NW 319 ° 0 min 0,000 mm 0,0 UV-I 0 W/m² 7,1 °C 6,4 km/h (2 Bft)
15.10.2016 00:39 13,1 °C 13,1 °C 67 % 1005,2 hPa 0,0 mm 4,8 km/h (1 Bft) W 277 ° 0 min 0,000 mm 0,0 UV-I 0 W/m² 7,1 °C 8,0 km/h (2 Bft)
15.10.2016 00:40 13,1 °C 13,1 °C 68 % 1005,2 hPa 0,0 mm 4,1 km/h (1 Bft) W-SW 241 ° 0 min 0,000 mm 0,0 UV-I 0 W/m² 7,3 °C 6,4 km/h (2 Bft)
15.10.2016 00:41 13,1 °C 13,1 °C 67 % 1005,1 hPa 0,0 mm 1,9 km/h (1 Bft) N 360 ° 0 min 0,000 mm 0,0 UV-I 0 W/m² 7,1 °C 6,4 km/h (2 Bft)
15.10.2016 00:42 13,1 °C 13,1 °C 68 % 1005,3 hPa 0,0 mm 3,9 km/h (1 Bft) W 278 ° 0 min 0,000 mm 0,0 UV-I 0 W/m² 7,3 °C 6,4 km/h (2 Bft)
15.10.2016 00:43 13,2 °C 13,2 °C 65 % 1005,4 hPa 0,0 mm 6,6 km/h (2 Bft) W-NW 300 ° 0 min 0,000 mm 0,0 UV-I 0 W/m² 6,8 °C 11,3 km/h (2 Bft)
15.10.2016 00:44 13,2 °C 13,2 °C 67 % 1005,3 hPa 0,0 mm 4,3 km/h (1 Bft) NW 318 ° 0 min 0,000 mm 0,0 UV-I 0 W/m² 7,2 °C 8,0 km/h (2 Bft)
15.10.2016 00:45 13,4 °C 13,4 °C 64 % 1005,3 hPa 0,0 mm 3,4 km/h (1 Bft) W 268 ° 0 min 0,000 mm 0,0 UV-I 0 W/m² 6,7 °C 4,8 km/h (1 Bft)
15.10.2016 00:46 13,6 °C 13,6 °C 65 % 1005,3 hPa 0,0 mm 5,9 km/h (2 Bft) SW 225 ° 0 min 0,000 mm 0,0 UV-I 0 W/m² 7,1 °C 11,3 km/h (2 Bft)
15.10.2016 00:47 13,7 °C 13,7 °C 65 % 1005,3 hPa 0,0 mm 5,3 km/h (1 Bft) W-SW 254 ° 0 min 0,000 mm 0,0 UV-I 0 W/m² 7,2 °C 8,0 km/h (2 Bft)
15.10.2016 00:48 13,8 °C 13,8 °C 64 % 1005,3 hPa 0,0 mm 3,6 km/h (1 Bft) W 261 ° 0 min 0,000 mm 0,0 UV-I 0 W/m² 7,1 °C 4,8 km/h (1 Bft)
15.10.2016 00:49 13,9 °C 13,9 °C 62 % 1005,3 hPa 0,0 mm 4,4 km/h (1 Bft) W-NW 298 ° 0 min 0,000 mm 0,0 UV-I 0 W/m² 6,7 °C 6,4 km/h (2 Bft)
15.10.2016 00:50 14,1 °C 14,1 °C 61 % 1005,2 hPa 0,0 mm 5,4 km/h (1 Bft) W-SW 241 ° 0 min 0,000 mm 0,0 UV-I 0 W/m² 6,7 °C 8,0 km/h (2 Bft)
15.10.2016 00:51 14,2 °C 14,2 °C 62 % 1005,3 hPa 0,0 mm 8,1 km/h (2 Bft) W 267 ° 0 min 0,000 mm 0,0 UV-I 0 W/m² 7,0 °C 12,9 km/h (3 Bft)
15.10.2016 00:52 14,2 °C 14,2 °C 62 % 1005,4 hPa 0,0 mm 7,8 km/h (2 Bft) W 270 ° 0 min 0,000 mm 0,0 UV-I 0 W/m² 7,0 °C 11,3 km/h (2 Bft)
15.10.2016 00:53 14,3 °C 14,3 °C 61 % 1005,4 hPa 0,0 mm 8,4 km/h (2 Bft) W 267 ° 0 min 0,000 mm 0,0 UV-I 0 W/m² 6,9 °C 12,9 km/h (3 Bft)
15.10.2016 00:54 14,3 °C 14,3 °C 61 % 1005,5 hPa 0,0 mm 10,2 km/h (2 Bft) W-SW 254 ° 0 min 0,000 mm 0,0 UV-I 0 W/m² 6,9 °C 14,5 km/h (3 Bft)
15.10.2016 00:55 14,3 °C 14,3 °C 61 % 1005,6 hPa 0,0 mm 4,5 km/h (1 Bft) W 274 ° 0 min 0,000 mm 0,0 UV-I 0 W/m² 6,9 °C 6,4 km/h (2 Bft)
15.10.2016 00:56 14,3 °C 14,3 °C 61 % 1005,6 hPa 0,0 mm 7,1 km/h (2 Bft) S-SW 193 ° 0 min 0,000 mm 0,0 UV-I 0 W/m² 6,9 °C 11,3 km/h (2 Bft)
15.10.2016 00:57 14,4 °C 14,4 °C 62 % 1005,6 hPa 0,0 mm 2,5 km/h (1 Bft) S 190 ° 0 min 0,000 mm 0,0 UV-I 0 W/m² 7,2 °C 6,4 km/h (2 Bft)
15.10.2016 00:58 14,2 °C 14,4 °C 64 % 1005,6 hPa 0,0 mm 1,2 km/h (1 Bft) S 190 ° 0 min 0,000 mm 0,0 UV-I 0 W/m² 7,5 °C 3,2 km/h (1 Bft)
15.10.2016 00:59 14,1 °C 14,2 °C 64 % 1005,6 hPa 0,0 mm 0,5 km/h (0 Bft) S 190 ° 0 min 0,000 mm 0,0 UV-I 0 W/m² 7,4 °C 1,6 km/h (1 Bft)
15.10.2016 01:00 14,0 °C 14,1 °C 64 % 1005,6 hPa 0,0 mm 1,3 km/h (1 Bft) S 180 ° 0 min 0,000 mm 0,0 UV-I 0 W/m² 7,3 °C 3,2 km/h (1 Bft)
15.10.2016 01:01 13,8 °C 14,0 °C 65 % 1005,7 hPa 0,0 mm 1,5 km/h (1 Bft) W-SW 245 ° 0 min 0,025 mm 0,0 UV-I 0 W/m² 7,3 °C 3,2 km/h (1 Bft)
15.10.2016 01:02 13,7 °C 13,8 °C 66 % 1005,8 hPa 0,0 mm 1,4 km/h (1 Bft) SW 227 ° 0 min 0,000 mm 0,0 UV-I 0 W/m² 7,5 °C 3,2 km/h (1 Bft)
15.10.2016 01:03 13,5 °C 13,7 °C 67 % 1005,8 hPa 0,0 mm 2,0 km/h (1 Bft) SW 215 ° 0 min 0,000 mm 0,0 UV-I 0 W/m² 7,5 °C 4,8 km/h (1 Bft)
15.10.2016 01:04 13,4 °C 13,5 °C 67 % 1005,8 hPa 0,0 mm 1,2 km/h (1 Bft) SW 230 ° 0 min 0,000 mm 0,0 UV-I 0 W/m² 7,4 °C 3,2 km/h (1 Bft)
15.10.2016 01:05 13,4 °C 13,4 °C 66 % 1005,9 hPa 0,0 mm 2,6 km/h (1 Bft) NW 322 ° 0 min 0,000 mm 0,0 UV-I 0 W/m² 7,2 °C 3,2 km/h (1 Bft)
15.10.2016 01:06 13,3 °C 13,4 °C 66 % 1005,9 hPa 0,0 mm 2,1 km/h (1 Bft) S-SW 204 ° 0 min 0,000 mm 0,0 UV-I 0 W/m² 7,1 °C 3,2 km/h (1 Bft)
15.10.2016 01:07 13,4 °C 13,4 °C 66 % 1005,9 hPa 0,0 mm 4,6 km/h (1 Bft) W-SW 256 ° 0 min 0,000 mm 0,0 UV-I 0 W/m² 7,2 °C 6,4 km/h (2 Bft)
15.10.2016 01:08 13,4 °C 13,4 °C 64 % 1006,0 hPa 0,0 mm 4,0 km/h (1 Bft) W-SW 254 ° 0 min 0,000 mm 0,0 UV-I 0 W/m² 6,7 °C 6,4 km/h (2 Bft)
15.10.2016 01:09 13,5 °C 13,5 °C 64 % 1006,0 hPa 0,0 mm 5,9 km/h (2 Bft) W-SW 238 ° 0 min 0,000 mm 0,0 UV-I 0 W/m² 6,8 °C 12,9 km/h (3 Bft)
15.10.2016 01:10 13,6 °C 13,6 °C 64 % 1006,0 hPa 0,0 mm 7,4 km/h (2 Bft) SW 229 ° 0 min 0,000 mm 0,0 UV-I 0 W/m² 6,9 °C 11,3 km/h (2 Bft)
15.10.2016 01:11 13,7 °C 13,7 °C 64 % 1006,1 hPa 0,0 mm 6,6 km/h (2 Bft) S 184 ° 0 min 0,000 mm 0,0 UV-I 0 W/m² 7,0 °C 12,9 km/h (3 Bft)
15.10.2016 01:12 13,7 °C 13,7 °C 63 % 1006,1 hPa 0,0 mm 4,7 km/h (1 Bft) S-SW 206 ° 0 min 0,000 mm 0,0 UV-I 0 W/m² 6,8 °C 6,4 km/h (2 Bft)
15.10.2016 01:13 13,8 °C 13,8 °C 62 % 1006,2 hPa 0,0 mm 4,1 km/h (1 Bft) W-SW 241 ° 0 min 0,000 mm 0,0 UV-I 0 W/m² 6,6 °C 6,4 km/h (2 Bft)
15.10.2016 01:14 13,9 °C 13,9 °C 63 % 1006,1 hPa 0,0 mm 2,1 km/h (1 Bft) W-SW 238 ° 0 min 0,000 mm 0,0 UV-I 0 W/m² 7,0 °C 3,2 km/h (1 Bft)
15.10.2016 01:15 13,9 °C 13,9 °C 62 % 1006,1 hPa 0,0 mm 4,1 km/h (1 Bft) W 264 ° 0 min 0,000 mm 0,0 UV-I 0 W/m² 6,7 °C 6,4 km/h (2 Bft)
15.10.2016 01:16 14,0 °C 14,0 °C 62 % 1006,0 hPa 0,0 mm 3,0 km/h (1 Bft) W 264 ° 0 min 0,000 mm 0,0 UV-I 0 W/m² 6,8 °C 4,8 km/h (1 Bft)
15.10.2016 01:17 14,0 °C 14,0 °C 62 % 1006,0 hPa 0,0 mm 3,4 km/h (1 Bft) W-SW 246 ° 0 min 0,000 mm 0,0 UV-I 0 W/m² 6,8 °C 4,8 km/h (1 Bft)
15.10.2016 01:18 14,0 °C 14,0 °C 63 % 1006,0 hPa 0,0 mm 4,1 km/h (1 Bft) S-SW 205 ° 0 min 0,000 mm 0,0 UV-I 0 W/m² 7,1 °C 4,8 km/h (1 Bft)
15.10.2016 01:19 14,0 °C 14,1 °C 62 % 1006,1 hPa 0,0 mm 3,4 km/h (1 Bft) S-SW 196 ° 0 min 0,000 mm 0,0 UV-I 0 W/m² 6,8 °C 6,4 km/h (2 Bft)
15.10.2016 01:20 14,1 °C 14,1 °C 61 % 1006,0 hPa 0,0 mm 4,8 km/h (1 Bft) S-SW 203 ° 0 min 0,000 mm 0,0 UV-I 0 W/m² 6,7 °C 6,4 km/h (2 Bft)
15.10.2016 01:21 14,1 °C 14,1 °C 62 % 1006,0 hPa 0,0 mm 3,7 km/h (1 Bft) S-SW 202 ° 0 min 0,000 mm 0,0 UV-I 0 W/m² 6,9 °C 6,4 km/h (2 Bft)
15.10.2016 01:22 14,1 °C 14,1 °C 62 % 1006,0 hPa 0,0 mm 2,5 km/h (1 Bft) S-SW 202 ° 0 min 0,000 mm 0,0 UV-I 0 W/m² 6,9 °C 3,2 km/h (1 Bft)
15.10.2016 01:23 14,1 °C 14,1 °C 61 % 1006,1 hPa 0,0 mm 4,1 km/h (1 Bft) S 182 ° 0 min 0,000 mm 0,0 UV-I 0 W/m² 6,7 °C 6,4 km/h (2 Bft)
15.10.2016 01:24 14,2 °C 14,2 °C 61 % 1006,1 hPa 0,0 mm 7,5 km/h (2 Bft) S-SW 205 ° 0 min 0,000 mm 0,0 UV-I 0 W/m² 6,8 °C 9,7 km/h (2 Bft)
15.10.2016 01:25 14,2 °C 14,2 °C 61 % 1006,1 hPa 0,0 mm 6,0 km/h (2 Bft) S-SW 201 ° 0 min 0,000 mm 0,0 UV-I 0 W/m² 6,8 °C 8,0 km/h (2 Bft)
15.10.2016 01:26 14,3 °C 14,3 °C 60 % 1006,1 hPa 0,0 mm 4,5 km/h (1 Bft) S-SW 207 ° 0 min 0,000 mm 0,0 UV-I 0 W/m² 6,6 °C 6,4 km/h (2 Bft)
15.10.2016 01:27 14,3 °C 14,3 °C 60 % 1006,2 hPa 0,0 mm 4,5 km/h (1 Bft) S-SW 197 ° 0 min 0,000 mm 0,0 UV-I 0 W/m² 6,6 °C 6,4 km/h (2 Bft)
15.10.2016 01:28 14,3 °C 14,3 °C 61 % 1006,2 hPa 0,0 mm 2,3 km/h (1 Bft) S-SW 209 ° 0 min 0,000 mm 0,0 UV-I 0 W/m² 6,9 °C 3,2 km/h (1 Bft)
15.10.2016 01:29 14,3 °C 14,3 °C 60 % 1006,1 hPa 0,0 mm 1,1 km/h (1 Bft) S-SW 208 ° 0 min 0,000 mm 0,0 UV-I 0 W/m² 6,6 °C 3,2 km/h (1 Bft)
15.10.2016 01:30 14,2 °C 14,3 °C 61 % 1006,1 hPa 0,0 mm 0,0 km/h (0 Bft) S-SW 208 ° 0 min 0,000 mm 0,0 UV-I 0 W/m² 6,8 °C 0,0 km/h (0 Bft)
15.10.2016 01:31 14,1 °C 14,2 °C 63 % 1006,1 hPa 0,0 mm 0,2 km/h (0 Bft) S-SW 208 ° 0 min 0,000 mm 0,0 UV-I 0 W/m² 7,2 °C 1,6 km/h (1 Bft)
15.10.2016 01:32 13,9 °C 14,1 °C 64 % 1006,0 hPa 0,0 mm 0,5 km/h (0 Bft) S-SW 209 ° 0 min 0,000 mm 0,0 UV-I 0 W/m² 7,2 °C 1,6 km/h (1 Bft)
15.10.2016 01:33 13,7 °C 13,9 °C 65 % 1006,1 hPa 0,0 mm 1,9 km/h (1 Bft) S-SW 209 ° 0 min 0,000 mm 0,0 UV-I 0 W/m² 7,2 °C 3,2 km/h (1 Bft)
15.10.2016 01:34 13,5 °C 13,7 °C 66 % 1006,1 hPa 0,0 mm 0,8 km/h (0 Bft) S-SW 209 ° 0 min 0,000 mm 0,0 UV-I 0 W/m² 7,3 °C 3,2 km/h (1 Bft)
15.10.2016 01:35 13,3 °C 13,5 °C 67 % 1006,1 hPa 0,0 mm 2,6 km/h (1 Bft) S-SW 196 ° 0 min 0,000 mm 0,0 UV-I 0 W/m² 7,3 °C 3,2 km/h (1 Bft)
15.10.2016 01:36 13,2 °C 13,3 °C 67 % 1006,1 hPa 0,0 mm 1,9 km/h (1 Bft) S-SW 196 ° 0 min 0,000 mm 0,0 UV-I 0 W/m² 7,2 °C 3,2 km/h (1 Bft)
15.10.2016 01:37 13,1 °C 13,2 °C 67 % 1006,2 hPa 0,0 mm 2,3 km/h (1 Bft) SW 227 ° 0 min 0,000 mm 0,0 UV-I 0 W/m² 7,1 °C 3,2 km/h (1 Bft)
15.10.2016 01:38 13,0 °C 13,1 °C 68 % 1006,3 hPa 0,0 mm 2,5 km/h (1 Bft) SW 221 ° 0 min 0,000 mm 0,0 UV-I 0 W/m² 7,2 °C 3,2 km/h (1 Bft)
15.10.2016 01:39 12,9 °C 13,0 °C 67 % 1006,3 hPa 0,0 mm 1,0 km/h (0 Bft) SW 221 ° 0 min 0,000 mm 0,0 UV-I 0 W/m² 6,9 °C 3,2 km/h (1 Bft)
15.10.2016 01:40 12,8 °C 12,9 °C 69 % 1006,3 hPa 0,0 mm 1,0 km/h (0 Bft) SW 220 ° 0 min 0,000 mm 0,0 UV-I 0 W/m² 7,3 °C 3,2 km/h (1 Bft)
15.10.2016 01:41 12,7 °C 12,8 °C 70 % 1006,3 hPa 0,0 mm 1,8 km/h (1 Bft) SW 220 ° 0 min 0,000 mm 0,0 UV-I 0 W/m² 7,4 °C 3,2 km/h (1 Bft)
15.10.2016 01:42 12,7 °C 12,7 °C 70 % 1006,4 hPa 0,0 mm 1,1 km/h (1 Bft) SW 220 ° 0 min 0,000 mm 0,0 UV-I 0 W/m² 7,4 °C 1,6 km/h (1 Bft)
15.10.2016 01:43 12,7 °C 12,7 °C 68 % 1006,4 hPa 0,0 mm 2,2 km/h (1 Bft) SW 220 ° 0 min 0,000 mm 0,0 UV-I 0 W/m² 6,9 °C 3,2 km/h (1 Bft)
15.10.2016 01:44 12,7 °C 12,7 °C 69 % 1006,5 hPa 0,0 mm 2,3 km/h (1 Bft) SW 220 ° 0 min 0,000 mm 0,0 UV-I 0 W/m² 7,2 °C 4,8 km/h (1 Bft)
15.10.2016 01:45 12,7 °C 12,7 °C 69 % 1006,4 hPa 0,0 mm 3,5 km/h (1 Bft) SW 232 ° 0 min 0,000 mm 0,0 UV-I 0 W/m² 7,2 °C 4,8 km/h (1 Bft)
15.10.2016 01:46 12,8 °C 12,8 °C 69 % 1006,4 hPa 0,0 mm 3,9 km/h (1 Bft) SW 223 ° 0 min 0,000 mm 0,0 UV-I 0 W/m² 7,3 °C 4,8 km/h (1 Bft)
15.10.2016 01:47 12,8 °C 12,8 °C 69 % 1006,4 hPa 0,0 mm 2,5 km/h (1 Bft) S-SW 211 ° 0 min 0,000 mm 0,0 UV-I 0 W/m² 7,3 °C 4,8 km/h (1 Bft)
15.10.2016 01:48 12,8 °C 12,8 °C 69 % 1006,4 hPa 0,0 mm 1,1 km/h (1 Bft) S-SW 211 ° 0 min 0,000 mm 0,0 UV-I 0 W/m² 7,3 °C 3,2 km/h (1 Bft)
15.10.2016 01:49 12,8 °C 12,9 °C 70 % 1006,4 hPa 0,0 mm 0,4 km/h (0 Bft) S-SW 202 ° 0 min 0,000 mm 0,0 UV-I 0 W/m² 7,5 °C 1,6 km/h (1 Bft)
15.10.2016 01:50 12,8 °C 12,9 °C 70 % 1006,3 hPa 0,0 mm 2,1 km/h (1 Bft) S-SW 196 ° 0 min 0,000 mm 0,0 UV-I 0 W/m² 7,5 °C 4,8 km/h (1 Bft)
15.10.2016 01:51 12,9 °C 12,9 °C 68 % 1006,3 hPa 0,0 mm 2,7 km/h (1 Bft) S-SW 196 ° 0 min 0,000 mm 0,0 UV-I 0 W/m² 7,1 °C 4,8 km/h (1 Bft)
15.10.2016 01:52 12,9 °C 12,9 °C 69 % 1006,2 hPa 0,0 mm 1,3 km/h (1 Bft) S-SW 196 ° 0 min 0,000 mm 0,0 UV-I 0 W/m² 7,4 °C 1,6 km/h (1 Bft)
15.10.2016 01:53 12,8 °C 12,9 °C 69 % 1006,2 hPa 0,0 mm 0,1 km/h (0 Bft) S-SW 196 ° 0 min 0,000 mm 0,0 UV-I 0 W/m² 7,3 °C 1,6 km/h (1 Bft)
15.10.2016 01:54 12,6 °C 12,8 °C 71 % 1006,1 hPa 0,0 mm 0,0 km/h (0 Bft) S-SW 196 ° 0 min 0,000 mm 0,0 UV-I 0 W/m² 7,5 °C 0,0 km/h (0 Bft)
15.10.2016 01:55 12,4 °C 12,6 °C 71 % 1006,1 hPa 0,0 mm 0,4 km/h (0 Bft) S-SW 196 ° 0 min 0,000 mm 0,0 UV-I 0 W/m² 7,3 °C 1,6 km/h (1 Bft)
15.10.2016 01:56 12,4 °C 12,4 °C 71 % 1006,1 hPa 0,0 mm 0,7 km/h (0 Bft) S-SW 196 ° 0 min 0,000 mm 0,0 UV-I 0 W/m² 7,3 °C 1,6 km/h (1 Bft)
15.10.2016 01:57 12,4 °C 12,4 °C 70 % 1006,0 hPa 0,0 mm 2,3 km/h (1 Bft) S-SW 196 ° 0 min 0,000 mm 0,0 UV-I 0 W/m² 7,1 °C 3,2 km/h (1 Bft)
15.10.2016 01:58 12,5 °C 12,5 °C 70 % 1006,0 hPa 0,0 mm 3,9 km/h (1 Bft) S-SO 167 ° 0 min 0,000 mm 0,0 UV-I 0 W/m² 7,2 °C 6,4 km/h (2 Bft)
15.10.2016 01:59 12,7 °C 12,7 °C 69 % 1006,1 hPa 0,0 mm 6,1 km/h (2 Bft) S-SO 163 ° 0 min 0,000 mm 0,0 UV-I 0 W/m² 7,2 °C 8,0 km/h (2 Bft)
15.10.2016 02:00 12,8 °C 12,8 °C 69 % 1006,1 hPa 0,0 mm 6,0 km/h (2 Bft) S-SO 163 ° 0 min 0,000 mm 0,0 UV-I 0 W/m² 7,3 °C 8,0 km/h (2 Bft)
15.10.2016 02:01 12,8 °C 12,8 °C 70 % 1006,1 hPa 0,0 mm 0,6 km/h (0 Bft) S-SO 163 ° 0 min 0,025 mm 0,0 UV-I 0 W/m² 7,5 °C 1,6 km/h (1 Bft)
15.10.2016 02:02 12,8 °C 12,8 °C 70 % 1006,1 hPa 0,0 mm 1,6 km/h (1 Bft) S-SO 157 ° 0 min 0,000 mm 0,0 UV-I 0 W/m² 7,5 °C 3,2 km/h (1 Bft)
15.10.2016 02:03 12,7 °C 12,7 °C 70 % 1006,1 hPa 0,0 mm 0,0 km/h (0 Bft) S-SO 157 ° 0 min 0,000 mm 0,0 UV-I 0 W/m² 7,4 °C 1,6 km/h (1 Bft)
15.10.2016 02:04 12,6 °C 12,7 °C 70 % 1006,1 hPa 0,0 mm 0,0 km/h (0 Bft) S-SO 157 ° 0 min 0,000 mm 0,0 UV-I 0 W/m² 7,3 °C 1,6 km/h (1 Bft)
15.10.2016 02:06 12,2 °C 12,7 °C 72 % 1006,1 hPa 0,0 mm 1,3 km/h (1 Bft) S-SO 165 ° 0 min 0,001 mm 0,0 UV-I 0 W/m² 7,3 °C 1,6 km/h (1 Bft)
15.10.2016 02:07 12,1 °C 12,2 °C 74 % 1006,1 hPa 0,0 mm 2,1 km/h (1 Bft) S-SO 165 ° 0 min 0,000 mm 0,0 UV-I 0 W/m² 7,6 °C 3,2 km/h (1 Bft)
15.10.2016 02:08 12,0 °C 12,1 °C 73 % 1006,0 hPa 0,0 mm 2,1 km/h (1 Bft) S-SO 165 ° 0 min 0,000 mm 0,0 UV-I 0 W/m² 7,3 °C 3,2 km/h (1 Bft)
15.10.2016 02:09 12,0 °C 12,0 °C 73 % 1006,0 hPa 0,0 mm 0,6 km/h (0 Bft) S-SO 165 ° 0 min 0,000 mm 0,0 UV-I 0 W/m² 7,3 °C 1,6 km/h (1 Bft)
15.10.2016 02:10 11,9 °C 12,0 °C 75 % 1006,1 hPa 0,0 mm 0,0 km/h (0 Bft) S-SO 165 ° 0 min 0,000 mm 0,0 UV-I 0 W/m² 7,6 °C 0,0 km/h (0 Bft)
15.10.2016 02:11 11,7 °C 11,9 °C 75 % 1006,1 hPa 0,0 mm 0,0 km/h (0 Bft) S-SO 165 ° 0 min 0,000 mm 0,0 UV-I 0 W/m² 7,4 °C 0,0 km/h (0 Bft)
15.10.2016 02:12 11,6 °C 11,7 °C 75 % 1006,1 hPa 0,0 mm 0,5 km/h (0 Bft) S-SO 165 ° 0 min 0,000 mm 0,0 UV-I 0 W/m² 7,3 °C 1,6 km/h (1 Bft)
15.10.2016 02:13 11,4 °C 11,6 °C 76 % 1006,1 hPa 0,0 mm 0,0 km/h (0 Bft) S-SO 165 ° 0 min 0,000 mm 0,0 UV-I 0 W/m² 7,3 °C 0,0 km/h (0 Bft)
15.10.2016 02:14 11,2 °C 11,4 °C 77 % 1006,2 hPa 0,0 mm 0,0 km/h (0 Bft) S-SO 165 ° 0 min 0,000 mm 0,0 UV-I 0 W/m² 7,3 °C 0,0 km/h (0 Bft)
15.10.2016 02:15 11,1 °C 11,2 °C 78 % 1006,1 hPa 0,0 mm 0,0 km/h (0 Bft) S-SO 165 ° 0 min 0,000 mm 0,0 UV-I 0 W/m² 7,4 °C 0,0 km/h (0 Bft)
15.10.2016 02:16 11,0 °C 11,1 °C 78 % 1006,1 hPa 0,0 mm 0,0 km/h (0 Bft) S-SO 165 ° 0 min 0,000 mm 0,0 UV-I 0 W/m² 7,3 °C 0,0 km/h (0 Bft)
15.10.2016 02:17 11,0 °C 11,0 °C 79 % 1006,2 hPa 0,0 mm 0,3 km/h (0 Bft) S-SO 165 ° 0 min 0,000 mm 0,0 UV-I 0 W/m² 7,5 °C 1,6 km/h (1 Bft)
15.10.2016 02:18 10,9 °C 11,0 °C 79 % 1006,2 hPa 0,0 mm 2,7 km/h (1 Bft) S-SO 166 ° 0 min 0,000 mm 0,0 UV-I 0 W/m² 7,4 °C 4,8 km/h (1 Bft)
15.10.2016 02:19 10,9 °C 10,9 °C 79 % 1006,3 hPa 0,0 mm 1,8 km/h (1 Bft) S-SO 166 ° 0 min 0,000 mm 0,0 UV-I 0 W/m² 7,4 °C 4,8 km/h (1 Bft)
15.10.2016 02:20 10,8 °C 10,9 °C 79 % 1006,3 hPa 0,0 mm 1,3 km/h (1 Bft) S-SO 166 ° 0 min 0,000 mm 0,0 UV-I 0 W/m² 7,3 °C 1,6 km/h (1 Bft)
15.10.2016 02:21 10,8 °C 10,8 °C 78 % 1006,3 hPa 0,0 mm 2,9 km/h (1 Bft) S-SO 166 ° 0 min 0,000 mm 0,0 UV-I 0 W/m² 7,1 °C 4,8 km/h (1 Bft)
15.10.2016 02:22 10,9 °C 10,9 °C 78 % 1006,3 hPa 0,0 mm 3,0 km/h (1 Bft) S-SO 166 ° 0 min 0,000 mm 0,0 UV-I 0 W/m² 7,2 °C 4,8 km/h (1 Bft)
15.10.2016 02:23 10,9 °C 10,9 °C 79 % 1006,3 hPa 0,0 mm 0,3 km/h (0 Bft) S-SO 166 ° 0 min 0,000 mm 0,0 UV-I 0 W/m² 7,4 °C 1,6 km/h (1 Bft)
15.10.2016 02:24 10,9 °C 10,9 °C 80 % 1006,3 hPa 0,0 mm 1,9 km/h (1 Bft) S-SO 166 ° 0 min 0,000 mm 0,0 UV-I 0 W/m² 7,6 °C 4,8 km/h (1 Bft)
15.10.2016 02:25 10,9 °C 10,9 °C 80 % 1006,2 hPa 0,0 mm 1,1 km/h (1 Bft) S-SO 166 ° 0 min 0,000 mm 0,0 UV-I 0 W/m² 7,6 °C 1,6 km/h (1 Bft)
15.10.2016 02:26 10,8 °C 10,9 °C 80 % 1006,2 hPa 0,0 mm 0,0 km/h (0 Bft) S-SO 166 ° 0 min 0,000 mm 0,0 UV-I 0 W/m² 7,5 °C 0,0 km/h (0 Bft)
15.10.2016 02:27 10,7 °C 10,8 °C 81 % 1006,2 hPa 0,0 mm 0,2 km/h (0 Bft) S-SO 166 ° 0 min 0,000 mm 0,0 UV-I 0 W/m² 7,6 °C 1,6 km/h (1 Bft)
15.10.2016 02:28 10,7 °C 10,7 °C 81 % 1006,2 hPa 0,0 mm 0,6 km/h (0 Bft) S-SO 166 ° 0 min 0,000 mm 0,0 UV-I 0 W/m² 7,6 °C 1,6 km/h (1 Bft)
15.10.2016 02:29 10,7 °C 10,7 °C 80 % 1006,1 hPa 0,0 mm 2,6 km/h (1 Bft) S-SO 166 ° 0 min 0,000 mm 0,0 UV-I 0 W/m² 7,4 °C 4,8 km/h (1 Bft)
15.10.2016 02:30 10,8 °C 10,8 °C 79 % 1006,1 hPa 0,0 mm 4,6 km/h (1 Bft) S-SO 166 ° 0 min 0,000 mm 0,0 UV-I 0 W/m² 7,3 °C 6,4 km/h (2 Bft)
15.10.2016 02:31 10,8 °C 10,8 °C 77 % 1006,2 hPa 0,0 mm 5,2 km/h (1 Bft) S 182 ° 0 min 0,000 mm 0,0 UV-I 0 W/m² 6,9 °C 6,4 km/h (2 Bft)
15.10.2016 02:32 11,0 °C 11,0 °C 77 % 1006,3 hPa 0,0 mm 5,6 km/h (1 Bft) S 187 ° 0 min 0,000 mm 0,0 UV-I 0 W/m² 7,1 °C 6,4 km/h (2 Bft)
15.10.2016 02:33 11,2 °C 11,2 °C 76 % 1006,4 hPa 0,0 mm 6,1 km/h (2 Bft) S 190 ° 0 min 0,000 mm 0,0 UV-I 0 W/m² 7,1 °C 8,0 km/h (2 Bft)
15.10.2016 02:34 11,4 °C 11,4 °C 76 % 1006,5 hPa 0,0 mm 5,8 km/h (2 Bft) S-SW 194 ° 0 min 0,000 mm 0,0 UV-I 0 W/m² 7,3 °C 8,0 km/h (2 Bft)
15.10.2016 02:35 11,6 °C 11,6 °C 75 % 1006,5 hPa 0,0 mm 5,4 km/h (1 Bft) S 184 ° 0 min 0,000 mm 0,0 UV-I 0 W/m² 7,3 °C 8,0 km/h (2 Bft)
15.10.2016 02:36 11,7 °C 11,7 °C 73 % 1006,6 hPa 0,0 mm 4,8 km/h (1 Bft) S 188 ° 0 min 0,000 mm 0,0 UV-I 0 W/m² 7,0 °C 8,0 km/h (2 Bft)
15.10.2016 02:37 11,8 °C 11,8 °C 73 % 1006,7 hPa 0,0 mm 4,6 km/h (1 Bft) S 173 ° 0 min 0,000 mm 0,0 UV-I 0 W/m² 7,1 °C 8,0 km/h (2 Bft)
15.10.2016 02:38 12,0 °C 12,0 °C 74 % 1006,8 hPa 0,0 mm 4,6 km/h (1 Bft) S 173 ° 0 min 0,000 mm 0,0 UV-I 0 W/m² 7,5 °C 8,0 km/h (2 Bft)
15.10.2016 02:39 12,1 °C 12,1 °C 74 % 1006,8 hPa 0,0 mm 3,6 km/h (1 Bft) S 178 ° 0 min 0,000 mm 0,0 UV-I 0 W/m² 7,6 °C 8,0 km/h (2 Bft)
15.10.2016 02:40 12,0 °C 12,1 °C 74 % 1006,8 hPa 0,0 mm 1,7 km/h (1 Bft) S 178 ° 0 min 0,000 mm 0,0 UV-I 0 W/m² 7,5 °C 3,2 km/h (1 Bft)
15.10.2016 02:41 12,1 °C 12,1 °C 73 % 1006,8 hPa 0,0 mm 2,4 km/h (1 Bft) S-SW 202 ° 0 min 0,000 mm 0,0 UV-I 0 W/m² 7,4 °C 6,4 km/h (2 Bft)
15.10.2016 02:42 12,1 °C 12,1 °C 73 % 1006,9 hPa 0,0 mm 1,5 km/h (1 Bft) S-SW 204 ° 0 min 0,000 mm 0,0 UV-I 0 W/m² 7,4 °C 6,4 km/h (2 Bft)
15.10.2016 02:43 11,9 °C 12,1 °C 74 % 1006,9 hPa 0,0 mm 3,4 km/h (1 Bft) W-NW 286 ° 0 min 0,000 mm 0,0 UV-I 0 W/m² 7,4 °C 4,8 km/h (1 Bft)
15.10.2016 02:44 11,7 °C 11,9 °C 75 % 1006,9 hPa 0,0 mm 2,5 km/h (1 Bft) W-NW 286 ° 0 min 0,000 mm 0,0 UV-I 0 W/m² 7,4 °C 3,2 km/h (1 Bft)
15.10.2016 02:45 11,3 °C 11,7 °C 77 % 1006,9 hPa 0,0 mm 0,1 km/h (0 Bft) W-NW 286 ° 0 min 0,000 mm 0,0 UV-I 0 W/m² 7,4 °C 1,6 km/h (1 Bft)
15.10.2016 02:46 10,9 °C 11,3 °C 78 % 1006,9 hPa 0,0 mm 0,1 km/h (0 Bft) W-NW 286 ° 0 min 0,000 mm 0,0 UV-I 0 W/m² 7,2 °C 1,6 km/h (1 Bft)
15.10.2016 02:47 10,6 °C 10,9 °C 79 % 1006,9 hPa 0,0 mm 0,7 km/h (0 Bft) W-NW 286 ° 0 min 0,000 mm 0,0 UV-I 0 W/m² 7,1 °C 1,6 km/h (1 Bft)
15.10.2016 02:48 10,4 °C 10,6 °C 81 % 1006,9 hPa 0,0 mm 1,4 km/h (1 Bft) W-NW 286 ° 0 min 0,000 mm 0,0 UV-I 0 W/m² 7,3 °C 1,6 km/h (1 Bft)
15.10.2016 02:49 10,2 °C 10,4 °C 81 % 1006,9 hPa 0,0 mm 0,6 km/h (0 Bft) W-NW 286 ° 0 min 0,000 mm 0,0 UV-I 0 W/m² 7,1 °C 1,6 km/h (1 Bft)
15.10.2016 02:50 10,1 °C 10,2 °C 82 % 1006,9 hPa 0,0 mm 0,6 km/h (0 Bft) W-NW 286 ° 0 min 0,000 mm 0,0 UV-I 0 W/m² 7,2 °C 1,6 km/h (1 Bft)
15.10.2016 02:51 10,0 °C 10,1 °C 83 % 1006,9 hPa 0,0 mm 1,3 km/h (1 Bft) W-NW 286 ° 0 min 0,000 mm 0,0 UV-I 0 W/m² 7,2 °C 3,2 km/h (1 Bft)
15.10.2016 02:52 10,0 °C 10,0 °C 83 % 1006,9 hPa 0,0 mm 1,7 km/h (1 Bft) W-NW 286 ° 0 min 0,000 mm 0,0 UV-I 0 W/m² 7,2 °C 3,2 km/h (1 Bft)
15.10.2016 02:53 10,0 °C 10,0 °C 83 % 1006,9 hPa 0,0 mm 1,7 km/h (1 Bft) W-NW 286 ° 0 min 0,000 mm 0,0 UV-I 0 W/m² 7,2 °C 3,2 km/h (1 Bft)
15.10.2016 02:54 10,1 °C 10,1 °C 84 % 1007,0 hPa 0,0 mm 2,1 km/h (1 Bft) W-NW 286 ° 0 min 0,000 mm 0,0 UV-I 0 W/m² 7,5 °C 3,2 km/h (1 Bft)
15.10.2016 02:55 10,2 °C 10,2 °C 84 % 1006,9 hPa 0,0 mm 1,3 km/h (1 Bft) W-NW 286 ° 0 min 0,000 mm 0,0 UV-I 0 W/m² 7,6 °C 1,6 km/h (1 Bft)
15.10.2016 02:56 10,2 °C 10,2 °C 83 % 1006,9 hPa 0,0 mm 1,3 km/h (1 Bft) W-NW 286 ° 0 min 0,000 mm 0,0 UV-I 0 W/m² 7,4 °C 1,6 km/h (1 Bft)
15.10.2016 02:57 10,3 °C 10,3 °C 83 % 1006,9 hPa 0,0 mm 0,1 km/h (0 Bft) W-NW 286 ° 0 min 0,000 mm 0,0 UV-I 0 W/m² 7,5 °C 1,6 km/h (1 Bft)
15.10.2016 02:58 10,3 °C 10,3 °C 83 % 1006,9 hPa 0,0 mm 0,9 km/h (0 Bft) W-NW 286 ° 0 min 0,000 mm 0,0 UV-I 0 W/m² 7,5 °C 1,6 km/h (1 Bft)
15.10.2016 02:59 10,5 °C 10,5 °C 82 % 1006,8 hPa 0,0 mm 2,0 km/h (1 Bft) W-NW 286 ° 0 min 0,000 mm 0,0 UV-I 0 W/m² 7,6 °C 3,2 km/h (1 Bft)
15.10.2016 03:00 10,6 °C 10,6 °C 81 % 1006,8 hPa 0,0 mm 2,8 km/h (1 Bft) W-NW 286 ° 0 min 0,000 mm 0,0 UV-I 0 W/m² 7,5 °C 3,2 km/h (1 Bft)
15.10.2016 03:01 10,8 °C 10,8 °C 80 % 1006,8 hPa 0,0 mm 2,3 km/h (1 Bft) W-NW 284 ° 0 min 0,025 mm 0,0 UV-I 0 W/m² 7,5 °C 3,2 km/h (1 Bft)
15.10.2016 03:02 10,9 °C 10,9 °C 79 % 1006,8 hPa 0,0 mm 2,3 km/h (1 Bft) W-SW 257 ° 0 min 0,000 mm 0,0 UV-I 0 W/m² 7,4 °C 3,2 km/h (1 Bft)
15.10.2016 03:03 11,1 °C 11,1 °C 78 % 1006,8 hPa 0,0 mm 1,9 km/h (1 Bft) W-SW 248 ° 0 min 0,000 mm 0,0 UV-I 0 W/m² 7,4 °C 4,8 km/h (1 Bft)
15.10.2016 03:04 11,2 °C 11,2 °C 78 % 1006,8 hPa 0,0 mm 2,1 km/h (1 Bft) W-SW 242 ° 0 min 0,000 mm 0,0 UV-I 0 W/m² 7,5 °C 3,2 km/h (1 Bft)
15.10.2016 03:05 11,3 °C 11,3 °C 77 % 1006,8 hPa 0,0 mm 1,7 km/h (1 Bft) W-SW 242 ° 0 min 0,000 mm 0,0 UV-I 0 W/m² 7,4 °C 3,2 km/h (1 Bft)
15.10.2016 03:06 11,3 °C 11,3 °C 78 % 1006,8 hPa 0,0 mm 0,8 km/h (0 Bft) W-SW 242 ° 0 min 0,000 mm 0,0 UV-I 0 W/m² 7,6 °C 1,6 km/h (1 Bft)
15.10.2016 03:07 11,4 °C 11,4 °C 77 % 1006,8 hPa 0,0 mm 1,6 km/h (1 Bft) W-SW 242 ° 0 min 0,000 mm 0,0 UV-I 0 W/m² 7,5 °C 3,2 km/h (1 Bft)
15.10.2016 03:08 11,4 °C 11,4 °C 78 % 1006,8 hPa 0,0 mm 0,2 km/h (0 Bft) W-SW 242 ° 0 min 0,000 mm 0,0 UV-I 0 W/m² 7,7 °C 1,6 km/h (1 Bft)
15.10.2016 03:09 11,4 °C 11,4 °C 78 % 1006,8 hPa 0,0 mm 0,0 km/h (0 Bft) W-SW 242 ° 0 min 0,000 mm 0,0 UV-I 0 W/m² 7,7 °C 0,0 km/h (0 Bft)
15.10.2016 03:10 11,3 °C 11,4 °C 79 % 1006,7 hPa 0,0 mm 0,0 km/h (0 Bft) W-SW 242 ° 0 min 0,000 mm 0,0 UV-I 0 W/m² 7,8 °C 0,0 km/h (0 Bft)
15.10.2016 03:11 11,2 °C 11,3 °C 79 % 1006,8 hPa 0,0 mm 0,0 km/h (0 Bft) W-SW 242 ° 0 min 0,000 mm 0,0 UV-I 0 W/m² 7,7 °C 0,0 km/h (0 Bft)
15.10.2016 03:12 11,1 °C 11,2 °C 80 % 1006,7 hPa 0,0 mm 0,1 km/h (0 Bft) W-SW 242 ° 0 min 0,000 mm 0,0 UV-I 0 W/m² 7,8 °C 1,6 km/h (1 Bft)
15.10.2016 03:13 11,0 °C 11,1 °C 80 % 1006,7 hPa 0,0 mm 0,0 km/h (0 Bft) W-SW 242 ° 0 min 0,000 mm 0,0 UV-I 0 W/m² 7,7 °C 0,0 km/h (0 Bft)
15.10.2016 03:14 11,1 °C 11,1 °C 79 % 1006,7 hPa 0,0 mm 0,5 km/h (0 Bft) W-SW 242 ° 0 min 0,000 mm 0,0 UV-I 0 W/m² 7,6 °C 1,6 km/h (1 Bft)
15.10.2016 03:15 11,1 °C 11,1 °C 79 % 1006,8 hPa 0,0 mm 1,8 km/h (1 Bft) SW 221 ° 0 min 0,000 mm 0,0 UV-I 0 W/m² 7,6 °C 3,2 km/h (1 Bft)
15.10.2016 03:16 11,2 °C 11,2 °C 79 % 1006,8 hPa 0,0 mm 1,2 km/h (1 Bft) SW 217 ° 0 min 0,000 mm 0,0 UV-I 0 W/m² 7,7 °C 3,2 km/h (1 Bft)
15.10.2016 03:17 11,2 °C 11,2 °C 79 % 1006,9 hPa 0,0 mm 2,1 km/h (1 Bft) SW 217 ° 0 min 0,000 mm 0,0 UV-I 0 W/m² 7,7 °C 3,2 km/h (1 Bft)
15.10.2016 03:18 11,2 °C 11,2 °C 79 % 1006,9 hPa 0,0 mm 1,0 km/h (0 Bft) SW 217 ° 0 min 0,000 mm 0,0 UV-I 0 W/m² 7,7 °C 1,6 km/h (1 Bft)
15.10.2016 03:19 11,3 °C 11,3 °C 79 % 1006,9 hPa 0,0 mm 0,4 km/h (0 Bft) SW 217 ° 0 min 0,000 mm 0,0 UV-I 0 W/m² 7,8 °C 1,6 km/h (1 Bft)
15.10.2016 03:20 11,3 °C 11,3 °C 79 % 1006,9 hPa 0,0 mm 0,0 km/h (0 Bft) SW 218 ° 0 min 0,000 mm 0,0 UV-I 0 W/m² 7,8 °C 0,0 km/h (0 Bft)
15.10.2016 03:21 11,2 °C 11,3 °C 80 % 1007,0 hPa 0,0 mm 0,7 km/h (0 Bft) SW 218 ° 0 min 0,000 mm 0,0 UV-I 0 W/m² 7,9 °C 1,6 km/h (1 Bft)
15.10.2016 03:22 11,0 °C 11,2 °C 80 % 1007,0 hPa 0,0 mm 1,8 km/h (1 Bft) SW 218 ° 0 min 0,000 mm 0,0 UV-I 0 W/m² 7,7 °C 3,2 km/h (1 Bft)
15.10.2016 03:23 10,8 °C 11,0 °C 81 % 1007,1 hPa 0,0 mm 1,0 km/h (0 Bft) SW 218 ° 0 min 0,000 mm 0,0 UV-I 0 W/m² 7,7 °C 1,6 km/h (1 Bft)
15.10.2016 03:24 10,6 °C 10,8 °C 81 % 1007,1 hPa 0,0 mm 0,3 km/h (0 Bft) SW 218 ° 0 min 0,000 mm 0,0 UV-I 0 W/m² 7,5 °C 1,6 km/h (1 Bft)
15.10.2016 03:25 10,4 °C 10,6 °C 82 % 1007,1 hPa 0,0 mm 0,1 km/h (0 Bft) SW 218 ° 0 min 0,000 mm 0,0 UV-I 0 W/m² 7,5 °C 1,6 km/h (1 Bft)
15.10.2016 03:26 10,3 °C 10,4 °C 82 % 1007,1 hPa 0,0 mm 1,1 km/h (1 Bft) SW 218 ° 0 min 0,000 mm 0,0 UV-I 0 W/m² 7,4 °C 3,2 km/h (1 Bft)
15.10.2016 03:27 10,3 °C 10,4 °C 83 % 1007,1 hPa 0,0 mm 1,4 km/h (1 Bft) SW 218 ° 0 min 0,000 mm 0,0 UV-I 0 W/m² 7,5 °C 3,2 km/h (1 Bft)
15.10.2016 03:28 10,3 °C 10,3 °C 83 % 1007,1 hPa 0,0 mm 2,0 km/h (1 Bft) SW 218 ° 0 min 0,000 mm 0,0 UV-I 0 W/m² 7,5 °C 3,2 km/h (1 Bft)
15.10.2016 03:29 10,3 °C 10,3 °C 83 % 1007,2 hPa 0,0 mm 1,4 km/h (1 Bft) SW 218 ° 0 min 0,000 mm 0,0 UV-I 0 W/m² 7,5 °C 1,6 km/h (1 Bft)
15.10.2016 03:30 10,3 °C 10,3 °C 83 % 1007,3 hPa 0,0 mm 0,8 km/h (0 Bft) SW 218 ° 0 min 0,000 mm 0,0 UV-I 0 W/m² 7,5 °C 3,2 km/h (1 Bft)
15.10.2016 03:31 10,4 °C 10,4 °C 82 % 1007,4 hPa 0,0 mm 0,0 km/h (0 Bft) SW 218 ° 0 min 0,000 mm 0,0 UV-I 0 W/m² 7,5 °C 0,0 km/h (0 Bft)
15.10.2016 03:32 10,4 °C 10,4 °C 83 % 1007,4 hPa 0,0 mm 1,5 km/h (1 Bft) SW 219 ° 0 min 0,000 mm 0,0 UV-I 0 W/m² 7,6 °C 3,2 km/h (1 Bft)
15.10.2016 03:33 10,3 °C 10,4 °C 83 % 1007,5 hPa 0,0 mm 1,7 km/h (1 Bft) SW 219 ° 0 min 0,000 mm 0,0 UV-I 0 W/m² 7,5 °C 3,2 km/h (1 Bft)
15.10.2016 03:34 10,1 °C 10,3 °C 83 % 1007,5 hPa 0,0 mm 0,3 km/h (0 Bft) SW 219 ° 0 min 0,000 mm 0,0 UV-I 0 W/m² 7,3 °C 1,6 km/h (1 Bft)
15.10.2016 03:35 9,9 °C 10,1 °C 84 % 1007,5 hPa 0,0 mm 0,0 km/h (0 Bft) SW 219 ° 0 min 0,000 mm 0,0 UV-I 0 W/m² 7,3 °C 0,0 km/h (0 Bft)
15.10.2016 03:36 9,7 °C 9,9 °C 85 % 1007,5 hPa 0,0 mm 0,3 km/h (0 Bft) SW 219 ° 0 min 0,000 mm 0,0 UV-I 0 W/m² 7,3 °C 1,6 km/h (1 Bft)
15.10.2016 03:37 9,7 °C 9,7 °C 85 % 1007,4 hPa 0,0 mm 0,7 km/h (0 Bft) SW 219 ° 0 min 0,000 mm 0,0 UV-I 0 W/m² 7,3 °C 1,6 km/h (1 Bft)
15.10.2016 03:38 9,6 °C 9,7 °C 86 % 1007,4 hPa 0,0 mm 0,0 km/h (0 Bft) SW 219 ° 0 min 0,000 mm 0,0 UV-I 0 W/m² 7,4 °C 0,0 km/h (0 Bft)
15.10.2016 03:39 9,6 °C 9,6 °C 86 % 1007,3 hPa 0,0 mm 0,0 km/h (0 Bft) SW 219 ° 0 min 0,000 mm 0,0 UV-I 0 W/m² 7,4 °C 0,0 km/h (0 Bft)
15.10.2016 03:40 9,6 °C 9,6 °C 86 % 1007,3 hPa 0,0 mm 0,3 km/h (0 Bft) SW 219 ° 0 min 0,000 mm 0,0 UV-I 0 W/m² 7,4 °C 1,6 km/h (1 Bft)
15.10.2016 03:41 9,4 °C 9,6 °C 86 % 1007,4 hPa 0,0 mm 0,3 km/h (0 Bft) SW 219 ° 0 min 0,000 mm 0,0 UV-I 0 W/m² 7,2 °C 1,6 km/h (1 Bft)
15.10.2016 03:42 9,4 °C 9,5 °C 86 % 1007,4 hPa 0,0 mm 0,0 km/h (0 Bft) SW 219 ° 0 min 0,000 mm 0,0 UV-I 0 W/m² 7,2 °C 0,0 km/h (0 Bft)
15.10.2016 03:43 9,4 °C 9,4 °C 87 % 1007,5 hPa 0,0 mm 0,5 km/h (0 Bft) SW 219 ° 0 min 0,000 mm 0,0 UV-I 0 W/m² 7,3 °C 1,6 km/h (1 Bft)
15.10.2016 03:44 9,4 °C 9,4 °C 87 % 1007,5 hPa 0,0 mm 1,7 km/h (1 Bft) SW 219 ° 0 min 0,000 mm 0,0 UV-I 0 W/m² 7,3 °C 3,2 km/h (1 Bft)
15.10.2016 03:45 9,6 °C 9,6 °C 87 % 1007,5 hPa 0,0 mm 2,5 km/h (1 Bft) SW 218 ° 0 min 0,000 mm 0,0 UV-I 0 W/m² 7,5 °C 3,2 km/h (1 Bft)
15.10.2016 03:46 9,7 °C 9,7 °C 84 % 1007,5 hPa 0,0 mm 3,0 km/h (1 Bft) S-SW 201 ° 0 min 0,000 mm 0,0 UV-I 0 W/m² 7,1 °C 4,8 km/h (1 Bft)
15.10.2016 03:47 9,9 °C 9,9 °C 84 % 1007,6 hPa 0,0 mm 2,7 km/h (1 Bft) S 190 ° 0 min 0,000 mm 0,0 UV-I 0 W/m² 7,3 °C 6,4 km/h (2 Bft)
15.10.2016 03:48 10,1 °C 10,1 °C 84 % 1007,7 hPa 0,0 mm 2,8 km/h (1 Bft) S 190 ° 0 min 0,000 mm 0,0 UV-I 0 W/m² 7,5 °C 4,8 km/h (1 Bft)
15.10.2016 03:49 10,2 °C 10,2 °C 84 % 1007,7 hPa 0,0 mm 1,5 km/h (1 Bft) S 190 ° 0 min 0,000 mm 0,0 UV-I 0 W/m² 7,6 °C 3,2 km/h (1 Bft)
15.10.2016 03:50 10,3 °C 10,3 °C 83 % 1007,8 hPa 0,0 mm 2,5 km/h (1 Bft) S 190 ° 0 min 0,000 mm 0,0 UV-I 0 W/m² 7,5 °C 4,8 km/h (1 Bft)
15.10.2016 03:51 10,4 °C 10,4 °C 83 % 1007,9 hPa 0,0 mm 1,6 km/h (1 Bft) S 190 ° 0 min 0,000 mm 0,0 UV-I 0 W/m² 7,6 °C 3,2 km/h (1 Bft)
15.10.2016 03:52 10,5 °C 10,5 °C 83 % 1007,9 hPa 0,0 mm 1,4 km/h (1 Bft) S 189 ° 0 min 0,000 mm 0,0 UV-I 0 W/m² 7,7 °C 3,2 km/h (1 Bft)
15.10.2016 03:53 10,4 °C 10,5 °C 84 % 1007,9 hPa 0,0 mm 2,8 km/h (1 Bft) O-SO 119 ° 0 min 0,000 mm 0,0 UV-I 0 W/m² 7,8 °C 3,2 km/h (1 Bft)
15.10.2016 03:54 10,4 °C 10,4 °C 84 % 1008,0 hPa 0,0 mm 2,7 km/h (1 Bft) O-SO 119 ° 0 min 0,000 mm 0,0 UV-I 0 W/m² 7,8 °C 3,2 km/h (1 Bft)
15.10.2016 03:55 10,2 °C 10,4 °C 84 % 1008,0 hPa 0,0 mm 1,7 km/h (1 Bft) O-SO 119 ° 0 min 0,000 mm 0,0 UV-I 0 W/m² 7,6 °C 3,2 km/h (1 Bft)
15.10.2016 03:56 10,1 °C 10,2 °C 84 % 1008,0 hPa 0,0 mm 0,4 km/h (0 Bft) O-SO 119 ° 0 min 0,000 mm 0,0 UV-I 0 W/m² 7,5 °C 1,6 km/h (1 Bft)
15.10.2016 03:57 9,9 °C 10,1 °C 85 % 1008,0 hPa 0,0 mm 0,0 km/h (0 Bft) O-SO 119 ° 0 min 0,000 mm 0,0 UV-I 0 W/m² 7,5 °C 0,0 km/h (0 Bft)
15.10.2016 03:58 9,9 °C 10,0 °C 85 % 1008,0 hPa 0,0 mm 0,0 km/h (0 Bft) O-SO 119 ° 0 min 0,000 mm 0,0 UV-I 0 W/m² 7,5 °C 0,0 km/h (0 Bft)
15.10.2016 03:59 9,9 °C 9,9 °C 85 % 1008,0 hPa 0,0 mm 0,5 km/h (0 Bft) O-SO 119 ° 0 min 0,000 mm 0,0 UV-I 0 W/m² 7,5 °C 1,6 km/h (1 Bft)
15.10.2016 04:00 9,9 °C 9,9 °C 85 % 1008,0 hPa 0,0 mm 0,0 km/h (0 Bft) O-SO 119 ° 0 min 0,026 mm 0,0 UV-I 0 W/m² 7,5 °C 0,0 km/h (0 Bft)
15.10.2016 04:01 9,8 °C 9,9 °C 85 % 1008,0 hPa 0,0 mm 0,2 km/h (0 Bft) O-SO 119 ° 0 min 0,000 mm 0,0 UV-I 0 W/m² 7,4 °C 1,6 km/h (1 Bft)
15.10.2016 04:02 9,7 °C 9,8 °C 85 % 1007,8 hPa 0,0 mm 0,7 km/h (0 Bft) O-SO 119 ° 0 min 0,000 mm 0,0 UV-I 0 W/m² 7,3 °C 1,6 km/h (1 Bft)
15.10.2016 04:03 9,7 °C 9,8 °C 86 % 1007,8 hPa 0,0 mm 0,1 km/h (0 Bft) O-SO 119 ° 0 min 0,000 mm 0,0 UV-I 0 W/m² 7,5 °C 1,6 km/h (1 Bft)
15.10.2016 04:04 9,7 °C 9,7 °C 86 % 1007,8 hPa 0,0 mm 0,0 km/h (0 Bft) O-SO 119 ° 0 min 0,000 mm 0,0 UV-I 0 W/m² 7,5 °C 0,0 km/h (0 Bft)
15.10.2016 04:05 9,7 °C 9,7 °C 86 % 1007,8 hPa 0,0 mm 0,1 km/h (0 Bft) O-SO 119 ° 0 min 0,000 mm 0,0 UV-I 0 W/m² 7,5 °C 1,6 km/h (1 Bft)
15.10.2016 04:06 9,6 °C 9,7 °C 86 % 1007,8 hPa 0,0 mm 0,0 km/h (0 Bft) O-SO 119 ° 0 min 0,000 mm 0,0 UV-I 0 W/m² 7,4 °C 0,0 km/h (0 Bft)
15.10.2016 04:07 9,6 °C 9,6 °C 86 % 1007,8 hPa 0,0 mm 0,1 km/h (0 Bft) O-SO 119 ° 0 min 0,000 mm 0,0 UV-I 0 W/m² 7,4 °C 1,6 km/h (1 Bft)
15.10.2016 04:08 9,6 °C 9,6 °C 87 % 1007,9 hPa 0,0 mm 0,4 km/h (0 Bft) O-SO 119 ° 0 min 0,000 mm 0,0 UV-I 0 W/m² 7,5 °C 1,6 km/h (1 Bft)
15.10.2016 04:09 9,6 °C 9,6 °C 87 % 1007,9 hPa 0,0 mm 1,9 km/h (1 Bft) O-SO 119 ° 0 min 0,000 mm 0,0 UV-I 0 W/m² 7,5 °C 3,2 km/h (1 Bft)
15.10.2016 04:10 9,6 °C 9,6 °C 85 % 1008,0 hPa 0,0 mm 3,8 km/h (1 Bft) SO 127 ° 0 min 0,000 mm 0,0 UV-I 0 W/m² 7,2 °C 4,8 km/h (1 Bft)
15.10.2016 04:11 9,7 °C 9,7 °C 85 % 1008,0 hPa 0,0 mm 3,4 km/h (1 Bft) SO 127 ° 0 min 0,000 mm 0,0 UV-I 0 W/m² 7,3 °C 4,8 km/h (1 Bft)
15.10.2016 04:12 9,8 °C 9,8 °C 85 % 1008,1 hPa 0,0 mm 1,1 km/h (1 Bft) SO 127 ° 0 min 0,000 mm 0,0 UV-I 0 W/m² 7,4 °C 3,2 km/h (1 Bft)
15.10.2016 04:13 9,9 °C 9,9 °C 85 % 1008,0 hPa 0,0 mm 0,9 km/h (0 Bft) SO 127 ° 0 min 0,000 mm 0,0 UV-I 0 W/m² 7,5 °C 3,2 km/h (1 Bft)
15.10.2016 04:14 10,1 °C 10,1 °C 84 % 1008,0 hPa 0,0 mm 0,9 km/h (0 Bft) SO 127 ° 0 min 0,000 mm 0,0 UV-I 0 W/m² 7,5 °C 1,6 km/h (1 Bft)
15.10.2016 04:15 10,1 °C 10,1 °C 84 % 1008,0 hPa 0,0 mm 0,3 km/h (0 Bft) SO 127 ° 0 min 0,000 mm 0,0 UV-I 0 W/m² 7,5 °C 1,6 km/h (1 Bft)
15.10.2016 04:16 10,1 °C 10,1 °C 85 % 1008,0 hPa 0,0 mm 0,7 km/h (0 Bft) SO 127 ° 0 min 0,000 mm 0,0 UV-I 0 W/m² 7,7 °C 1,6 km/h (1 Bft)
15.10.2016 04:17 9,9 °C 10,1 °C 85 % 1008,0 hPa 0,0 mm 0,0 km/h (0 Bft) SO 127 ° 0 min 0,000 mm 0,0 UV-I 0 W/m² 7,5 °C 0,0 km/h (0 Bft)
15.10.2016 04:18 9,8 °C 9,9 °C 85 % 1008,0 hPa 0,0 mm 0,0 km/h (0 Bft) SO 127 ° 0 min 0,000 mm 0,0 UV-I 0 W/m² 7,4 °C 0,0 km/h (0 Bft)
15.10.2016 04:19 9,7 °C 9,8 °C 86 % 1008,0 hPa 0,0 mm 0,0 km/h (0 Bft) SO 127 ° 0 min 0,000 mm 0,0 UV-I 0 W/m² 7,5 °C 0,0 km/h (0 Bft)
15.10.2016 04:20 9,6 °C 9,7 °C 86 % 1008,2 hPa 0,0 mm 0,0 km/h (0 Bft) SO 127 ° 0 min 0,000 mm 0,0 UV-I 0 W/m² 7,4 °C 0,0 km/h (0 Bft)
15.10.2016 04:21 9,6 °C 9,6 °C 86 % 1008,2 hPa 0,0 mm 0,0 km/h (0 Bft) SO 127 ° 0 min 0,000 mm 0,0 UV-I 0 W/m² 7,4 °C 0,0 km/h (0 Bft)
15.10.2016 04:22 9,5 °C 9,6 °C 87 % 1008,2 hPa 0,0 mm 0,5 km/h (0 Bft) SO 127 ° 0 min 0,000 mm 0,0 UV-I 0 W/m² 7,4 °C 3,2 km/h (1 Bft)
15.10.2016 04:23 9,6 °C 9,6 °C 86 % 1008,2 hPa 0,0 mm 1,7 km/h (1 Bft) SO 127 ° 0 min 0,000 mm 0,0 UV-I 0 W/m² 7,4 °C 3,2 km/h (1 Bft)
15.10.2016 04:24 9,7 °C 9,7 °C 86 % 1008,3 hPa 0,0 mm 1,8 km/h (1 Bft) SO 127 ° 0 min 0,000 mm 0,0 UV-I 0 W/m² 7,5 °C 3,2 km/h (1 Bft)
15.10.2016 04:25 9,7 °C 9,7 °C 85 % 1008,3 hPa 0,0 mm 2,5 km/h (1 Bft) SO 127 ° 0 min 0,000 mm 0,0 UV-I 0 W/m² 7,3 °C 3,2 km/h (1 Bft)
15.10.2016 04:26 9,7 °C 9,8 °C 85 % 1008,3 hPa 0,0 mm 3,4 km/h (1 Bft) SO 128 ° 0 min 0,000 mm 0,0 UV-I 0 W/m² 7,3 °C 4,8 km/h (1 Bft)
15.10.2016 04:27 9,9 °C 9,9 °C 84 % 1008,3 hPa 0,0 mm 2,5 km/h (1 Bft) SO 138 ° 0 min 0,000 mm 0,0 UV-I 0 W/m² 7,3 °C 3,2 km/h (1 Bft)
15.10.2016 04:28 9,9 °C 9,9 °C 84 % 1008,3 hPa 0,0 mm 2,1 km/h (1 Bft) SO 144 ° 0 min 0,000 mm 0,0 UV-I 0 W/m² 7,3 °C 3,2 km/h (1 Bft)
15.10.2016 04:29 9,9 °C 9,9 °C 84 % 1008,3 hPa 0,0 mm 2,2 km/h (1 Bft) SO 144 ° 0 min 0,000 mm 0,0 UV-I 0 W/m² 7,3 °C 3,2 km/h (1 Bft)
15.10.2016 04:30 9,9 °C 9,9 °C 84 % 1008,3 hPa 0,0 mm 1,2 km/h (1 Bft) SO 144 ° 0 min 0,000 mm 0,0 UV-I 0 W/m² 7,3 °C 3,2 km/h (1 Bft)
15.10.2016 04:31 10,0 °C 10,0 °C 83 % 1008,3 hPa 0,0 mm 3,0 km/h (1 Bft) SO 144 ° 0 min 0,000 mm 0,0 UV-I 0 W/m² 7,2 °C 4,8 km/h (1 Bft)
15.10.2016 04:32 10,1 °C 10,1 °C 84 % 1008,4 hPa 0,0 mm 2,6 km/h (1 Bft) SO 144 ° 0 min 0,000 mm 0,0 UV-I 0 W/m² 7,5 °C 4,8 km/h (1 Bft)
15.10.2016 04:33 10,1 °C 10,1 °C 83 % 1008,4 hPa 0,0 mm 2,5 km/h (1 Bft) S-SO 151 ° 0 min 0,000 mm 0,0 UV-I 0 W/m² 7,3 °C 4,8 km/h (1 Bft)
15.10.2016 04:34 10,1 °C 10,1 °C 83 % 1008,4 hPa 0,0 mm 3,8 km/h (1 Bft) S-SO 162 ° 0 min 0,000 mm 0,0 UV-I 0 W/m² 7,3 °C 6,4 km/h (2 Bft)
15.10.2016 04:35 9,9 °C 10,1 °C 83 % 1008,4 hPa 0,0 mm 3,7 km/h (1 Bft) S 180 ° 0 min 0,000 mm 0,0 UV-I 0 W/m² 7,2 °C 6,4 km/h (2 Bft)
15.10.2016 04:36 9,8 °C 9,9 °C 83 % 1008,4 hPa 0,0 mm 3,3 km/h (1 Bft) S 180 ° 0 min 0,000 mm 0,0 UV-I 0 W/m² 7,1 °C 4,8 km/h (1 Bft)
15.10.2016 04:37 9,8 °C 9,8 °C 84 % 1008,4 hPa 0,0 mm 1,4 km/h (1 Bft) S 180 ° 0 min 0,000 mm 0,0 UV-I 0 W/m² 7,2 °C 3,2 km/h (1 Bft)
15.10.2016 04:38 9,8 °C 9,8 °C 84 % 1008,4 hPa 0,0 mm 0,9 km/h (0 Bft) S 180 ° 0 min 0,000 mm 0,0 UV-I 0 W/m² 7,2 °C 3,2 km/h (1 Bft)
15.10.2016 04:39 9,8 °C 9,8 °C 83 % 1008,4 hPa 0,0 mm 2,7 km/h (1 Bft) S 180 ° 0 min 0,000 mm 0,0 UV-I 0 W/m² 7,1 °C 4,8 km/h (1 Bft)
15.10.2016 04:40 9,8 °C 9,8 °C 84 % 1008,4 hPa 0,0 mm 2,1 km/h (1 Bft) S 178 ° 0 min 0,000 mm 0,0 UV-I 0 W/m² 7,2 °C 4,8 km/h (1 Bft)
15.10.2016 04:41 9,9 °C 9,9 °C 83 % 1008,4 hPa 0,0 mm 1,4 km/h (1 Bft) S 178 ° 0 min 0,000 mm 0,0 UV-I 0 W/m² 7,2 °C 3,2 km/h (1 Bft)
15.10.2016 04:42 9,9 °C 9,9 °C 83 % 1008,4 hPa 0,0 mm 2,8 km/h (1 Bft) S 178 ° 0 min 0,000 mm 0,0 UV-I 0 W/m² 7,2 °C 3,2 km/h (1 Bft)
15.10.2016 04:43 9,9 °C 9,9 °C 83 % 1008,3 hPa 0,0 mm 1,7 km/h (1 Bft) S 178 ° 0 min 0,000 mm 0,0 UV-I 0 W/m² 7,2 °C 3,2 km/h (1 Bft)
15.10.2016 04:44 10,0 °C 10,0 °C 83 % 1008,3 hPa 0,0 mm 1,3 km/h (1 Bft) S 178 ° 0 min 0,000 mm 0,0 UV-I 0 W/m² 7,2 °C 1,6 km/h (1 Bft)
15.10.2016 04:45 10,0 °C 10,1 °C 82 % 1008,2 hPa 0,0 mm 1,7 km/h (1 Bft) S 178 ° 0 min 0,000 mm 0,0 UV-I 0 W/m² 7,1 °C 3,2 km/h (1 Bft)
15.10.2016 04:46 10,0 °C 10,0 °C 82 % 1008,2 hPa 0,0 mm 0,7 km/h (0 Bft) S 178 ° 0 min 0,000 mm 0,0 UV-I 0 W/m² 7,1 °C 1,6 km/h (1 Bft)
15.10.2016 04:47 10,0 °C 10,0 °C 82 % 1008,2 hPa 0,0 mm 1,6 km/h (1 Bft) S 178 ° 0 min 0,000 mm 0,0 UV-I 0 W/m² 7,1 °C 3,2 km/h (1 Bft)
15.10.2016 04:48 10,0 °C 10,0 °C 82 % 1008,2 hPa 0,0 mm 1,3 km/h (1 Bft) S 178 ° 0 min 0,000 mm 0,0 UV-I 0 W/m² 7,1 °C 3,2 km/h (1 Bft)
15.10.2016 04:49 10,0 °C 10,0 °C 83 % 1008,3 hPa 0,0 mm 1,6 km/h (1 Bft) S 178 ° 0 min 0,000 mm 0,0 UV-I 0 W/m² 7,2 °C 3,2 km/h (1 Bft)
15.10.2016 04:50 9,9 °C 10,0 °C 83 % 1008,2 hPa 0,0 mm 1,0 km/h (0 Bft) S 178 ° 0 min 0,000 mm 0,0 UV-I 0 W/m² 7,2 °C 3,2 km/h (1 Bft)
15.10.2016 04:51 9,9 °C 9,9 °C 83 % 1008,3 hPa 0,0 mm 3,4 km/h (1 Bft) S 178 ° 0 min 0,000 mm 0,0 UV-I 0 W/m² 7,2 °C 4,8 km/h (1 Bft)
15.10.2016 04:52 9,7 °C 9,9 °C 83 % 1008,3 hPa 0,0 mm 3,5 km/h (1 Bft) S 178 ° 0 min 0,000 mm 0,0 UV-I 0 W/m² 7,0 °C 4,8 km/h (1 Bft)
15.10.2016 04:53 9,6 °C 9,7 °C 83 % 1008,3 hPa 0,0 mm 4,2 km/h (1 Bft) S 186 ° 0 min 0,000 mm 0,0 UV-I 0 W/m² 6,9 °C 6,4 km/h (2 Bft)
15.10.2016 04:54 9,4 °C 9,6 °C 84 % 1008,3 hPa 0,0 mm 4,5 km/h (1 Bft) S 171 ° 0 min 0,000 mm 0,0 UV-I 0 W/m² 6,8 °C 8,0 km/h (2 Bft)
15.10.2016 04:55 9,4 °C 9,4 °C 84 % 1008,2 hPa 0,0 mm 6,7 km/h (2 Bft) S-SW 196 ° 0 min 0,000 mm 0,0 UV-I 0 W/m² 6,8 °C 9,7 km/h (2 Bft)
15.10.2016 04:56 9,3 °C 9,4 °C 84 % 1008,3 hPa 0,0 mm 5,7 km/h (1 Bft) S 180 ° 0 min 0,000 mm 0,0 UV-I 0 W/m² 6,7 °C 8,0 km/h (2 Bft)
15.10.2016 04:57 9,3 °C 9,4 °C 84 % 1008,3 hPa 0,0 mm 6,8 km/h (2 Bft) S 184 ° 0 min 0,000 mm 0,0 UV-I 0 W/m² 6,7 °C 9,7 km/h (2 Bft)
15.10.2016 04:58 9,4 °C 9,4 °C 84 % 1008,3 hPa 0,0 mm 7,9 km/h (2 Bft) S 176 ° 0 min 0,000 mm 0,0 UV-I 0 W/m² 6,8 °C 11,3 km/h (2 Bft)
15.10.2016 04:59 9,4 °C 9,4 °C 84 % 1008,2 hPa 0,0 mm 3,7 km/h (1 Bft) S-SW 194 ° 0 min 0,000 mm 0,0 UV-I 0 W/m² 6,8 °C 6,4 km/h (2 Bft)
15.10.2016 05:00 9,4 °C 9,4 °C 84 % 1008,3 hPa 0,0 mm 3,8 km/h (1 Bft) S-SW 193 ° 0 min 0,000 mm 0,0 UV-I 0 W/m² 6,8 °C 6,4 km/h (2 Bft)
15.10.2016 05:01 9,4 °C 9,4 °C 84 % 1008,3 hPa 0,0 mm 2,5 km/h (1 Bft) S-SW 192 ° 0 min 0,025 mm 0,0 UV-I 0 W/m² 6,8 °C 4,8 km/h (1 Bft)
15.10.2016 05:02 9,5 °C 9,5 °C 84 % 1008,4 hPa 0,0 mm 1,9 km/h (1 Bft) S-SW 192 ° 0 min 0,000 mm 0,0 UV-I 0 W/m² 6,9 °C 3,2 km/h (1 Bft)
15.10.2016 05:03 9,4 °C 9,5 °C 84 % 1008,4 hPa 0,0 mm 4,5 km/h (1 Bft) S-SO 163 ° 0 min 0,000 mm 0,0 UV-I 0 W/m² 6,8 °C 6,4 km/h (2 Bft)
15.10.2016 05:04 9,4 °C 9,4 °C 84 % 1008,4 hPa 0,0 mm 3,9 km/h (1 Bft) S-SO 163 ° 0 min 0,000 mm 0,0 UV-I 0 W/m² 6,8 °C 6,4 km/h (2 Bft)
15.10.2016 05:05 9,4 °C 9,4 °C 84 % 1008,4 hPa 0,0 mm 3,6 km/h (1 Bft) S-SO 163 ° 0 min 0,000 mm 0,0 UV-I 0 W/m² 6,8 °C 6,4 km/h (2 Bft)
15.10.2016 05:06 9,3 °C 9,4 °C 84 % 1008,4 hPa 0,0 mm 3,2 km/h (1 Bft) S-SO 164 ° 0 min 0,000 mm 0,0 UV-I 0 W/m² 6,7 °C 6,4 km/h (2 Bft)
15.10.2016 05:07 9,3 °C 9,3 °C 84 % 1008,4 hPa 0,0 mm 2,7 km/h (1 Bft) S-SO 164 ° 0 min 0,000 mm 0,0 UV-I 0 W/m² 6,7 °C 6,4 km/h (2 Bft)
15.10.2016 05:08 9,2 °C 9,3 °C 84 % 1008,4 hPa 0,0 mm 3,8 km/h (1 Bft) S 170 ° 0 min 0,000 mm 0,0 UV-I 0 W/m² 6,6 °C 6,4 km/h (2 Bft)
15.10.2016 05:09 9,2 °C 9,3 °C 84 % 1008,4 hPa 0,0 mm 3,0 km/h (1 Bft) S 171 ° 0 min 0,000 mm 0,0 UV-I 0 W/m² 6,6 °C 6,4 km/h (2 Bft)
15.10.2016 05:10 9,2 °C 9,2 °C 84 % 1008,5 hPa 0,0 mm 2,9 km/h (1 Bft) S 171 ° 0 min 0,000 mm 0,0 UV-I 0 W/m² 6,6 °C 3,2 km/h (1 Bft)
15.10.2016 05:11 9,3 °C 9,3 °C 85 % 1008,5 hPa 0,0 mm 4,3 km/h (1 Bft) S 170 ° 0 min 0,000 mm 0,0 UV-I 0 W/m² 6,9 °C 6,4 km/h (2 Bft)
15.10.2016 05:12 9,3 °C 9,3 °C 85 % 1008,5 hPa 0,0 mm 4,9 km/h (1 Bft) S-SO 147 ° 0 min 0,000 mm 0,0 UV-I 0 W/m² 6,9 °C 6,4 km/h (2 Bft)
15.10.2016 05:13 9,4 °C 9,4 °C 85 % 1008,5 hPa 0,0 mm 4,2 km/h (1 Bft) SO 146 ° 0 min 0,000 mm 0,0 UV-I 0 W/m² 7,0 °C 4,8 km/h (1 Bft)
15.10.2016 05:14 9,4 °C 9,4 °C 85 % 1008,5 hPa 0,0 mm 4,6 km/h (1 Bft) S-SO 147 ° 0 min 0,000 mm 0,0 UV-I 0 W/m² 7,0 °C 6,4 km/h (2 Bft)
15.10.2016 05:15 9,4 °C 9,4 °C 84 % 1008,5 hPa 0,0 mm 5,0 km/h (1 Bft) S-SO 154 ° 0 min 0,000 mm 0,0 UV-I 0 W/m² 6,8 °C 6,4 km/h (2 Bft)
15.10.2016 05:16 9,4 °C 9,4 °C 84 % 1008,5 hPa 0,0 mm 3,4 km/h (1 Bft) S-SO 153 ° 0 min 0,000 mm 0,0 UV-I 0 W/m² 6,8 °C 4,8 km/h (1 Bft)
15.10.2016 05:17 9,4 °C 9,4 °C 84 % 1008,6 hPa 0,0 mm 4,0 km/h (1 Bft) S-SO 157 ° 0 min 0,000 mm 0,0 UV-I 0 W/m² 6,8 °C 4,8 km/h (1 Bft)
15.10.2016 05:18 9,3 °C 9,4 °C 84 % 1008,6 hPa 0,0 mm 3,9 km/h (1 Bft) S-SO 157 ° 0 min 0,000 mm 0,0 UV-I 0 W/m² 6,7 °C 4,8 km/h (1 Bft)
15.10.2016 05:19 9,3 °C 9,3 °C 84 % 1008,6 hPa 0,0 mm 2,9 km/h (1 Bft) S-SO 157 ° 0 min 0,000 mm 0,0 UV-I 0 W/m² 6,7 °C 4,8 km/h (1 Bft)
15.10.2016 05:20 9,2 °C 9,3 °C 84 % 1008,6 hPa 0,0 mm 3,3 km/h (1 Bft) S-SO 157 ° 0 min 0,000 mm 0,0 UV-I 0 W/m² 6,6 °C 4,8 km/h (1 Bft)
15.10.2016 05:21 9,2 °C 9,2 °C 84 % 1008,7 hPa 0,0 mm 2,5 km/h (1 Bft) S-SO 157 ° 0 min 0,000 mm 0,0 UV-I 0 W/m² 6,6 °C 3,2 km/h (1 Bft)
15.10.2016 05:22 9,1 °C 9,2 °C 84 % 1008,7 hPa 0,0 mm 3,2 km/h (1 Bft) S 180 ° 0 min 0,000 mm 0,0 UV-I 0 W/m² 6,5 °C 6,4 km/h (2 Bft)
15.10.2016 05:23 9,1 °C 9,1 °C 85 % 1008,8 hPa 0,0 mm 6,9 km/h (2 Bft) S 190 ° 0 min 0,000 mm 0,0 UV-I 0 W/m² 6,7 °C 8,0 km/h (2 Bft)
15.10.2016 05:24 9,0 °C 9,1 °C 85 % 1008,7 hPa 0,0 mm 4,5 km/h (1 Bft) S 169 ° 0 min 0,000 mm 0,0 UV-I 0 W/m² 6,6 °C 8,0 km/h (2 Bft)
15.10.2016 05:25 8,9 °C 9,0 °C 85 % 1008,7 hPa 0,0 mm 3,6 km/h (1 Bft) S 176 ° 0 min 0,000 mm 0,0 UV-I 0 W/m² 6,5 °C 6,4 km/h (2 Bft)
15.10.2016 05:26 8,9 °C 9,0 °C 85 % 1008,7 hPa 0,0 mm 5,0 km/h (1 Bft) S 171 ° 0 min 0,000 mm 0,0 UV-I 0 W/m² 6,5 °C 8,0 km/h (2 Bft)
15.10.2016 05:27 8,9 °C 8,9 °C 85 % 1008,7 hPa 0,0 mm 3,5 km/h (1 Bft) S 172 ° 0 min 0,000 mm 0,0 UV-I 0 W/m² 6,5 °C 6,4 km/h (2 Bft)
15.10.2016 05:28 8,8 °C 8,9 °C 85 % 1008,7 hPa 0,0 mm 3,5 km/h (1 Bft) S 172 ° 0 min 0,000 mm 0,0 UV-I 0 W/m² 6,4 °C 4,8 km/h (1 Bft)
15.10.2016 05:29 8,8 °C 8,8 °C 85 % 1008,8 hPa 0,0 mm 3,0 km/h (1 Bft) S 184 ° 0 min 0,000 mm 0,0 UV-I 0 W/m² 6,4 °C 4,8 km/h (1 Bft)
15.10.2016 05:30 8,8 °C 8,8 °C 85 % 1008,8 hPa 0,0 mm 2,9 km/h (1 Bft) S 184 ° 0 min 0,000 mm 0,0 UV-I 0 W/m² 6,4 °C 4,8 km/h (1 Bft)
15.10.2016 05:31 8,8 °C 8,8 °C 86 % 1008,7 hPa 0,0 mm 3,6 km/h (1 Bft) S 191 ° 0 min 0,000 mm 0,0 UV-I 0 W/m² 6,6 °C 6,4 km/h (2 Bft)
15.10.2016 05:32 8,8 °C 8,8 °C 85 % 1008,8 hPa 0,0 mm 4,6 km/h (1 Bft) S 177 ° 0 min 0,000 mm 0,0 UV-I 0 W/m² 6,4 °C 6,4 km/h (2 Bft)
15.10.2016 05:33 8,7 °C 8,8 °C 86 % 1008,8 hPa 0,0 mm 4,4 km/h (1 Bft) S-SW 198 ° 0 min 0,000 mm 0,0 UV-I 0 W/m² 6,5 °C 6,4 km/h (2 Bft)
15.10.2016 05:34 8,7 °C 8,7 °C 86 % 1008,8 hPa 0,0 mm 4,4 km/h (1 Bft) S 181 ° 0 min 0,000 mm 0,0 UV-I 0 W/m² 6,5 °C 6,4 km/h (2 Bft)
15.10.2016 05:35 8,7 °C 8,7 °C 86 % 1008,7 hPa 0,0 mm 2,7 km/h (1 Bft) S-SW 194 ° 0 min 0,000 mm 0,0 UV-I 0 W/m² 6,5 °C 4,8 km/h (1 Bft)
15.10.2016 05:36 8,7 °C 8,7 °C 86 % 1008,7 hPa 0,0 mm 3,6 km/h (1 Bft) S 179 ° 0 min 0,000 mm 0,0 UV-I 0 W/m² 6,5 °C 4,8 km/h (1 Bft)
15.10.2016 05:37 8,7 °C 8,7 °C 87 % 1008,8 hPa 0,0 mm 2,4 km/h (1 Bft) S 178 ° 0 min 0,000 mm 0,0 UV-I 0 W/m² 6,7 °C 4,8 km/h (1 Bft)
15.10.2016 05:38 8,7 °C 8,7 °C 87 % 1008,8 hPa 0,0 mm 2,7 km/h (1 Bft) S 169 ° 0 min 0,000 mm 0,0 UV-I 0 W/m² 6,7 °C 6,4 km/h (2 Bft)
15.10.2016 05:39 8,7 °C 8,7 °C 87 % 1008,8 hPa 0,0 mm 3,7 km/h (1 Bft) S 169 ° 0 min 0,000 mm 0,0 UV-I 0 W/m² 6,7 °C 6,4 km/h (2 Bft)
15.10.2016 05:40 8,8 °C 8,8 °C 87 % 1008,8 hPa 0,0 mm 2,5 km/h (1 Bft) S 169 ° 0 min 0,000 mm 0,0 UV-I 0 W/m² 6,8 °C 6,4 km/h (2 Bft)
15.10.2016 05:41 8,8 °C 8,8 °C 86 % 1008,8 hPa 0,0 mm 1,1 km/h (1 Bft) S 169 ° 0 min 0,000 mm 0,0 UV-I 0 W/m² 6,6 °C 3,2 km/h (1 Bft)
15.10.2016 05:42 8,7 °C 8,8 °C 87 % 1008,9 hPa 0,0 mm 1,2 km/h (1 Bft) S 169 ° 0 min 0,000 mm 0,0 UV-I 0 W/m² 6,7 °C 1,6 km/h (1 Bft)
15.10.2016 05:43 8,7 °C 8,7 °C 87 % 1008,9 hPa 0,0 mm 0,5 km/h (0 Bft) S 169 ° 0 min 0,000 mm 0,0 UV-I 0 W/m² 6,7 °C 1,6 km/h (1 Bft)
15.10.2016 05:44 8,7 °C 8,7 °C 86 % 1008,9 hPa 0,0 mm 0,3 km/h (0 Bft) S 169 ° 0 min 0,000 mm 0,0 UV-I 0 W/m² 6,5 °C 1,6 km/h (1 Bft)
15.10.2016 05:45 8,6 °C 8,7 °C 87 % 1008,9 hPa 0,0 mm 0,6 km/h (0 Bft) S 169 ° 0 min 0,000 mm 0,0 UV-I 0 W/m² 6,6 °C 1,6 km/h (1 Bft)
15.10.2016 05:46 8,7 °C 8,7 °C 87 % 1008,9 hPa 0,0 mm 0,2 km/h (0 Bft) S 169 ° 0 min 0,000 mm 0,0 UV-I 0 W/m² 6,7 °C 1,6 km/h (1 Bft)
15.10.2016 05:47 8,6 °C 8,7 °C 87 % 1008,9 hPa 0,0 mm 0,1 km/h (0 Bft) S 169 ° 0 min 0,000 mm 0,0 UV-I 0 W/m² 6,6 °C 1,6 km/h (1 Bft)
15.10.2016 05:48 8,6 °C 8,6 °C 87 % 1008,9 hPa 0,0 mm 3,8 km/h (1 Bft) W-SW 255 ° 0 min 0,000 mm 0,0 UV-I 0 W/m² 6,6 °C 6,4 km/h (2 Bft)
15.10.2016 05:49 8,6 °C 8,6 °C 87 % 1008,9 hPa 0,0 mm 2,4 km/h (1 Bft) W-SW 255 ° 0 min 0,000 mm 0,0 UV-I 0 W/m² 6,6 °C 4,8 km/h (1 Bft)
15.10.2016 05:50 8,6 °C 8,6 °C 87 % 1008,9 hPa 0,0 mm 1,2 km/h (1 Bft) W-SW 255 ° 0 min 0,000 mm 0,0 UV-I 0 W/m² 6,6 °C 3,2 km/h (1 Bft)
15.10.2016 05:51 8,5 °C 8,6 °C 87 % 1009,0 hPa 0,0 mm 2,1 km/h (1 Bft) W-SW 254 ° 0 min 0,000 mm 0,0 UV-I 0 W/m² 6,5 °C 3,2 km/h (1 Bft)
15.10.2016 05:52 8,4 °C 8,5 °C 87 % 1009,0 hPa 0,0 mm 1,8 km/h (1 Bft) W-SW 254 ° 0 min 0,000 mm 0,0 UV-I 0 W/m² 6,4 °C 3,2 km/h (1 Bft)
15.10.2016 05:53 8,4 °C 8,4 °C 87 % 1009,0 hPa 0,0 mm 2,0 km/h (1 Bft) W-SW 254 ° 0 min 0,000 mm 0,0 UV-I 0 W/m² 6,4 °C 3,2 km/h (1 Bft)
15.10.2016 05:54 8,5 °C 8,5 °C 87 % 1009,0 hPa 0,0 mm 2,7 km/h (1 Bft) SW 225 ° 0 min 0,000 mm 0,0 UV-I 0 W/m² 6,5 °C 4,8 km/h (1 Bft)
15.10.2016 05:55 8,4 °C 8,5 °C 86 % 1009,0 hPa 0,0 mm 3,1 km/h (1 Bft) S-SW 201 ° 0 min 0,000 mm 0,0 UV-I 0 W/m² 6,2 °C 4,8 km/h (1 Bft)
15.10.2016 05:56 8,4 °C 8,4 °C 87 % 1009,1 hPa 0,0 mm 4,6 km/h (1 Bft) S 185 ° 0 min 0,000 mm 0,0 UV-I 0 W/m² 6,4 °C 4,8 km/h (1 Bft)
15.10.2016 05:57 8,3 °C 8,4 °C 87 % 1009,1 hPa 0,0 mm 1,9 km/h (1 Bft) S 185 ° 0 min 0,000 mm 0,0 UV-I 0 W/m² 6,3 °C 3,2 km/h (1 Bft)
15.10.2016 05:58 8,3 °C 8,3 °C 87 % 1009,2 hPa 0,0 mm 2,1 km/h (1 Bft) S 185 ° 0 min 0,000 mm 0,0 UV-I 0 W/m² 6,3 °C 3,2 km/h (1 Bft)
15.10.2016 05:59 8,3 °C 8,3 °C 87 % 1009,2 hPa 0,0 mm 2,3 km/h (1 Bft) S 186 ° 0 min 0,000 mm 0,0 UV-I 0 W/m² 6,3 °C 4,8 km/h (1 Bft)
15.10.2016 06:00 8,3 °C 8,3 °C 87 % 1009,2 hPa 0,0 mm 2,7 km/h (1 Bft) S 186 ° 0 min 0,000 mm 0,0 UV-I 0 W/m² 6,3 °C 4,8 km/h (1 Bft)
15.10.2016 06:01 8,4 °C 8,4 °C 88 % 1009,2 hPa 0,0 mm 2,0 km/h (1 Bft) S 186 ° 0 min 0,000 mm 0,0 UV-I 0 W/m² 6,5 °C 3,2 km/h (1 Bft)
15.10.2016 06:02 8,4 °C 8,4 °C 87 % 1009,2 hPa 0,0 mm 0,7 km/h (0 Bft) S 186 ° 0 min 0,000 mm 0,0 UV-I 0 W/m² 6,4 °C 1,6 km/h (1 Bft)
15.10.2016 06:03 8,6 °C 8,6 °C 87 % 1009,2 hPa 0,0 mm 2,9 km/h (1 Bft) S-SO 159 ° 0 min 0,000 mm 0,0 UV-I 0 W/m² 6,6 °C 6,4 km/h (2 Bft)
15.10.2016 06:04 8,7 °C 8,7 °C 87 % 1009,1 hPa 0,0 mm 2,3 km/h (1 Bft) S-SO 159 ° 0 min 0,000 mm 0,0 UV-I 0 W/m² 6,7 °C 3,2 km/h (1 Bft)
15.10.2016 06:05 8,8 °C 8,8 °C 87 % 1009,1 hPa 0,0 mm 0,5 km/h (0 Bft) S-SO 159 ° 0 min 0,000 mm 0,0 UV-I 0 W/m² 6,8 °C 3,2 km/h (1 Bft)
15.10.2016 06:06 8,8 °C 8,8 °C 86 % 1009,1 hPa 0,0 mm 0,1 km/h (0 Bft) S-SO 159 ° 0 min 0,000 mm 0,0 UV-I 0 W/m² 6,6 °C 1,6 km/h (1 Bft)
15.10.2016 06:07 8,9 °C 8,9 °C 85 % 1009,2 hPa 0,0 mm 0,1 km/h (0 Bft) S-SO 159 ° 0 min 0,000 mm 0,0 UV-I 0 W/m² 6,5 °C 1,6 km/h (1 Bft)
15.10.2016 06:08 8,9 °C 8,9 °C 86 % 1009,1 hPa 0,0 mm 0,1 km/h (0 Bft) S-SO 159 ° 0 min 0,000 mm 0,0 UV-I 0 W/m² 6,7 °C 1,6 km/h (1 Bft)
15.10.2016 06:09 8,8 °C 8,9 °C 85 % 1009,1 hPa 0,0 mm 0,5 km/h (0 Bft) S-SO 159 ° 0 min 0,000 mm 0,0 UV-I 0 W/m² 6,4 °C 1,6 km/h (1 Bft)
15.10.2016 06:10 8,9 °C 8,9 °C 85 % 1009,2 hPa 0,0 mm 2,2 km/h (1 Bft) S-SO 163 ° 0 min 0,000 mm 0,0 UV-I 0 W/m² 6,5 °C 3,2 km/h (1 Bft)
15.10.2016 06:11 8,9 °C 8,9 °C 86 % 1009,1 hPa 0,0 mm 4,1 km/h (1 Bft) SO 135 ° 0 min 0,000 mm 0,0 UV-I 0 W/m² 6,7 °C 6,4 km/h (2 Bft)
15.10.2016 06:12 9,0 °C 9,0 °C 86 % 1009,1 hPa 0,0 mm 0,7 km/h (0 Bft) SO 135 ° 0 min 0,000 mm 0,0 UV-I 0 W/m² 6,8 °C 3,2 km/h (1 Bft)
15.10.2016 06:13 9,0 °C 9,0 °C 85 % 1009,2 hPa 0,0 mm 0,0 km/h (0 Bft) SO 135 ° 0 min 0,000 mm 0,0 UV-I 0 W/m² 6,6 °C 0,0 km/h (0 Bft)
15.10.2016 06:14 9,1 °C 9,1 °C 85 % 1009,2 hPa 0,0 mm 1,3 km/h (1 Bft) S-SO 155 ° 0 min 0,000 mm 0,0 UV-I 0 W/m² 6,7 °C 3,2 km/h (1 Bft)
15.10.2016 06:15 9,0 °C 9,1 °C 85 % 1009,2 hPa 0,0 mm 0,1 km/h (0 Bft) S-SO 155 ° 0 min 0,000 mm 0,0 UV-I 0 W/m² 6,6 °C 1,6 km/h (1 Bft)
15.10.2016 06:16 8,9 °C 9,0 °C 84 % 1009,2 hPa 0,0 mm 0,5 km/h (0 Bft) S-SO 155 ° 0 min 0,000 mm 0,0 UV-I 0 W/m² 6,3 °C 1,6 km/h (1 Bft)
15.10.2016 06:17 8,8 °C 8,9 °C 85 % 1009,2 hPa 0,0 mm 1,6 km/h (1 Bft) S-SO 155 ° 0 min 0,000 mm 0,0 UV-I 0 W/m² 6,4 °C 3,2 km/h (1 Bft)
15.10.2016 06:18 8,6 °C 8,8 °C 85 % 1009,3 hPa 0,0 mm 0,9 km/h (0 Bft) S-SO 155 ° 0 min 0,000 mm 0,0 UV-I 0 W/m² 6,2 °C 1,6 km/h (1 Bft)
15.10.2016 06:19 8,5 °C 8,6 °C 86 % 1009,2 hPa 0,0 mm 0,0 km/h (0 Bft) S-SO 155 ° 0 min 0,000 mm 0,0 UV-I 0 W/m² 6,3 °C 0,0 km/h (0 Bft)
15.10.2016 06:20 8,5 °C 8,5 °C 86 % 1009,3 hPa 0,0 mm 0,0 km/h (0 Bft) S-SO 155 ° 0 min 0,000 mm 0,0 UV-I 0 W/m² 6,3 °C 0,0 km/h (0 Bft)
15.10.2016 06:21 8,5 °C 8,5 °C 86 % 1009,3 hPa 0,0 mm 1,4 km/h (1 Bft) S-SO 155 ° 0 min 0,000 mm 0,0 UV-I 0 W/m² 6,3 °C 3,2 km/h (1 Bft)
15.10.2016 06:22 8,4 °C 8,5 °C 86 % 1009,3 hPa 0,0 mm 0,4 km/h (0 Bft) S-SO 155 ° 0 min 0,000 mm 0,0 UV-I 0 W/m² 6,2 °C 1,6 km/h (1 Bft)
15.10.2016 06:23 8,4 °C 8,4 °C 87 % 1009,3 hPa 0,0 mm 0,0 km/h (0 Bft) S-SO 155 ° 0 min 0,000 mm 0,0 UV-I 0 W/m² 6,4 °C 0,0 km/h (0 Bft)
15.10.2016 06:24 8,4 °C 8,4 °C 86 % 1009,3 hPa 0,0 mm 0,0 km/h (0 Bft) S-SO 155 ° 0 min 0,000 mm 0,0 UV-I 0 W/m² 6,2 °C 0,0 km/h (0 Bft)
15.10.2016 06:25 8,4 °C 8,4 °C 87 % 1009,3 hPa 0,0 mm 0,8 km/h (0 Bft) S-SO 155 ° 0 min 0,000 mm 0,0 UV-I 0 W/m² 6,4 °C 1,6 km/h (1 Bft)
15.10.2016 06:26 8,3 °C 8,4 °C 87 % 1009,4 hPa 0,0 mm 0,9 km/h (0 Bft) S-SO 155 ° 0 min 0,000 mm 0,0 UV-I 0 W/m² 6,3 °C 1,6 km/h (1 Bft)
15.10.2016 06:27 8,2 °C 8,3 °C 87 % 1009,4 hPa 0,0 mm 0,0 km/h (0 Bft) S-SO 155 ° 0 min 0,000 mm 0,0 UV-I 0 W/m² 6,2 °C 0,0 km/h (0 Bft)
15.10.2016 06:28 8,2 °C 8,3 °C 87 % 1009,4 hPa 0,0 mm 0,0 km/h (0 Bft) S-SO 155 ° 0 min 0,000 mm 0,0 UV-I 0 W/m² 6,2 °C 0,0 km/h (0 Bft)
15.10.2016 06:29 8,1 °C 8,2 °C 87 % 1009,4 hPa 0,0 mm 0,0 km/h (0 Bft) S-SO 155 ° 0 min 0,000 mm 0,0 UV-I 0 W/m² 6,1 °C 0,0 km/h (0 Bft)
15.10.2016 06:30 8,1 °C 8,1 °C 88 % 1009,4 hPa 0,0 mm 0,8 km/h (0 Bft) S-SO 155 ° 0 min 0,000 mm 0,0 UV-I 0 W/m² 6,2 °C 1,6 km/h (1 Bft)
15.10.2016 06:31 8,1 °C 8,1 °C 88 % 1009,5 hPa 0,0 mm 1,8 km/h (1 Bft) S-SO 155 ° 0 min 0,000 mm 0,0 UV-I 0 W/m² 6,2 °C 3,2 km/h (1 Bft)
15.10.2016 06:32 8,1 °C 8,1 °C 88 % 1009,5 hPa 0,0 mm 1,1 km/h (1 Bft) S-SO 155 ° 0 min 0,000 mm 0,0 UV-I 0 W/m² 6,2 °C 1,6 km/h (1 Bft)
15.10.2016 06:33 8,0 °C 8,1 °C 87 % 1009,6 hPa 0,0 mm 2,5 km/h (1 Bft) S-SO 155 ° 0 min 0,000 mm 0,0 UV-I 0 W/m² 6,0 °C 3,2 km/h (1 Bft)
15.10.2016 06:34 8,0 °C 8,1 °C 87 % 1009,5 hPa 0,0 mm 3,4 km/h (1 Bft) S 171 ° 0 min 0,000 mm 0,0 UV-I 0 W/m² 6,0 °C 6,4 km/h (2 Bft)
15.10.2016 06:35 8,1 °C 8,1 °C 87 % 1009,6 hPa 0,0 mm 2,1 km/h (1 Bft) S 171 ° 0 min 0,000 mm 0,0 UV-I 0 W/m² 6,1 °C 3,2 km/h (1 Bft)
15.10.2016 06:36 8,1 °C 8,1 °C 87 % 1009,8 hPa 0,0 mm 2,7 km/h (1 Bft) S 175 ° 0 min 0,000 mm 0,0 UV-I 0 W/m² 6,1 °C 4,8 km/h (1 Bft)
15.10.2016 06:37 8,1 °C 8,1 °C 87 % 1009,8 hPa 0,0 mm 1,2 km/h (1 Bft) S 175 ° 0 min 0,000 mm 0,0 UV-I 0 W/m² 6,1 °C 3,2 km/h (1 Bft)
15.10.2016 06:38 8,1 °C 8,1 °C 88 % 1009,8 hPa 0,0 mm 1,9 km/h (1 Bft) W-SW 238 ° 0 min 0,000 mm 0,0 UV-I 0 W/m² 6,2 °C 3,2 km/h (1 Bft)
15.10.2016 06:39 8,1 °C 8,1 °C 87 % 1009,8 hPa 0,0 mm 1,3 km/h (1 Bft) W-SW 238 ° 0 min 0,000 mm 0,0 UV-I 0 W/m² 6,1 °C 3,2 km/h (1 Bft)
15.10.2016 06:40 7,9 °C 8,1 °C 87 % 1009,8 hPa 0,0 mm 0,2 km/h (0 Bft) W-SW 238 ° 0 min 0,000 mm 0,0 UV-I 0 W/m² 5,9 °C 1,6 km/h (1 Bft)
15.10.2016 06:41 7,8 °C 7,9 °C 87 % 1009,8 hPa 0,0 mm 0,1 km/h (0 Bft) W-SW 238 ° 0 min 0,000 mm 0,0 UV-I 0 W/m² 5,8 °C 1,6 km/h (1 Bft)
15.10.2016 06:42 7,7 °C 7,8 °C 88 % 1009,8 hPa 0,0 mm 1,0 km/h (0 Bft) W-SW 238 ° 0 min 0,000 mm 0,0 UV-I 0 W/m² 5,8 °C 1,6 km/h (1 Bft)
15.10.2016 06:43 7,6 °C 7,7 °C 88 % 1009,8 hPa 0,0 mm 0,7 km/h (0 Bft) W-SW 238 ° 0 min 0,000 mm 0,0 UV-I 0 W/m² 5,7 °C 1,6 km/h (1 Bft)
15.10.2016 06:44 7,6 °C 7,6 °C 89 % 1009,8 hPa 0,0 mm 2,0 km/h (1 Bft) W 281 ° 0 min 0,000 mm 0,0 UV-I 0 W/m² 5,9 °C 4,8 km/h (1 Bft)
15.10.2016 06:45 7,4 °C 7,6 °C 88 % 1009,9 hPa 0,0 mm 1,3 km/h (1 Bft) W 281 ° 0 min 0,000 mm 0,0 UV-I 0 W/m² 5,5 °C 3,2 km/h (1 Bft)
15.10.2016 06:46 7,4 °C 7,4 °C 89 % 1009,9 hPa 0,0 mm 0,6 km/h (0 Bft) W 281 ° 0 min 0,000 mm 0,0 UV-I 0 W/m² 5,7 °C 1,6 km/h (1 Bft)
15.10.2016 06:47 7,3 °C 7,4 °C 89 % 1010,0 hPa 0,0 mm 0,5 km/h (0 Bft) W 281 ° 0 min 0,000 mm 0,0 UV-I 0 W/m² 5,6 °C 1,6 km/h (1 Bft)
15.10.2016 06:48 7,2 °C 7,3 °C 89 % 1010,0 hPa 0,0 mm 0,9 km/h (0 Bft) W 281 ° 0 min 0,000 mm 0,0 UV-I 0 W/m² 5,5 °C 3,2 km/h (1 Bft)
15.10.2016 06:49 7,2 °C 7,2 °C 90 % 1010,0 hPa 0,0 mm 0,5 km/h (0 Bft) W 281 ° 0 min 0,000 mm 0,0 UV-I 0 W/m² 5,7 °C 1,6 km/h (1 Bft)
15.10.2016 06:50 7,1 °C 7,2 °C 90 % 1010,0 hPa 0,0 mm 0,0 km/h (0 Bft) W 281 ° 0 min 0,000 mm 0,0 UV-I 0 W/m² 5,6 °C 0,0 km/h (0 Bft)
15.10.2016 06:51 7,1 °C 7,2 °C 90 % 1010,0 hPa 0,0 mm 0,0 km/h (0 Bft) W 281 ° 0 min 0,000 mm 0,0 UV-I 0 W/m² 5,6 °C 0,0 km/h (0 Bft)
15.10.2016 06:52 7,2 °C 7,2 °C 90 % 1010,0 hPa 0,0 mm 0,0 km/h (0 Bft) W 281 ° 0 min 0,000 mm 0,0 UV-I 0 W/m² 5,7 °C 0,0 km/h (0 Bft)
15.10.2016 06:53 7,2 °C 7,2 °C 90 % 1010,0 hPa 0,0 mm 0,0 km/h (0 Bft) W 281 ° 0 min 0,000 mm 0,0 UV-I 0 W/m² 5,7 °C 0,0 km/h (0 Bft)
15.10.2016 06:54 7,2 °C 7,2 °C 91 % 1010,0 hPa 0,0 mm 0,0 km/h (0 Bft) W 281 ° 0 min 0,000 mm 0,0 UV-I 0 W/m² 5,8 °C 0,0 km/h (0 Bft)
15.10.2016 06:55 7,2 °C 7,2 °C 91 % 1010,1 hPa 0,0 mm 0,0 km/h (0 Bft) W 281 ° 0 min 0,000 mm 0,0 UV-I 0 W/m² 5,8 °C 0,0 km/h (0 Bft)
15.10.2016 06:56 7,2 °C 7,2 °C 90 % 1010,1 hPa 0,0 mm 0,0 km/h (0 Bft) W 281 ° 0 min 0,000 mm 0,0 UV-I 0 W/m² 5,7 °C 0,0 km/h (0 Bft)
15.10.2016 06:57 7,2 °C 7,2 °C 90 % 1010,1 hPa 0,0 mm 0,0 km/h (0 Bft) W 281 ° 0 min 0,000 mm 0,0 UV-I 0 W/m² 5,7 °C 0,0 km/h (0 Bft)
15.10.2016 06:58 7,1 °C 7,2 °C 90 % 1010,1 hPa 0,0 mm 0,0 km/h (0 Bft) W 281 ° 0 min 0,000 mm 0,0 UV-I 0 W/m² 5,6 °C 0,0 km/h (0 Bft)
15.10.2016 06:59 7,1 °C 7,1 °C 90 % 1010,1 hPa 0,0 mm 1,1 km/h (1 Bft) W 281 ° 0 min 0,000 mm 0,0 UV-I 0 W/m² 5,6 °C 1,6 km/h (1 Bft)
15.10.2016 07:00 7,2 °C 7,2 °C 91 % 1010,1 hPa 0,0 mm 0,9 km/h (0 Bft) W 281 ° 0 min 0,000 mm 0,0 UV-I 0 W/m² 5,8 °C 1,6 km/h (1 Bft)
15.10.2016 07:01 7,3 °C 7,3 °C 91 % 1010,1 hPa 0,0 mm 4,3 km/h (1 Bft) S 170 ° 0 min 0,000 mm 0,0 UV-I 0 W/m² 5,9 °C 6,4 km/h (2 Bft)
15.10.2016 07:02 7,4 °C 7,4 °C 91 % 1010,0 hPa 0,0 mm 4,1 km/h (1 Bft) S-SO 155 ° 0 min 0,000 mm 0,0 UV-I 0 W/m² 6,0 °C 6,4 km/h (2 Bft)
15.10.2016 07:03 7,6 °C 7,6 °C 90 % 1010,1 hPa 0,0 mm 4,3 km/h (1 Bft) S 179 ° 0 min 0,000 mm 0,0 UV-I 0 W/m² 6,1 °C 9,7 km/h (2 Bft)
15.10.2016 07:04 7,7 °C 7,7 °C 90 % 1010,1 hPa 0,0 mm 5,6 km/h (1 Bft) S 178 ° 0 min 0,000 mm 0,0 UV-I 0 W/m² 6,2 °C 9,7 km/h (2 Bft)
15.10.2016 07:05 7,8 °C 7,8 °C 90 % 1010,1 hPa 0,0 mm 2,0 km/h (1 Bft) S 178 ° 0 min 0,000 mm 0,0 UV-I 0 W/m² 6,3 °C 3,2 km/h (1 Bft)
15.10.2016 07:06 7,9 °C 7,9 °C 89 % 1010,1 hPa 0,0 mm 2,2 km/h (1 Bft) S 188 ° 0 min 0,000 mm 0,0 UV-I 0 W/m² 6,2 °C 3,2 km/h (1 Bft)
15.10.2016 07:07 8,0 °C 8,0 °C 89 % 1010,1 hPa 0,0 mm 1,1 km/h (1 Bft) S 188 ° 0 min 0,000 mm 0,0 UV-I 0 W/m² 6,3 °C 1,6 km/h (1 Bft)
15.10.2016 07:08 8,0 °C 8,1 °C 87 % 1010,2 hPa 0,0 mm 1,7 km/h (1 Bft) S 188 ° 0 min 0,000 mm 0,0 UV-I 0 W/m² 6,0 °C 3,2 km/h (1 Bft)
15.10.2016 07:09 8,0 °C 8,0 °C 87 % 1010,2 hPa 0,0 mm 0,6 km/h (0 Bft) S 188 ° 0 min 0,000 mm 0,0 UV-I 0 W/m² 6,0 °C 1,6 km/h (1 Bft)
15.10.2016 07:10 7,9 °C 8,0 °C 88 % 1010,2 hPa 0,0 mm 0,7 km/h (0 Bft) S 188 ° 0 min 0,000 mm 0,0 UV-I 0 W/m² 6,0 °C 1,6 km/h (1 Bft)
15.10.2016 07:11 7,8 °C 7,9 °C 88 % 1010,3 hPa 0,0 mm 1,3 km/h (1 Bft) SO 146 ° 0 min 0,000 mm 0,0 UV-I 0 W/m² 5,9 °C 3,2 km/h (1 Bft)
15.10.2016 07:12 7,7 °C 7,8 °C 88 % 1010,3 hPa 0,0 mm 3,2 km/h (1 Bft) O-SO 103 ° 0 min 0,000 mm 0,0 UV-I 0 W/m² 5,8 °C 4,8 km/h (1 Bft)
15.10.2016 07:13 7,6 °C 7,7 °C 88 % 1010,3 hPa 0,0 mm 4,4 km/h (1 Bft) O 95 ° 0 min 0,000 mm 0,0 UV-I 0 W/m² 5,7 °C 4,8 km/h (1 Bft)
15.10.2016 07:14 7,5 °C 7,6 °C 88 % 1010,4 hPa 0,0 mm 4,2 km/h (1 Bft) O 95 ° 0 min 0,000 mm 0,0 UV-I 0 W/m² 5,6 °C 4,8 km/h (1 Bft)
15.10.2016 07:15 7,4 °C 7,5 °C 89 % 1010,4 hPa 0,0 mm 2,7 km/h (1 Bft) O 94 ° 0 min 0,000 mm 0,0 UV-I 0 W/m² 5,7 °C 4,8 km/h (1 Bft)
15.10.2016 07:16 7,3 °C 7,4 °C 89 % 1010,4 hPa 0,0 mm 1,4 km/h (1 Bft) O 94 ° 0 min 0,000 mm 0,0 UV-I 0 W/m² 5,6 °C 1,6 km/h (1 Bft)
15.10.2016 07:17 7,3 °C 7,3 °C 90 % 1010,4 hPa 0,0 mm 1,5 km/h (1 Bft) O 94 ° 0 min 0,000 mm 0,0 UV-I 0 W/m² 5,8 °C 1,6 km/h (1 Bft)
15.10.2016 07:18 7,3 °C 7,3 °C 90 % 1010,4 hPa 0,0 mm 2,6 km/h (1 Bft) O 94 ° 0 min 0,000 mm 0,0 UV-I 0 W/m² 5,8 °C 3,2 km/h (1 Bft)
15.10.2016 07:19 7,4 °C 7,4 °C 90 % 1010,4 hPa 0,0 mm 2,3 km/h (1 Bft) O 94 ° 0 min 0,000 mm 0,0 UV-I 0 W/m² 5,9 °C 3,2 km/h (1 Bft)
15.10.2016 07:20 7,5 °C 7,5 °C 90 % 1010,4 hPa 0,0 mm 2,4 km/h (1 Bft) O 94 ° 0 min 0,000 mm 0,0 UV-I 0 W/m² 6,0 °C 3,2 km/h (1 Bft)
15.10.2016 07:21 7,6 °C 7,6 °C 89 % 1010,4 hPa 0,0 mm 3,8 km/h (1 Bft) S 188 ° 0 min 0,000 mm 0,0 UV-I 0 W/m² 5,9 °C 6,4 km/h (2 Bft)
15.10.2016 07:22 7,6 °C 7,6 °C 89 % 1010,4 hPa 0,0 mm 4,6 km/h (1 Bft) S 188 ° 0 min 0,000 mm 0,0 UV-I 0 W/m² 5,9 °C 6,4 km/h (2 Bft)
15.10.2016 07:23 7,6 °C 7,6 °C 88 % 1010,4 hPa 0,0 mm 4,5 km/h (1 Bft) S 189 ° 0 min 0,000 mm 0,0 UV-I 0 W/m² 5,7 °C 6,4 km/h (2 Bft)
15.10.2016 07:24 7,6 °C 7,6 °C 88 % 1010,4 hPa 0,0 mm 2,4 km/h (1 Bft) S 189 ° 0 min 0,000 mm 0,0 UV-I 0 W/m² 5,7 °C 3,2 km/h (1 Bft)
15.10.2016 07:25 7,6 °C 7,6 °C 89 % 1010,3 hPa 0,0 mm 2,1 km/h (1 Bft) S 189 ° 0 min 0,000 mm 0,0 UV-I 0 W/m² 5,9 °C 4,8 km/h (1 Bft)
15.10.2016 07:26 7,6 °C 7,6 °C 89 % 1010,3 hPa 0,0 mm 0,8 km/h (0 Bft) S 189 ° 0 min 0,000 mm 0,0 UV-I 0 W/m² 5,9 °C 1,6 km/h (1 Bft)
15.10.2016 07:27 7,6 °C 7,6 °C 89 % 1010,3 hPa 0,0 mm 1,4 km/h (1 Bft) S 189 ° 0 min 0,000 mm 0,0 UV-I 0 W/m² 5,9 °C 3,2 km/h (1 Bft)
15.10.2016 07:28 7,6 °C 7,6 °C 89 % 1010,3 hPa 0,0 mm 2,6 km/h (1 Bft) S-SW 200 ° 0 min 0,000 mm 0,0 UV-I 0 W/m² 5,9 °C 6,4 km/h (2 Bft)
15.10.2016 07:29 7,7 °C 7,7 °C 88 % 1010,4 hPa 0,0 mm 3,1 km/h (1 Bft) S-SW 192 ° 0 min 0,000 mm 0,0 UV-I 0 W/m² 5,8 °C 4,8 km/h (1 Bft)
15.10.2016 07:30 7,6 °C 7,7 °C 88 % 1010,3 hPa 0,0 mm 2,3 km/h (1 Bft) S-SW 192 ° 0 min 0,000 mm 0,0 UV-I 0 W/m² 5,7 °C 4,8 km/h (1 Bft)
15.10.2016 07:31 7,6 °C 7,6 °C 88 % 1010,3 hPa 0,0 mm 1,5 km/h (1 Bft) S-SW 192 ° 0 min 0,000 mm 0,0 UV-I 0 W/m² 5,7 °C 3,2 km/h (1 Bft)
15.10.2016 07:32 7,6 °C 7,6 °C 88 % 1010,3 hPa 0,0 mm 1,7 km/h (1 Bft) S-SW 192 ° 0 min 0,000 mm 0,0 UV-I 0 W/m² 5,7 °C 3,2 km/h (1 Bft)
15.10.2016 07:33 7,6 °C 7,6 °C 88 % 1010,3 hPa 0,0 mm 4,7 km/h (1 Bft) S-SW 210 ° 0 min 0,000 mm 0,0 UV-I 0 W/m² 5,7 °C 8,0 km/h (2 Bft)
15.10.2016 07:34 7,6 °C 7,6 °C 88 % 1010,4 hPa 0,0 mm 1,3 km/h (1 Bft) S-SW 210 ° 0 min 0,000 mm 0,0 UV-I 0 W/m² 5,7 °C 3,2 km/h (1 Bft)
15.10.2016 07:35 7,5 °C 7,6 °C 88 % 1010,4 hPa 0,0 mm 1,7 km/h (1 Bft) S-SW 210 ° 0 min 0,000 mm 0,0 UV-I 0 W/m² 5,6 °C 3,2 km/h (1 Bft)
15.10.2016 07:36 7,5 °C 7,6 °C 88 % 1010,4 hPa 0,0 mm 3,1 km/h (1 Bft) S-SW 210 ° 0 min 0,000 mm 0,0 UV-I 0 W/m² 5,6 °C 4,8 km/h (1 Bft)
15.10.2016 07:37 7,5 °C 7,6 °C 88 % 1010,4 hPa 0,0 mm 3,0 km/h (1 Bft) S-SW 196 ° 0 min 0,000 mm 0,0 UV-I 0 W/m² 5,6 °C 4,8 km/h (1 Bft)
15.10.2016 07:38 7,5 °C 7,5 °C 88 % 1010,4 hPa 0,0 mm 2,6 km/h (1 Bft) S-SW 196 ° 0 min 0,000 mm 0,0 UV-I 0 W/m² 5,6 °C 3,2 km/h (1 Bft)
15.10.2016 07:39 7,5 °C 7,5 °C 88 % 1010,4 hPa 0,0 mm 2,8 km/h (1 Bft) S-SW 196 ° 0 min 0,000 mm 0,0 UV-I 0 W/m² 5,6 °C 3,2 km/h (1 Bft)
15.10.2016 07:40 7,4 °C 7,5 °C 88 % 1010,5 hPa 0,0 mm 2,1 km/h (1 Bft) S-SW 196 ° 0 min 0,000 mm 0,0 UV-I 0 W/m² 5,5 °C 3,2 km/h (1 Bft)
15.10.2016 07:41 7,4 °C 7,4 °C 88 % 1010,5 hPa 0,0 mm 0,3 km/h (0 Bft) S-SW 196 ° 0 min 0,000 mm 0,0 UV-I 0 W/m² 5,5 °C 1,6 km/h (1 Bft)
15.10.2016 07:42 7,4 °C 7,4 °C 88 % 1010,5 hPa 0,0 mm 0,0 km/h (0 Bft) S-SW 196 ° 0 min 0,000 mm 0,0 UV-I 0 W/m² 5,5 °C 0,0 km/h (0 Bft)
15.10.2016 07:43 7,3 °C 7,4 °C 88 % 1010,5 hPa 0,0 mm 0,0 km/h (0 Bft) S-SW 196 ° 0 min 0,000 mm 0,0 UV-I 0 W/m² 5,4 °C 0,0 km/h (0 Bft)
15.10.2016 07:44 7,1 °C 7,3 °C 87 % 1010,5 hPa 0,0 mm 0,1 km/h (0 Bft) S-SW 196 ° 0 min 0,000 mm 0,0 UV-I 0 W/m² 5,1 °C 1,6 km/h (1 Bft)
15.10.2016 07:45 6,8 °C 7,1 °C 88 % 1010,5 hPa 0,0 mm 0,0 km/h (0 Bft) S-SW 196 ° 0 min 0,000 mm 0,0 UV-I 0 W/m² 5,0 °C 0,0 km/h (0 Bft)
15.10.2016 07:46 6,7 °C 6,8 °C 89 % 1010,5 hPa 0,0 mm 0,0 km/h (0 Bft) S-SW 196 ° 0 min 0,000 mm 0,0 UV-I 5 W/m² 5,0 °C 0,0 km/h (0 Bft)
15.10.2016 07:47 6,6 °C 6,7 °C 90 % 1010,5 hPa 0,0 mm 0,0 km/h (0 Bft) S-SW 196 ° 0 min 0,000 mm 0,0 UV-I 5 W/m² 5,1 °C 0,0 km/h (0 Bft)
15.10.2016 07:48 6,6 °C 6,6 °C 91 % 1010,5 hPa 0,0 mm 0,0 km/h (0 Bft) S-SW 196 ° 0 min 0,000 mm 0,0 UV-I 5 W/m² 5,2 °C 0,0 km/h (0 Bft)
15.10.2016 07:49 6,6 °C 6,6 °C 91 % 1010,5 hPa 0,0 mm 0,1 km/h (0 Bft) S-SW 196 ° 0 min 0,000 mm 0,0 UV-I 5 W/m² 5,2 °C 1,6 km/h (1 Bft)
15.10.2016 07:50 6,7 °C 6,7 °C 91 % 1010,6 hPa 0,0 mm 0,7 km/h (0 Bft) S-SW 196 ° 0 min 0,000 mm 0,0 UV-I 5 W/m² 5,3 °C 3,2 km/h (1 Bft)
15.10.2016 07:51 6,7 °C 6,7 °C 91 % 1010,5 hPa 0,0 mm 0,6 km/h (0 Bft) S-SW 196 ° 0 min 0,000 mm 0,0 UV-I 5 W/m² 5,3 °C 1,6 km/h (1 Bft)
15.10.2016 07:52 6,7 °C 6,7 °C 91 % 1010,6 hPa 0,0 mm 0,5 km/h (0 Bft) S-SW 196 ° 0 min 0,000 mm 0,0 UV-I 7 W/m² 5,3 °C 1,6 km/h (1 Bft)
15.10.2016 07:53 6,6 °C 6,7 °C 90 % 1010,6 hPa 0,0 mm 0,0 km/h (0 Bft) S-SW 196 ° 0 min 0,000 mm 0,0 UV-I 7 W/m² 5,1 °C 0,0 km/h (0 Bft)
15.10.2016 07:54 6,6 °C 6,6 °C 91 % 1010,6 hPa 0,0 mm 0,0 km/h (0 Bft) S-SW 196 ° 0 min 0,000 mm 0,0 UV-I 7 W/m² 5,2 °C 0,0 km/h (0 Bft)
15.10.2016 07:55 6,6 °C 6,6 °C 91 % 1010,6 hPa 0,0 mm 0,0 km/h (0 Bft) S-SW 196 ° 0 min 0,000 mm 0,0 UV-I 7 W/m² 5,2 °C 0,0 km/h (0 Bft)
15.10.2016 07:56 6,6 °C 6,6 °C 91 % 1010,6 hPa 0,0 mm 0,0 km/h (0 Bft) S-SW 196 ° 0 min 0,000 mm 0,0 UV-I 9 W/m² 5,2 °C 0,0 km/h (0 Bft)
15.10.2016 07:57 6,6 °C 6,6 °C 91 % 1010,6 hPa 0,0 mm 0,0 km/h (0 Bft) S-SW 196 ° 0 min 0,000 mm 0,0 UV-I 9 W/m² 5,2 °C 0,0 km/h (0 Bft)
15.10.2016 07:58 6,5 °C 6,6 °C 91 % 1010,6 hPa 0,0 mm 0,0 km/h (0 Bft) S-SW 196 ° 0 min 0,000 mm 0,0 UV-I 9 W/m² 5,1 °C 0,0 km/h (0 Bft)
15.10.2016 07:59 6,4 °C 6,6 °C 90 % 1010,6 hPa 0,0 mm 0,0 km/h (0 Bft) S-SW 196 ° 0 min 0,000 mm 0,0 UV-I 9 W/m² 4,9 °C 0,0 km/h (0 Bft)
15.10.2016 08:00 6,4 °C 6,4 °C 90 % 1010,7 hPa 0,0 mm 0,0 km/h (0 Bft) S-SW 196 ° 0 min 0,000 mm 0,0 UV-I 9 W/m² 4,9 °C 0,0 km/h (0 Bft)
15.10.2016 08:01 6,4 °C 6,4 °C 91 % 1010,7 hPa 0,0 mm 0,0 km/h (0 Bft) S-SW 196 ° 0 min 0,000 mm 0,0 UV-I 11 W/m² 5,0 °C 0,0 km/h (0 Bft)
15.10.2016 08:02 6,4 °C 6,4 °C 91 % 1010,7 hPa 0,0 mm 0,0 km/h (0 Bft) S-SW 196 ° 0 min 0,000 mm 0,0 UV-I 11 W/m² 5,0 °C 0,0 km/h (0 Bft)
15.10.2016 08:03 6,4 °C 6,4 °C 92 % 1010,7 hPa 0,0 mm 0,7 km/h (0 Bft) S-SW 196 ° 0 min 0,000 mm 0,0 UV-I 12 W/m² 5,2 °C 1,6 km/h (1 Bft)
15.10.2016 08:04 6,5 °C 6,5 °C 92 % 1010,7 hPa 0,0 mm 0,6 km/h (0 Bft) S-SW 196 ° 0 min 0,000 mm 0,0 UV-I 12 W/m² 5,3 °C 1,6 km/h (1 Bft)
15.10.2016 08:05 6,6 °C 6,6 °C 92 % 1010,7 hPa 0,0 mm 1,2 km/h (1 Bft) S-SW 196 ° 0 min 0,000 mm 0,0 UV-I 12 W/m² 5,4 °C 1,6 km/h (1 Bft)
15.10.2016 08:06 6,7 °C 6,7 °C 92 % 1010,8 hPa 0,0 mm 0,3 km/h (0 Bft) S-SW 196 ° 0 min 0,000 mm 0,0 UV-I 12 W/m² 5,5 °C 1,6 km/h (1 Bft)
15.10.2016 08:07 6,7 °C 6,7 °C 92 % 1010,8 hPa 0,0 mm 0,1 km/h (0 Bft) S-SW 196 ° 0 min 0,000 mm 0,0 UV-I 12 W/m² 5,5 °C 1,6 km/h (1 Bft)
15.10.2016 08:08 6,8 °C 6,8 °C 91 % 1010,8 hPa 0,0 mm 0,0 km/h (0 Bft) S-SW 196 ° 0 min 0,000 mm 0,0 UV-I 12 W/m² 5,4 °C 0,0 km/h (0 Bft)
15.10.2016 08:09 6,8 °C 6,8 °C 91 % 1010,9 hPa 0,0 mm 0,5 km/h (0 Bft) S-SW 196 ° 0 min 0,000 mm 0,0 UV-I 12 W/m² 5,4 °C 1,6 km/h (1 Bft)
15.10.2016 08:10 6,7 °C 6,8 °C 91 % 1010,9 hPa 0,0 mm 1,5 km/h (1 Bft) S-SW 196 ° 0 min 0,000 mm 0,0 UV-I 12 W/m² 5,3 °C 3,2 km/h (1 Bft)
15.10.2016 08:11 6,7 °C 6,7 °C 91 % 1010,9 hPa 0,0 mm 0,1 km/h (0 Bft) S-SW 196 ° 0 min 0,000 mm 0,0 UV-I 12 W/m² 5,3 °C 1,6 km/h (1 Bft)
15.10.2016 08:12 6,6 °C 6,7 °C 90 % 1011,0 hPa 0,0 mm 0,0 km/h (0 Bft) S-SW 196 ° 0 min 0,000 mm 0,0 UV-I 12 W/m² 5,1 °C 0,0 km/h (0 Bft)
15.10.2016 08:13 6,4 °C 6,6 °C 90 % 1011,0 hPa 0,0 mm 0,0 km/h (0 Bft) S-SW 196 ° 0 min 0,000 mm 0,0 UV-I 12 W/m² 4,9 °C 0,0 km/h (0 Bft)
15.10.2016 08:14 6,4 °C 6,4 °C 91 % 1011,0 hPa 0,0 mm 0,0 km/h (0 Bft) S-SW 196 ° 0 min 0,000 mm 0,0 UV-I 12 W/m² 5,0 °C 0,0 km/h (0 Bft)
15.10.2016 08:15 6,3 °C 6,4 °C 91 % 1011,0 hPa 0,0 mm 0,1 km/h (0 Bft) S-SW 196 ° 0 min 0,000 mm 0,0 UV-I 12 W/m² 4,9 °C 1,6 km/h (1 Bft)
15.10.2016 08:16 6,3 °C 6,3 °C 92 % 1011,1 hPa 0,0 mm 0,0 km/h (0 Bft) S-SW 196 ° 0 min 0,000 mm 0,0 UV-I 12 W/m² 5,1 °C 0,0 km/h (0 Bft)
15.10.2016 08:17 6,3 °C 6,4 °C 92 % 1011,1 hPa 0,0 mm 0,0 km/h (0 Bft) S-SW 196 ° 0 min 0,000 mm 0,0 UV-I 14 W/m² 5,1 °C 0,0 km/h (0 Bft)
15.10.2016 08:18 6,4 °C 6,4 °C 92 % 1011,1 hPa 0,0 mm 0,0 km/h (0 Bft) S-SW 196 ° 0 min 0,000 mm 0,0 UV-I 14 W/m² 5,2 °C 0,0 km/h (0 Bft)
15.10.2016 08:19 6,5 °C 6,5 °C 92 % 1011,2 hPa 0,0 mm 0,9 km/h (0 Bft) S-SW 196 ° 0 min 0,000 mm 0,0 UV-I 14 W/m² 5,3 °C 3,2 km/h (1 Bft)
15.10.2016 08:20 6,6 °C 6,6 °C 92 % 1011,1 hPa 0,0 mm 2,2 km/h (1 Bft) S-SW 196 ° 0 min 0,000 mm 0,0 UV-I 14 W/m² 5,4 °C 3,2 km/h (1 Bft)
15.10.2016 08:21 6,7 °C 6,7 °C 92 % 1011,1 hPa 0,0 mm 1,9 km/h (1 Bft) S-SW 196 ° 0 min 0,000 mm 0,0 UV-I 14 W/m² 5,5 °C 3,2 km/h (1 Bft)
15.10.2016 08:22 6,8 °C 6,8 °C 93 % 1011,1 hPa 0,0 mm 2,2 km/h (1 Bft) S-SW 196 ° 0 min 0,000 mm 0,0 UV-I 14 W/m² 5,7 °C 3,2 km/h (1 Bft)
15.10.2016 08:23 6,9 °C 6,9 °C 92 % 1011,1 hPa 0,0 mm 1,0 km/h (0 Bft) S-SW 196 ° 0 min 0,000 mm 0,0 UV-I 14 W/m² 5,7 °C 1,6 km/h (1 Bft)
15.10.2016 08:24 6,9 °C 7,0 °C 92 % 1011,1 hPa 0,0 mm 0,3 km/h (0 Bft) S-SW 196 ° 0 min 0,000 mm 0,0 UV-I 16 W/m² 5,7 °C 1,6 km/h (1 Bft)
15.10.2016 08:25 7,1 °C 7,1 °C 91 % 1011,2 hPa 0,0 mm 1,7 km/h (1 Bft) W-SW 240 ° 0 min 0,000 mm 0,0 UV-I 16 W/m² 5,7 °C 3,2 km/h (1 Bft)
15.10.2016 08:26 7,0 °C 7,1 °C 91 % 1011,2 hPa 0,0 mm 3,5 km/h (1 Bft) N-NW 348 ° 0 min 0,000 mm 0,0 UV-I 16 W/m² 5,6 °C 4,8 km/h (1 Bft)
15.10.2016 08:27 6,9 °C 7,0 °C 90 % 1011,2 hPa 0,0 mm 2,0 km/h (1 Bft) N-NW 348 ° 0 min 0,000 mm 0,0 UV-I 16 W/m² 5,4 °C 3,2 km/h (1 Bft)
15.10.2016 08:28 6,8 °C 6,9 °C 90 % 1011,2 hPa 0,0 mm 0,3 km/h (0 Bft) N-NW 348 ° 0 min 0,000 mm 0,0 UV-I 16 W/m² 5,3 °C 1,6 km/h (1 Bft)
15.10.2016 08:29 6,7 °C 6,8 °C 90 % 1011,3 hPa 0,0 mm 0,0 km/h (0 Bft) N-NW 348 ° 0 min 0,000 mm 0,0 UV-I 16 W/m² 5,2 °C 0,0 km/h (0 Bft)
15.10.2016 08:30 6,6 °C 6,7 °C 90 % 1011,3 hPa 0,0 mm 0,0 km/h (0 Bft) N-NW 348 ° 0 min 0,000 mm 0,0 UV-I 16 W/m² 5,1 °C 0,0 km/h (0 Bft)
15.10.2016 08:31 6,6 °C 6,6 °C 91 % 1011,3 hPa 0,0 mm 0,3 km/h (0 Bft) N-NW 348 ° 0 min 0,000 mm 0,0 UV-I 18 W/m² 5,2 °C 1,6 km/h (1 Bft)
15.10.2016 08:32 6,6 °C 6,6 °C 91 % 1011,3 hPa 0,0 mm 0,9 km/h (0 Bft) N-NW 348 ° 0 min 0,000 mm 0,0 UV-I 18 W/m² 5,2 °C 1,6 km/h (1 Bft)
15.10.2016 08:33 6,7 °C 6,7 °C 91 % 1011,3 hPa 0,0 mm 0,4 km/h (0 Bft) N-NW 348 ° 0 min 0,000 mm 0,0 UV-I 19 W/m² 5,3 °C 1,6 km/h (1 Bft)
15.10.2016 08:34 6,8 °C 6,8 °C 92 % 1011,3 hPa 0,0 mm 0,7 km/h (0 Bft) N-NW 348 ° 0 min 0,000 mm 0,0 UV-I 19 W/m² 5,6 °C 1,6 km/h (1 Bft)
15.10.2016 08:35 6,8 °C 6,8 °C 92 % 1011,3 hPa 0,0 mm 2,3 km/h (1 Bft) N-NW 348 ° 0 min 0,000 mm 0,0 UV-I 19 W/m² 5,6 °C 3,2 km/h (1 Bft)
15.10.2016 08:36 6,9 °C 6,9 °C 91 % 1011,3 hPa 0,0 mm 1,1 km/h (1 Bft) N-NW 348 ° 0 min 0,000 mm 0,0 UV-I 21 W/m² 5,5 °C 1,6 km/h (1 Bft)
15.10.2016 08:37 7,1 °C 7,1 °C 91 % 1011,4 hPa 0,0 mm 0,1 km/h (0 Bft) N-NW 348 ° 0 min 0,000 mm 0,0 UV-I 21 W/m² 5,7 °C 1,6 km/h (1 Bft)
15.10.2016 08:38 7,1 °C 7,1 °C 91 % 1011,3 hPa 0,0 mm 0,0 km/h (0 Bft) N-NW 348 ° 0 min 0,000 mm 0,0 UV-I 25 W/m² 5,7 °C 0,0 km/h (0 Bft)
15.10.2016 08:39 7,1 °C 7,1 °C 91 % 1011,3 hPa 0,0 mm 0,0 km/h (0 Bft) N-NW 348 ° 0 min 0,000 mm 0,0 UV-I 26 W/m² 5,7 °C 0,0 km/h (0 Bft)
15.10.2016 08:40 7,0 °C 7,1 °C 90 % 1011,3 hPa 0,0 mm 0,0 km/h (0 Bft) N-NW 348 ° 0 min 0,000 mm 0,0 UV-I 26 W/m² 5,5 °C 0,0 km/h (0 Bft)
15.10.2016 08:41 6,9 °C 7,1 °C 90 % 1011,3 hPa 0,0 mm 0,0 km/h (0 Bft) N-NW 348 ° 0 min 0,000 mm 0,0 UV-I 30 W/m² 5,4 °C 0,0 km/h (0 Bft)
15.10.2016 08:42 6,9 °C 6,9 °C 90 % 1011,3 hPa 0,0 mm 0,0 km/h (0 Bft) N-NW 348 ° 0 min 0,000 mm 0,0 UV-I 37 W/m² 5,4 °C 0,0 km/h (0 Bft)
15.10.2016 08:43 6,9 °C 6,9 °C 91 % 1011,3 hPa 0,0 mm 0,0 km/h (0 Bft) N-NW 348 ° 0 min 0,000 mm 0,0 UV-I 42 W/m² 5,5 °C 0,0 km/h (0 Bft)
15.10.2016 08:44 6,9 °C 6,9 °C 91 % 1011,2 hPa 0,0 mm 0,1 km/h (0 Bft) N-NW 348 ° 0 min 0,000 mm 0,0 UV-I 47 W/m² 5,5 °C 1,6 km/h (1 Bft)
15.10.2016 08:45 7,1 °C 7,1 °C 92 % 1011,3 hPa 0,0 mm 0,5 km/h (0 Bft) N-NW 348 ° 0 min 0,000 mm 0,0 UV-I 54 W/m² 5,9 °C 1,6 km/h (1 Bft)
15.10.2016 08:46 7,2 °C 7,2 °C 92 % 1011,3 hPa 0,0 mm 0,0 km/h (0 Bft) N-NW 348 ° 0 min 0,000 mm 0,0 UV-I 62 W/m² 6,0 °C 0,0 km/h (0 Bft)
15.10.2016 08:47 7,2 °C 7,2 °C 91 % 1011,4 hPa 0,0 mm 0,0 km/h (0 Bft) N-NW 348 ° 0 min 0,000 mm 0,0 UV-I 72 W/m² 5,8 °C 0,0 km/h (0 Bft)
15.10.2016 08:48 7,1 °C 7,2 °C 90 % 1011,3 hPa 0,0 mm 0,1 km/h (0 Bft) N-NW 348 ° 0 min 0,000 mm 0,0 UV-I 76 W/m² 5,6 °C 1,6 km/h (1 Bft)
15.10.2016 08:49 6,9 °C 7,1 °C 90 % 1011,4 hPa 0,0 mm 0,1 km/h (0 Bft) N-NW 348 ° 0 min 0,000 mm 0,0 UV-I 79 W/m² 5,4 °C 1,6 km/h (1 Bft)
15.10.2016 08:50 6,8 °C 6,9 °C 90 % 1011,4 hPa 0,0 mm 0,0 km/h (0 Bft) N-NW 348 ° 0 min 0,000 mm 0,0 UV-I 81 W/m² 5,3 °C 0,0 km/h (0 Bft)
15.10.2016 08:51 6,8 °C 6,8 °C 91 % 1011,3 hPa 0,0 mm 0,0 km/h (0 Bft) N-NW 348 ° 0 min 0,000 mm 0,0 UV-I 79 W/m² 5,4 °C 0,0 km/h (0 Bft)
15.10.2016 08:52 6,7 °C 6,8 °C 91 % 1011,3 hPa 0,0 mm 0,0 km/h (0 Bft) N-NW 348 ° 0 min 0,000 mm 0,0 UV-I 76 W/m² 5,3 °C 0,0 km/h (0 Bft)
15.10.2016 08:53 6,7 °C 6,8 °C 91 % 1011,4 hPa 0,0 mm 0,3 km/h (0 Bft) N-NW 348 ° 0 min 0,000 mm 0,0 UV-I 70 W/m² 5,3 °C 1,6 km/h (1 Bft)
15.10.2016 08:54 6,8 °C 6,8 °C 92 % 1011,4 hPa 0,0 mm 0,0 km/h (0 Bft) N-NW 348 ° 0 min 0,000 mm 0,0 UV-I 69 W/m² 5,6 °C 0,0 km/h (0 Bft)
15.10.2016 08:55 6,9 °C 6,9 °C 92 % 1011,4 hPa 0,0 mm 0,1 km/h (0 Bft) N-NW 348 ° 0 min 0,000 mm 0,0 UV-I 67 W/m² 5,7 °C 1,6 km/h (1 Bft)
15.10.2016 08:56 6,9 °C 6,9 °C 92 % 1011,4 hPa 0,0 mm 0,0 km/h (0 Bft) N-NW 348 ° 0 min 0,000 mm 0,0 UV-I 65 W/m² 5,7 °C 0,0 km/h (0 Bft)
15.10.2016 08:57 7,1 °C 7,1 °C 92 % 1011,4 hPa 0,0 mm 0,0 km/h (0 Bft) N-NW 348 ° 0 min 0,000 mm 0,0 UV-I 63 W/m² 5,9 °C 0,0 km/h (0 Bft)
15.10.2016 08:58 7,1 °C 7,1 °C 92 % 1011,4 hPa 0,0 mm 0,0 km/h (0 Bft) N-NW 348 ° 0 min 0,000 mm 0,0 UV-I 63 W/m² 5,9 °C 0,0 km/h (0 Bft)
15.10.2016 08:59 7,1 °C 7,2 °C 92 % 1011,4 hPa 0,0 mm 0,0 km/h (0 Bft) N-NW 348 ° 0 min 0,000 mm 0,0 UV-I 63 W/m² 5,9 °C 0,0 km/h (0 Bft)
15.10.2016 09:00 7,2 °C 7,2 °C 91 % 1011,5 hPa 0,0 mm 0,0 km/h (0 Bft) N-NW 348 ° 0 min 0,000 mm 0,0 UV-I 63 W/m² 5,8 °C 0,0 km/h (0 Bft)
15.10.2016 09:01 7,3 °C 7,3 °C 91 % 1011,5 hPa 0,0 mm 0,0 km/h (0 Bft) N-NW 348 ° 0 min 0,025 mm 0,0 UV-I 63 W/m² 5,9 °C 0,0 km/h (0 Bft)
15.10.2016 09:02 7,4 °C 7,4 °C 92 % 1011,5 hPa 0,0 mm 0,0 km/h (0 Bft) N-NW 348 ° 0 min 0,000 mm 0,0 UV-I 62 W/m² 6,2 °C 0,0 km/h (0 Bft)
15.10.2016 09:03 7,4 °C 7,4 °C 92 % 1011,5 hPa 0,0 mm 1,0 km/h (0 Bft) N-NW 348 ° 0 min 0,000 mm 0,0 UV-I 62 W/m² 6,2 °C 3,2 km/h (1 Bft)
15.10.2016 09:04 7,6 °C 7,6 °C 92 % 1011,5 hPa 0,0 mm 0,9 km/h (0 Bft) N-NW 348 ° 0 min 0,000 mm 0,0 UV-I 62 W/m² 6,4 °C 1,6 km/h (1 Bft)
15.10.2016 09:05 7,6 °C 7,6 °C 92 % 1011,5 hPa 0,0 mm 0,2 km/h (0 Bft) N-NW 348 ° 0 min 0,000 mm 0,0 UV-I 65 W/m² 6,4 °C 1,6 km/h (1 Bft)
15.10.2016 09:06 7,6 °C 7,6 °C 92 % 1011,5 hPa 0,0 mm 0,0 km/h (0 Bft) N-NW 348 ° 0 min 0,000 mm 0,0 UV-I 67 W/m² 6,4 °C 0,0 km/h (0 Bft)
15.10.2016 09:07 7,7 °C 7,7 °C 92 % 1011,6 hPa 0,0 mm 0,0 km/h (0 Bft) N-NW 348 ° 0 min 0,000 mm 0,0 UV-I 67 W/m² 6,5 °C 0,0 km/h (0 Bft)
15.10.2016 09:08 7,7 °C 7,7 °C 92 % 1011,6 hPa 0,0 mm 0,0 km/h (0 Bft) N-NW 348 ° 0 min 0,000 mm 0,0 UV-I 69 W/m² 6,5 °C 0,0 km/h (0 Bft)
15.10.2016 09:09 7,8 °C 7,8 °C 92 % 1011,6 hPa 0,0 mm 0,0 km/h (0 Bft) N-NW 348 ° 0 min 0,000 mm 0,5 UV-I 70 W/m² 6,6 °C 0,0 km/h (0 Bft)
15.10.2016 09:10 7,8 °C 7,8 °C 92 % 1011,6 hPa 0,0 mm 0,0 km/h (0 Bft) N-NW 348 ° 0 min 0,000 mm 0,5 UV-I 72 W/m² 6,6 °C 0,0 km/h (0 Bft)
15.10.2016 09:11 7,9 °C 7,9 °C 92 % 1011,6 hPa 0,0 mm 0,0 km/h (0 Bft) N-NW 348 ° 0 min 0,000 mm 0,5 UV-I 74 W/m² 6,7 °C 0,0 km/h (0 Bft)
15.10.2016 09:12 7,9 °C 7,9 °C 92 % 1011,6 hPa 0,0 mm 0,0 km/h (0 Bft) N-NW 348 ° 0 min 0,000 mm 0,5 UV-I 76 W/m² 6,7 °C 0,0 km/h (0 Bft)
15.10.2016 09:13 8,1 °C 8,1 °C 91 % 1011,6 hPa 0,0 mm 0,0 km/h (0 Bft) N-NW 348 ° 0 min 0,000 mm 0,5 UV-I 76 W/m² 6,7 °C 0,0 km/h (0 Bft)
15.10.2016 09:14 8,2 °C 8,2 °C 91 % 1011,6 hPa 0,0 mm 0,3 km/h (0 Bft) N-NW 348 ° 0 min 0,000 mm 0,5 UV-I 77 W/m² 6,8 °C 1,6 km/h (1 Bft)
15.10.2016 09:15 8,3 °C 8,3 °C 91 % 1011,6 hPa 0,0 mm 0,4 km/h (0 Bft) N-NW 348 ° 0 min 0,000 mm 0,5 UV-I 81 W/m² 6,9 °C 1,6 km/h (1 Bft)
15.10.2016 09:16 8,4 °C 8,4 °C 92 % 1011,6 hPa 0,0 mm 0,0 km/h (0 Bft) N-NW 348 ° 0 min 0,000 mm 0,5 UV-I 86 W/m² 7,2 °C 0,0 km/h (0 Bft)
15.10.2016 09:17 8,6 °C 8,6 °C 92 % 1011,6 hPa 0,0 mm 0,0 km/h (0 Bft) N-NW 348 ° 0 min 0,000 mm 0,5 UV-I 100 W/m² 7,4 °C 0,0 km/h (0 Bft)
15.10.2016 09:18 8,7 °C 8,7 °C 92 % 1011,6 hPa 0,0 mm 0,0 km/h (0 Bft) N-NW 348 ° 0 min 0,000 mm 0,6 UV-I 107 W/m² 7,5 °C 0,0 km/h (0 Bft)
15.10.2016 09:19 8,8 °C 8,8 °C 91 % 1011,7 hPa 0,0 mm 0,0 km/h (0 Bft) N-NW 348 ° 0 min 0,000 mm 0,6 UV-I 113 W/m² 7,4 °C 0,0 km/h (0 Bft)
15.10.2016 09:20 8,8 °C 8,8 °C 91 % 1011,7 hPa 0,0 mm 0,0 km/h (0 Bft) N-NW 348 ° 0 min 0,000 mm 0,6 UV-I 116 W/m² 7,4 °C 0,0 km/h (0 Bft)
15.10.2016 09:21 8,8 °C 8,8 °C 90 % 1011,7 hPa 0,0 mm 0,0 km/h (0 Bft) N-NW 348 ° 0 min 0,000 mm 0,6 UV-I 120 W/m² 7,3 °C 0,0 km/h (0 Bft)
15.10.2016 09:22 8,8 °C 8,8 °C 89 % 1011,7 hPa 0,0 mm 0,0 km/h (0 Bft) N-NW 348 ° 0 min 0,000 mm 0,6 UV-I 121 W/m² 7,1 °C 0,0 km/h (0 Bft)
15.10.2016 09:23 8,8 °C 8,8 °C 89 % 1011,8 hPa 0,0 mm 0,0 km/h (0 Bft) N-NW 348 ° 0 min 0,000 mm 0,6 UV-I 123 W/m² 7,1 °C 0,0 km/h (0 Bft)
15.10.2016 09:24 8,8 °C 8,8 °C 90 % 1011,8 hPa 0,0 mm 0,0 km/h (0 Bft) N-NW 348 ° 0 min 0,000 mm 0,6 UV-I 125 W/m² 7,3 °C 0,0 km/h (0 Bft)
15.10.2016 09:25 8,8 °C 8,8 °C 90 % 1011,8 hPa 0,0 mm 0,0 km/h (0 Bft) N-NW 348 ° 0 min 0,000 mm 0,6 UV-I 123 W/m² 7,3 °C 0,0 km/h (0 Bft)
15.10.2016 09:26 8,9 °C 8,9 °C 90 % 1011,8 hPa 0,0 mm 0,0 km/h (0 Bft) N-NW 348 ° 0 min 0,000 mm 0,6 UV-I 123 W/m² 7,4 °C 0,0 km/h (0 Bft)
15.10.2016 09:27 8,9 °C 8,9 °C 91 % 1011,9 hPa 0,0 mm 0,0 km/h (0 Bft) N-NW 348 ° 0 min 0,000 mm 0,6 UV-I 123 W/m² 7,5 °C 0,0 km/h (0 Bft)
15.10.2016 09:28 9,1 °C 9,1 °C 90 % 1011,9 hPa 0,0 mm 0,0 km/h (0 Bft) N-NW 348 ° 0 min 0,000 mm 0,6 UV-I 121 W/m² 7,5 °C 0,0 km/h (0 Bft)
15.10.2016 09:29 9,2 °C 9,2 °C 90 % 1011,9 hPa 0,0 mm 0,0 km/h (0 Bft) N-NW 348 ° 0 min 0,000 mm 0,6 UV-I 123 W/m² 7,6 °C 0,0 km/h (0 Bft)
15.10.2016 09:30 9,2 °C 9,2 °C 91 % 1012,0 hPa 0,0 mm 0,0 km/h (0 Bft) N-NW 348 ° 0 min 0,000 mm 0,6 UV-I 123 W/m² 7,8 °C 0,0 km/h (0 Bft)
15.10.2016 09:31 9,3 °C 9,3 °C 91 % 1012,0 hPa 0,0 mm 0,0 km/h (0 Bft) N-NW 348 ° 0 min 0,000 mm 0,6 UV-I 121 W/m² 7,9 °C 0,0 km/h (0 Bft)
15.10.2016 09:32 9,4 °C 9,4 °C 89 % 1012,0 hPa 0,0 mm 0,0 km/h (0 Bft) N-NW 348 ° 0 min 0,000 mm 0,7 UV-I 121 W/m² 7,7 °C 0,0 km/h (0 Bft)
15.10.2016 09:33 9,4 °C 9,4 °C 88 % 1012,0 hPa 0,0 mm 0,0 km/h (0 Bft) N-NW 348 ° 0 min 0,000 mm 0,7 UV-I 120 W/m² 7,5 °C 0,0 km/h (0 Bft)
15.10.2016 09:34 9,5 °C 9,5 °C 89 % 1012,0 hPa 0,0 mm 0,0 km/h (0 Bft) N-NW 348 ° 0 min 0,000 mm 0,7 UV-I 120 W/m² 7,8 °C 0,0 km/h (0 Bft)
15.10.2016 09:35 9,6 °C 9,6 °C 89 % 1012,0 hPa 0,0 mm 0,0 km/h (0 Bft) N-NW 348 ° 0 min 0,000 mm 0,7 UV-I 118 W/m² 7,9 °C 0,0 km/h (0 Bft)
15.10.2016 09:36 9,6 °C 9,6 °C 87 % 1012,0 hPa 0,0 mm 0,0 km/h (0 Bft) N-NW 348 ° 0 min 0,000 mm 0,7 UV-I 116 W/m² 7,5 °C 0,0 km/h (0 Bft)
15.10.2016 09:37 9,7 °C 9,7 °C 88 % 1012,0 hPa 0,0 mm 0,0 km/h (0 Bft) N-NW 348 ° 0 min 0,000 mm 0,6 UV-I 113 W/m² 7,8 °C 0,0 km/h (0 Bft)
15.10.2016 09:38 9,8 °C 9,8 °C 89 % 1012,0 hPa 0,0 mm 0,0 km/h (0 Bft) N-NW 348 ° 0 min 0,000 mm 0,6 UV-I 113 W/m² 8,1 °C 0,0 km/h (0 Bft)
15.10.2016 09:39 9,9 °C 9,9 °C 90 % 1012,0 hPa 0,0 mm 0,3 km/h (0 Bft) N-NW 348 ° 0 min 0,000 mm 0,6 UV-I 109 W/m² 8,3 °C 1,6 km/h (1 Bft)
15.10.2016 09:40 9,9 °C 9,9 °C 89 % 1012,0 hPa 0,0 mm 0,0 km/h (0 Bft) N-NW 348 ° 0 min 0,000 mm 0,6 UV-I 109 W/m² 8,2 °C 0,0 km/h (0 Bft)
15.10.2016 09:41 10,1 °C 10,1 °C 89 % 1012,0 hPa 0,0 mm 0,0 km/h (0 Bft) N-NW 348 ° 0 min 0,000 mm 0,6 UV-I 109 W/m² 8,4 °C 0,0 km/h (0 Bft)
15.10.2016 09:42 10,1 °C 10,1 °C 89 % 1012,1 hPa 0,0 mm 0,0 km/h (0 Bft) N-NW 348 ° 0 min 0,000 mm 0,6 UV-I 109 W/m² 8,4 °C 0,0 km/h (0 Bft)
15.10.2016 09:43 10,2 °C 10,2 °C 89 % 1012,0 hPa 0,0 mm 0,0 km/h (0 Bft) N-NW 348 ° 0 min 0,000 mm 0,6 UV-I 109 W/m² 8,5 °C 0,0 km/h (0 Bft)
15.10.2016 09:44 10,3 °C 10,3 °C 88 % 1012,1 hPa 0,0 mm 0,0 km/h (0 Bft) N-NW 348 ° 0 min 0,000 mm 0,6 UV-I 107 W/m² 8,4 °C 0,0 km/h (0 Bft)
15.10.2016 09:45 10,3 °C 10,3 °C 88 % 1012,1 hPa 0,0 mm 0,0 km/h (0 Bft) N-NW 348 ° 0 min 0,000 mm 0,6 UV-I 105 W/m² 8,4 °C 0,0 km/h (0 Bft)
15.10.2016 09:46 10,2 °C 10,3 °C 88 % 1012,1 hPa 0,0 mm 0,0 km/h (0 Bft) N-NW 348 ° 0 min 0,000 mm 0,7 UV-I 104 W/m² 8,3 °C 0,0 km/h (0 Bft)
15.10.2016 09:47 10,2 °C 10,2 °C 88 % 1012,1 hPa 0,0 mm 0,0 km/h (0 Bft) N-NW 348 ° 0 min 0,000 mm 0,7 UV-I 104 W/m² 8,3 °C 0,0 km/h (0 Bft)
15.10.2016 09:48 10,1 °C 10,2 °C 88 % 1012,1 hPa 0,0 mm 0,0 km/h (0 Bft) N-NW 348 ° 0 min 0,000 mm 0,7 UV-I 105 W/m² 8,2 °C 0,0 km/h (0 Bft)
15.10.2016 09:49 10,1 °C 10,1 °C 88 % 1012,1 hPa 0,0 mm 0,0 km/h (0 Bft) N-NW 348 ° 0 min 0,000 mm 0,7 UV-I 107 W/m² 8,2 °C 0,0 km/h (0 Bft)
15.10.2016 09:50 10,1 °C 10,1 °C 88 % 1012,2 hPa 0,0 mm 0,0 km/h (0 Bft) N-NW 348 ° 0 min 0,000 mm 0,7 UV-I 109 W/m² 8,2 °C 0,0 km/h (0 Bft)
15.10.2016 09:51 10,2 °C 10,2 °C 88 % 1012,2 hPa 0,0 mm 0,0 km/h (0 Bft) N-NW 348 ° 0 min 0,000 mm 0,7 UV-I 113 W/m² 8,3 °C 0,0 km/h (0 Bft)
15.10.2016 09:52 10,2 °C 10,2 °C 88 % 1012,2 hPa 0,0 mm 0,0 km/h (0 Bft) N-NW 348 ° 0 min 0,000 mm 0,7 UV-I 121 W/m² 8,3 °C 0,0 km/h (0 Bft)
15.10.2016 09:53 10,2 °C 10,2 °C 88 % 1012,2 hPa 0,0 mm 0,0 km/h (0 Bft) N-NW 348 ° 0 min 0,000 mm 0,8 UV-I 125 W/m² 8,3 °C 0,0 km/h (0 Bft)
15.10.2016 09:54 10,3 °C 10,3 °C 89 % 1012,3 hPa 0,0 mm 0,0 km/h (0 Bft) N-NW 348 ° 0 min 0,000 mm 0,8 UV-I 127 W/m² 8,6 °C 0,0 km/h (0 Bft)
15.10.2016 09:55 10,4 °C 10,4 °C 88 % 1012,2 hPa 0,0 mm 0,8 km/h (0 Bft) S-SW 201 ° 0 min 0,000 mm 0,8 UV-I 130 W/m² 8,5 °C 3,2 km/h (1 Bft)
15.10.2016 09:56 10,6 °C 10,6 °C 88 % 1012,2 hPa 0,0 mm 2,5 km/h (1 Bft) S-SW 199 ° 0 min 0,000 mm 0,8 UV-I 130 W/m² 8,7 °C 4,8 km/h (1 Bft)
15.10.2016 09:57 10,7 °C 10,7 °C 86 % 1012,2 hPa 0,0 mm 2,9 km/h (1 Bft) S 186 ° 0 min 0,000 mm 0,8 UV-I 130 W/m² 8,5 °C 4,8 km/h (1 Bft)
15.10.2016 09:58 10,9 °C 10,9 °C 87 % 1012,2 hPa 0,0 mm 3,7 km/h (1 Bft) S-SW 194 ° 0 min 0,000 mm 0,8 UV-I 127 W/m² 8,8 °C 6,4 km/h (2 Bft)
15.10.2016 09:59 11,1 °C 11,1 °C 83 % 1012,2 hPa 0,0 mm 4,8 km/h (1 Bft) S 190 ° 0 min 0,000 mm 0,8 UV-I 125 W/m² 8,3 °C 6,4 km/h (2 Bft)
15.10.2016 10:00 11,2 °C 11,2 °C 83 % 1012,2 hPa 0,0 mm 4,8 km/h (1 Bft) S 186 ° 0 min 0,000 mm 0,8 UV-I 123 W/m² 8,4 °C 6,4 km/h (2 Bft)
15.10.2016 10:01 11,3 °C 11,3 °C 84 % 1012,2 hPa 0,0 mm 2,8 km/h (1 Bft) S-SW 195 ° 0 min 0,051 mm 0,8 UV-I 123 W/m² 8,7 °C 4,8 km/h (1 Bft)
15.10.2016 10:02 11,3 °C 11,3 °C 82 % 1012,2 hPa 0,0 mm 3,8 km/h (1 Bft) S 191 ° 0 min 0,000 mm 0,8 UV-I 121 W/m² 8,3 °C 6,4 km/h (2 Bft)
15.10.2016 10:03 11,4 °C 11,4 °C 82 % 1012,2 hPa 0,0 mm 3,6 km/h (1 Bft) S 191 ° 0 min 0,000 mm 0,8 UV-I 121 W/m² 8,4 °C 4,8 km/h (1 Bft)
15.10.2016 10:04 11,5 °C 11,6 °C 82 % 1012,2 hPa 0,0 mm 0,9 km/h (0 Bft) S 191 ° 0 min 0,000 mm 0,9 UV-I 123 W/m² 8,5 °C 3,2 km/h (1 Bft)
15.10.2016 10:05 11,6 °C 11,6 °C 83 % 1012,3 hPa 0,0 mm 1,5 km/h (1 Bft) S 191 ° 0 min 0,000 mm 0,9 UV-I 125 W/m² 8,8 °C 3,2 km/h (1 Bft)
15.10.2016 10:06 11,6 °C 11,6 °C 83 % 1012,3 hPa 0,0 mm 1,8 km/h (1 Bft) S 173 ° 0 min 0,000 mm 0,9 UV-I 125 W/m² 8,8 °C 3,2 km/h (1 Bft)
15.10.2016 10:07 11,7 °C 11,7 °C 81 % 1012,3 hPa 0,0 mm 1,1 km/h (1 Bft) S 188 ° 0 min 0,000 mm 0,9 UV-I 125 W/m² 8,5 °C 3,2 km/h (1 Bft)
15.10.2016 10:08 11,7 °C 11,7 °C 83 % 1012,3 hPa 0,0 mm 1,3 km/h (1 Bft) S 188 ° 0 min 0,000 mm 0,9 UV-I 125 W/m² 8,9 °C 3,2 km/h (1 Bft)
15.10.2016 10:09 11,7 °C 11,7 °C 81 % 1012,3 hPa 0,0 mm 1,4 km/h (1 Bft) S 188 ° 0 min 0,000 mm 0,9 UV-I 128 W/m² 8,5 °C 4,8 km/h (1 Bft)
15.10.2016 10:10 11,8 °C 11,8 °C 81 % 1012,3 hPa 0,0 mm 1,7 km/h (1 Bft) S 188 ° 0 min 0,000 mm 0,9 UV-I 130 W/m² 8,6 °C 3,2 km/h (1 Bft)
15.10.2016 10:11 11,9 °C 11,9 °C 79 % 1012,3 hPa 0,0 mm 1,5 km/h (1 Bft) S 188 ° 0 min 0,000 mm 1,0 UV-I 130 W/m² 8,4 °C 3,2 km/h (1 Bft)
15.10.2016 10:12 11,9 °C 11,9 °C 80 % 1012,3 hPa 0,0 mm 1,0 km/h (0 Bft) S 188 ° 0 min 0,000 mm 1,0 UV-I 130 W/m² 8,6 °C 1,6 km/h (1 Bft)
15.10.2016 10:13 11,9 °C 11,9 °C 80 % 1012,3 hPa 0,0 mm 0,1 km/h (0 Bft) S 188 ° 0 min 0,000 mm 1,0 UV-I 128 W/m² 8,6 °C 1,6 km/h (1 Bft)
15.10.2016 10:14 12,0 °C 12,0 °C 80 % 1012,3 hPa 0,0 mm 0,5 km/h (0 Bft) S 188 ° 0 min 0,000 mm 1,0 UV-I 125 W/m² 8,7 °C 1,6 km/h (1 Bft)
15.10.2016 10:15 12,0 °C 12,0 °C 82 % 1012,3 hPa 0,0 mm 0,5 km/h (0 Bft) S 188 ° 0 min 0,000 mm 1,0 UV-I 125 W/m² 9,0 °C 1,6 km/h (1 Bft)
15.10.2016 10:16 11,9 °C 12,0 °C 82 % 1012,3 hPa 0,0 mm 1,3 km/h (1 Bft) S 188 ° 0 min 0,000 mm 1,0 UV-I 132 W/m² 8,9 °C 3,2 km/h (1 Bft)
15.10.2016 10:17 11,9 °C 11,9 °C 82 % 1012,3 hPa 0,0 mm 0,6 km/h (0 Bft) S 188 ° 0 min 0,000 mm 1,1 UV-I 132 W/m² 8,9 °C 1,6 km/h (1 Bft)
15.10.2016 10:18 11,9 °C 11,9 °C 85 % 1012,3 hPa 0,0 mm 0,9 km/h (0 Bft) S 188 ° 0 min 0,000 mm 1,1 UV-I 128 W/m² 9,5 °C 1,6 km/h (1 Bft)
15.10.2016 10:19 11,9 °C 11,9 °C 81 % 1012,3 hPa 0,0 mm 0,3 km/h (0 Bft) S 188 ° 0 min 0,000 mm 1,1 UV-I 127 W/m² 8,7 °C 1,6 km/h (1 Bft)
15.10.2016 10:20 12,0 °C 12,0 °C 83 % 1012,3 hPa 0,0 mm 2,1 km/h (1 Bft) SW 221 ° 0 min 0,000 mm 1,1 UV-I 125 W/m² 9,2 °C 3,2 km/h (1 Bft)
15.10.2016 10:21 12,1 °C 12,1 °C 82 % 1012,3 hPa 0,0 mm 1,5 km/h (1 Bft) W-SW 250 ° 0 min 0,000 mm 1,1 UV-I 123 W/m² 9,1 °C 3,2 km/h (1 Bft)
15.10.2016 10:22 12,1 °C 12,1 °C 82 % 1012,3 hPa 0,0 mm 2,1 km/h (1 Bft) W-SW 250 ° 0 min 0,000 mm 1,2 UV-I 121 W/m² 9,1 °C 3,2 km/h (1 Bft)
15.10.2016 10:23 12,1 °C 12,2 °C 82 % 1012,3 hPa 0,0 mm 0,6 km/h (0 Bft) W-SW 250 ° 0 min 0,000 mm 1,2 UV-I 121 W/m² 9,1 °C 3,2 km/h (1 Bft)
15.10.2016 10:24 12,2 °C 12,2 °C 83 % 1012,3 hPa 0,0 mm 1,4 km/h (1 Bft) W-SW 250 ° 0 min 0,000 mm 1,2 UV-I 121 W/m² 9,4 °C 3,2 km/h (1 Bft)
15.10.2016 10:25 12,2 °C 12,2 °C 82 % 1012,3 hPa 0,0 mm 0,7 km/h (0 Bft) W-SW 250 ° 0 min 0,000 mm 1,2 UV-I 121 W/m² 9,2 °C 1,6 km/h (1 Bft)
15.10.2016 10:26 12,2 °C 12,2 °C 82 % 1012,3 hPa 0,0 mm 1,4 km/h (1 Bft) W-SW 250 ° 0 min 0,000 mm 1,2 UV-I 123 W/m² 9,2 °C 3,2 km/h (1 Bft)
15.10.2016 10:27 12,2 °C 12,2 °C 83 % 1012,3 hPa 0,0 mm 1,1 km/h (1 Bft) W-SW 250 ° 0 min 0,000 mm 1,2 UV-I 121 W/m² 9,4 °C 1,6 km/h (1 Bft)
15.10.2016 10:28 12,1 °C 12,2 °C 83 % 1012,3 hPa 0,0 mm 0,1 km/h (0 Bft) W-SW 250 ° 0 min 0,000 mm 1,2 UV-I 118 W/m² 9,3 °C 1,6 km/h (1 Bft)
15.10.2016 10:29 12,1 °C 12,2 °C 82 % 1012,4 hPa 0,0 mm 1,4 km/h (1 Bft) W-SW 250 ° 0 min 0,000 mm 1,2 UV-I 116 W/m² 9,1 °C 3,2 km/h (1 Bft)
15.10.2016 10:30 12,1 °C 12,1 °C 82 % 1012,4 hPa 0,0 mm 1,6 km/h (1 Bft) W-SW 254 ° 0 min 0,000 mm 1,2 UV-I 114 W/m² 9,1 °C 3,2 km/h (1 Bft)
15.10.2016 10:31 12,1 °C 12,1 °C 84 % 1012,4 hPa 0,0 mm 2,6 km/h (1 Bft) W 267 ° 0 min 0,000 mm 1,2 UV-I 116 W/m² 9,5 °C 4,8 km/h (1 Bft)
15.10.2016 10:32 12,1 °C 12,1 °C 84 % 1012,4 hPa 0,0 mm 0,5 km/h (0 Bft) W 267 ° 0 min 0,000 mm 1,2 UV-I 118 W/m² 9,5 °C 1,6 km/h (1 Bft)
15.10.2016 10:33 12,1 °C 12,1 °C 84 % 1012,4 hPa 0,0 mm 0,9 km/h (0 Bft) W 267 ° 0 min 0,000 mm 1,2 UV-I 120 W/m² 9,5 °C 1,6 km/h (1 Bft)
15.10.2016 10:34 12,0 °C 12,1 °C 84 % 1012,4 hPa 0,0 mm 0,0 km/h (0 Bft) W 267 ° 0 min 0,000 mm 1,2 UV-I 118 W/m² 9,4 °C 0,0 km/h (0 Bft)
15.10.2016 10:35 11,9 °C 12,0 °C 84 % 1012,4 hPa 0,0 mm 0,0 km/h (0 Bft) W 267 ° 0 min 0,000 mm 1,2 UV-I 116 W/m² 9,3 °C 0,0 km/h (0 Bft)
15.10.2016 10:36 11,9 °C 11,9 °C 83 % 1012,4 hPa 0,0 mm 0,0 km/h (0 Bft) W 267 ° 0 min 0,000 mm 1,2 UV-I 118 W/m² 9,1 °C 0,0 km/h (0 Bft)
15.10.2016 10:37 11,9 °C 11,9 °C 83 % 1012,5 hPa 0,0 mm 0,0 km/h (0 Bft) W 267 ° 0 min 0,000 mm 1,2 UV-I 120 W/m² 9,1 °C 0,0 km/h (0 Bft)
15.10.2016 10:38 11,9 °C 11,9 °C 85 % 1012,5 hPa 0,0 mm 0,0 km/h (0 Bft) W 267 ° 0 min 0,000 mm 1,2 UV-I 123 W/m² 9,5 °C 0,0 km/h (0 Bft)
15.10.2016 10:39 11,9 °C 11,9 °C 85 % 1012,5 hPa 0,0 mm 0,0 km/h (0 Bft) W 267 ° 0 min 0,000 mm 1,3 UV-I 130 W/m² 9,5 °C 0,0 km/h (0 Bft)
15.10.2016 10:40 11,9 °C 11,9 °C 84 % 1012,5 hPa 0,0 mm 0,5 km/h (0 Bft) W 267 ° 0 min 0,000 mm 1,3 UV-I 141 W/m² 9,3 °C 1,6 km/h (1 Bft)
15.10.2016 10:41 11,9 °C 11,9 °C 83 % 1012,5 hPa 0,0 mm 0,0 km/h (0 Bft) W 267 ° 0 min 0,000 mm 1,3 UV-I 142 W/m² 9,1 °C 0,0 km/h (0 Bft)
15.10.2016 10:42 11,9 °C 11,9 °C 82 % 1012,6 hPa 0,0 mm 0,1 km/h (0 Bft) W 266 ° 0 min 0,000 mm 1,3 UV-I 142 W/m² 8,9 °C 1,6 km/h (1 Bft)
15.10.2016 10:43 11,9 °C 11,9 °C 84 % 1012,5 hPa 0,0 mm 0,5 km/h (0 Bft) W 266 ° 0 min 0,000 mm 1,3 UV-I 142 W/m² 9,3 °C 1,6 km/h (1 Bft)
15.10.2016 10:44 12,1 °C 12,1 °C 82 % 1012,6 hPa 0,0 mm 2,6 km/h (1 Bft) W 266 ° 0 min 0,000 mm 1,3 UV-I 148 W/m² 9,1 °C 4,8 km/h (1 Bft)
15.10.2016 10:45 12,1 °C 12,2 °C 83 % 1012,6 hPa 0,0 mm 1,9 km/h (1 Bft) W 266 ° 0 min 0,000 mm 1,3 UV-I 146 W/m² 9,3 °C 3,2 km/h (1 Bft)
15.10.2016 10:46 12,2 °C 12,2 °C 81 % 1012,6 hPa 0,0 mm 2,8 km/h (1 Bft) W 265 ° 0 min 0,000 mm 1,3 UV-I 146 W/m² 9,0 °C 4,8 km/h (1 Bft)
15.10.2016 10:47 12,3 °C 12,3 °C 78 % 1012,7 hPa 0,0 mm 2,7 km/h (1 Bft) W 278 ° 0 min 0,000 mm 1,4 UV-I 149 W/m² 8,6 °C 4,8 km/h (1 Bft)
15.10.2016 10:48 12,4 °C 12,4 °C 79 % 1012,7 hPa 0,0 mm 0,5 km/h (0 Bft) W 278 ° 0 min 0,000 mm 1,4 UV-I 153 W/m² 8,9 °C 1,6 km/h (1 Bft)
15.10.2016 10:49 12,5 °C 12,5 °C 81 % 1012,7 hPa 0,0 mm 2,2 km/h (1 Bft) W 278 ° 0 min 0,000 mm 1,4 UV-I 158 W/m² 9,3 °C 3,2 km/h (1 Bft)
15.10.2016 10:50 12,6 °C 12,6 °C 81 % 1012,7 hPa 0,0 mm 6,7 km/h (2 Bft) W-NW 300 ° 0 min 0,000 mm 1,4 UV-I 162 W/m² 9,4 °C 9,7 km/h (2 Bft)
15.10.2016 10:51 12,6 °C 12,6 °C 78 % 1012,7 hPa 0,0 mm 3,4 km/h (1 Bft) W-NW 290 ° 0 min 0,000 mm 1,4 UV-I 155 W/m² 8,9 °C 6,4 km/h (2 Bft)
15.10.2016 10:52 12,7 °C 12,7 °C 77 % 1012,7 hPa 0,0 mm 2,3 km/h (1 Bft) W 280 ° 0 min 0,000 mm 1,4 UV-I 158 W/m² 8,8 °C 4,8 km/h (1 Bft)
15.10.2016 10:53 12,8 °C 12,8 °C 78 % 1012,7 hPa 0,0 mm 4,8 km/h (1 Bft) W 268 ° 0 min 0,000 mm 1,5 UV-I 176 W/m² 9,1 °C 9,7 km/h (2 Bft)
15.10.2016 10:54 12,8 °C 12,8 °C 78 % 1012,7 hPa 0,0 mm 10,2 km/h (2 Bft) W-SW 251 ° 0 min 0,000 mm 1,5 UV-I 181 W/m² 9,1 °C 14,5 km/h (3 Bft)
15.10.2016 10:55 12,8 °C 12,8 °C 79 % 1012,7 hPa 0,0 mm 5,8 km/h (2 Bft) W 267 ° 0 min 0,000 mm 1,5 UV-I 162 W/m² 9,2 °C 9,7 km/h (2 Bft)
15.10.2016 10:56 12,9 °C 12,9 °C 78 % 1012,7 hPa 0,0 mm 4,6 km/h (1 Bft) W 260 ° 0 min 0,000 mm 1,6 UV-I 202 W/m² 9,2 °C 6,4 km/h (2 Bft)
15.10.2016 10:57 12,9 °C 12,9 °C 78 % 1012,7 hPa 0,0 mm 5,4 km/h (1 Bft) NW 317 ° 0 min 0,000 mm 1,6 UV-I 195 W/m² 9,2 °C 8,0 km/h (2 Bft)
15.10.2016 10:58 12,9 °C 12,9 °C 76 % 1012,7 hPa 0,0 mm 4,9 km/h (1 Bft) W-NW 286 ° 0 min 0,000 mm 1,6 UV-I 200 W/m² 8,8 °C 6,4 km/h (2 Bft)
15.10.2016 10:59 13,0 °C 13,0 °C 77 % 1012,7 hPa 0,0 mm 6,5 km/h (2 Bft) W-SW 257 ° 0 min 0,000 mm 2,2 UV-I 200 W/m² 9,1 °C 14,5 km/h (3 Bft)
15.10.2016 11:00 13,1 °C 13,1 °C 76 % 1012,7 hPa 0,0 mm 8,4 km/h (2 Bft) W-SW 248 ° 1 min 0,000 mm 1,8 UV-I 294 W/m² 9,0 °C 14,5 km/h (3 Bft)
15.10.2016 11:01 13,1 °C 13,1 °C 75 % 1012,7 hPa 0,0 mm 10,1 km/h (2 Bft) W 279 ° 1 min 0,076 mm 2,1 UV-I 376 W/m² 8,8 °C 12,9 km/h (3 Bft)
15.10.2016 11:02 13,1 °C 13,1 °C 76 % 1012,7 hPa 0,0 mm 8,9 km/h (2 Bft) W-SW 255 ° 1 min 0,000 mm 2,2 UV-I 461 W/m² 9,0 °C 11,3 km/h (2 Bft)
15.10.2016 11:03 13,2 °C 13,2 °C 77 % 1012,8 hPa 0,0 mm 5,9 km/h (2 Bft) W-NW 286 ° 1 min 0,000 mm 2,3 UV-I 466 W/m² 9,3 °C 9,7 km/h (2 Bft)
15.10.2016 11:04 13,2 °C 13,2 °C 76 % 1012,8 hPa 0,0 mm 4,8 km/h (1 Bft) W-SW 244 ° 1 min 0,000 mm 2,3 UV-I 464 W/m² 9,1 °C 8,0 km/h (2 Bft)
15.10.2016 11:05 13,2 °C 13,2 °C 75 % 1012,8 hPa 0,0 mm 4,4 km/h (1 Bft) W-SW 245 ° 1 min 0,000 mm 2,3 UV-I 454 W/m² 8,9 °C 6,4 km/h (2 Bft)
15.10.2016 11:06 13,2 °C 13,2 °C 76 % 1012,8 hPa 0,0 mm 6,4 km/h (2 Bft) W 275 ° 1 min 0,000 mm 2,3 UV-I 408 W/m² 9,1 °C 12,9 km/h (3 Bft)
15.10.2016 11:07 13,2 °C 13,2 °C 76 % 1012,9 hPa 0,0 mm 7,4 km/h (2 Bft) W 261 ° 1 min 0,000 mm 2,1 UV-I 309 W/m² 9,1 °C 12,9 km/h (3 Bft)
15.10.2016 11:08 13,3 °C 13,3 °C 75 % 1012,9 hPa 0,0 mm 8,9 km/h (2 Bft) W 267 ° 0 min 0,000 mm 2,0 UV-I 220 W/m² 9,0 °C 14,5 km/h (3 Bft)
15.10.2016 11:09 13,3 °C 13,3 °C 75 % 1012,9 hPa 0,0 mm 4,4 km/h (1 Bft) W 275 ° 0 min 0,000 mm 1,8 UV-I 237 W/m² 9,0 °C 9,7 km/h (2 Bft)
15.10.2016 11:10 13,3 °C 13,3 °C 76 % 1012,9 hPa 0,0 mm 4,3 km/h (1 Bft) W 271 ° 0 min 0,000 mm 1,8 UV-I 214 W/m² 9,2 °C 6,4 km/h (2 Bft)
15.10.2016 11:11 13,4 °C 13,4 °C 76 % 1012,9 hPa 0,0 mm 5,5 km/h (1 Bft) W 277 ° 0 min 0,000 mm 1,7 UV-I 174 W/m² 9,3 °C 11,3 km/h (2 Bft)
15.10.2016 11:12 13,4 °C 13,4 °C 74 % 1012,9 hPa 0,0 mm 8,6 km/h (2 Bft) W-NW 286 ° 0 min 0,000 mm 1,7 UV-I 174 W/m² 8,9 °C 14,5 km/h (3 Bft)
15.10.2016 11:13 13,5 °C 13,6 °C 74 % 1013,0 hPa 0,0 mm 9,4 km/h (2 Bft) NW 307 ° 0 min 0,000 mm 1,7 UV-I 165 W/m² 9,0 °C 14,5 km/h (3 Bft)
15.10.2016 11:14 13,6 °C 13,6 °C 74 % 1013,0 hPa 0,0 mm 5,7 km/h (1 Bft) W-NW 296 ° 0 min 0,000 mm 1,6 UV-I 197 W/m² 9,1 °C 11,3 km/h (2 Bft)
15.10.2016 11:15 13,6 °C 13,6 °C 75 % 1012,9 hPa 0,0 mm 8,4 km/h (2 Bft) NW 307 ° 0 min 0,000 mm 1,8 UV-I 243 W/m² 9,3 °C 14,5 km/h (3 Bft)
15.10.2016 11:16 13,7 °C 13,7 °C 73 % 1012,9 hPa 0,0 mm 6,5 km/h (2 Bft) S-SO 163 ° 0 min 0,000 mm 1,8 UV-I 200 W/m² 8,9 °C 9,7 km/h (2 Bft)
15.10.2016 11:17 13,7 °C 13,7 °C 75 % 1013,0 hPa 0,0 mm 7,1 km/h (2 Bft) NW 313 ° 0 min 0,000 mm 1,8 UV-I 185 W/m² 9,3 °C 11,3 km/h (2 Bft)
15.10.2016 11:18 13,7 °C 13,8 °C 74 % 1013,0 hPa 0,0 mm 11,9 km/h (2 Bft) W-NW 291 ° 0 min 0,000 mm 1,5 UV-I 93 W/m² 9,2 °C 17,7 km/h (3 Bft)
15.10.2016 11:19 13,8 °C 13,8 °C 73 % 1012,9 hPa 0,0 mm 9,0 km/h (2 Bft) W-SW 257 ° 0 min 0,000 mm 1,6 UV-I 81 W/m² 9,0 °C 14,5 km/h (3 Bft)
15.10.2016 11:20 13,8 °C 13,8 °C 74 % 1012,9 hPa 0,0 mm 11,2 km/h (2 Bft) W-SW 249 ° 0 min 0,000 mm 1,4 UV-I 60 W/m² 9,2 °C 14,5 km/h (3 Bft)
15.10.2016 11:21 13,7 °C 13,8 °C 74 % 1012,9 hPa 0,0 mm 12,0 km/h (2 Bft) W 273 ° 0 min 0,000 mm 1,4 UV-I 60 W/m² 9,2 °C 16,1 km/h (3 Bft)
15.10.2016 11:22 13,7 °C 13,7 °C 74 % 1012,9 hPa 0,0 mm 10,8 km/h (2 Bft) W-NW 286 ° 0 min 0,000 mm 1,4 UV-I 63 W/m² 9,2 °C 14,5 km/h (3 Bft)
15.10.2016 11:23 13,8 °C 13,8 °C 74 % 1012,9 hPa 0,0 mm 5,6 km/h (1 Bft) W-NW 290 ° 0 min 0,000 mm 1,4 UV-I 67 W/m² 9,2 °C 11,3 km/h (2 Bft)
15.10.2016 11:24 13,8 °C 13,8 °C 74 % 1012,9 hPa 0,0 mm 6,3 km/h (2 Bft) NW 306 ° 0 min 0,000 mm 1,5 UV-I 74 W/m² 9,2 °C 9,7 km/h (2 Bft)
15.10.2016 11:25 13,9 °C 13,9 °C 74 % 1012,9 hPa 0,0 mm 5,2 km/h (1 Bft) NW 319 ° 0 min 0,000 mm 1,5 UV-I 83 W/m² 9,3 °C 6,4 km/h (2 Bft)
15.10.2016 11:26 13,9 °C 13,9 °C 74 % 1013,0 hPa 0,0 mm 6,2 km/h (2 Bft) W 269 ° 0 min 0,000 mm 1,5 UV-I 109 W/m² 9,3 °C 12,9 km/h (3 Bft)
15.10.2016 11:27 14,0 °C 14,0 °C 74 % 1013,0 hPa 0,0 mm 7,8 km/h (2 Bft) W-NW 296 ° 0 min 0,000 mm 1,6 UV-I 125 W/m² 9,4 °C 12,9 km/h (3 Bft)
15.10.2016 11:28 14,1 °C 14,1 °C 74 % 1012,9 hPa 0,0 mm 4,4 km/h (1 Bft) NW 306 ° 0 min 0,000 mm 1,7 UV-I 139 W/m² 9,5 °C 6,4 km/h (2 Bft)
15.10.2016 11:29 14,2 °C 14,2 °C 76 % 1012,9 hPa 0,0 mm 6,0 km/h (2 Bft) W 279 ° 0 min 0,000 mm 1,7 UV-I 155 W/m² 10,0 °C 11,3 km/h (2 Bft)
15.10.2016 11:30 14,3 °C 14,3 °C 77 % 1012,9 hPa 0,0 mm 4,4 km/h (1 Bft) W-NW 298 ° 0 min 0,000 mm 1,8 UV-I 167 W/m² 10,3 °C 8,0 km/h (2 Bft)
15.10.2016 11:31 14,5 °C 14,5 °C 74 % 1013,0 hPa 0,0 mm 4,8 km/h (1 Bft) W 265 ° 0 min 0,000 mm 1,8 UV-I 190 W/m² 9,9 °C 9,7 km/h (2 Bft)
15.10.2016 11:32 14,6 °C 14,6 °C 73 % 1013,0 hPa 0,0 mm 5,4 km/h (1 Bft) W-SW 252 ° 0 min 0,000 mm 1,8 UV-I 204 W/m² 9,8 °C 9,7 km/h (2 Bft)
15.10.2016 11:33 14,5 °C 14,6 °C 74 % 1013,0 hPa 0,0 mm 5,6 km/h (1 Bft) W-NW 298 ° 0 min 0,000 mm 1,9 UV-I 227 W/m² 9,9 °C 9,7 km/h (2 Bft)
15.10.2016 11:34 14,5 °C 14,5 °C 74 % 1013,0 hPa 0,0 mm 5,1 km/h (1 Bft) NW 307 ° 0 min 0,000 mm 1,9 UV-I 262 W/m² 9,9 °C 6,4 km/h (2 Bft)
15.10.2016 11:35 14,6 °C 14,6 °C 74 % 1013,0 hPa 0,0 mm 7,9 km/h (2 Bft) W-NW 290 ° 0 min 0,000 mm 1,9 UV-I 227 W/m² 10,0 °C 11,3 km/h (2 Bft)
15.10.2016 11:36 14,6 °C 14,6 °C 73 % 1013,0 hPa 0,0 mm 7,5 km/h (2 Bft) W-NW 284 ° 0 min 0,000 mm 1,9 UV-I 244 W/m² 9,8 °C 12,9 km/h (3 Bft)
15.10.2016 11:37 14,6 °C 14,6 °C 73 % 1013,0 hPa 0,0 mm 8,7 km/h (2 Bft) NW 322 ° 0 min 0,000 mm 1,9 UV-I 209 W/m² 9,8 °C 12,9 km/h (3 Bft)
15.10.2016 11:38 14,4 °C 14,6 °C 73 % 1013,0 hPa 0,0 mm 6,7 km/h (2 Bft) W 277 ° 0 min 0,000 mm 2,6 UV-I 221 W/m² 9,6 °C 12,9 km/h (3 Bft)
15.10.2016 11:39 14,4 °C 14,4 °C 74 % 1013,0 hPa 0,0 mm 6,4 km/h (2 Bft) W-NW 292 ° 1 min 0,000 mm 2,7 UV-I 596 W/m² 9,8 °C 9,7 km/h (2 Bft)
15.10.2016 11:40 14,5 °C 14,5 °C 73 % 1013,1 hPa 0,0 mm 6,8 km/h (2 Bft) W 265 ° 1 min 0,000 mm 2,8 UV-I 554 W/m² 9,7 °C 9,7 km/h (2 Bft)
15.10.2016 11:41 14,6 °C 14,6 °C 73 % 1013,0 hPa 0,0 mm 8,0 km/h (2 Bft) NW 315 ° 1 min 0,000 mm 2,5 UV-I 573 W/m² 9,8 °C 11,3 km/h (2 Bft)
15.10.2016 11:42 14,6 °C 14,6 °C 73 % 1013,1 hPa 0,0 mm 8,3 km/h (2 Bft) N-NW 330 ° 1 min 0,000 mm 2,1 UV-I 573 W/m² 9,8 °C 12,9 km/h (3 Bft)
15.10.2016 11:43 14,6 °C 14,6 °C 74 % 1013,1 hPa 0,0 mm 7,7 km/h (2 Bft) W-NW 289 ° 1 min 0,000 mm 2,3 UV-I 287 W/m² 10,0 °C 11,3 km/h (2 Bft)
15.10.2016 11:44 14,6 °C 14,6 °C 73 % 1013,1 hPa 0,0 mm 8,2 km/h (2 Bft) W 269 ° 1 min 0,000 mm 2,0 UV-I 287 W/m² 9,8 °C 11,3 km/h (2 Bft)
15.10.2016 11:45 14,6 °C 14,6 °C 73 % 1013,1 hPa 0,0 mm 7,4 km/h (2 Bft) W-NW 292 ° 1 min 0,000 mm 2,3 UV-I 373 W/m² 9,8 °C 12,9 km/h (3 Bft)
15.10.2016 11:46 14,6 °C 14,6 °C 74 % 1013,1 hPa 0,0 mm 5,9 km/h (2 Bft) W 268 ° 1 min 0,000 mm 1,8 UV-I 373 W/m² 10,0 °C 6,4 km/h (2 Bft)
15.10.2016 11:47 14,6 °C 14,6 °C 73 % 1013,1 hPa 0,0 mm 7,9 km/h (2 Bft) W-NW 293 ° 1 min 0,000 mm 2,8 UV-I 373 W/m² 9,8 °C 14,5 km/h (3 Bft)
15.10.2016 11:48 14,6 °C 14,6 °C 72 % 1013,2 hPa 0,0 mm 7,4 km/h (2 Bft) W-NW 295 ° 1 min 0,000 mm 2,9 UV-I 373 W/m² 9,6 °C 12,9 km/h (3 Bft)
15.10.2016 11:49 14,6 °C 14,6 °C 72 % 1013,2 hPa 0,0 mm 8,2 km/h (2 Bft) NW 308 ° 1 min 0,000 mm 3,0 UV-I 578 W/m² 9,6 °C 12,9 km/h (3 Bft)
15.10.2016 11:50 14,6 °C 14,6 °C 73 % 1013,2 hPa 0,0 mm 5,2 km/h (1 Bft) N-NW 334 ° 1 min 0,000 mm 3,0 UV-I 589 W/m² 9,8 °C 8,0 km/h (2 Bft)
15.10.2016 11:51 14,7 °C 14,7 °C 73 % 1013,2 hPa 0,0 mm 6,8 km/h (2 Bft) NW 311 ° 1 min 0,000 mm 3,1 UV-I 598 W/m² 9,9 °C 11,3 km/h (2 Bft)
15.10.2016 11:52 14,8 °C 14,8 °C 75 % 1013,3 hPa 0,0 mm 7,3 km/h (2 Bft) W-SW 256 ° 1 min 0,000 mm 3,1 UV-I 605 W/m² 10,4 °C 11,3 km/h (2 Bft)
15.10.2016 11:53 14,9 °C 14,9 °C 73 % 1013,3 hPa 0,0 mm 6,2 km/h (2 Bft) NW 313 ° 1 min 0,000 mm 3,0 UV-I 541 W/m² 10,1 °C 11,3 km/h (2 Bft)
15.10.2016 11:54 14,9 °C 14,9 °C 73 % 1013,2 hPa 0,0 mm 9,4 km/h (2 Bft) W-NW 298 ° 1 min 0,000 mm 3,2 UV-I 598 W/m² 10,1 °C 12,9 km/h (3 Bft)
15.10.2016 11:55 15,0 °C 15,0 °C 72 % 1013,3 hPa 0,0 mm 6,4 km/h (2 Bft) NW 315 ° 1 min 0,000 mm 3,1 UV-I 526 W/m² 10,0 °C 11,3 km/h (2 Bft)
15.10.2016 11:56 15,0 °C 15,0 °C 73 % 1013,3 hPa 0,0 mm 4,4 km/h (1 Bft) W 281 ° 1 min 0,000 mm 3,1 UV-I 594 W/m² 10,2 °C 9,7 km/h (2 Bft)
15.10.2016 11:57 15,1 °C 15,1 °C 72 % 1013,3 hPa 0,0 mm 7,4 km/h (2 Bft) W-SW 245 ° 1 min 0,000 mm 3,1 UV-I 568 W/m² 10,1 °C 12,9 km/h (3 Bft)
15.10.2016 11:58 15,1 °C 15,1 °C 71 % 1013,3 hPa 0,0 mm 7,3 km/h (2 Bft) W 259 ° 1 min 0,000 mm 2,9 UV-I 568 W/m² 9,9 °C 11,3 km/h (2 Bft)
15.10.2016 11:59 15,0 °C 15,1 °C 74 % 1013,3 hPa 0,0 mm 6,8 km/h (2 Bft) W-NW 284 ° 1 min 0,000 mm 3,3 UV-I 568 W/m² 10,4 °C 11,3 km/h (2 Bft)
15.10.2016 12:00 14,9 °C 15,0 °C 71 % 1013,3 hPa 0,0 mm 6,6 km/h (2 Bft) NW 310 ° 1 min 0,000 mm 2,8 UV-I 568 W/m² 9,7 °C 12,9 km/h (3 Bft)
15.10.2016 12:01 15,0 °C 15,0 °C 73 % 1013,3 hPa 0,0 mm 9,9 km/h (2 Bft) W-SW 255 ° 1 min 0,178 mm 3,4 UV-I 568 W/m² 10,2 °C 14,5 km/h (3 Bft)
15.10.2016 12:02 15,0 °C 15,0 °C 71 % 1013,3 hPa 0,0 mm 5,6 km/h (1 Bft) W 277 ° 1 min 0,000 mm 3,1 UV-I 336 W/m² 9,8 °C 6,4 km/h (2 Bft)
15.10.2016 12:03 15,0 °C 15,0 °C 71 % 1013,3 hPa 0,0 mm 4,6 km/h (1 Bft) W 281 ° 0 min 0,000 mm 2,2 UV-I 239 W/m² 9,8 °C 6,4 km/h (2 Bft)
15.10.2016 12:04 14,9 °C 15,0 °C 72 % 1013,4 hPa 0,0 mm 9,1 km/h (2 Bft) W-NW 291 ° 0 min 0,000 mm 2,4 UV-I 288 W/m² 9,9 °C 14,5 km/h (3 Bft)
15.10.2016 12:05 14,9 °C 14,9 °C 71 % 1013,4 hPa 0,0 mm 7,1 km/h (2 Bft) W 270 ° 0 min 0,000 mm 2,9 UV-I 288 W/m² 9,7 °C 12,9 km/h (3 Bft)
15.10.2016 12:06 14,8 °C 14,9 °C 71 % 1013,4 hPa 0,0 mm 5,0 km/h (1 Bft) W 259 ° 0 min 0,000 mm 3,5 UV-I 288 W/m² 9,6 °C 6,4 km/h (2 Bft)
15.10.2016 12:07 14,9 °C 14,9 °C 73 % 1013,4 hPa 0,0 mm 5,3 km/h (1 Bft) W-NW 296 ° 0 min 0,000 mm 3,4 UV-I 288 W/m² 10,1 °C 6,4 km/h (2 Bft)
15.10.2016 12:08 15,0 °C 15,0 °C 74 % 1013,4 hPa 0,0 mm 5,1 km/h (1 Bft) NW 309 ° 1 min 0,000 mm 2,8 UV-I 429 W/m² 10,4 °C 6,4 km/h (2 Bft)
15.10.2016 12:09 15,0 °C 15,1 °C 72 % 1013,4 hPa 0,0 mm 4,8 km/h (1 Bft) W 273 ° 1 min 0,000 mm 3,0 UV-I 462 W/m² 10,0 °C 6,4 km/h (2 Bft)
15.10.2016 12:10 15,1 °C 15,1 °C 73 % 1013,4 hPa 0,0 mm 3,7 km/h (1 Bft) W-NW 287 ° 1 min 0,000 mm 2,4 UV-I 462 W/m² 10,3 °C 4,8 km/h (1 Bft)
15.10.2016 12:11 15,1 °C 15,1 °C 72 % 1013,4 hPa 0,0 mm 8,6 km/h (2 Bft) W-NW 294 ° 0 min 0,000 mm 2,2 UV-I 255 W/m² 10,1 °C 11,3 km/h (2 Bft)
15.10.2016 12:12 15,0 °C 15,1 °C 72 % 1013,4 hPa 0,0 mm 6,4 km/h (2 Bft) W-NW 302 ° 0 min 0,000 mm 2,2 UV-I 250 W/m² 10,0 °C 9,7 km/h (2 Bft)
15.10.2016 12:13 15,0 °C 15,0 °C 72 % 1013,4 hPa 0,0 mm 3,8 km/h (1 Bft) NW 317 ° 0 min 0,000 mm 3,2 UV-I 272 W/m² 10,0 °C 4,8 km/h (1 Bft)
15.10.2016 12:14 15,1 °C 15,1 °C 72 % 1013,4 hPa 0,0 mm 4,3 km/h (1 Bft) W-SW 250 ° 1 min 0,000 mm 2,9 UV-I 438 W/m² 10,1 °C 12,9 km/h (3 Bft)
15.10.2016 12:15 15,1 °C 15,1 °C 73 % 1013,4 hPa 0,0 mm 9,7 km/h (2 Bft) W-NW 283 ° 1 min 0,000 mm 2,7 UV-I 373 W/m² 10,3 °C 12,9 km/h (3 Bft)
15.10.2016 12:16 15,1 °C 15,1 °C 72 % 1013,4 hPa 0,0 mm 4,8 km/h (1 Bft) W 266 ° 1 min 0,000 mm 3,3 UV-I 373 W/m² 10,1 °C 8,0 km/h (2 Bft)
15.10.2016 12:17 15,2 °C 15,2 °C 73 % 1013,4 hPa 0,0 mm 8,3 km/h (2 Bft) W-SW 247 ° 1 min 0,000 mm 3,4 UV-I 373 W/m² 10,4 °C 11,3 km/h (2 Bft)
15.10.2016 12:18 15,2 °C 15,2 °C 70 % 1013,4 hPa 0,0 mm 4,8 km/h (1 Bft) W-NW 284 ° 1 min 0,000 mm 3,2 UV-I 650 W/m² 9,8 °C 9,7 km/h (2 Bft)
15.10.2016 12:19 15,2 °C 15,3 °C 72 % 1013,4 hPa 0,0 mm 8,7 km/h (2 Bft) W 279 ° 1 min 0,000 mm 3,5 UV-I 461 W/m² 10,2 °C 12,9 km/h (3 Bft)
15.10.2016 12:20 15,3 °C 15,3 °C 70 % 1013,4 hPa 0,0 mm 6,2 km/h (2 Bft) W 264 ° 1 min 0,000 mm 3,3 UV-I 461 W/m² 9,9 °C 12,9 km/h (3 Bft)
15.10.2016 12:21 15,3 °C 15,3 °C 74 % 1013,5 hPa 0,0 mm 8,0 km/h (2 Bft) W 271 ° 1 min 0,000 mm 3,3 UV-I 571 W/m² 10,7 °C 11,3 km/h (2 Bft)
15.10.2016 12:22 15,4 °C 15,4 °C 72 % 1013,4 hPa 0,0 mm 9,2 km/h (2 Bft) W 281 ° 1 min 0,000 mm 3,6 UV-I 571 W/m² 10,4 °C 16,1 km/h (3 Bft)
15.10.2016 12:23 15,4 °C 15,4 °C 71 % 1013,5 hPa 0,0 mm 10,0 km/h (2 Bft) W 275 ° 1 min 0,000 mm 3,8 UV-I 744 W/m² 10,2 °C 12,9 km/h (3 Bft)
15.10.2016 12:24 15,6 °C 15,6 °C 71 % 1013,5 hPa 0,0 mm 10,1 km/h (2 Bft) W-NW 290 ° 1 min 0,000 mm 3,8 UV-I 742 W/m² 10,4 °C 16,1 km/h (3 Bft)
15.10.2016 12:25 15,6 °C 15,6 °C 72 % 1013,5 hPa 0,0 mm 4,8 km/h (1 Bft) W-NW 296 ° 1 min 0,000 mm 3,0 UV-I 399 W/m² 10,6 °C 8,0 km/h (2 Bft)
15.10.2016 12:26 15,6 °C 15,6 °C 71 % 1013,5 hPa 0,0 mm 6,8 km/h (2 Bft) W 281 ° 1 min 0,000 mm 2,8 UV-I 367 W/m² 10,4 °C 9,7 km/h (2 Bft)
15.10.2016 12:27 15,4 °C 15,6 °C 71 % 1013,5 hPa 0,0 mm 10,8 km/h (2 Bft) W 275 ° 1 min 0,000 mm 2,8 UV-I 381 W/m² 10,2 °C 12,9 km/h (3 Bft)
15.10.2016 12:28 15,4 °C 15,4 °C 71 % 1013,5 hPa 0,0 mm 8,8 km/h (2 Bft) W 264 ° 1 min 0,000 mm 2,4 UV-I 313 W/m² 10,2 °C 14,5 km/h (3 Bft)
15.10.2016 12:29 15,3 °C 15,4 °C 71 % 1013,5 hPa 0,0 mm 4,7 km/h (1 Bft) W 278 ° 0 min 0,000 mm 2,5 UV-I 299 W/m² 10,1 °C 11,3 km/h (2 Bft)
15.10.2016 12:30 15,3 °C 15,3 °C 71 % 1013,5 hPa 0,0 mm 10,1 km/h (2 Bft) W-NW 293 ° 1 min 0,000 mm 3,1 UV-I 408 W/m² 10,1 °C 12,9 km/h (3 Bft)
15.10.2016 12:31 15,3 °C 15,3 °C 72 % 1013,4 hPa 0,0 mm 10,0 km/h (2 Bft) W-NW 286 ° 1 min 0,000 mm 2,4 UV-I 329 W/m² 10,3 °C 14,5 km/h (3 Bft)
15.10.2016 12:32 15,3 °C 15,3 °C 71 % 1013,5 hPa 0,0 mm 7,8 km/h (2 Bft) NW 310 ° 0 min 0,000 mm 2,2 UV-I 279 W/m² 10,1 °C 12,9 km/h (3 Bft)
15.10.2016 12:33 15,2 °C 15,3 °C 70 % 1013,5 hPa 0,0 mm 9,7 km/h (2 Bft) W-SW 240 ° 0 min 0,000 mm 2,2 UV-I 246 W/m² 9,8 °C 17,7 km/h (3 Bft)
15.10.2016 12:34 15,2 °C 15,2 °C 72 % 1013,5 hPa 0,0 mm 8,0 km/h (2 Bft) W-NW 301 ° 0 min 0,000 mm 2,1 UV-I 248 W/m² 10,2 °C 12,9 km/h (3 Bft)
15.10.2016 12:35 15,2 °C 15,2 °C 72 % 1013,5 hPa 0,0 mm 9,7 km/h (2 Bft) W 271 ° 0 min 0,000 mm 2,1 UV-I 230 W/m² 10,2 °C 16,1 km/h (3 Bft)
15.10.2016 12:36 15,1 °C 15,2 °C 72 % 1013,5 hPa 0,0 mm 6,1 km/h (2 Bft) W-SW 256 ° 0 min 0,000 mm 2,1 UV-I 244 W/m² 10,1 °C 11,3 km/h (2 Bft)
15.10.2016 12:37 14,9 °C 15,1 °C 71 % 1013,5 hPa 0,0 mm 9,0 km/h (2 Bft) W 268 ° 0 min 0,000 mm 1,9 UV-I 211 W/m² 9,7 °C 11,3 km/h (2 Bft)
15.10.2016 12:38 14,9 °C 14,9 °C 72 % 1013,6 hPa 0,0 mm 4,4 km/h (1 Bft) W-NW 293 ° 0 min 0,000 mm 1,9 UV-I 195 W/m² 9,9 °C 6,4 km/h (2 Bft)
15.10.2016 12:39 14,8 °C 14,9 °C 74 % 1013,6 hPa 0,0 mm 5,6 km/h (1 Bft) W-NW 290 ° 0 min 0,000 mm 1,9 UV-I 192 W/m² 10,2 °C 12,9 km/h (3 Bft)
15.10.2016 12:40 14,7 °C 14,8 °C 74 % 1013,5 hPa 0,0 mm 9,7 km/h (2 Bft) W 277 ° 0 min 0,000 mm 1,8 UV-I 193 W/m² 10,1 °C 12,9 km/h (3 Bft)
15.10.2016 12:41 14,7 °C 14,7 °C 74 % 1013,6 hPa 0,0 mm 7,1 km/h (2 Bft) W 264 ° 0 min 0,000 mm 1,8 UV-I 197 W/m² 10,1 °C 11,3 km/h (2 Bft)
15.10.2016 12:42 14,6 °C 14,7 °C 75 % 1013,6 hPa 0,0 mm 11,9 km/h (2 Bft) W-NW 298 ° 0 min 0,000 mm 1,8 UV-I 202 W/m² 10,2 °C 17,7 km/h (3 Bft)
15.10.2016 12:43 14,6 °C 14,6 °C 75 % 1013,5 hPa 0,0 mm 7,6 km/h (2 Bft) NW 304 ° 0 min 0,000 mm 1,8 UV-I 200 W/m² 10,2 °C 14,5 km/h (3 Bft)
15.10.2016 12:44 14,5 °C 14,6 °C 74 % 1013,6 hPa 0,0 mm 10,2 km/h (2 Bft) NW 306 ° 0 min 0,000 mm 1,9 UV-I 202 W/m² 9,9 °C 16,1 km/h (3 Bft)
15.10.2016 12:45 14,4 °C 14,5 °C 76 % 1013,6 hPa 0,0 mm 11,3 km/h (2 Bft) W-NW 294 ° 0 min 0,000 mm 1,9 UV-I 200 W/m² 10,2 °C 16,1 km/h (3 Bft)
15.10.2016 12:46 14,4 °C 14,4 °C 75 % 1013,6 hPa 0,0 mm 12,3 km/h (3 Bft) W 273 ° 0 min 0,000 mm 1,9 UV-I 190 W/m² 10,0 °C 17,7 km/h (3 Bft)
15.10.2016 12:47 14,4 °C 14,4 °C 75 % 1013,6 hPa 0,0 mm 7,2 km/h (2 Bft) W-NW 283 ° 0 min 0,000 mm 1,9 UV-I 169 W/m² 10,0 °C 12,9 km/h (3 Bft)
15.10.2016 12:48 14,4 °C 14,4 °C 75 % 1013,6 hPa 0,0 mm 10,6 km/h (2 Bft) W-NW 291 ° 0 min 0,000 mm 1,8 UV-I 174 W/m² 10,0 °C 16,1 km/h (3 Bft)
15.10.2016 12:49 14,3 °C 14,4 °C 75 % 1013,6 hPa 0,0 mm 8,9 km/h (2 Bft) W 279 ° 0 min 0,000 mm 2,2 UV-I 250 W/m² 9,9 °C 14,5 km/h (3 Bft)
15.10.2016 12:50 14,3 °C 14,3 °C 74 % 1013,6 hPa 0,0 mm 6,0 km/h (2 Bft) NW 305 ° 0 min 0,000 mm 2,4 UV-I 250 W/m² 9,7 °C 14,5 km/h (3 Bft)
15.10.2016 12:51 14,3 °C 14,3 °C 75 % 1013,6 hPa 0,0 mm 8,5 km/h (2 Bft) N-NW 345 ° 0 min 0,000 mm 2,1 UV-I 250 W/m² 9,9 °C 14,5 km/h (3 Bft)
15.10.2016 12:52 14,3 °C 14,3 °C 75 % 1013,6 hPa 0,0 mm 7,4 km/h (2 Bft) W 267 ° 0 min 0,000 mm 2,0 UV-I 211 W/m² 9,9 °C 11,3 km/h (2 Bft)
15.10.2016 12:53 14,3 °C 14,3 °C 75 % 1013,6 hPa 0,0 mm 5,1 km/h (1 Bft) NW 312 ° 0 min 0,000 mm 1,9 UV-I 171 W/m² 9,9 °C 8,0 km/h (2 Bft)
15.10.2016 12:54 14,3 °C 14,3 °C 76 % 1013,6 hPa 0,0 mm 6,3 km/h (2 Bft) W-NW 292 ° 0 min 0,000 mm 1,9 UV-I 144 W/m² 10,1 °C 9,7 km/h (2 Bft)
15.10.2016 12:55 14,3 °C 14,3 °C 76 % 1013,6 hPa 0,0 mm 5,0 km/h (1 Bft) W-NW 285 ° 0 min 0,000 mm 2,0 UV-I 178 W/m² 10,1 °C 8,0 km/h (2 Bft)
15.10.2016 12:56 14,3 °C 14,3 °C 77 % 1013,6 hPa 0,0 mm 5,7 km/h (1 Bft) W 277 ° 0 min 0,000 mm 2,2 UV-I 278 W/m² 10,3 °C 9,7 km/h (2 Bft)
15.10.2016 12:57 14,2 °C 14,3 °C 77 % 1013,6 hPa 0,0 mm 4,5 km/h (1 Bft) NW 304 ° 0 min 0,000 mm 2,0 UV-I 230 W/m² 10,2 °C 8,0 km/h (2 Bft)
15.10.2016 12:58 14,2 °C 14,2 °C 77 % 1013,6 hPa 0,0 mm 3,2 km/h (1 Bft) W 270 ° 0 min 0,000 mm 1,9 UV-I 162 W/m² 10,2 °C 4,8 km/h (1 Bft)
15.10.2016 12:59 14,2 °C 14,2 °C 76 % 1013,6 hPa 0,0 mm 6,0 km/h (2 Bft) W 263 ° 0 min 0,000 mm 2,0 UV-I 214 W/m² 10,0 °C 16,1 km/h (3 Bft)
15.10.2016 13:00 14,1 °C 14,2 °C 76 % 1013,6 hPa 0,0 mm 8,4 km/h (2 Bft) W-SW 247 ° 0 min 0,000 mm 2,1 UV-I 214 W/m² 9,9 °C 11,3 km/h (2 Bft)
15.10.2016 13:01 14,1 °C 14,1 °C 76 % 1013,6 hPa 0,0 mm 6,6 km/h (2 Bft) W-NW 286 ° 1 min 0,203 mm 2,2 UV-I 343 W/m² 9,9 °C 9,7 km/h (2 Bft)
15.10.2016 13:02 14,1 °C 14,1 °C 76 % 1013,6 hPa 0,0 mm 5,3 km/h (1 Bft) W-NW 300 ° 1 min 0,000 mm 2,5 UV-I 327 W/m² 9,9 °C 11,3 km/h (2 Bft)
15.10.2016 13:03 14,2 °C 14,2 °C 76 % 1013,6 hPa 0,0 mm 7,1 km/h (2 Bft) W-NW 293 ° 1 min 0,000 mm 3,2 UV-I 327 W/m² 10,0 °C 11,3 km/h (2 Bft)
15.10.2016 13:04 14,4 °C 14,4 °C 77 % 1013,6 hPa 0,0 mm 6,3 km/h (2 Bft) W-SW 238 ° 1 min 0,000 mm 2,4 UV-I 327 W/m² 10,4 °C 11,3 km/h (2 Bft)
15.10.2016 13:05 14,4 °C 14,4 °C 76 % 1013,7 hPa 0,0 mm 6,3 km/h (2 Bft) W-SW 255 ° 1 min 0,000 mm 2,3 UV-I 329 W/m² 10,2 °C 9,7 km/h (2 Bft)
15.10.2016 13:06 14,5 °C 14,5 °C 77 % 1013,7 hPa 0,0 mm 8,7 km/h (2 Bft) W-SW 251 ° 1 min 0,000 mm 2,6 UV-I 343 W/m² 10,5 °C 14,5 km/h (3 Bft)
15.10.2016 13:07 14,4 °C 14,5 °C 75 % 1013,7 hPa 0,0 mm 9,3 km/h (2 Bft) NW 313 ° 1 min 0,000 mm 2,6 UV-I 348 W/m² 10,0 °C 16,1 km/h (3 Bft)
15.10.2016 13:08 14,5 °C 14,5 °C 75 % 1013,7 hPa 0,0 mm 7,6 km/h (2 Bft) W-NW 292 ° 1 min 0,000 mm 2,6 UV-I 359 W/m² 10,1 °C 11,3 km/h (2 Bft)
15.10.2016 13:09 14,6 °C 14,6 °C 75 % 1013,7 hPa 0,0 mm 9,3 km/h (2 Bft) W 265 ° 1 min 0,000 mm 2,6 UV-I 364 W/m² 10,2 °C 12,9 km/h (3 Bft)
15.10.2016 13:10 14,6 °C 14,6 °C 75 % 1013,7 hPa 0,0 mm 11,1 km/h (2 Bft) NW 315 ° 1 min 0,000 mm 2,7 UV-I 367 W/m² 10,2 °C 14,5 km/h (3 Bft)
15.10.2016 13:11 14,7 °C 14,7 °C 76 % 1013,7 hPa 0,0 mm 7,5 km/h (2 Bft) W-SW 256 ° 1 min 0,000 mm 3,1 UV-I 367 W/m² 10,5 °C 12,9 km/h (3 Bft)
15.10.2016 13:12 14,7 °C 14,7 °C 75 % 1013,7 hPa 0,0 mm 6,2 km/h (2 Bft) W 281 ° 1 min 0,000 mm 3,2 UV-I 473 W/m² 10,3 °C 9,7 km/h (2 Bft)
15.10.2016 13:13 14,8 °C 14,8 °C 74 % 1013,7 hPa 0,0 mm 3,8 km/h (1 Bft) SW 225 ° 1 min 0,000 mm 3,7 UV-I 473 W/m² 10,2 °C 8,0 km/h (2 Bft)
15.10.2016 13:14 14,8 °C 14,8 °C 77 % 1013,7 hPa 0,0 mm 7,1 km/h (2 Bft) W-NW 287 ° 1 min 0,000 mm 3,7 UV-I 733 W/m² 10,8 °C 11,3 km/h (2 Bft)
15.10.2016 13:15 15,0 °C 15,0 °C 74 % 1013,7 hPa 0,0 mm 13,8 km/h (3 Bft) W-SW 254 ° 1 min 0,000 mm 3,0 UV-I 733 W/m² 10,4 °C 17,7 km/h (3 Bft)
15.10.2016 13:16 14,9 °C 15,0 °C 73 % 1013,7 hPa 0,0 mm 11,7 km/h (2 Bft) N-NW 327 ° 1 min 0,000 mm 3,5 UV-I 733 W/m² 10,1 °C 14,5 km/h (3 Bft)
15.10.2016 13:17 14,9 °C 14,9 °C 74 % 1013,7 hPa 0,0 mm 6,4 km/h (2 Bft) W-NW 286 ° 1 min 0,000 mm 3,4 UV-I 664 W/m² 10,3 °C 9,7 km/h (2 Bft)
15.10.2016 13:18 14,9 °C 15,0 °C 74 % 1013,7 hPa 0,0 mm 8,2 km/h (2 Bft) W-NW 300 ° 1 min 0,000 mm 3,5 UV-I 622 W/m² 10,3 °C 12,9 km/h (3 Bft)
15.10.2016 13:19 15,0 °C 15,0 °C 73 % 1013,7 hPa 0,0 mm 7,2 km/h (2 Bft) W-SW 242 ° 1 min 0,000 mm 3,5 UV-I 622 W/m² 10,2 °C 12,9 km/h (3 Bft)
15.10.2016 13:20 14,9 °C 15,0 °C 74 % 1013,8 hPa 0,0 mm 8,4 km/h (2 Bft) W-SW 250 ° 1 min 0,000 mm 3,5 UV-I 636 W/m² 10,3 °C 11,3 km/h (2 Bft)
15.10.2016 13:21 15,0 °C 15,0 °C 75 % 1013,7 hPa 0,0 mm 7,6 km/h (2 Bft) W 277 ° 1 min 0,000 mm 3,3 UV-I 631 W/m² 10,6 °C 11,3 km/h (2 Bft)
15.10.2016 13:22 15,0 °C 15,0 °C 74 % 1013,7 hPa 0,0 mm 7,4 km/h (2 Bft) W-NW 294 ° 1 min 0,000 mm 2,2 UV-I 631 W/m² 10,4 °C 11,3 km/h (2 Bft)
15.10.2016 13:23 14,9 °C 15,0 °C 75 % 1013,8 hPa 0,0 mm 9,1 km/h (2 Bft) W-SW 246 ° 0 min 0,000 mm 2,2 UV-I 162 W/m² 10,5 °C 16,1 km/h (3 Bft)
15.10.2016 13:24 14,8 °C 14,9 °C 75 % 1013,9 hPa 0,0 mm 12,3 km/h (3 Bft) W-NW 290 ° 0 min 0,000 mm 2,0 UV-I 153 W/m² 10,4 °C 16,1 km/h (3 Bft)
15.10.2016 13:25 14,7 °C 14,8 °C 74 % 1013,8 hPa 0,0 mm 9,7 km/h (2 Bft) NW 312 ° 0 min 0,000 mm 1,9 UV-I 128 W/m² 10,1 °C 14,5 km/h (3 Bft)
15.10.2016 13:26 14,6 °C 14,7 °C 74 % 1013,8 hPa 0,0 mm 8,1 km/h (2 Bft) N-NW 337 ° 0 min 0,000 mm 1,8 UV-I 127 W/m² 10,0 °C 11,3 km/h (2 Bft)
15.10.2016 13:27 14,5 °C 14,6 °C 74 % 1013,8 hPa 0,0 mm 7,4 km/h (2 Bft) NW 324 ° 0 min 0,000 mm 2,0 UV-I 137 W/m² 9,9 °C 12,9 km/h (3 Bft)
15.10.2016 13:28 14,4 °C 14,5 °C 76 % 1013,8 hPa 0,0 mm 11,2 km/h (2 Bft) W 264 ° 0 min 0,000 mm 1,7 UV-I 111 W/m² 10,2 °C 14,5 km/h (3 Bft)
15.10.2016 13:29 14,3 °C 14,4 °C 75 % 1013,9 hPa 0,0 mm 10,1 km/h (2 Bft) W 267 ° 0 min 0,000 mm 1,7 UV-I 111 W/m² 9,9 °C 17,7 km/h (3 Bft)
15.10.2016 13:30 14,2 °C 14,3 °C 75 % 1013,8 hPa 0,0 mm 6,1 km/h (2 Bft) W 275 ° 0 min 0,000 mm 1,7 UV-I 120 W/m² 9,8 °C 11,3 km/h (2 Bft)
15.10.2016 13:31 14,1 °C 14,2 °C 75 % 1013,7 hPa 0,0 mm 7,9 km/h (2 Bft) W-NW 283 ° 0 min 0,000 mm 1,7 UV-I 134 W/m² 9,7 °C 14,5 km/h (3 Bft)
15.10.2016 13:32 14,1 °C 14,2 °C 76 % 1013,9 hPa 0,0 mm 6,4 km/h (2 Bft) W-SW 255 ° 0 min 0,000 mm 1,8 UV-I 146 W/m² 9,9 °C 12,9 km/h (3 Bft)
15.10.2016 13:33 14,1 °C 14,1 °C 76 % 1013,8 hPa 0,0 mm 9,7 km/h (2 Bft) W 277 ° 0 min 0,000 mm 2,0 UV-I 192 W/m² 9,9 °C 12,9 km/h (3 Bft)
15.10.2016 13:34 14,0 °C 14,1 °C 76 % 1013,9 hPa 0,0 mm 9,7 km/h (2 Bft) W-NW 289 ° 0 min 0,000 mm 1,9 UV-I 178 W/m² 9,8 °C 16,1 km/h (3 Bft)
15.10.2016 13:35 13,9 °C 14,0 °C 75 % 1013,9 hPa 0,0 mm 9,0 km/h (2 Bft) NW 304 ° 0 min 0,000 mm 1,9 UV-I 165 W/m² 9,5 °C 14,5 km/h (3 Bft)
15.10.2016 13:36 13,9 °C 13,9 °C 76 % 1013,9 hPa 0,0 mm 6,1 km/h (2 Bft) W-NW 292 ° 0 min 0,000 mm 1,9 UV-I 174 W/m² 9,7 °C 12,9 km/h (3 Bft)
15.10.2016 13:37 13,9 °C 13,9 °C 76 % 1013,9 hPa 0,0 mm 8,4 km/h (2 Bft) W 260 ° 0 min 0,000 mm 1,9 UV-I 179 W/m² 9,7 °C 14,5 km/h (3 Bft)
15.10.2016 13:38 13,9 °C 13,9 °C 76 % 1013,9 hPa 0,0 mm 6,7 km/h (2 Bft) W-NW 294 ° 0 min 0,000 mm 2,0 UV-I 192 W/m² 9,7 °C 11,3 km/h (2 Bft)
15.10.2016 13:39 13,9 °C 13,9 °C 77 % 1013,9 hPa 0,0 mm 7,2 km/h (2 Bft) W-SW 247 ° 0 min 0,000 mm 2,0 UV-I 197 W/m² 9,9 °C 11,3 km/h (2 Bft)
15.10.2016 13:40 13,9 °C 13,9 °C 76 % 1013,9 hPa 0,0 mm 6,6 km/h (2 Bft) W 261 ° 0 min 0,000 mm 2,1 UV-I 214 W/m² 9,7 °C 9,7 km/h (2 Bft)
15.10.2016 13:41 13,9 °C 13,9 °C 76 % 1013,9 hPa 0,0 mm 5,0 km/h (1 Bft) W 271 ° 0 min 0,000 mm 2,1 UV-I 209 W/m² 9,7 °C 8,0 km/h (2 Bft)
15.10.2016 13:42 13,9 °C 13,9 °C 76 % 1014,0 hPa 0,0 mm 4,9 km/h (1 Bft) N-NW 331 ° 0 min 0,000 mm 2,1 UV-I 211 W/m² 9,7 °C 6,4 km/h (2 Bft)
15.10.2016 13:43 13,9 °C 13,9 °C 77 % 1013,9 hPa 0,0 mm 5,5 km/h (1 Bft) W 271 ° 0 min 0,000 mm 2,1 UV-I 216 W/m² 9,9 °C 11,3 km/h (2 Bft)
15.10.2016 13:44 13,9 °C 14,0 °C 76 % 1013,9 hPa 0,0 mm 7,8 km/h (2 Bft) SW 236 ° 0 min 0,000 mm 2,1 UV-I 227 W/m² 9,7 °C 12,9 km/h (3 Bft)
15.10.2016 13:45 13,9 °C 14,0 °C 75 % 1014,0 hPa 0,0 mm 10,0 km/h (2 Bft) W 278 ° 0 min 0,000 mm 2,2 UV-I 236 W/m² 9,5 °C 12,9 km/h (3 Bft)
15.10.2016 13:46 14,1 °C 14,1 °C 77 % 1014,0 hPa 0,0 mm 5,1 km/h (1 Bft) W-SW 258 ° 0 min 0,000 mm 2,2 UV-I 257 W/m² 10,1 °C 9,7 km/h (2 Bft)
15.10.2016 13:47 14,1 °C 14,1 °C 77 % 1014,0 hPa 0,0 mm 6,9 km/h (2 Bft) W-SW 247 ° 0 min 0,000 mm 2,2 UV-I 264 W/m² 10,1 °C 11,3 km/h (2 Bft)
15.10.2016 13:48 14,1 °C 14,1 °C 76 % 1014,0 hPa 0,0 mm 3,6 km/h (1 Bft) W 277 ° 0 min 0,000 mm 2,3 UV-I 265 W/m² 9,9 °C 6,4 km/h (2 Bft)
15.10.2016 13:49 14,1 °C 14,1 °C 77 % 1014,0 hPa 0,0 mm 5,4 km/h (1 Bft) W 271 ° 0 min 0,000 mm 2,3 UV-I 279 W/m² 10,1 °C 9,7 km/h (2 Bft)
15.10.2016 13:50 14,2 °C 14,2 °C 75 % 1014,0 hPa 0,0 mm 4,8 km/h (1 Bft) W-NW 295 ° 0 min 0,000 mm 2,9 UV-I 279 W/m² 9,8 °C 6,4 km/h (2 Bft)
15.10.2016 13:51 14,3 °C 14,3 °C 76 % 1014,0 hPa 0,0 mm 8,9 km/h (2 Bft) W-NW 283 ° 1 min 0,000 mm 2,6 UV-I 373 W/m² 10,1 °C 16,1 km/h (3 Bft)
15.10.2016 13:52 14,3 °C 14,3 °C 75 % 1014,0 hPa 0,0 mm 9,0 km/h (2 Bft) N-NW 331 ° 0 min 0,000 mm 2,2 UV-I 253 W/m² 9,9 °C 12,9 km/h (3 Bft)
15.10.2016 13:53 14,3 °C 14,3 °C 73 % 1014,0 hPa 0,0 mm 5,3 km/h (1 Bft) NW 315 ° 0 min 0,000 mm 2,1 UV-I 253 W/m² 9,5 °C 8,0 km/h (2 Bft)
15.10.2016 13:54 14,3 °C 14,3 °C 74 % 1014,0 hPa 0,0 mm 5,8 km/h (2 Bft) NW 306 ° 0 min 0,000 mm 2,1 UV-I 257 W/m² 9,7 °C 11,3 km/h (2 Bft)
15.10.2016 13:55 14,3 °C 14,3 °C 74 % 1014,0 hPa 0,0 mm 7,0 km/h (2 Bft) W-NW 286 ° 0 min 0,000 mm 2,1 UV-I 265 W/m² 9,7 °C 12,9 km/h (3 Bft)
15.10.2016 13:56 14,4 °C 14,4 °C 76 % 1014,0 hPa 0,0 mm 6,8 km/h (2 Bft) SW 226 ° 0 min 0,000 mm 2,1 UV-I 278 W/m² 10,2 °C 12,9 km/h (3 Bft)
15.10.2016 13:57 14,4 °C 14,4 °C 75 % 1014,0 hPa 0,0 mm 4,8 km/h (1 Bft) W-SW 251 ° 1 min 0,000 mm 2,2 UV-I 315 W/m² 10,0 °C 6,4 km/h (2 Bft)
15.10.2016 13:58 14,4 °C 14,4 °C 75 % 1014,0 hPa 0,0 mm 4,8 km/h (1 Bft) W 259 ° 0 min 0,000 mm 2,1 UV-I 279 W/m² 10,0 °C 6,4 km/h (2 Bft)
15.10.2016 13:59 14,5 °C 14,5 °C 76 % 1014,0 hPa 0,0 mm 4,3 km/h (1 Bft) W 261 ° 0 min 0,000 mm 2,0 UV-I 274 W/m² 10,3 °C 6,4 km/h (2 Bft)
15.10.2016 14:00 14,5 °C 14,6 °C 76 % 1014,0 hPa 0,0 mm 11,3 km/h (2 Bft) W-NW 296 ° 0 min 0,000 mm 2,0 UV-I 269 W/m² 10,3 °C 16,1 km/h (3 Bft)
15.10.2016 14:01 14,5 °C 14,6 °C 75 % 1014,0 hPa 0,0 mm 8,0 km/h (2 Bft) W 281 ° 0 min 0,178 mm 1,9 UV-I 255 W/m² 10,1 °C 12,9 km/h (3 Bft)
15.10.2016 14:02 14,5 °C 14,5 °C 75 % 1014,0 hPa 0,0 mm 9,1 km/h (2 Bft) W 281 ° 0 min 0,000 mm 1,8 UV-I 207 W/m² 10,1 °C 12,9 km/h (3 Bft)
15.10.2016 14:03 14,5 °C 14,5 °C 76 % 1014,0 hPa 0,0 mm 6,0 km/h (2 Bft) NW 313 ° 0 min 0,000 mm 1,7 UV-I 192 W/m² 10,3 °C 11,3 km/h (2 Bft)
15.10.2016 14:04 14,5 °C 14,5 °C 75 % 1014,0 hPa 0,0 mm 5,5 km/h (1 Bft) W 267 ° 0 min 0,000 mm 1,6 UV-I 188 W/m² 10,1 °C 8,0 km/h (2 Bft)
15.10.2016 14:05 14,4 °C 14,5 °C 76 % 1014,0 hPa 0,0 mm 9,1 km/h (2 Bft) W-SW 242 ° 0 min 0,000 mm 1,7 UV-I 209 W/m² 10,2 °C 16,1 km/h (3 Bft)
15.10.2016 14:06 14,3 °C 14,4 °C 75 % 1014,0 hPa 0,0 mm 3,9 km/h (1 Bft) W 259 ° 0 min 0,000 mm 1,7 UV-I 209 W/m² 9,9 °C 6,4 km/h (2 Bft)
15.10.2016 14:07 14,3 °C 14,3 °C 76 % 1014,0 hPa 0,0 mm 3,6 km/h (1 Bft) W-NW 284 ° 0 min 0,000 mm 1,7 UV-I 220 W/m² 10,1 °C 4,8 km/h (1 Bft)
15.10.2016 14:08 14,3 °C 14,3 °C 76 % 1014,0 hPa 0,0 mm 3,3 km/h (1 Bft) W-NW 286 ° 0 min 0,000 mm 1,7 UV-I 229 W/m² 10,1 °C 4,8 km/h (1 Bft)
15.10.2016 14:09 14,3 °C 14,3 °C 75 % 1013,9 hPa 0,0 mm 6,4 km/h (2 Bft) W-NW 284 ° 0 min 0,000 mm 1,7 UV-I 223 W/m² 9,9 °C 11,3 km/h (2 Bft)
15.10.2016 14:10 14,3 °C 14,3 °C 76 % 1014,0 hPa 0,0 mm 3,4 km/h (1 Bft) W 275 ° 0 min 0,000 mm 1,7 UV-I 214 W/m² 10,1 °C 4,8 km/h (1 Bft)
15.10.2016 14:11 14,3 °C 14,3 °C 77 % 1013,9 hPa 0,0 mm 3,0 km/h (1 Bft) W 272 ° 0 min 0,000 mm 1,6 UV-I 214 W/m² 10,3 °C 6,4 km/h (2 Bft)
15.10.2016 14:12 14,4 °C 14,4 °C 77 % 1014,0 hPa 0,0 mm 4,9 km/h (1 Bft) W 276 ° 0 min 0,000 mm 1,6 UV-I 223 W/m² 10,4 °C 6,4 km/h (2 Bft)
15.10.2016 14:13 14,4 °C 14,4 °C 76 % 1013,9 hPa 0,0 mm 3,7 km/h (1 Bft) SW 222 ° 0 min 0,000 mm 1,6 UV-I 214 W/m² 10,2 °C 9,7 km/h (2 Bft)
15.10.2016 14:14 14,4 °C 14,4 °C 77 % 1014,0 hPa 0,0 mm 7,3 km/h (2 Bft) SW 235 ° 0 min 0,000 mm 1,5 UV-I 221 W/m² 10,4 °C 12,9 km/h (3 Bft)
15.10.2016 14:15 14,4 °C 14,4 °C 77 % 1014,0 hPa 0,0 mm 12,9 km/h (3 Bft) W 274 ° 0 min 0,000 mm 1,4 UV-I 179 W/m² 10,4 °C 17,7 km/h (3 Bft)
15.10.2016 14:16 14,4 °C 14,4 °C 75 % 1014,0 hPa 0,0 mm 9,5 km/h (2 Bft) W-NW 285 ° 0 min 0,000 mm 1,3 UV-I 162 W/m² 10,0 °C 12,9 km/h (3 Bft)
15.10.2016 14:17 14,3 °C 14,4 °C 76 % 1013,9 hPa 0,0 mm 7,1 km/h (2 Bft) W-SW 251 ° 0 min 0,000 mm 1,2 UV-I 151 W/m² 10,1 °C 11,3 km/h (2 Bft)
15.10.2016 14:18 14,3 °C 14,3 °C 76 % 1014,0 hPa 0,0 mm 5,6 km/h (1 Bft) W-SW 255 ° 0 min 0,000 mm 1,2 UV-I 142 W/m² 10,1 °C 9,7 km/h (2 Bft)
15.10.2016 14:19 14,2 °C 14,3 °C 76 % 1014,0 hPa 0,0 mm 4,4 km/h (1 Bft) W 265 ° 0 min 0,000 mm 1,2 UV-I 139 W/m² 10,0 °C 8,0 km/h (2 Bft)
15.10.2016 14:20 14,2 °C 14,3 °C 75 % 1014,0 hPa 0,0 mm 3,4 km/h (1 Bft) W 281 ° 0 min 0,000 mm 1,2 UV-I 142 W/m² 9,8 °C 4,8 km/h (1 Bft)
15.10.2016 14:21 14,2 °C 14,3 °C 76 % 1014,0 hPa 0,0 mm 3,9 km/h (1 Bft) W-SW 251 ° 0 min 0,000 mm 1,2 UV-I 146 W/m² 10,0 °C 6,4 km/h (2 Bft)
15.10.2016 14:22 14,2 °C 14,3 °C 76 % 1014,0 hPa 0,0 mm 3,6 km/h (1 Bft) W-SW 244 ° 0 min 0,000 mm 1,2 UV-I 165 W/m² 10,0 °C 6,4 km/h (2 Bft)
15.10.2016 14:23 14,2 °C 14,2 °C 75 % 1014,0 hPa 0,0 mm 7,1 km/h (2 Bft) W 263 ° 0 min 0,000 mm 1,3 UV-I 169 W/m² 9,8 °C 11,3 km/h (2 Bft)
15.10.2016 14:24 14,2 °C 14,2 °C 76 % 1014,0 hPa 0,0 mm 7,3 km/h (2 Bft) W-SW 255 ° 0 min 0,000 mm 1,3 UV-I 156 W/m² 10,0 °C 11,3 km/h (2 Bft)
15.10.2016 14:25 14,1 °C 14,2 °C 75 % 1014,0 hPa 0,0 mm 5,8 km/h (2 Bft) W-NW 290 ° 0 min 0,000 mm 1,4 UV-I 155 W/m² 9,7 °C 8,0 km/h (2 Bft)
15.10.2016 14:26 14,1 °C 14,1 °C 76 % 1014,0 hPa 0,0 mm 5,9 km/h (2 Bft) W 281 ° 0 min 0,000 mm 1,4 UV-I 146 W/m² 9,9 °C 11,3 km/h (2 Bft)
15.10.2016 14:27 14,1 °C 14,1 °C 76 % 1014,0 hPa 0,0 mm 8,3 km/h (2 Bft) W-NW 284 ° 0 min 0,000 mm 1,4 UV-I 135 W/m² 9,9 °C 12,9 km/h (3 Bft)
15.10.2016 14:28 14,1 °C 14,1 °C 76 % 1014,0 hPa 0,0 mm 3,8 km/h (1 Bft) NW 304 ° 0 min 0,000 mm 1,4 UV-I 137 W/m² 9,9 °C 6,4 km/h (2 Bft)
15.10.2016 14:29 14,1 °C 14,1 °C 77 % 1014,0 hPa 0,0 mm 3,6 km/h (1 Bft) W-NW 294 ° 0 min 0,000 mm 1,4 UV-I 141 W/m² 10,1 °C 6,4 km/h (2 Bft)
15.10.2016 14:30 14,1 °C 14,1 °C 76 % 1014,0 hPa 0,0 mm 9,1 km/h (2 Bft) W-SW 246 ° 0 min 0,000 mm 1,4 UV-I 146 W/m² 9,9 °C 12,9 km/h (3 Bft)
15.10.2016 14:31 14,1 °C 14,1 °C 77 % 1014,0 hPa 0,0 mm 7,1 km/h (2 Bft) W-NW 285 ° 0 min 0,000 mm 1,4 UV-I 153 W/m² 10,1 °C 9,7 km/h (2 Bft)
15.10.2016 14:32 14,1 °C 14,1 °C 76 % 1014,0 hPa 0,0 mm 7,0 km/h (2 Bft) W 270 ° 0 min 0,000 mm 1,5 UV-I 160 W/m² 9,9 °C 11,3 km/h (2 Bft)
15.10.2016 14:33 14,1 °C 14,1 °C 76 % 1014,0 hPa 0,0 mm 9,4 km/h (2 Bft) W-NW 288 ° 0 min 0,000 mm 1,5 UV-I 172 W/m² 9,9 °C 12,9 km/h (3 Bft)
15.10.2016 14:34 14,0 °C 14,1 °C 75 % 1014,1 hPa 0,0 mm 6,5 km/h (2 Bft) N-NW 330 ° 0 min 0,000 mm 1,5 UV-I 178 W/m² 9,6 °C 11,3 km/h (2 Bft)
15.10.2016 14:35 14,0 °C 14,0 °C 75 % 1014,1 hPa 0,0 mm 5,0 km/h (1 Bft) W-NW 292 ° 0 min 0,000 mm 1,5 UV-I 176 W/m² 9,6 °C 11,3 km/h (2 Bft)
15.10.2016 14:36 14,0 °C 14,0 °C 75 % 1014,1 hPa 0,0 mm 6,0 km/h (2 Bft) W 273 ° 0 min 0,000 mm 1,4 UV-I 167 W/m² 9,6 °C 9,7 km/h (2 Bft)
15.10.2016 14:37 14,0 °C 14,0 °C 75 % 1014,1 hPa 0,0 mm 3,7 km/h (1 Bft) NW 312 ° 0 min 0,000 mm 1,3 UV-I 149 W/m² 9,6 °C 6,4 km/h (2 Bft)
15.10.2016 14:38 14,0 °C 14,0 °C 76 % 1014,1 hPa 0,0 mm 5,8 km/h (2 Bft) W-NW 291 ° 0 min 0,000 mm 1,2 UV-I 135 W/m² 9,8 °C 11,3 km/h (2 Bft)
15.10.2016 14:39 14,0 °C 14,0 °C 76 % 1014,1 hPa 0,0 mm 5,8 km/h (2 Bft) W-SW 237 ° 0 min 0,000 mm 1,1 UV-I 118 W/m² 9,8 °C 8,0 km/h (2 Bft)
15.10.2016 14:40 13,9 °C 14,0 °C 75 % 1014,1 hPa 0,0 mm 9,3 km/h (2 Bft) W 269 ° 0 min 0,000 mm 1,1 UV-I 114 W/m² 9,5 °C 11,3 km/h (2 Bft)
15.10.2016 14:41 13,9 °C 13,9 °C 75 % 1014,1 hPa 0,0 mm 5,9 km/h (2 Bft) W 263 ° 0 min 0,000 mm 1,0 UV-I 113 W/m² 9,5 °C 9,7 km/h (2 Bft)
15.10.2016 14:42 13,9 °C 13,9 °C 76 % 1014,1 hPa 0,0 mm 7,5 km/h (2 Bft) W-NW 287 ° 0 min 0,000 mm 1,0 UV-I 111 W/m² 9,7 °C 11,3 km/h (2 Bft)
15.10.2016 14:43 13,8 °C 13,9 °C 76 % 1014,1 hPa 0,0 mm 8,8 km/h (2 Bft) W-SW 248 ° 0 min 0,000 mm 1,0 UV-I 111 W/m² 9,6 °C 12,9 km/h (3 Bft)
15.10.2016 14:44 13,8 °C 13,8 °C 75 % 1014,2 hPa 0,0 mm 5,7 km/h (1 Bft) W-SW 251 ° 0 min 0,000 mm 1,0 UV-I 113 W/m² 9,4 °C 9,7 km/h (2 Bft)
15.10.2016 14:45 13,7 °C 13,8 °C 76 % 1014,1 hPa 0,0 mm 11,0 km/h (2 Bft) W-SW 246 ° 0 min 0,000 mm 1,0 UV-I 113 W/m² 9,5 °C 16,1 km/h (3 Bft)
15.10.2016 14:46 13,7 °C 13,7 °C 76 % 1014,1 hPa 0,0 mm 5,5 km/h (1 Bft) W-NW 292 ° 0 min 0,000 mm 1,0 UV-I 113 W/m² 9,5 °C 8,0 km/h (2 Bft)
15.10.2016 14:47 13,7 °C 13,7 °C 75 % 1014,1 hPa 0,0 mm 8,7 km/h (2 Bft) W-NW 284 ° 0 min 0,000 mm 1,0 UV-I 113 W/m² 9,3 °C 12,9 km/h (3 Bft)
15.10.2016 14:48 13,7 °C 13,7 °C 76 % 1014,1 hPa 0,0 mm 6,8 km/h (2 Bft) W 264 ° 0 min 0,000 mm 0,9 UV-I 111 W/m² 9,5 °C 11,3 km/h (2 Bft)
15.10.2016 14:49 13,7 °C 13,7 °C 77 % 1014,2 hPa 0,0 mm 5,5 km/h (1 Bft) W 271 ° 0 min 0,000 mm 0,9 UV-I 111 W/m² 9,7 °C 9,7 km/h (2 Bft)
15.10.2016 14:50 13,7 °C 13,7 °C 76 % 1014,1 hPa 0,0 mm 8,5 km/h (2 Bft) W-SW 257 ° 0 min 0,000 mm 0,9 UV-I 111 W/m² 9,5 °C 11,3 km/h (2 Bft)
15.10.2016 14:51 13,7 °C 13,7 °C 76 % 1014,2 hPa 0,0 mm 3,9 km/h (1 Bft) W 263 ° 0 min 0,000 mm 0,9 UV-I 113 W/m² 9,5 °C 4,8 km/h (1 Bft)
15.10.2016 14:52 13,7 °C 13,7 °C 77 % 1014,2 hPa 0,0 mm 6,2 km/h (2 Bft) W 267 ° 0 min 0,000 mm 0,9 UV-I 114 W/m² 9,7 °C 9,7 km/h (2 Bft)
15.10.2016 14:53 13,6 °C 13,7 °C 76 % 1014,2 hPa 0,0 mm 6,2 km/h (2 Bft) W-NW 294 ° 0 min 0,000 mm 0,9 UV-I 116 W/m² 9,4 °C 8,0 km/h (2 Bft)
15.10.2016 14:54 13,6 °C 13,6 °C 76 % 1014,2 hPa 0,0 mm 7,4 km/h (2 Bft) W-SW 254 ° 0 min 0,000 mm 0,9 UV-I 118 W/m² 9,4 °C 11,3 km/h (2 Bft)
15.10.2016 14:55 13,6 °C 13,6 °C 77 % 1014,2 hPa 0,0 mm 7,2 km/h (2 Bft) W-SW 250 ° 0 min 0,000 mm 0,9 UV-I 118 W/m² 9,6 °C 9,7 km/h (2 Bft)
15.10.2016 14:56 13,6 °C 13,6 °C 76 % 1014,2 hPa 0,0 mm 4,1 km/h (1 Bft) W-NW 294 ° 0 min 0,000 mm 0,8 UV-I 113 W/m² 9,4 °C 8,0 km/h (2 Bft)
15.10.2016 14:57 13,6 °C 13,6 °C 76 % 1014,2 hPa 0,0 mm 7,8 km/h (2 Bft) W 269 ° 0 min 0,000 mm 0,8 UV-I 111 W/m² 9,4 °C 12,9 km/h (3 Bft)
15.10.2016 14:58 13,6 °C 13,7 °C 75 % 1014,2 hPa 0,0 mm 8,2 km/h (2 Bft) W-NW 286 ° 0 min 0,000 mm 0,8 UV-I 109 W/m² 9,3 °C 11,3 km/h (2 Bft)
15.10.2016 14:59 13,6 °C 13,6 °C 76 % 1014,2 hPa 0,0 mm 7,3 km/h (2 Bft) W 259 ° 0 min 0,000 mm 0,8 UV-I 107 W/m² 9,4 °C 12,9 km/h (3 Bft)
15.10.2016 15:00 13,6 °C 13,6 °C 76 % 1014,3 hPa 0,0 mm 6,2 km/h (2 Bft) W-SW 239 ° 0 min 0,000 mm 0,7 UV-I 105 W/m² 9,4 °C 9,7 km/h (2 Bft)
15.10.2016 15:01 13,6 °C 13,6 °C 77 % 1014,3 hPa 0,0 mm 4,6 km/h (1 Bft) W-NW 298 ° 0 min 0,102 mm 0,7 UV-I 105 W/m² 9,6 °C 8,0 km/h (2 Bft)
15.10.2016 15:02 13,6 °C 13,6 °C 76 % 1014,3 hPa 0,0 mm 5,0 km/h (1 Bft) W 265 ° 0 min 0,000 mm 0,7 UV-I 105 W/m² 9,4 °C 9,7 km/h (2 Bft)
15.10.2016 15:03 13,6 °C 13,6 °C 77 % 1014,3 hPa 0,0 mm 4,6 km/h (1 Bft) W-NW 284 ° 0 min 0,000 mm 0,7 UV-I 107 W/m² 9,6 °C 6,4 km/h (2 Bft)
15.10.2016 15:04 13,6 °C 13,6 °C 76 % 1014,3 hPa 0,0 mm 2,1 km/h (1 Bft) W-NW 287 ° 0 min 0,000 mm 0,7 UV-I 111 W/m² 9,4 °C 4,8 km/h (1 Bft)
15.10.2016 15:05 13,6 °C 13,6 °C 77 % 1014,3 hPa 0,0 mm 6,0 km/h (2 Bft) W-NW 283 ° 0 min 0,000 mm 0,8 UV-I 114 W/m² 9,6 °C 6,4 km/h (2 Bft)
15.10.2016 15:06 13,6 °C 13,6 °C 77 % 1014,4 hPa 0,0 mm 4,0 km/h (1 Bft) W 281 ° 0 min 0,000 mm 0,8 UV-I 120 W/m² 9,6 °C 4,8 km/h (1 Bft)
15.10.2016 15:07 13,6 °C 13,6 °C 77 % 1014,4 hPa 0,0 mm 6,0 km/h (2 Bft) W-SW 248 ° 0 min 0,000 mm 0,8 UV-I 125 W/m² 9,6 °C 8,0 km/h (2 Bft)
15.10.2016 15:08 13,6 °C 13,6 °C 77 % 1014,4 hPa 0,0 mm 6,6 km/h (2 Bft) W 272 ° 0 min 0,000 mm 0,8 UV-I 127 W/m² 9,6 °C 8,0 km/h (2 Bft)
15.10.2016 15:09 13,6 °C 13,6 °C 77 % 1014,4 hPa 0,0 mm 4,3 km/h (1 Bft) W-SW 250 ° 0 min 0,000 mm 0,8 UV-I 125 W/m² 9,6 °C 4,8 km/h (1 Bft)
15.10.2016 15:10 13,7 °C 13,7 °C 79 % 1014,4 hPa 0,0 mm 4,8 km/h (1 Bft) W 268 ° 0 min 0,000 mm 0,8 UV-I 123 W/m² 10,1 °C 6,4 km/h (2 Bft)
15.10.2016 15:11 13,6 °C 13,7 °C 78 % 1014,4 hPa 0,0 mm 6,1 km/h (2 Bft) W-SW 250 ° 0 min 0,000 mm 0,8 UV-I 120 W/m² 9,8 °C 8,0 km/h (2 Bft)
15.10.2016 15:12 13,7 °C 13,7 °C 79 % 1014,4 hPa 0,0 mm 5,2 km/h (1 Bft) W-SW 250 ° 0 min 0,000 mm 0,8 UV-I 116 W/m² 10,1 °C 8,0 km/h (2 Bft)
15.10.2016 15:13 13,6 °C 13,7 °C 77 % 1014,3 hPa 0,0 mm 4,0 km/h (1 Bft) W-NW 284 ° 0 min 0,000 mm 0,7 UV-I 111 W/m² 9,6 °C 6,4 km/h (2 Bft)
15.10.2016 15:14 13,7 °C 13,7 °C 77 % 1014,4 hPa 0,0 mm 3,8 km/h (1 Bft) W-SW 256 ° 0 min 0,000 mm 0,7 UV-I 105 W/m² 9,7 °C 6,4 km/h (2 Bft)
15.10.2016 15:15 13,6 °C 13,7 °C 77 % 1014,4 hPa 0,0 mm 3,4 km/h (1 Bft) W 265 ° 0 min 0,000 mm 0,7 UV-I 105 W/m² 9,6 °C 6,4 km/h (2 Bft)
15.10.2016 15:16 13,7 °C 13,7 °C 77 % 1014,4 hPa 0,0 mm 5,3 km/h (1 Bft) W 271 ° 0 min 0,000 mm 0,7 UV-I 107 W/m² 9,7 °C 6,4 km/h (2 Bft)
15.10.2016 15:17 13,7 °C 13,7 °C 76 % 1014,4 hPa 0,0 mm 6,6 km/h (2 Bft) W 275 ° 0 min 0,000 mm 0,7 UV-I 107 W/m² 9,5 °C 9,7 km/h (2 Bft)
15.10.2016 15:18 13,7 °C 13,7 °C 76 % 1014,4 hPa 0,0 mm 3,4 km/h (1 Bft) W 277 ° 0 min 0,000 mm 0,7 UV-I 105 W/m² 9,5 °C 6,4 km/h (2 Bft)
15.10.2016 15:19 13,6 °C 13,7 °C 76 % 1014,4 hPa 0,0 mm 0,9 km/h (0 Bft) W 277 ° 0 min 0,000 mm 0,7 UV-I 102 W/m² 9,4 °C 1,6 km/h (1 Bft)
15.10.2016 15:20 13,6 °C 13,6 °C 77 % 1014,4 hPa 0,0 mm 3,5 km/h (1 Bft) W-NW 285 ° 0 min 0,000 mm 0,7 UV-I 91 W/m² 9,6 °C 4,8 km/h (1 Bft)
15.10.2016 15:21 13,6 °C 13,6 °C 77 % 1014,4 hPa 0,0 mm 3,2 km/h (1 Bft) W-NW 284 ° 0 min 0,000 mm 0,6 UV-I 88 W/m² 9,6 °C 4,8 km/h (1 Bft)
15.10.2016 15:22 13,6 °C 13,6 °C 77 % 1014,4 hPa 0,0 mm 3,3 km/h (1 Bft) W-NW 288 ° 0 min 0,000 mm 0,6 UV-I 84 W/m² 9,6 °C 6,4 km/h (2 Bft)
15.10.2016 15:23 13,6 °C 13,6 °C 77 % 1014,4 hPa 0,0 mm 2,0 km/h (1 Bft) W-NW 288 ° 0 min 0,000 mm 0,6 UV-I 83 W/m² 9,6 °C 3,2 km/h (1 Bft)
15.10.2016 15:24 13,6 °C 13,6 °C 78 % 1014,5 hPa 0,0 mm 3,4 km/h (1 Bft) W 278 ° 0 min 0,000 mm 0,6 UV-I 81 W/m² 9,8 °C 6,4 km/h (2 Bft)
15.10.2016 15:25 13,6 °C 13,6 °C 78 % 1014,5 hPa 0,0 mm 4,6 km/h (1 Bft) W 280 ° 0 min 0,000 mm 0,6 UV-I 79 W/m² 9,8 °C 6,4 km/h (2 Bft)
15.10.2016 15:26 13,6 °C 13,6 °C 78 % 1014,5 hPa 0,0 mm 3,2 km/h (1 Bft) W-SW 250 ° 0 min 0,000 mm 0,6 UV-I 77 W/m² 9,8 °C 4,8 km/h (1 Bft)
15.10.2016 15:27 13,6 °C 13,6 °C 77 % 1014,5 hPa 0,0 mm 4,7 km/h (1 Bft) W-NW 283 ° 0 min 0,000 mm 0,6 UV-I 77 W/m² 9,6 °C 6,4 km/h (2 Bft)
15.10.2016 15:28 13,6 °C 13,6 °C 77 % 1014,5 hPa 0,0 mm 5,1 km/h (1 Bft) W 275 ° 0 min 0,000 mm 0,6 UV-I 76 W/m² 9,6 °C 6,4 km/h (2 Bft)
15.10.2016 15:29 13,5 °C 13,6 °C 77 % 1014,6 hPa 0,0 mm 2,9 km/h (1 Bft) W 267 ° 0 min 0,000 mm 0,5 UV-I 74 W/m² 9,5 °C 4,8 km/h (1 Bft)
15.10.2016 15:30 13,5 °C 13,6 °C 77 % 1014,5 hPa 0,0 mm 3,5 km/h (1 Bft) W 267 ° 0 min 0,000 mm 0,5 UV-I 72 W/m² 9,5 °C 4,8 km/h (1 Bft)
15.10.2016 15:31 13,5 °C 13,6 °C 77 % 1014,6 hPa 0,0 mm 4,0 km/h (1 Bft) W-NW 284 ° 0 min 0,000 mm 0,5 UV-I 70 W/m² 9,5 °C 6,4 km/h (2 Bft)
15.10.2016 15:32 13,5 °C 13,5 °C 77 % 1014,6 hPa 0,0 mm 4,8 km/h (1 Bft) W 279 ° 0 min 0,000 mm 0,5 UV-I 69 W/m² 9,5 °C 8,0 km/h (2 Bft)
15.10.2016 15:33 13,5 °C 13,5 °C 77 % 1014,6 hPa 0,0 mm 3,8 km/h (1 Bft) W 281 ° 0 min 0,000 mm 0,5 UV-I 69 W/m² 9,5 °C 6,4 km/h (2 Bft)
15.10.2016 15:34 13,5 °C 13,5 °C 77 % 1014,6 hPa 0,0 mm 3,3 km/h (1 Bft) W-NW 285 ° 0 min 0,000 mm 0,5 UV-I 69 W/m² 9,5 °C 4,8 km/h (1 Bft)
15.10.2016 15:35 13,5 °C 13,5 °C 77 % 1014,6 hPa 0,0 mm 2,1 km/h (1 Bft) W-NW 286 ° 0 min 0,000 mm 0,5 UV-I 69 W/m² 9,5 °C 4,8 km/h (1 Bft)
15.10.2016 15:36 13,5 °C 13,5 °C 77 % 1014,6 hPa 0,0 mm 2,2 km/h (1 Bft) N-NW 331 ° 0 min 0,000 mm 0,5 UV-I 69 W/m² 9,5 °C 4,8 km/h (1 Bft)
15.10.2016 15:37 13,5 °C 13,5 °C 79 % 1014,6 hPa 0,0 mm 4,5 km/h (1 Bft) NW 313 ° 0 min 0,000 mm 0,5 UV-I 69 W/m² 9,9 °C 6,4 km/h (2 Bft)
15.10.2016 15:38 13,6 °C 13,6 °C 78 % 1014,6 hPa 0,0 mm 3,2 km/h (1 Bft) W 260 ° 0 min 0,000 mm 0,5 UV-I 67 W/m² 9,8 °C 4,8 km/h (1 Bft)
15.10.2016 15:39 13,5 °C 13,6 °C 78 % 1014,6 hPa 0,0 mm 4,2 km/h (1 Bft) W-SW 257 ° 0 min 0,000 mm 0,5 UV-I 69 W/m² 9,7 °C 4,8 km/h (1 Bft)
15.10.2016 15:40 13,5 °C 13,5 °C 77 % 1014,6 hPa 0,0 mm 2,6 km/h (1 Bft) W-SW 257 ° 0 min 0,000 mm 0,5 UV-I 72 W/m² 9,5 °C 4,8 km/h (1 Bft)
15.10.2016 15:41 13,5 °C 13,5 °C 77 % 1014,6 hPa 0,0 mm 2,4 km/h (1 Bft) W 279 ° 0 min 0,000 mm 0,5 UV-I 76 W/m² 9,5 °C 3,2 km/h (1 Bft)
15.10.2016 15:42 13,5 °C 13,5 °C 78 % 1014,6 hPa 0,0 mm 2,7 km/h (1 Bft) W-NW 283 ° 0 min 0,000 mm 0,6 UV-I 79 W/m² 9,7 °C 4,8 km/h (1 Bft)
15.10.2016 15:43 13,5 °C 13,5 °C 77 % 1014,6 hPa 0,0 mm 2,7 km/h (1 Bft) W-NW 290 ° 0 min 0,000 mm 0,6 UV-I 84 W/m² 9,5 °C 3,2 km/h (1 Bft)
15.10.2016 15:44 13,5 °C 13,5 °C 77 % 1014,6 hPa 0,0 mm 2,3 km/h (1 Bft) W-NW 290 ° 0 min 0,000 mm 0,6 UV-I 86 W/m² 9,5 °C 3,2 km/h (1 Bft)
15.10.2016 15:45 13,5 °C 13,5 °C 77 % 1014,6 hPa 0,0 mm 1,4 km/h (1 Bft) W-NW 290 ° 0 min 0,000 mm 0,6 UV-I 88 W/m² 9,5 °C 1,6 km/h (1 Bft)
15.10.2016 15:46 13,5 °C 13,5 °C 77 % 1014,6 hPa 0,0 mm 2,4 km/h (1 Bft) W-NW 288 ° 0 min 0,000 mm 0,6 UV-I 90 W/m² 9,5 °C 4,8 km/h (1 Bft)
15.10.2016 15:47 13,5 °C 13,6 °C 78 % 1014,6 hPa 0,0 mm 2,3 km/h (1 Bft) W-NW 289 ° 0 min 0,000 mm 0,6 UV-I 88 W/m² 9,7 °C 3,2 km/h (1 Bft)
15.10.2016 15:48 13,5 °C 13,6 °C 78 % 1014,6 hPa 0,0 mm 2,7 km/h (1 Bft) W-NW 288 ° 0 min 0,000 mm 0,6 UV-I 88 W/m² 9,7 °C 3,2 km/h (1 Bft)
15.10.2016 15:49 13,5 °C 13,5 °C 77 % 1014,6 hPa 0,0 mm 5,4 km/h (1 Bft) NW 312 ° 0 min 0,000 mm 0,6 UV-I 81 W/m² 9,5 °C 8,0 km/h (2 Bft)
15.10.2016 15:50 13,5 °C 13,6 °C 78 % 1014,6 hPa 0,0 mm 4,8 km/h (1 Bft) NW 319 ° 0 min 0,000 mm 0,5 UV-I 74 W/m² 9,7 °C 8,0 km/h (2 Bft)
15.10.2016 15:51 13,5 °C 13,6 °C 77 % 1014,6 hPa 0,0 mm 2,5 km/h (1 Bft) NW 319 ° 0 min 0,000 mm 0,5 UV-I 67 W/m² 9,5 °C 4,8 km/h (1 Bft)
15.10.2016 15:52 13,6 °C 13,6 °C 79 % 1014,6 hPa 0,0 mm 1,8 km/h (1 Bft) NW 319 ° 0 min 0,000 mm 0,5 UV-I 60 W/m² 10,0 °C 3,2 km/h (1 Bft)
15.10.2016 15:53 13,6 °C 13,6 °C 78 % 1014,6 hPa 0,0 mm 1,5 km/h (1 Bft) NW 319 ° 0 min 0,000 mm 0,0 UV-I 54 W/m² 9,8 °C 3,2 km/h (1 Bft)
15.10.2016 15:54 13,5 °C 13,6 °C 78 % 1014,7 hPa 0,0 mm 3,0 km/h (1 Bft) W-NW 287 ° 0 min 0,000 mm 0,0 UV-I 54 W/m² 9,7 °C 4,8 km/h (1 Bft)
15.10.2016 15:55 13,5 °C 13,5 °C 79 % 1014,6 hPa 0,0 mm 4,1 km/h (1 Bft) W-NW 296 ° 0 min 0,000 mm 0,0 UV-I 47 W/m² 9,9 °C 4,8 km/h (1 Bft)
15.10.2016 15:56 13,5 °C 13,5 °C 78 % 1014,6 hPa 0,0 mm 3,2 km/h (1 Bft) W-NW 296 ° 0 min 0,000 mm 0,0 UV-I 46 W/m² 9,7 °C 4,8 km/h (1 Bft)
15.10.2016 15:57 13,4 °C 13,5 °C 78 % 1014,6 hPa 0,0 mm 4,4 km/h (1 Bft) W-NW 299 ° 0 min 0,000 mm 0,0 UV-I 44 W/m² 9,6 °C 6,4 km/h (2 Bft)
15.10.2016 15:58 13,4 °C 13,4 °C 77 % 1014,6 hPa 0,0 mm 2,8 km/h (1 Bft) W 279 ° 0 min 0,000 mm 0,0 UV-I 42 W/m² 9,5 °C 4,8 km/h (1 Bft)
15.10.2016 15:59 13,4 °C 13,4 °C 77 % 1014,7 hPa 0,0 mm 2,0 km/h (1 Bft) W 279 ° 0 min 0,000 mm 0,0 UV-I 42 W/m² 9,5 °C 3,2 km/h (1 Bft)
15.10.2016 16:00 13,4 °C 13,4 °C 76 % 1014,7 hPa 0,0 mm 1,5 km/h (1 Bft) W 279 ° 0 min 0,000 mm 0,0 UV-I 40 W/m² 9,3 °C 3,2 km/h (1 Bft)
15.10.2016 16:01 13,4 °C 13,4 °C 77 % 1014,7 hPa 0,0 mm 2,3 km/h (1 Bft) W-NW 284 ° 0 min 0,051 mm 0,0 UV-I 40 W/m² 9,5 °C 3,2 km/h (1 Bft)
15.10.2016 16:02 13,4 °C 13,4 °C 78 % 1014,8 hPa 0,0 mm 3,7 km/h (1 Bft) W-NW 284 ° 0 min 0,000 mm 0,0 UV-I 40 W/m² 9,6 °C 4,8 km/h (1 Bft)
15.10.2016 16:03 13,4 °C 13,4 °C 77 % 1014,8 hPa 0,0 mm 3,6 km/h (1 Bft) W-NW 294 ° 0 min 0,000 mm 0,0 UV-I 42 W/m² 9,5 °C 4,8 km/h (1 Bft)
15.10.2016 16:04 13,3 °C 13,4 °C 77 % 1014,8 hPa 0,0 mm 1,9 km/h (1 Bft) W-NW 294 ° 0 min 0,000 mm 0,0 UV-I 42 W/m² 9,4 °C 4,8 km/h (1 Bft)
15.10.2016 16:05 13,3 °C 13,3 °C 78 % 1014,8 hPa 0,0 mm 0,7 km/h (0 Bft) W-NW 294 ° 0 min 0,000 mm 0,0 UV-I 44 W/m² 9,5 °C 1,6 km/h (1 Bft)
15.10.2016 16:06 13,3 °C 13,3 °C 79 % 1014,8 hPa 0,0 mm 0,9 km/h (0 Bft) W-NW 294 ° 0 min 0,000 mm 0,0 UV-I 46 W/m² 9,7 °C 1,6 km/h (1 Bft)
15.10.2016 16:07 13,3 °C 13,3 °C 79 % 1014,8 hPa 0,0 mm 0,8 km/h (0 Bft) W-NW 294 ° 0 min 0,000 mm 0,0 UV-I 47 W/m² 9,7 °C 1,6 km/h (1 Bft)
15.10.2016 16:08 13,3 °C 13,3 °C 78 % 1014,8 hPa 0,0 mm 1,1 km/h (1 Bft) W-NW 294 ° 0 min 0,000 mm 0,0 UV-I 49 W/m² 9,5 °C 1,6 km/h (1 Bft)
15.10.2016 16:09 13,3 °C 13,3 °C 79 % 1014,8 hPa 0,0 mm 1,1 km/h (1 Bft) W-NW 294 ° 0 min 0,000 mm 0,0 UV-I 51 W/m² 9,7 °C 1,6 km/h (1 Bft)
15.10.2016 16:10 13,3 °C 13,3 °C 78 % 1014,8 hPa 0,0 mm 1,3 km/h (1 Bft) W-NW 294 ° 0 min 0,000 mm 0,0 UV-I 51 W/m² 9,5 °C 1,6 km/h (1 Bft)
15.10.2016 16:11 13,3 °C 13,3 °C 79 % 1014,8 hPa 0,0 mm 0,8 km/h (0 Bft) W-NW 294 ° 0 min 0,000 mm 0,0 UV-I 51 W/m² 9,7 °C 3,2 km/h (1 Bft)
15.10.2016 16:12 13,3 °C 13,3 °C 79 % 1014,8 hPa 0,0 mm 1,4 km/h (1 Bft) W-NW 294 ° 0 min 0,000 mm 0,0 UV-I 49 W/m² 9,7 °C 3,2 km/h (1 Bft)
15.10.2016 16:13 13,3 °C 13,3 °C 80 % 1014,8 hPa 0,0 mm 1,6 km/h (1 Bft) W-NW 294 ° 0 min 0,000 mm 0,0 UV-I 49 W/m² 9,9 °C 1,6 km/h (1 Bft)
15.10.2016 16:14 13,3 °C 13,3 °C 80 % 1014,8 hPa 0,0 mm 2,2 km/h (1 Bft) W-NW 294 ° 0 min 0,000 mm 0,0 UV-I 49 W/m² 9,9 °C 3,2 km/h (1 Bft)
15.10.2016 16:15 13,3 °C 13,3 °C 79 % 1014,8 hPa 0,0 mm 1,9 km/h (1 Bft) W-NW 294 ° 0 min 0,000 mm 0,0 UV-I 49 W/m² 9,7 °C 3,2 km/h (1 Bft)
15.10.2016 16:16 13,3 °C 13,3 °C 80 % 1014,8 hPa 0,0 mm 2,7 km/h (1 Bft) W-NW 294 ° 0 min 0,000 mm 0,0 UV-I 49 W/m² 9,9 °C 3,2 km/h (1 Bft)
15.10.2016 16:17 13,2 °C 13,3 °C 81 % 1014,8 hPa 0,0 mm 0,8 km/h (0 Bft) W-NW 294 ° 0 min 0,000 mm 0,0 UV-I 49 W/m² 10,0 °C 1,6 km/h (1 Bft)
15.10.2016 16:18 13,2 °C 13,3 °C 80 % 1014,8 hPa 0,0 mm 0,7 km/h (0 Bft) W-NW 294 ° 0 min 0,000 mm 0,0 UV-I 51 W/m² 9,8 °C 1,6 km/h (1 Bft)
15.10.2016 16:19 13,3 °C 13,3 °C 79 % 1014,8 hPa 0,0 mm 0,1 km/h (0 Bft) W-NW 294 ° 0 min 0,000 mm 0,0 UV-I 53 W/m² 9,7 °C 1,6 km/h (1 Bft)
15.10.2016 16:20 13,3 °C 13,3 °C 78 % 1014,8 hPa 0,0 mm 2,1 km/h (1 Bft) W-NW 294 ° 0 min 0,000 mm 0,0 UV-I 53 W/m² 9,5 °C 4,8 km/h (1 Bft)
15.10.2016 16:21 13,2 °C 13,3 °C 80 % 1014,8 hPa 0,0 mm 1,5 km/h (1 Bft) W-NW 294 ° 0 min 0,000 mm 0,0 UV-I 54 W/m² 9,8 °C 3,2 km/h (1 Bft)
15.10.2016 16:22 13,2 °C 13,3 °C 81 % 1014,8 hPa 0,0 mm 0,1 km/h (0 Bft) W-NW 294 ° 0 min 0,000 mm 0,0 UV-I 56 W/m² 10,0 °C 1,6 km/h (1 Bft)
15.10.2016 16:23 13,2 °C 13,3 °C 81 % 1014,8 hPa 0,0 mm 0,0 km/h (0 Bft) W-NW 294 ° 0 min 0,000 mm 0,0 UV-I 58 W/m² 10,0 °C 0,0 km/h (0 Bft)
15.10.2016 16:24 13,2 °C 13,3 °C 82 % 1014,8 hPa 0,0 mm 0,0 km/h (0 Bft) W-NW 294 ° 0 min 0,000 mm 0,0 UV-I 56 W/m² 10,2 °C 0,0 km/h (0 Bft)
15.10.2016 16:25 13,2 °C 13,3 °C 81 % 1014,8 hPa 0,0 mm 0,0 km/h (0 Bft) W-NW 294 ° 0 min 0,000 mm 0,0 UV-I 56 W/m² 10,0 °C 0,0 km/h (0 Bft)
15.10.2016 16:26 13,2 °C 13,2 °C 80 % 1014,9 hPa 0,0 mm 0,0 km/h (0 Bft) W-NW 294 ° 0 min 0,000 mm 0,0 UV-I 54 W/m² 9,8 °C 0,0 km/h (0 Bft)
15.10.2016 16:27 13,2 °C 13,2 °C 81 % 1014,8 hPa 0,0 mm 0,0 km/h (0 Bft) W-NW 294 ° 0 min 0,000 mm 0,0 UV-I 54 W/m² 10,0 °C 0,0 km/h (0 Bft)
15.10.2016 16:28 13,3 °C 13,3 °C 81 % 1014,9 hPa 0,0 mm 0,0 km/h (0 Bft) W-NW 294 ° 0 min 0,000 mm 0,0 UV-I 53 W/m² 10,1 °C 0,0 km/h (0 Bft)
15.10.2016 16:29 13,3 °C 13,3 °C 81 % 1014,9 hPa 0,0 mm 0,0 km/h (0 Bft) W-NW 294 ° 0 min 0,000 mm 0,0 UV-I 51 W/m² 10,1 °C 0,0 km/h (0 Bft)
15.10.2016 16:30 13,2 °C 13,3 °C 80 % 1014,9 hPa 0,0 mm 0,0 km/h (0 Bft) W-NW 294 ° 0 min 0,000 mm 0,0 UV-I 47 W/m² 9,8 °C 0,0 km/h (0 Bft)
15.10.2016 16:31 13,3 °C 13,3 °C 79 % 1014,9 hPa 0,0 mm 0,0 km/h (0 Bft) W-NW 294 ° 0 min 0,000 mm 0,0 UV-I 47 W/m² 9,7 °C 0,0 km/h (0 Bft)
15.10.2016 16:32 13,3 °C 13,3 °C 81 % 1014,9 hPa 0,0 mm 0,0 km/h (0 Bft) W-NW 294 ° 0 min 0,000 mm 0,0 UV-I 49 W/m² 10,1 °C 0,0 km/h (0 Bft)
15.10.2016 16:33 13,2 °C 13,3 °C 81 % 1014,9 hPa 0,0 mm 0,0 km/h (0 Bft) W-NW 294 ° 0 min 0,000 mm 0,0 UV-I 49 W/m² 10,0 °C 0,0 km/h (0 Bft)
15.10.2016 16:34 13,3 °C 13,3 °C 80 % 1014,9 hPa 0,0 mm 0,0 km/h (0 Bft) W-NW 294 ° 0 min 0,000 mm 0,0 UV-I 51 W/m² 9,9 °C 0,0 km/h (0 Bft)
15.10.2016 16:35 13,3 °C 13,3 °C 79 % 1014,9 hPa 0,0 mm 0,0 km/h (0 Bft) W-NW 294 ° 0 min 0,000 mm 0,0 UV-I 51 W/m² 9,7 °C 0,0 km/h (0 Bft)
15.10.2016 16:36 13,3 °C 13,3 °C 78 % 1014,9 hPa 0,0 mm 0,0 km/h (0 Bft) W-NW 294 ° 0 min 0,000 mm 0,0 UV-I 54 W/m² 9,5 °C 0,0 km/h (0 Bft)
15.10.2016 16:37 13,3 °C 13,3 °C 78 % 1015,0 hPa 0,0 mm 0,0 km/h (0 Bft) W-NW 294 ° 0 min 0,000 mm 0,0 UV-I 54 W/m² 9,5 °C 0,0 km/h (0 Bft)
15.10.2016 16:38 13,3 °C 13,3 °C 78 % 1014,9 hPa 0,0 mm 0,0 km/h (0 Bft) W-NW 294 ° 0 min 0,000 mm 0,0 UV-I 54 W/m² 9,5 °C 0,0 km/h (0 Bft)
15.10.2016 16:39 13,3 °C 13,3 °C 79 % 1015,0 hPa 0,0 mm 0,0 km/h (0 Bft) W-NW 294 ° 0 min 0,000 mm 0,0 UV-I 56 W/m² 9,7 °C 0,0 km/h (0 Bft)
15.10.2016 16:40 13,3 °C 13,3 °C 80 % 1015,0 hPa 0,0 mm 0,0 km/h (0 Bft) W-NW 294 ° 0 min 0,000 mm 0,0 UV-I 56 W/m² 9,9 °C 0,0 km/h (0 Bft)
15.10.2016 16:41 13,3 °C 13,3 °C 81 % 1015,0 hPa 0,0 mm 0,0 km/h (0 Bft) W-NW 294 ° 0 min 0,000 mm 0,0 UV-I 56 W/m² 10,1 °C 0,0 km/h (0 Bft)
15.10.2016 16:42 13,3 °C 13,3 °C 81 % 1015,1 hPa 0,0 mm 0,0 km/h (0 Bft) W-NW 294 ° 0 min 0,000 mm 0,0 UV-I 58 W/m² 10,1 °C 0,0 km/h (0 Bft)
15.10.2016 16:43 13,2 °C 13,3 °C 81 % 1015,1 hPa 0,0 mm 0,0 km/h (0 Bft) W-NW 294 ° 0 min 0,000 mm 0,0 UV-I 60 W/m² 10,0 °C 0,0 km/h (0 Bft)
15.10.2016 16:44 13,3 °C 13,3 °C 79 % 1015,1 hPa 0,0 mm 0,0 km/h (0 Bft) W-NW 294 ° 0 min 0,000 mm 0,0 UV-I 62 W/m² 9,7 °C 0,0 km/h (0 Bft)
15.10.2016 16:45 13,3 °C 13,3 °C 79 % 1015,1 hPa 0,0 mm 0,0 km/h (0 Bft) W-NW 294 ° 0 min 0,000 mm 0,0 UV-I 62 W/m² 9,7 °C 0,0 km/h (0 Bft)
15.10.2016 16:46 13,3 °C 13,3 °C 79 % 1015,1 hPa 0,0 mm 0,0 km/h (0 Bft) W-NW 294 ° 0 min 0,000 mm 0,0 UV-I 63 W/m² 9,7 °C 0,0 km/h (0 Bft)
15.10.2016 16:47 13,3 °C 13,3 °C 79 % 1015,1 hPa 0,0 mm 0,0 km/h (0 Bft) W-NW 294 ° 0 min 0,000 mm 0,0 UV-I 65 W/m² 9,7 °C 0,0 km/h (0 Bft)
15.10.2016 16:48 13,3 °C 13,3 °C 78 % 1015,1 hPa 0,0 mm 0,0 km/h (0 Bft) W-NW 294 ° 0 min 0,000 mm 0,0 UV-I 70 W/m² 9,5 °C 0,0 km/h (0 Bft)
15.10.2016 16:49 13,3 °C 13,3 °C 78 % 1015,1 hPa 0,0 mm 0,0 km/h (0 Bft) W-NW 294 ° 0 min 0,000 mm 0,0 UV-I 72 W/m² 9,5 °C 0,0 km/h (0 Bft)
15.10.2016 16:50 13,3 °C 13,3 °C 78 % 1015,1 hPa 0,0 mm 0,0 km/h (0 Bft) W-NW 294 ° 0 min 0,000 mm 0,0 UV-I 70 W/m² 9,5 °C 0,0 km/h (0 Bft)
15.10.2016 16:51 13,3 °C 13,3 °C 77 % 1015,1 hPa 0,0 mm 0,0 km/h (0 Bft) W-NW 294 ° 0 min 0,000 mm 0,0 UV-I 65 W/m² 9,4 °C 0,0 km/h (0 Bft)
15.10.2016 16:52 13,3 °C 13,3 °C 77 % 1015,1 hPa 0,0 mm 0,0 km/h (0 Bft) W-NW 294 ° 0 min 0,000 mm 0,0 UV-I 58 W/m² 9,4 °C 0,0 km/h (0 Bft)
15.10.2016 16:53 13,3 °C 13,3 °C 78 % 1015,1 hPa 0,0 mm 0,0 km/h (0 Bft) W-NW 294 ° 0 min 0,000 mm 0,0 UV-I 53 W/m² 9,5 °C 0,0 km/h (0 Bft)
15.10.2016 16:54 13,3 °C 13,3 °C 77 % 1015,1 hPa 0,0 mm 0,0 km/h (0 Bft) W-NW 294 ° 0 min 0,000 mm 0,0 UV-I 44 W/m² 9,4 °C 0,0 km/h (0 Bft)
15.10.2016 16:55 13,3 °C 13,3 °C 78 % 1015,1 hPa 0,0 mm 0,0 km/h (0 Bft) W-NW 294 ° 0 min 0,000 mm 0,0 UV-I 40 W/m² 9,5 °C 0,0 km/h (0 Bft)
15.10.2016 16:56 13,3 °C 13,3 °C 77 % 1015,1 hPa 0,0 mm 0,6 km/h (0 Bft) W-NW 294 ° 0 min 0,000 mm 0,0 UV-I 37 W/m² 9,4 °C 3,2 km/h (1 Bft)
15.10.2016 16:57 13,3 °C 13,3 °C 79 % 1015,0 hPa 0,0 mm 0,8 km/h (0 Bft) W-NW 294 ° 0 min 0,000 mm 0,0 UV-I 33 W/m² 9,7 °C 1,6 km/h (1 Bft)
15.10.2016 16:58 13,3 °C 13,3 °C 79 % 1015,1 hPa 0,0 mm 0,0 km/h (0 Bft) W-NW 294 ° 0 min 0,000 mm 0,0 UV-I 32 W/m² 9,7 °C 0,0 km/h (0 Bft)
15.10.2016 16:59 13,3 °C 13,3 °C 79 % 1015,0 hPa 0,0 mm 0,0 km/h (0 Bft) W-NW 294 ° 0 min 0,000 mm 0,0 UV-I 28 W/m² 9,7 °C 0,0 km/h (0 Bft)
15.10.2016 17:00 13,3 °C 13,3 °C 80 % 1015,1 hPa 0,0 mm 0,0 km/h (0 Bft) W-NW 294 ° 0 min 0,000 mm 0,0 UV-I 25 W/m² 9,9 °C 0,0 km/h (0 Bft)
15.10.2016 17:01 13,2 °C 13,3 °C 81 % 1015,1 hPa 0,0 mm 0,0 km/h (0 Bft) W-NW 294 ° 0 min 0,025 mm 0,0 UV-I 23 W/m² 10,0 °C 0,0 km/h (0 Bft)
15.10.2016 17:02 13,2 °C 13,2 °C 81 % 1015,1 hPa 0,0 mm 0,0 km/h (0 Bft) W-NW 294 ° 0 min 0,000 mm 0,0 UV-I 21 W/m² 10,0 °C 0,0 km/h (0 Bft)
15.10.2016 17:03 13,1 °C 13,2 °C 79 % 1015,1 hPa 0,0 mm 0,0 km/h (0 Bft) W-NW 294 ° 0 min 0,000 mm 0,0 UV-I 21 W/m² 9,5 °C 0,0 km/h (0 Bft)
15.10.2016 17:04 13,1 °C 13,1 °C 80 % 1015,1 hPa 0,0 mm 0,0 km/h (0 Bft) W-NW 294 ° 0 min 0,000 mm 0,0 UV-I 19 W/m² 9,7 °C 0,0 km/h (0 Bft)
15.10.2016 17:05 13,0 °C 13,1 °C 81 % 1015,1 hPa 0,0 mm 0,0 km/h (0 Bft) W-NW 294 ° 0 min 0,000 mm 0,0 UV-I 19 W/m² 9,8 °C 0,0 km/h (0 Bft)
15.10.2016 17:06 12,9 °C 13,0 °C 82 % 1015,1 hPa 0,0 mm 0,0 km/h (0 Bft) W-NW 294 ° 0 min 0,000 mm 0,0 UV-I 19 W/m² 9,9 °C 0,0 km/h (0 Bft)
15.10.2016 17:07 12,8 °C 12,9 °C 81 % 1015,1 hPa 0,0 mm 0,0 km/h (0 Bft) W-NW 294 ° 0 min 0,000 mm 0,0 UV-I 19 W/m² 9,6 °C 0,0 km/h (0 Bft)
15.10.2016 17:08 12,8 °C 12,9 °C 81 % 1015,1 hPa 0,0 mm 0,5 km/h (0 Bft) W-NW 294 ° 0 min 0,000 mm 0,0 UV-I 19 W/m² 9,6 °C 1,6 km/h (1 Bft)
15.10.2016 17:09 12,8 °C 12,8 °C 81 % 1015,2 hPa 0,0 mm 0,9 km/h (0 Bft) W-NW 294 ° 0 min 0,000 mm 0,0 UV-I 21 W/m² 9,6 °C 1,6 km/h (1 Bft)
15.10.2016 17:10 12,8 °C 12,8 °C 82 % 1015,2 hPa 0,0 mm 1,2 km/h (1 Bft) W-NW 294 ° 0 min 0,000 mm 0,0 UV-I 21 W/m² 9,8 °C 1,6 km/h (1 Bft)
15.10.2016 17:11 12,7 °C 12,8 °C 81 % 1015,2 hPa 0,0 mm 1,0 km/h (0 Bft) W-NW 294 ° 0 min 0,000 mm 0,0 UV-I 21 W/m² 9,5 °C 1,6 km/h (1 Bft)
15.10.2016 17:12 12,8 °C 12,8 °C 81 % 1015,2 hPa 0,0 mm 0,3 km/h (0 Bft) W-NW 294 ° 0 min 0,000 mm 0,0 UV-I 21 W/m² 9,6 °C 1,6 km/h (1 Bft)
15.10.2016 17:13 12,8 °C 12,8 °C 81 % 1015,2 hPa 0,0 mm 0,0 km/h (0 Bft) W-NW 294 ° 0 min 0,000 mm 0,0 UV-I 21 W/m² 9,6 °C 0,0 km/h (0 Bft)
15.10.2016 17:14 12,7 °C 12,8 °C 81 % 1015,2 hPa 0,0 mm 0,0 km/h (0 Bft) W-NW 294 ° 0 min 0,000 mm 0,0 UV-I 19 W/m² 9,5 °C 0,0 km/h (0 Bft)
15.10.2016 17:15 12,7 °C 12,7 °C 81 % 1015,2 hPa 0,0 mm 0,0 km/h (0 Bft) W-NW 294 ° 0 min 0,000 mm 0,0 UV-I 19 W/m² 9,5 °C 0,0 km/h (0 Bft)
15.10.2016 17:16 12,7 °C 12,7 °C 82 % 1015,3 hPa 0,0 mm 0,0 km/h (0 Bft) W-NW 294 ° 0 min 0,000 mm 0,0 UV-I 19 W/m² 9,7 °C 0,0 km/h (0 Bft)
15.10.2016 17:17 12,7 °C 12,7 °C 82 % 1015,3 hPa 0,0 mm 0,0 km/h (0 Bft) W-NW 294 ° 0 min 0,000 mm 0,0 UV-I 19 W/m² 9,7 °C 0,0 km/h (0 Bft)
15.10.2016 17:18 12,7 °C 12,7 °C 82 % 1015,3 hPa 0,0 mm 0,0 km/h (0 Bft) W-NW 294 ° 0 min 0,000 mm 0,0 UV-I 18 W/m² 9,7 °C 0,0 km/h (0 Bft)
15.10.2016 17:19 12,7 °C 12,7 °C 82 % 1015,3 hPa 0,0 mm 0,0 km/h (0 Bft) W-NW 294 ° 0 min 0,000 mm 0,0 UV-I 18 W/m² 9,7 °C 0,0 km/h (0 Bft)
15.10.2016 17:20 12,7 °C 12,7 °C 82 % 1015,3 hPa 0,0 mm 0,0 km/h (0 Bft) W-NW 294 ° 0 min 0,000 mm 0,0 UV-I 18 W/m² 9,7 °C 0,0 km/h (0 Bft)
15.10.2016 17:21 12,7 °C 12,7 °C 82 % 1015,3 hPa 0,0 mm 0,0 km/h (0 Bft) W-NW 294 ° 0 min 0,000 mm 0,0 UV-I 16 W/m² 9,7 °C 0,0 km/h (0 Bft)
15.10.2016 17:22 12,6 °C 12,7 °C 82 % 1015,3 hPa 0,0 mm 0,0 km/h (0 Bft) W-NW 294 ° 0 min 0,000 mm 0,0 UV-I 16 W/m² 9,6 °C 0,0 km/h (0 Bft)
15.10.2016 17:23 12,6 °C 12,7 °C 82 % 1015,3 hPa 0,0 mm 0,0 km/h (0 Bft) W-NW 294 ° 0 min 0,000 mm 0,0 UV-I 14 W/m² 9,6 °C 0,0 km/h (0 Bft)
15.10.2016 17:24 12,6 °C 12,7 °C 83 % 1015,3 hPa 0,0 mm 0,0 km/h (0 Bft) W-NW 294 ° 0 min 0,000 mm 0,0 UV-I 14 W/m² 9,8 °C 0,0 km/h (0 Bft)
15.10.2016 17:25 12,6 °C 12,6 °C 83 % 1015,3 hPa 0,0 mm 0,0 km/h (0 Bft) W-NW 294 ° 0 min 0,000 mm 0,0 UV-I 14 W/m² 9,8 °C 0,0 km/h (0 Bft)
15.10.2016 17:26 12,6 °C 12,6 °C 84 % 1015,3 hPa 0,0 mm 0,0 km/h (0 Bft) W-NW 294 ° 0 min 0,000 mm 0,0 UV-I 14 W/m² 10,0 °C 0,0 km/h (0 Bft)
15.10.2016 17:27 12,6 °C 12,6 °C 83 % 1015,3 hPa 0,0 mm 0,0 km/h (0 Bft) W-NW 294 ° 0 min 0,000 mm 0,0 UV-I 14 W/m² 9,8 °C 0,0 km/h (0 Bft)
15.10.2016 17:28 12,5 °C 12,6 °C 83 % 1015,4 hPa 0,0 mm 0,0 km/h (0 Bft) W-NW 294 ° 0 min 0,000 mm 0,0 UV-I 12 W/m² 9,7 °C 0,0 km/h (0 Bft)
15.10.2016 17:29 12,4 °C 12,5 °C 84 % 1015,4 hPa 0,0 mm 0,0 km/h (0 Bft) W-NW 294 ° 0 min 0,000 mm 0,0 UV-I 12 W/m² 9,8 °C 0,0 km/h (0 Bft)
15.10.2016 17:30 12,4 °C 12,4 °C 84 % 1015,4 hPa 0,0 mm 0,0 km/h (0 Bft) W-NW 294 ° 0 min 0,000 mm 0,0 UV-I 12 W/m² 9,8 °C 0,0 km/h (0 Bft)
15.10.2016 17:31 12,3 °C 12,4 °C 84 % 1015,4 hPa 0,0 mm 0,0 km/h (0 Bft) W-NW 294 ° 0 min 0,000 mm 0,0 UV-I 12 W/m² 9,7 °C 0,0 km/h (0 Bft)
15.10.2016 17:32 12,3 °C 12,4 °C 84 % 1015,4 hPa 0,0 mm 0,0 km/h (0 Bft) W-NW 294 ° 0 min 0,000 mm 0,0 UV-I 12 W/m² 9,7 °C 0,0 km/h (0 Bft)
15.10.2016 17:33 12,4 °C 12,4 °C 84 % 1015,4 hPa 0,0 mm 0,0 km/h (0 Bft) W-NW 294 ° 0 min 0,000 mm 0,0 UV-I 12 W/m² 9,8 °C 0,0 km/h (0 Bft)
15.10.2016 17:34 12,3 °C 12,4 °C 84 % 1015,4 hPa 0,0 mm 0,0 km/h (0 Bft) W-NW 294 ° 0 min 0,000 mm 0,0 UV-I 12 W/m² 9,7 °C 0,0 km/h (0 Bft)
15.10.2016 17:35 12,4 °C 12,4 °C 84 % 1015,4 hPa 0,0 mm 0,0 km/h (0 Bft) W-NW 294 ° 0 min 0,000 mm 0,0 UV-I 12 W/m² 9,8 °C 0,0 km/h (0 Bft)
15.10.2016 17:36 12,4 °C 12,4 °C 84 % 1015,4 hPa 0,0 mm 0,0 km/h (0 Bft) W-NW 294 ° 0 min 0,000 mm 0,0 UV-I 12 W/m² 9,8 °C 0,0 km/h (0 Bft)
15.10.2016 17:37 12,4 °C 12,4 °C 84 % 1015,5 hPa 0,0 mm 0,0 km/h (0 Bft) W-NW 294 ° 0 min 0,000 mm 0,0 UV-I 12 W/m² 9,8 °C 0,0 km/h (0 Bft)
15.10.2016 17:38 12,4 °C 12,4 °C 84 % 1015,5 hPa 0,0 mm 0,0 km/h (0 Bft) W-NW 294 ° 0 min 0,000 mm 0,0 UV-I 12 W/m² 9,8 °C 0,0 km/h (0 Bft)
15.10.2016 17:39 12,4 °C 12,4 °C 84 % 1015,4 hPa 0,0 mm 0,0 km/h (0 Bft) W-NW 294 ° 0 min 0,000 mm 0,0 UV-I 12 W/m² 9,8 °C 0,0 km/h (0 Bft)
15.10.2016 17:40 12,3 °C 12,4 °C 85 % 1015,5 hPa 0,0 mm 0,0 km/h (0 Bft) W-NW 294 ° 0 min 0,000 mm 0,0 UV-I 12 W/m² 9,9 °C 0,0 km/h (0 Bft)
15.10.2016 17:41 12,3 °C 12,4 °C 85 % 1015,5 hPa 0,0 mm 0,2 km/h (0 Bft) W-NW 294 ° 0 min 0,000 mm 0,0 UV-I 12 W/m² 9,9 °C 1,6 km/h (1 Bft)
15.10.2016 17:42 12,3 °C 12,3 °C 85 % 1015,5 hPa 0,0 mm 0,3 km/h (0 Bft) W-NW 294 ° 0 min 0,000 mm 0,0 UV-I 12 W/m² 9,9 °C 1,6 km/h (1 Bft)
15.10.2016 17:43 12,3 °C 12,3 °C 85 % 1015,5 hPa 0,0 mm 0,0 km/h (0 Bft) W-NW 294 ° 0 min 0,000 mm 0,0 UV-I 11 W/m² 9,9 °C 0,0 km/h (0 Bft)
15.10.2016 17:44 12,3 °C 12,3 °C 85 % 1015,5 hPa 0,0 mm 0,0 km/h (0 Bft) W-NW 294 ° 0 min 0,000 mm 0,0 UV-I 11 W/m² 9,9 °C 0,0 km/h (0 Bft)
15.10.2016 17:45 12,3 °C 12,3 °C 85 % 1015,5 hPa 0,0 mm 0,0 km/h (0 Bft) W-NW 294 ° 0 min 0,000 mm 0,0 UV-I 11 W/m² 9,9 °C 0,0 km/h (0 Bft)
15.10.2016 17:46 12,3 °C 12,3 °C 85 % 1015,6 hPa 0,0 mm 0,1 km/h (0 Bft) W-NW 294 ° 0 min 0,000 mm 0,0 UV-I 11 W/m² 9,9 °C 1,6 km/h (1 Bft)
15.10.2016 17:47 12,2 °C 12,3 °C 85 % 1015,5 hPa 0,0 mm 0,2 km/h (0 Bft) W-NW 294 ° 0 min 0,000 mm 0,0 UV-I 11 W/m² 9,8 °C 1,6 km/h (1 Bft)
15.10.2016 17:48 12,2 °C 12,2 °C 85 % 1015,5 hPa 0,0 mm 0,0 km/h (0 Bft) W-NW 294 ° 0 min 0,000 mm 0,0 UV-I 11 W/m² 9,8 °C 0,0 km/h (0 Bft)
15.10.2016 17:49 12,2 °C 12,2 °C 85 % 1015,5 hPa 0,0 mm 0,1 km/h (0 Bft) W-NW 294 ° 0 min 0,000 mm 0,0 UV-I 11 W/m² 9,8 °C 1,6 km/h (1 Bft)
15.10.2016 17:50 12,2 °C 12,3 °C 85 % 1015,6 hPa 0,0 mm 0,7 km/h (0 Bft) W-NW 294 ° 0 min 0,000 mm 0,0 UV-I 11 W/m² 9,8 °C 1,6 km/h (1 Bft)
15.10.2016 17:51 12,2 °C 12,2 °C 85 % 1015,5 hPa 0,0 mm 0,5 km/h (0 Bft) W-NW 294 ° 0 min 0,000 mm 0,0 UV-I 9 W/m² 9,8 °C 1,6 km/h (1 Bft)
15.10.2016 17:52 12,3 °C 12,3 °C 86 % 1015,6 hPa 0,0 mm 0,8 km/h (0 Bft) W-NW 294 ° 0 min 0,000 mm 0,0 UV-I 9 W/m² 10,0 °C 1,6 km/h (1 Bft)
15.10.2016 17:53 12,2 °C 12,3 °C 86 % 1015,6 hPa 0,0 mm 0,9 km/h (0 Bft) W-NW 294 ° 0 min 0,000 mm 0,0 UV-I 9 W/m² 9,9 °C 1,6 km/h (1 Bft)
15.10.2016 17:54 12,2 °C 12,2 °C 86 % 1015,6 hPa 0,0 mm 1,5 km/h (1 Bft) W-NW 294 ° 0 min 0,000 mm 0,0 UV-I 9 W/m² 9,9 °C 1,6 km/h (1 Bft)
15.10.2016 17:55 12,2 °C 12,2 °C 86 % 1015,6 hPa 0,0 mm 0,4 km/h (0 Bft) W-NW 294 ° 0 min 0,000 mm 0,0 UV-I 9 W/m² 9,9 °C 1,6 km/h (1 Bft)
15.10.2016 17:56 12,2 °C 12,2 °C 87 % 1015,6 hPa 0,0 mm 0,1 km/h (0 Bft) W-NW 294 ° 0 min 0,000 mm 0,0 UV-I 7 W/m² 10,1 °C 1,6 km/h (1 Bft)
15.10.2016 17:57 12,2 °C 12,2 °C 87 % 1015,7 hPa 0,0 mm 0,1 km/h (0 Bft) W-NW 294 ° 0 min 0,000 mm 0,0 UV-I 7 W/m² 10,1 °C 1,6 km/h (1 Bft)
15.10.2016 17:58 12,2 °C 12,2 °C 87 % 1015,7 hPa 0,0 mm 0,0 km/h (0 Bft) W-NW 294 ° 0 min 0,000 mm 0,0 UV-I 7 W/m² 10,1 °C 0,0 km/h (0 Bft)
15.10.2016 17:59 12,2 °C 12,2 °C 87 % 1015,7 hPa 0,0 mm 0,0 km/h (0 Bft) W-NW 294 ° 0 min 0,000 mm 0,0 UV-I 7 W/m² 10,1 °C 0,0 km/h (0 Bft)
15.10.2016 18:00 12,2 °C 12,2 °C 87 % 1015,8 hPa 0,0 mm 0,1 km/h (0 Bft) W-NW 294 ° 0 min 0,000 mm 0,0 UV-I 7 W/m² 10,1 °C 1,6 km/h (1 Bft)
15.10.2016 18:01 12,2 °C 12,2 °C 88 % 1015,8 hPa 0,0 mm 0,0 km/h (0 Bft) W-NW 294 ° 0 min 0,000 mm 0,0 UV-I 7 W/m² 10,3 °C 0,0 km/h (0 Bft)
15.10.2016 18:02 12,1 °C 12,2 °C 88 % 1015,8 hPa 0,0 mm 0,0 km/h (0 Bft) W-NW 294 ° 0 min 0,000 mm 0,0 UV-I 7 W/m² 10,2 °C 0,0 km/h (0 Bft)
15.10.2016 18:03 12,1 °C 12,1 °C 88 % 1015,8 hPa 0,0 mm 0,2 km/h (0 Bft) W-NW 294 ° 0 min 0,000 mm 0,0 UV-I 7 W/m² 10,2 °C 1,6 km/h (1 Bft)
15.10.2016 18:04 12,0 °C 12,1 °C 88 % 1015,8 hPa 0,0 mm 0,7 km/h (0 Bft) W-NW 294 ° 0 min 0,000 mm 0,0 UV-I 5 W/m² 10,1 °C 1,6 km/h (1 Bft)
15.10.2016 18:05 11,9 °C 12,0 °C 88 % 1015,8 hPa 0,0 mm 0,0 km/h (0 Bft) W-NW 294 ° 0 min 0,000 mm 0,0 UV-I 5 W/m² 10,0 °C 0,0 km/h (0 Bft)
15.10.2016 18:06 11,9 °C 11,9 °C 88 % 1015,9 hPa 0,0 mm 0,1 km/h (0 Bft) W-NW 294 ° 0 min 0,000 mm 0,0 UV-I 5 W/m² 10,0 °C 1,6 km/h (1 Bft)
15.10.2016 18:07 11,8 °C 11,9 °C 89 % 1015,9 hPa 0,0 mm 0,1 km/h (0 Bft) W-NW 294 ° 0 min 0,000 mm 0,0 UV-I 5 W/m² 10,0 °C 1,6 km/h (1 Bft)
15.10.2016 18:08 11,8 °C 11,8 °C 89 % 1015,9 hPa 0,0 mm 0,7 km/h (0 Bft) W-NW 294 ° 0 min 0,000 mm 0,0 UV-I 5 W/m² 10,0 °C 1,6 km/h (1 Bft)
15.10.2016 18:09 11,8 °C 11,8 °C 89 % 1015,9 hPa 0,0 mm 0,5 km/h (0 Bft) W-NW 294 ° 0 min 0,000 mm 0,0 UV-I 5 W/m² 10,0 °C 1,6 km/h (1 Bft)
15.10.2016 18:10 11,8 °C 11,8 °C 89 % 1015,9 hPa 0,0 mm 0,0 km/h (0 Bft) W-NW 294 ° 0 min 0,000 mm 0,0 UV-I 0 W/m² 10,0 °C 0,0 km/h (0 Bft)
15.10.2016 18:11 11,8 °C 11,8 °C 88 % 1015,9 hPa 0,0 mm 0,0 km/h (0 Bft) W-NW 294 ° 0 min 0,000 mm 0,0 UV-I 0 W/m² 9,9 °C 0,0 km/h (0 Bft)
15.10.2016 18:12 11,8 °C 11,8 °C 88 % 1015,9 hPa 0,0 mm 0,2 km/h (0 Bft) W-NW 294 ° 0 min 0,000 mm 0,0 UV-I 0 W/m² 9,9 °C 1,6 km/h (1 Bft)
15.10.2016 18:13 11,8 °C 11,8 °C 88 % 1015,9 hPa 0,0 mm 0,1 km/h (0 Bft) W-NW 294 ° 0 min 0,000 mm 0,0 UV-I 0 W/m² 9,9 °C 1,6 km/h (1 Bft)
15.10.2016 18:14 11,8 °C 11,8 °C 88 % 1015,9 hPa 0,0 mm 0,0 km/h (0 Bft) W-NW 294 ° 0 min 0,000 mm 0,0 UV-I 0 W/m² 9,9 °C 0,0 km/h (0 Bft)
15.10.2016 18:15 11,8 °C 11,8 °C 88 % 1015,9 hPa 0,0 mm 0,0 km/h (0 Bft) W-NW 294 ° 0 min 0,000 mm 0,0 UV-I 0 W/m² 9,9 °C 0,0 km/h (0 Bft)
15.10.2016 18:16 11,8 °C 11,8 °C 87 % 1015,9 hPa 0,0 mm 0,4 km/h (0 Bft) W-NW 294 ° 0 min 0,000 mm 0,0 UV-I 0 W/m² 9,7 °C 1,6 km/h (1 Bft)
15.10.2016 18:17 11,9 °C 11,9 °C 87 % 1015,9 hPa 0,0 mm 0,1 km/h (0 Bft) W-NW 294 ° 0 min 0,000 mm 0,0 UV-I 0 W/m² 9,8 °C 1,6 km/h (1 Bft)
15.10.2016 18:18 11,9 °C 11,9 °C 87 % 1016,0 hPa 0,0 mm 0,1 km/h (0 Bft) W-NW 294 ° 0 min 0,000 mm 0,0 UV-I 0 W/m² 9,8 °C 1,6 km/h (1 Bft)
15.10.2016 18:19 11,9 °C 11,9 °C 87 % 1015,9 hPa 0,0 mm 0,1 km/h (0 Bft) W-NW 294 ° 0 min 0,000 mm 0,0 UV-I 0 W/m² 9,8 °C 1,6 km/h (1 Bft)
15.10.2016 18:20 11,9 °C 11,9 °C 88 % 1016,0 hPa 0,0 mm 0,3 km/h (0 Bft) W-NW 294 ° 0 min 0,000 mm 0,0 UV-I 0 W/m² 10,0 °C 1,6 km/h (1 Bft)
15.10.2016 18:21 11,9 °C 11,9 °C 88 % 1016,0 hPa 0,0 mm 0,8 km/h (0 Bft) W-NW 294 ° 0 min 0,000 mm 0,0 UV-I 0 W/m² 10,0 °C 1,6 km/h (1 Bft)
15.10.2016 18:22 11,9 °C 11,9 °C 88 % 1016,0 hPa 0,0 mm 0,3 km/h (0 Bft) W-NW 294 ° 0 min 0,000 mm 0,0 UV-I 0 W/m² 10,0 °C 1,6 km/h (1 Bft)
15.10.2016 18:23 11,9 °C 11,9 °C 88 % 1016,0 hPa 0,0 mm 0,0 km/h (0 Bft) W-NW 294 ° 0 min 0,000 mm 0,0 UV-I 0 W/m² 10,0 °C 0,0 km/h (0 Bft)
15.10.2016 18:24 11,9 °C 11,9 °C 88 % 1015,9 hPa 0,0 mm 0,0 km/h (0 Bft) W-NW 294 ° 0 min 0,000 mm 0,0 UV-I 0 W/m² 10,0 °C 0,0 km/h (0 Bft)
15.10.2016 18:25 11,8 °C 11,9 °C 88 % 1016,0 hPa 0,0 mm 0,0 km/h (0 Bft) W-NW 294 ° 0 min 0,000 mm 0,0 UV-I 0 W/m² 9,9 °C 0,0 km/h (0 Bft)
15.10.2016 18:26 11,8 °C 11,8 °C 88 % 1016,0 hPa 0,0 mm 0,0 km/h (0 Bft) W-NW 294 ° 0 min 0,000 mm 0,0 UV-I 0 W/m² 9,9 °C 0,0 km/h (0 Bft)
15.10.2016 18:27 11,8 °C 11,8 °C 88 % 1016,0 hPa 0,0 mm 0,0 km/h (0 Bft) W-NW 294 ° 0 min 0,000 mm 0,0 UV-I 0 W/m² 9,9 °C 0,0 km/h (0 Bft)
15.10.2016 18:28 11,8 °C 11,8 °C 88 % 1016,0 hPa 0,0 mm 0,0 km/h (0 Bft) W-NW 294 ° 0 min 0,000 mm 0,0 UV-I 0 W/m² 9,9 °C 0,0 km/h (0 Bft)
15.10.2016 18:29 11,8 °C 11,8 °C 88 % 1016,0 hPa 0,0 mm 0,1 km/h (0 Bft) W-NW 294 ° 0 min 0,000 mm 0,0 UV-I 0 W/m² 9,9 °C 1,6 km/h (1 Bft)
15.10.2016 18:30 11,7 °C 11,8 °C 88 % 1016,1 hPa 0,0 mm 0,4 km/h (0 Bft) W-NW 294 ° 0 min 0,000 mm 0,0 UV-I 0 W/m² 9,8 °C 1,6 km/h (1 Bft)
15.10.2016 18:31 11,7 °C 11,7 °C 88 % 1016,1 hPa 0,0 mm 0,0 km/h (0 Bft) W-NW 294 ° 0 min 0,000 mm 0,0 UV-I 0 W/m² 9,8 °C 0,0 km/h (0 Bft)
15.10.2016 18:32 11,7 °C 11,7 °C 89 % 1016,1 hPa 0,0 mm 0,0 km/h (0 Bft) W-NW 294 ° 0 min 0,000 mm 0,0 UV-I 0 W/m² 9,9 °C 0,0 km/h (0 Bft)
15.10.2016 18:33 11,6 °C 11,7 °C 89 % 1016,1 hPa 0,0 mm 0,0 km/h (0 Bft) W-NW 294 ° 0 min 0,000 mm 0,0 UV-I 0 W/m² 9,8 °C 0,0 km/h (0 Bft)
15.10.2016 18:34 11,6 °C 11,6 °C 89 % 1016,1 hPa 0,0 mm 0,0 km/h (0 Bft) W-NW 294 ° 0 min 0,000 mm 0,0 UV-I 0 W/m² 9,8 °C 0,0 km/h (0 Bft)
15.10.2016 18:35 11,6 °C 11,6 °C 89 % 1016,1 hPa 0,0 mm 0,0 km/h (0 Bft) W-NW 294 ° 0 min 0,000 mm 0,0 UV-I 0 W/m² 9,8 °C 0,0 km/h (0 Bft)
15.10.2016 18:36 11,5 °C 11,6 °C 90 % 1016,2 hPa 0,0 mm 0,0 km/h (0 Bft) W-NW 294 ° 0 min 0,000 mm 0,0 UV-I 0 W/m² 9,9 °C 0,0 km/h (0 Bft)
15.10.2016 18:37 11,5 °C 11,5 °C 89 % 1016,1 hPa 0,0 mm 0,0 km/h (0 Bft) W-NW 294 ° 0 min 0,000 mm 0,0 UV-I 0 W/m² 9,8 °C 0,0 km/h (0 Bft)
15.10.2016 18:38 11,5 °C 11,5 °C 89 % 1016,2 hPa 0,0 mm 0,1 km/h (0 Bft) W-NW 294 ° 0 min 0,000 mm 0,0 UV-I 0 W/m² 9,8 °C 1,6 km/h (1 Bft)
15.10.2016 18:39 11,5 °C 11,5 °C 89 % 1016,2 hPa 0,0 mm 0,0 km/h (0 Bft) W-NW 294 ° 0 min 0,000 mm 0,0 UV-I 0 W/m² 9,8 °C 0,0 km/h (0 Bft)
15.10.2016 18:40 11,5 °C 11,5 °C 89 % 1016,2 hPa 0,0 mm 0,0 km/h (0 Bft) W-NW 294 ° 0 min 0,000 mm 0,0 UV-I 0 W/m² 9,8 °C 0,0 km/h (0 Bft)
15.10.2016 18:41 11,5 °C 11,5 °C 89 % 1016,2 hPa 0,0 mm 0,3 km/h (0 Bft) W-NW 294 ° 0 min 0,000 mm 0,0 UV-I 0 W/m² 9,8 °C 1,6 km/h (1 Bft)
15.10.2016 18:42 11,5 °C 11,5 °C 89 % 1016,2 hPa 0,0 mm 0,5 km/h (0 Bft) W-NW 294 ° 0 min 0,000 mm 0,0 UV-I 0 W/m² 9,8 °C 1,6 km/h (1 Bft)
15.10.2016 18:43 11,4 °C 11,5 °C 89 % 1016,2 hPa 0,0 mm 0,1 km/h (0 Bft) W-NW 294 ° 0 min 0,000 mm 0,0 UV-I 0 W/m² 9,7 °C 1,6 km/h (1 Bft)
15.10.2016 18:44 11,4 °C 11,4 °C 90 % 1016,2 hPa 0,0 mm 0,1 km/h (0 Bft) W-NW 294 ° 0 min 0,000 mm 0,0 UV-I 0 W/m² 9,8 °C 1,6 km/h (1 Bft)
15.10.2016 18:45 11,3 °C 11,4 °C 90 % 1016,3 hPa 0,0 mm 0,0 km/h (0 Bft) W-NW 294 ° 0 min 0,000 mm 0,0 UV-I 0 W/m² 9,7 °C 0,0 km/h (0 Bft)
15.10.2016 18:46 11,3 °C 11,3 °C 90 % 1016,2 hPa 0,0 mm 0,0 km/h (0 Bft) W-NW 294 ° 0 min 0,000 mm 0,0 UV-I 0 W/m² 9,7 °C 0,0 km/h (0 Bft)
15.10.2016 18:47 11,3 °C 11,3 °C 90 % 1016,3 hPa 0,0 mm 0,1 km/h (0 Bft) W-NW 294 ° 0 min 0,000 mm 0,0 UV-I 0 W/m² 9,7 °C 1,6 km/h (1 Bft)
15.10.2016 18:48 11,3 °C 11,3 °C 90 % 1016,3 hPa 0,0 mm 0,0 km/h (0 Bft) W-NW 294 ° 0 min 0,000 mm 0,0 UV-I 0 W/m² 9,7 °C 0,0 km/h (0 Bft)
15.10.2016 18:49 11,3 °C 11,3 °C 90 % 1016,3 hPa 0,0 mm 0,0 km/h (0 Bft) W-NW 294 ° 0 min 0,000 mm 0,0 UV-I 0 W/m² 9,7 °C 0,0 km/h (0 Bft)
15.10.2016 18:50 11,3 °C 11,3 °C 90 % 1016,3 hPa 0,0 mm 0,0 km/h (0 Bft) W-NW 294 ° 0 min 0,000 mm 0,0 UV-I 0 W/m² 9,7 °C 0,0 km/h (0 Bft)
15.10.2016 18:51 11,3 °C 11,3 °C 90 % 1016,3 hPa 0,0 mm 0,0 km/h (0 Bft) W-NW 294 ° 0 min 0,000 mm 0,0 UV-I 0 W/m² 9,7 °C 0,0 km/h (0 Bft)
15.10.2016 18:52 11,3 °C 11,3 °C 90 % 1016,3 hPa 0,0 mm 0,0 km/h (0 Bft) W-NW 294 ° 0 min 0,000 mm 0,0 UV-I 0 W/m² 9,7 °C 0,0 km/h (0 Bft)
15.10.2016 18:53 11,3 °C 11,3 °C 90 % 1016,3 hPa 0,0 mm 0,1 km/h (0 Bft) W-NW 294 ° 0 min 0,000 mm 0,0 UV-I 0 W/m² 9,7 °C 1,6 km/h (1 Bft)
15.10.2016 18:54 11,3 °C 11,3 °C 90 % 1016,3 hPa 0,0 mm 0,0 km/h (0 Bft) W-NW 294 ° 0 min 0,000 mm 0,0 UV-I 0 W/m² 9,7 °C 0,0 km/h (0 Bft)
15.10.2016 18:55 11,3 °C 11,3 °C 90 % 1016,3 hPa 0,0 mm 0,0 km/h (0 Bft) W-NW 294 ° 0 min 0,000 mm 0,0 UV-I 0 W/m² 9,7 °C 0,0 km/h (0 Bft)
15.10.2016 18:56 11,3 °C 11,3 °C 90 % 1016,4 hPa 0,0 mm 0,1 km/h (0 Bft) W-NW 294 ° 0 min 0,000 mm 0,0 UV-I 0 W/m² 9,7 °C 1,6 km/h (1 Bft)
15.10.2016 18:57 11,4 °C 11,4 °C 90 % 1016,3 hPa 0,0 mm 0,0 km/h (0 Bft) W-NW 294 ° 0 min 0,000 mm 0,0 UV-I 0 W/m² 9,8 °C 0,0 km/h (0 Bft)
15.10.2016 18:58 11,4 °C 11,4 °C 90 % 1016,4 hPa 0,0 mm 0,0 km/h (0 Bft) W-NW 294 ° 0 min 0,000 mm 0,0 UV-I 0 W/m² 9,8 °C 0,0 km/h (0 Bft)
15.10.2016 18:59 11,3 °C 11,4 °C 90 % 1016,4 hPa 0,0 mm 0,0 km/h (0 Bft) W-NW 294 ° 0 min 0,000 mm 0,0 UV-I 0 W/m² 9,7 °C 0,0 km/h (0 Bft)
15.10.2016 19:00 11,3 °C 11,3 °C 90 % 1016,4 hPa 0,0 mm 0,0 km/h (0 Bft) W-NW 294 ° 0 min 0,000 mm 0,0 UV-I 0 W/m² 9,7 °C 0,0 km/h (0 Bft)
15.10.2016 19:01 11,3 °C 11,3 °C 90 % 1016,4 hPa 0,0 mm 0,0 km/h (0 Bft) W-NW 294 ° 0 min 0,000 mm 0,0 UV-I 0 W/m² 9,7 °C 0,0 km/h (0 Bft)
15.10.2016 19:02 11,2 °C 11,3 °C 90 % 1016,4 hPa 0,0 mm 0,0 km/h (0 Bft) W-NW 294 ° 0 min 0,000 mm 0,0 UV-I 0 W/m² 9,6 °C 0,0 km/h (0 Bft)
15.10.2016 19:03 11,2 °C 11,2 °C 90 % 1016,4 hPa 0,0 mm 0,0 km/h (0 Bft) W-NW 294 ° 0 min 0,000 mm 0,0 UV-I 0 W/m² 9,6 °C 0,0 km/h (0 Bft)
15.10.2016 19:04 11,2 °C 11,2 °C 90 % 1016,4 hPa 0,0 mm 0,0 km/h (0 Bft) W-NW 294 ° 0 min 0,000 mm 0,0 UV-I 0 W/m² 9,6 °C 0,0 km/h (0 Bft)
15.10.2016 19:05 11,2 °C 11,2 °C 90 % 1016,4 hPa 0,0 mm 0,0 km/h (0 Bft) W-NW 294 ° 0 min 0,000 mm 0,0 UV-I 0 W/m² 9,6 °C 0,0 km/h (0 Bft)
15.10.2016 19:06 11,2 °C 11,3 °C 90 % 1016,4 hPa 0,0 mm 0,0 km/h (0 Bft) W-NW 294 ° 0 min 0,000 mm 0,0 UV-I 0 W/m² 9,6 °C 0,0 km/h (0 Bft)
15.10.2016 19:07 11,2 °C 11,3 °C 90 % 1016,4 hPa 0,0 mm 0,0 km/h (0 Bft) W-NW 294 ° 0 min 0,000 mm 0,0 UV-I 0 W/m² 9,6 °C 0,0 km/h (0 Bft)
15.10.2016 19:08 11,2 °C 11,3 °C 90 % 1016,4 hPa 0,0 mm 0,0 km/h (0 Bft) W-NW 294 ° 0 min 0,000 mm 0,0 UV-I 0 W/m² 9,6 °C 0,0 km/h (0 Bft)
15.10.2016 19:09 11,2 °C 11,3 °C 90 % 1016,5 hPa 0,0 mm 0,0 km/h (0 Bft) W-NW 294 ° 0 min 0,000 mm 0,0 UV-I 0 W/m² 9,6 °C 0,0 km/h (0 Bft)
15.10.2016 19:10 11,2 °C 11,2 °C 90 % 1016,5 hPa 0,0 mm 0,0 km/h (0 Bft) W-NW 294 ° 0 min 0,000 mm 0,0 UV-I 0 W/m² 9,6 °C 0,0 km/h (0 Bft)
15.10.2016 19:11 11,3 °C 11,3 °C 90 % 1016,5 hPa 0,0 mm 0,0 km/h (0 Bft) W-NW 294 ° 0 min 0,000 mm 0,0 UV-I 0 W/m² 9,7 °C 0,0 km/h (0 Bft)
15.10.2016 19:12 11,3 °C 11,3 °C 90 % 1016,5 hPa 0,0 mm 0,0 km/h (0 Bft) W-NW 294 ° 0 min 0,000 mm 0,0 UV-I 0 W/m² 9,7 °C 0,0 km/h (0 Bft)
15.10.2016 19:13 11,3 °C 11,3 °C 90 % 1016,5 hPa 0,0 mm 0,0 km/h (0 Bft) W-NW 294 ° 0 min 0,000 mm 0,0 UV-I 0 W/m² 9,7 °C 0,0 km/h (0 Bft)
15.10.2016 19:14 11,3 °C 11,3 °C 90 % 1016,5 hPa 0,0 mm 0,0 km/h (0 Bft) W-NW 294 ° 0 min 0,000 mm 0,0 UV-I 0 W/m² 9,7 °C 0,0 km/h (0 Bft)
15.10.2016 19:15 11,3 °C 11,3 °C 90 % 1016,5 hPa 0,0 mm 0,0 km/h (0 Bft) W-NW 294 ° 0 min 0,000 mm 0,0 UV-I 0 W/m² 9,7 °C 0,0 km/h (0 Bft)
15.10.2016 19:16 11,3 °C 11,3 °C 90 % 1016,5 hPa 0,0 mm 0,0 km/h (0 Bft) W-NW 294 ° 0 min 0,000 mm 0,0 UV-I 0 W/m² 9,7 °C 0,0 km/h (0 Bft)
15.10.2016 19:17 11,3 °C 11,3 °C 89 % 1016,6 hPa 0,0 mm 0,0 km/h (0 Bft) W-NW 294 ° 0 min 0,000 mm 0,0 UV-I 0 W/m² 9,6 °C 0,0 km/h (0 Bft)
15.10.2016 19:18 11,3 °C 11,3 °C 89 % 1016,5 hPa 0,0 mm 0,0 km/h (0 Bft) W-NW 294 ° 0 min 0,000 mm 0,0 UV-I 0 W/m² 9,6 °C 0,0 km/h (0 Bft)
15.10.2016 19:19 11,3 °C 11,3 °C 89 % 1016,5 hPa 0,0 mm 0,0 km/h (0 Bft) W-NW 294 ° 0 min 0,000 mm 0,0 UV-I 0 W/m² 9,6 °C 0,0 km/h (0 Bft)
15.10.2016 19:20 11,3 °C 11,3 °C 89 % 1016,5 hPa 0,0 mm 0,0 km/h (0 Bft) W-NW 294 ° 0 min 0,000 mm 0,0 UV-I 0 W/m² 9,6 °C 0,0 km/h (0 Bft)
15.10.2016 19:21 11,3 °C 11,3 °C 89 % 1016,5 hPa 0,0 mm 0,0 km/h (0 Bft) W-NW 294 ° 0 min 0,000 mm 0,0 UV-I 0 W/m² 9,6 °C 0,0 km/h (0 Bft)
15.10.2016 19:22 11,3 °C 11,3 °C 89 % 1016,6 hPa 0,0 mm 0,0 km/h (0 Bft) W-NW 294 ° 0 min 0,000 mm 0,0 UV-I 0 W/m² 9,6 °C 0,0 km/h (0 Bft)
15.10.2016 19:23 11,3 °C 11,3 °C 89 % 1016,6 hPa 0,0 mm 0,0 km/h (0 Bft) W-NW 294 ° 0 min 0,000 mm 0,0 UV-I 0 W/m² 9,6 °C 0,0 km/h (0 Bft)
15.10.2016 19:24 11,3 °C 11,3 °C 90 % 1016,7 hPa 0,0 mm 0,0 km/h (0 Bft) W-NW 294 ° 0 min 0,000 mm 0,0 UV-I 0 W/m² 9,7 °C 0,0 km/h (0 Bft)
15.10.2016 19:25 11,2 °C 11,3 °C 90 % 1016,7 hPa 0,0 mm 0,0 km/h (0 Bft) W-NW 294 ° 0 min 0,000 mm 0,0 UV-I 0 W/m² 9,6 °C 0,0 km/h (0 Bft)
15.10.2016 19:26 11,2 °C 11,3 °C 90 % 1016,7 hPa 0,0 mm 0,0 km/h (0 Bft) W-NW 294 ° 0 min 0,000 mm 0,0 UV-I 0 W/m² 9,6 °C 0,0 km/h (0 Bft)
15.10.2016 19:27 11,2 °C 11,2 °C 90 % 1016,7 hPa 0,0 mm 0,0 km/h (0 Bft) W-NW 294 ° 0 min 0,000 mm 0,0 UV-I 0 W/m² 9,6 °C 0,0 km/h (0 Bft)
15.10.2016 19:28 11,2 °C 11,2 °C 90 % 1016,7 hPa 0,0 mm 0,0 km/h (0 Bft) W-NW 294 ° 0 min 0,000 mm 0,0 UV-I 0 W/m² 9,6 °C 0,0 km/h (0 Bft)
15.10.2016 19:29 11,2 °C 11,2 °C 90 % 1016,7 hPa 0,0 mm 0,0 km/h (0 Bft) W-NW 294 ° 0 min 0,000 mm 0,0 UV-I 0 W/m² 9,6 °C 0,0 km/h (0 Bft)
15.10.2016 19:30 11,2 °C 11,2 °C 90 % 1016,7 hPa 0,0 mm 0,0 km/h (0 Bft) W-NW 294 ° 0 min 0,000 mm 0,0 UV-I 0 W/m² 9,6 °C 0,0 km/h (0 Bft)
15.10.2016 19:31 11,2 °C 11,2 °C 90 % 1016,8 hPa 0,0 mm 0,0 km/h (0 Bft) W-NW 294 ° 0 min 0,000 mm 0,0 UV-I 0 W/m² 9,6 °C 0,0 km/h (0 Bft)
15.10.2016 19:32 11,2 °C 11,2 °C 90 % 1016,7 hPa 0,0 mm 0,0 km/h (0 Bft) W-NW 294 ° 0 min 0,000 mm 0,0 UV-I 0 W/m² 9,6 °C 0,0 km/h (0 Bft)
15.10.2016 19:33 11,2 °C 11,2 °C 90 % 1016,8 hPa 0,0 mm 0,0 km/h (0 Bft) W-NW 294 ° 0 min 0,000 mm 0,0 UV-I 0 W/m² 9,6 °C 0,0 km/h (0 Bft)
15.10.2016 19:34 11,2 °C 11,2 °C 90 % 1016,7 hPa 0,0 mm 0,0 km/h (0 Bft) W-NW 294 ° 0 min 0,000 mm 0,0 UV-I 0 W/m² 9,6 °C 0,0 km/h (0 Bft)
15.10.2016 19:35 11,2 °C 11,2 °C 90 % 1016,8 hPa 0,0 mm 0,0 km/h (0 Bft) W-NW 294 ° 0 min 0,000 mm 0,0 UV-I 0 W/m² 9,6 °C 0,0 km/h (0 Bft)
15.10.2016 19:36 11,1 °C 11,2 °C 90 % 1016,8 hPa 0,0 mm 0,0 km/h (0 Bft) W-NW 294 ° 0 min 0,000 mm 0,0 UV-I 0 W/m² 9,5 °C 0,0 km/h (0 Bft)
15.10.2016 19:37 11,1 °C 11,1 °C 90 % 1016,8 hPa 0,0 mm 0,0 km/h (0 Bft) W-NW 294 ° 0 min 0,000 mm 0,0 UV-I 0 W/m² 9,5 °C 0,0 km/h (0 Bft)
15.10.2016 19:38 11,1 °C 11,1 °C 91 % 1016,9 hPa 0,0 mm 0,0 km/h (0 Bft) W-NW 294 ° 0 min 0,000 mm 0,0 UV-I 0 W/m² 9,7 °C 0,0 km/h (0 Bft)
15.10.2016 19:39 11,0 °C 11,1 °C 91 % 1016,9 hPa 0,0 mm 0,0 km/h (0 Bft) W-NW 294 ° 0 min 0,000 mm 0,0 UV-I 0 W/m² 9,6 °C 0,0 km/h (0 Bft)
15.10.2016 19:40 11,0 °C 11,0 °C 91 % 1016,9 hPa 0,0 mm 0,0 km/h (0 Bft) W-NW 294 ° 0 min 0,000 mm 0,0 UV-I 0 W/m² 9,6 °C 0,0 km/h (0 Bft)
15.10.2016 19:41 11,0 °C 11,0 °C 91 % 1017,0 hPa 0,0 mm 0,0 km/h (0 Bft) W-NW 294 ° 0 min 0,000 mm 0,0 UV-I 0 W/m² 9,6 °C 0,0 km/h (0 Bft)
15.10.2016 19:42 11,0 °C 11,0 °C 91 % 1016,9 hPa 0,0 mm 0,5 km/h (0 Bft) W-NW 294 ° 0 min 0,000 mm 0,0 UV-I 0 W/m² 9,6 °C 1,6 km/h (1 Bft)
15.10.2016 19:43 11,0 °C 11,0 °C 90 % 1017,0 hPa 0,0 mm 0,2 km/h (0 Bft) W-NW 294 ° 0 min 0,000 mm 0,0 UV-I 0 W/m² 9,4 °C 1,6 km/h (1 Bft)
15.10.2016 19:44 11,1 °C 11,1 °C 90 % 1017,0 hPa 0,0 mm 0,9 km/h (0 Bft) W-NW 294 ° 0 min 0,000 mm 0,0 UV-I 0 W/m² 9,5 °C 1,6 km/h (1 Bft)
15.10.2016 19:45 11,1 °C 11,1 °C 90 % 1017,0 hPa 0,0 mm 0,0 km/h (0 Bft) W-NW 294 ° 0 min 0,000 mm 0,0 UV-I 0 W/m² 9,5 °C 0,0 km/h (0 Bft)
15.10.2016 19:46 11,1 °C 11,1 °C 90 % 1017,0 hPa 0,0 mm 0,0 km/h (0 Bft) W-NW 294 ° 0 min 0,000 mm 0,0 UV-I 0 W/m² 9,5 °C 0,0 km/h (0 Bft)
15.10.2016 19:47 11,1 °C 11,1 °C 90 % 1017,1 hPa 0,0 mm 0,0 km/h (0 Bft) W-NW 294 ° 0 min 0,000 mm 0,0 UV-I 0 W/m² 9,5 °C 0,0 km/h (0 Bft)
15.10.2016 19:48 11,0 °C 11,1 °C 91 % 1017,0 hPa 0,0 mm 0,0 km/h (0 Bft) W-NW 294 ° 0 min 0,000 mm 0,0 UV-I 0 W/m² 9,6 °C 0,0 km/h (0 Bft)
15.10.2016 19:49 11,0 °C 11,1 °C 91 % 1017,1 hPa 0,0 mm 0,0 km/h (0 Bft) W-NW 294 ° 0 min 0,000 mm 0,0 UV-I 0 W/m² 9,6 °C 0,0 km/h (0 Bft)
15.10.2016 19:50 11,0 °C 11,0 °C 91 % 1017,0 hPa 0,0 mm 0,0 km/h (0 Bft) W-NW 294 ° 0 min 0,000 mm 0,0 UV-I 0 W/m² 9,6 °C 0,0 km/h (0 Bft)
15.10.2016 19:51 11,0 °C 11,0 °C 91 % 1017,0 hPa 0,0 mm 0,0 km/h (0 Bft) W-NW 294 ° 0 min 0,000 mm 0,0 UV-I 0 W/m² 9,6 °C 0,0 km/h (0 Bft)
15.10.2016 19:52 11,0 °C 11,0 °C 91 % 1017,1 hPa 0,0 mm 0,0 km/h (0 Bft) W-NW 294 ° 0 min 0,000 mm 0,0 UV-I 0 W/m² 9,6 °C 0,0 km/h (0 Bft)
15.10.2016 19:53 11,0 °C 11,0 °C 91 % 1017,1 hPa 0,0 mm 0,0 km/h (0 Bft) W-NW 294 ° 0 min 0,000 mm 0,0 UV-I 0 W/m² 9,6 °C 0,0 km/h (0 Bft)
15.10.2016 19:54 11,0 °C 11,0 °C 91 % 1017,1 hPa 0,0 mm 0,0 km/h (0 Bft) W-NW 294 ° 0 min 0,000 mm 0,0 UV-I 0 W/m² 9,6 °C 0,0 km/h (0 Bft)
15.10.2016 19:55 11,0 °C 11,0 °C 91 % 1017,1 hPa 0,0 mm 0,0 km/h (0 Bft) W-NW 294 ° 0 min 0,000 mm 0,0 UV-I 0 W/m² 9,6 °C 0,0 km/h (0 Bft)
15.10.2016 19:56 11,0 °C 11,0 °C 91 % 1017,1 hPa 0,0 mm 0,0 km/h (0 Bft) W-NW 294 ° 0 min 0,000 mm 0,0 UV-I 0 W/m² 9,6 °C 0,0 km/h (0 Bft)
15.10.2016 19:57 11,0 °C 11,0 °C 91 % 1017,1 hPa 0,0 mm 0,0 km/h (0 Bft) W-NW 294 ° 0 min 0,000 mm 0,0 UV-I 0 W/m² 9,6 °C 0,0 km/h (0 Bft)
15.10.2016 19:58 11,1 °C 11,1 °C 91 % 1017,1 hPa 0,0 mm 0,4 km/h (0 Bft) W-NW 294 ° 0 min 0,000 mm 0,0 UV-I 0 W/m² 9,7 °C 1,6 km/h (1 Bft)
15.10.2016 19:59 11,1 °C 11,1 °C 90 % 1017,1 hPa 0,0 mm 0,4 km/h (0 Bft) W-NW 294 ° 0 min 0,000 mm 0,0 UV-I 0 W/m² 9,5 °C 1,6 km/h (1 Bft)
15.10.2016 20:00 11,1 °C 11,1 °C 90 % 1017,1 hPa 0,0 mm 0,1 km/h (0 Bft) W-NW 294 ° 0 min 0,000 mm 0,0 UV-I 0 W/m² 9,5 °C 1,6 km/h (1 Bft)
15.10.2016 20:01 11,1 °C 11,1 °C 90 % 1017,1 hPa 0,0 mm 0,1 km/h (0 Bft) W-NW 294 ° 0 min 0,000 mm 0,0 UV-I 0 W/m² 9,5 °C 1,6 km/h (1 Bft)
15.10.2016 20:02 11,1 °C 11,1 °C 90 % 1017,1 hPa 0,0 mm 0,1 km/h (0 Bft) W-NW 294 ° 0 min 0,000 mm 0,0 UV-I 0 W/m² 9,5 °C 1,6 km/h (1 Bft)
15.10.2016 20:03 11,1 °C 11,1 °C 90 % 1017,1 hPa 0,0 mm 0,0 km/h (0 Bft) W-NW 294 ° 0 min 0,000 mm 0,0 UV-I 0 W/m² 9,5 °C 0,0 km/h (0 Bft)
15.10.2016 20:04 11,1 °C 11,1 °C 90 % 1017,1 hPa 0,0 mm 0,0 km/h (0 Bft) W-NW 294 ° 0 min 0,000 mm 0,0 UV-I 0 W/m² 9,5 °C 0,0 km/h (0 Bft)
15.10.2016 20:05 11,1 °C 11,1 °C 90 % 1017,1 hPa 0,0 mm 0,1 km/h (0 Bft) W-NW 294 ° 0 min 0,000 mm 0,0 UV-I 0 W/m² 9,5 °C 1,6 km/h (1 Bft)
15.10.2016 20:06 11,1 °C 11,1 °C 90 % 1017,1 hPa 0,0 mm 0,0 km/h (0 Bft) W-NW 294 ° 0 min 0,000 mm 0,0 UV-I 0 W/m² 9,5 °C 0,0 km/h (0 Bft)
15.10.2016 20:07 11,1 °C 11,1 °C 90 % 1017,0 hPa 0,0 mm 0,0 km/h (0 Bft) W-NW 294 ° 0 min 0,000 mm 0,0 UV-I 0 W/m² 9,5 °C 0,0 km/h (0 Bft)
15.10.2016 20:08 11,1 °C 11,1 °C 90 % 1017,1 hPa 0,0 mm 0,0 km/h (0 Bft) W-NW 294 ° 0 min 0,000 mm 0,0 UV-I 0 W/m² 9,5 °C 0,0 km/h (0 Bft)
15.10.2016 20:09 11,1 °C 11,1 °C 90 % 1017,1 hPa 0,0 mm 0,3 km/h (0 Bft) W-NW 294 ° 0 min 0,000 mm 0,0 UV-I 0 W/m² 9,5 °C 1,6 km/h (1 Bft)
15.10.2016 20:10 11,1 °C 11,1 °C 90 % 1017,0 hPa 0,0 mm 0,1 km/h (0 Bft) W-NW 294 ° 0 min 0,000 mm 0,0 UV-I 0 W/m² 9,5 °C 1,6 km/h (1 Bft)
15.10.2016 20:11 11,1 °C 11,1 °C 90 % 1017,1 hPa 0,0 mm 0,3 km/h (0 Bft) W-NW 294 ° 0 min 0,000 mm 0,0 UV-I 0 W/m² 9,5 °C 1,6 km/h (1 Bft)
15.10.2016 20:12 11,1 °C 11,1 °C 90 % 1017,1 hPa 0,0 mm 0,0 km/h (0 Bft) W-NW 294 ° 0 min 0,000 mm 0,0 UV-I 0 W/m² 9,5 °C 0,0 km/h (0 Bft)
15.10.2016 20:13 11,1 °C 11,1 °C 90 % 1017,0 hPa 0,0 mm 0,0 km/h (0 Bft) W-NW 294 ° 0 min 0,000 mm 0,0 UV-I 0 W/m² 9,5 °C 0,0 km/h (0 Bft)
15.10.2016 20:14 11,1 °C 11,1 °C 90 % 1017,1 hPa 0,0 mm 0,1 km/h (0 Bft) W-NW 294 ° 0 min 0,000 mm 0,0 UV-I 0 W/m² 9,5 °C 1,6 km/h (1 Bft)
15.10.2016 20:15 11,1 °C 11,1 °C 90 % 1017,1 hPa 0,0 mm 0,0 km/h (0 Bft) W-NW 294 ° 0 min 0,000 mm 0,0 UV-I 0 W/m² 9,5 °C 0,0 km/h (0 Bft)
15.10.2016 20:16 11,1 °C 11,1 °C 90 % 1017,1 hPa 0,0 mm 0,0 km/h (0 Bft) W-NW 294 ° 0 min 0,000 mm 0,0 UV-I 0 W/m² 9,5 °C 0,0 km/h (0 Bft)
15.10.2016 20:17 11,1 °C 11,1 °C 90 % 1017,1 hPa 0,0 mm 0,0 km/h (0 Bft) W-NW 294 ° 0 min 0,000 mm 0,0 UV-I 0 W/m² 9,5 °C 0,0 km/h (0 Bft)
15.10.2016 20:18 11,1 °C 11,1 °C 90 % 1017,1 hPa 0,0 mm 0,2 km/h (0 Bft) W-NW 294 ° 0 min 0,000 mm 0,0 UV-I 0 W/m² 9,5 °C 1,6 km/h (1 Bft)
15.10.2016 20:19 11,1 °C 11,1 °C 90 % 1017,1 hPa 0,0 mm 0,0 km/h (0 Bft) W-NW 294 ° 0 min 0,000 mm 0,0 UV-I 0 W/m² 9,5 °C 0,0 km/h (0 Bft)
15.10.2016 20:20 11,0 °C 11,1 °C 90 % 1017,1 hPa 0,0 mm 0,0 km/h (0 Bft) W-NW 294 ° 0 min 0,000 mm 0,0 UV-I 0 W/m² 9,4 °C 0,0 km/h (0 Bft)
15.10.2016 20:21 11,0 °C 11,0 °C 90 % 1017,1 hPa 0,0 mm 0,0 km/h (0 Bft) W-NW 294 ° 0 min 0,000 mm 0,0 UV-I 0 W/m² 9,4 °C 0,0 km/h (0 Bft)
15.10.2016 20:22 11,0 °C 11,0 °C 91 % 1017,1 hPa 0,0 mm 0,0 km/h (0 Bft) W-NW 294 ° 0 min 0,000 mm 0,0 UV-I 0 W/m² 9,6 °C 0,0 km/h (0 Bft)
15.10.2016 20:23 11,0 °C 11,0 °C 91 % 1017,1 hPa 0,0 mm 0,0 km/h (0 Bft) W-NW 294 ° 0 min 0,000 mm 0,0 UV-I 0 W/m² 9,6 °C 0,0 km/h (0 Bft)
15.10.2016 20:24 10,9 °C 11,0 °C 91 % 1017,1 hPa 0,0 mm 0,0 km/h (0 Bft) W-NW 294 ° 0 min 0,000 mm 0,0 UV-I 0 W/m² 9,5 °C 0,0 km/h (0 Bft)
15.10.2016 20:25 11,0 °C 11,0 °C 90 % 1017,1 hPa 0,0 mm 0,0 km/h (0 Bft) W-NW 294 ° 0 min 0,000 mm 0,0 UV-I 0 W/m² 9,4 °C 0,0 km/h (0 Bft)
15.10.2016 20:26 11,0 °C 11,0 °C 90 % 1017,1 hPa 0,0 mm 0,0 km/h (0 Bft) W-NW 294 ° 0 min 0,000 mm 0,0 UV-I 0 W/m² 9,4 °C 0,0 km/h (0 Bft)
15.10.2016 20:27 11,0 °C 11,0 °C 90 % 1017,1 hPa 0,0 mm 0,0 km/h (0 Bft) W-NW 294 ° 0 min 0,000 mm 0,0 UV-I 0 W/m² 9,4 °C 0,0 km/h (0 Bft)
15.10.2016 20:28 11,0 °C 11,1 °C 90 % 1017,1 hPa 0,0 mm 0,0 km/h (0 Bft) W-NW 294 ° 0 min 0,000 mm 0,0 UV-I 0 W/m² 9,4 °C 0,0 km/h (0 Bft)
15.10.2016 20:29 11,0 °C 11,1 °C 90 % 1017,1 hPa 0,0 mm 0,0 km/h (0 Bft) W-NW 294 ° 0 min 0,000 mm 0,0 UV-I 0 W/m² 9,4 °C 0,0 km/h (0 Bft)
15.10.2016 20:30 10,9 °C 11,0 °C 91 % 1017,1 hPa 0,0 mm 0,0 km/h (0 Bft) W-NW 294 ° 0 min 0,000 mm 0,0 UV-I 0 W/m² 9,5 °C 0,0 km/h (0 Bft)
15.10.2016 20:31 10,9 °C 11,0 °C 91 % 1017,1 hPa 0,0 mm 0,0 km/h (0 Bft) W-NW 294 ° 0 min 0,000 mm 0,0 UV-I 0 W/m² 9,5 °C 0,0 km/h (0 Bft)
15.10.2016 20:32 10,9 °C 10,9 °C 91 % 1017,2 hPa 0,0 mm 0,0 km/h (0 Bft) W-NW 294 ° 0 min 0,000 mm 0,0 UV-I 0 W/m² 9,5 °C 0,0 km/h (0 Bft)
15.10.2016 20:33 10,8 °C 10,9 °C 91 % 1017,1 hPa 0,0 mm 0,0 km/h (0 Bft) W-NW 294 ° 0 min 0,000 mm 0,0 UV-I 0 W/m² 9,4 °C 0,0 km/h (0 Bft)
15.10.2016 20:34 10,8 °C 10,8 °C 91 % 1017,1 hPa 0,0 mm 0,0 km/h (0 Bft) W-NW 294 ° 0 min 0,000 mm 0,0 UV-I 0 W/m² 9,4 °C 0,0 km/h (0 Bft)
15.10.2016 20:35 10,8 °C 10,8 °C 92 % 1017,1 hPa 0,0 mm 0,0 km/h (0 Bft) W-NW 294 ° 0 min 0,000 mm 0,0 UV-I 0 W/m² 9,6 °C 0,0 km/h (0 Bft)
15.10.2016 20:36 10,8 °C 10,8 °C 92 % 1017,2 hPa 0,0 mm 0,0 km/h (0 Bft) W-NW 294 ° 0 min 0,000 mm 0,0 UV-I 0 W/m² 9,6 °C 0,0 km/h (0 Bft)
15.10.2016 20:37 10,8 °C 10,8 °C 92 % 1017,2 hPa 0,0 mm 0,0 km/h (0 Bft) W-NW 294 ° 0 min 0,000 mm 0,0 UV-I 0 W/m² 9,6 °C 0,0 km/h (0 Bft)
15.10.2016 20:38 10,8 °C 10,8 °C 92 % 1017,2 hPa 0,0 mm 0,0 km/h (0 Bft) W-NW 294 ° 0 min 0,000 mm 0,0 UV-I 0 W/m² 9,6 °C 0,0 km/h (0 Bft)
15.10.2016 20:39 10,8 °C 10,8 °C 91 % 1017,2 hPa 0,0 mm 0,0 km/h (0 Bft) W-NW 294 ° 0 min 0,000 mm 0,0 UV-I 0 W/m² 9,4 °C 0,0 km/h (0 Bft)
15.10.2016 20:40 10,8 °C 10,8 °C 91 % 1017,2 hPa 0,0 mm 0,0 km/h (0 Bft) W-NW 294 ° 0 min 0,000 mm 0,0 UV-I 0 W/m² 9,4 °C 0,0 km/h (0 Bft)
15.10.2016 20:41 10,8 °C 10,8 °C 91 % 1017,2 hPa 0,0 mm 0,0 km/h (0 Bft) W-NW 294 ° 0 min 0,000 mm 0,0 UV-I 0 W/m² 9,4 °C 0,0 km/h (0 Bft)
15.10.2016 20:42 10,8 °C 10,8 °C 91 % 1017,2 hPa 0,0 mm 0,0 km/h (0 Bft) W-NW 294 ° 0 min 0,000 mm 0,0 UV-I 0 W/m² 9,4 °C 0,0 km/h (0 Bft)
15.10.2016 20:43 10,8 °C 10,8 °C 92 % 1017,2 hPa 0,0 mm 0,0 km/h (0 Bft) W-NW 294 ° 0 min 0,000 mm 0,0 UV-I 0 W/m² 9,6 °C 0,0 km/h (0 Bft)
15.10.2016 20:44 10,8 °C 10,8 °C 92 % 1017,2 hPa 0,0 mm 0,0 km/h (0 Bft) W-NW 294 ° 0 min 0,000 mm 0,0 UV-I 0 W/m² 9,6 °C 0,0 km/h (0 Bft)
15.10.2016 20:45 10,8 °C 10,8 °C 92 % 1017,2 hPa 0,0 mm 0,0 km/h (0 Bft) W-NW 294 ° 0 min 0,000 mm 0,0 UV-I 0 W/m² 9,6 °C 0,0 km/h (0 Bft)
15.10.2016 20:46 10,8 °C 10,8 °C 92 % 1017,2 hPa 0,0 mm 0,8 km/h (0 Bft) W-NW 294 ° 0 min 0,000 mm 0,0 UV-I 0 W/m² 9,6 °C 1,6 km/h (1 Bft)
15.10.2016 20:47 10,7 °C 10,8 °C 92 % 1017,2 hPa 0,0 mm 0,9 km/h (0 Bft) W-NW 294 ° 0 min 0,000 mm 0,0 UV-I 0 W/m² 9,5 °C 1,6 km/h (1 Bft)
15.10.2016 20:48 10,7 °C 10,7 °C 92 % 1017,2 hPa 0,0 mm 0,7 km/h (0 Bft) W-NW 294 ° 0 min 0,000 mm 0,0 UV-I 0 W/m² 9,5 °C 1,6 km/h (1 Bft)
15.10.2016 20:49 10,7 °C 10,7 °C 92 % 1017,2 hPa 0,0 mm 0,1 km/h (0 Bft) W-NW 294 ° 0 min 0,000 mm 0,0 UV-I 0 W/m² 9,5 °C 1,6 km/h (1 Bft)
15.10.2016 20:50 10,7 °C 10,7 °C 92 % 1017,2 hPa 0,0 mm 0,0 km/h (0 Bft) W-NW 294 ° 0 min 0,000 mm 0,0 UV-I 0 W/m² 9,5 °C 0,0 km/h (0 Bft)
15.10.2016 20:51 10,7 °C 10,7 °C 92 % 1017,2 hPa 0,0 mm 0,0 km/h (0 Bft) W-NW 294 ° 0 min 0,000 mm 0,0 UV-I 0 W/m² 9,5 °C 0,0 km/h (0 Bft)
15.10.2016 20:52 10,8 °C 10,8 °C 92 % 1017,2 hPa 0,0 mm 0,0 km/h (0 Bft) W-NW 294 ° 0 min 0,000 mm 0,0 UV-I 0 W/m² 9,6 °C 0,0 km/h (0 Bft)
15.10.2016 20:53 10,8 °C 10,8 °C 92 % 1017,2 hPa 0,0 mm 0,1 km/h (0 Bft) W-NW 294 ° 0 min 0,000 mm 0,0 UV-I 0 W/m² 9,6 °C 1,6 km/h (1 Bft)
15.10.2016 20:54 10,8 °C 10,8 °C 92 % 1017,3 hPa 0,0 mm 0,0 km/h (0 Bft) W-NW 294 ° 0 min 0,000 mm 0,0 UV-I 0 W/m² 9,6 °C 0,0 km/h (0 Bft)
15.10.2016 20:55 10,8 °C 10,8 °C 92 % 1017,3 hPa 0,0 mm 0,1 km/h (0 Bft) W-NW 294 ° 0 min 0,000 mm 0,0 UV-I 0 W/m² 9,6 °C 1,6 km/h (1 Bft)
15.10.2016 20:56 10,8 °C 10,8 °C 92 % 1017,3 hPa 0,0 mm 0,0 km/h (0 Bft) W-NW 294 ° 0 min 0,000 mm 0,0 UV-I 0 W/m² 9,6 °C 0,0 km/h (0 Bft)
15.10.2016 20:57 10,8 °C 10,8 °C 91 % 1017,4 hPa 0,0 mm 0,0 km/h (0 Bft) W-NW 294 ° 0 min 0,000 mm 0,0 UV-I 0 W/m² 9,4 °C 0,0 km/h (0 Bft)
15.10.2016 20:58 10,9 °C 10,9 °C 91 % 1017,3 hPa 0,0 mm 0,0 km/h (0 Bft) W-NW 294 ° 0 min 0,000 mm 0,0 UV-I 0 W/m² 9,5 °C 0,0 km/h (0 Bft)
15.10.2016 20:59 10,9 °C 10,9 °C 91 % 1017,3 hPa 0,0 mm 0,0 km/h (0 Bft) W-NW 294 ° 0 min 0,000 mm 0,0 UV-I 0 W/m² 9,5 °C 0,0 km/h (0 Bft)
15.10.2016 21:00 10,9 °C 10,9 °C 91 % 1017,4 hPa 0,0 mm 0,0 km/h (0 Bft) W-NW 294 ° 0 min 0,000 mm 0,0 UV-I 0 W/m² 9,5 °C 0,0 km/h (0 Bft)
15.10.2016 21:01 10,9 °C 10,9 °C 91 % 1017,4 hPa 0,0 mm 0,1 km/h (0 Bft) W-NW 294 ° 0 min 0,000 mm 0,0 UV-I 0 W/m² 9,5 °C 1,6 km/h (1 Bft)
15.10.2016 21:02 10,9 °C 10,9 °C 91 % 1017,3 hPa 0,0 mm 0,0 km/h (0 Bft) W-NW 294 ° 0 min 0,000 mm 0,0 UV-I 0 W/m² 9,5 °C 0,0 km/h (0 Bft)
15.10.2016 21:03 10,9 °C 10,9 °C 91 % 1017,4 hPa 0,0 mm 0,8 km/h (0 Bft) W-NW 294 ° 0 min 0,000 mm 0,0 UV-I 0 W/m² 9,5 °C 1,6 km/h (1 Bft)
15.10.2016 21:04 11,0 °C 11,0 °C 91 % 1017,4 hPa 0,0 mm 0,9 km/h (0 Bft) W-NW 294 ° 0 min 0,000 mm 0,0 UV-I 0 W/m² 9,6 °C 1,6 km/h (1 Bft)
15.10.2016 21:05 11,0 °C 11,0 °C 91 % 1017,4 hPa 0,0 mm 0,1 km/h (0 Bft) W-NW 294 ° 0 min 0,000 mm 0,0 UV-I 0 W/m² 9,6 °C 1,6 km/h (1 Bft)
15.10.2016 21:06 11,0 °C 11,0 °C 91 % 1017,4 hPa 0,0 mm 0,0 km/h (0 Bft) W-NW 294 ° 0 min 0,000 mm 0,0 UV-I 0 W/m² 9,6 °C 0,0 km/h (0 Bft)
15.10.2016 21:07 10,9 °C 11,0 °C 91 % 1017,5 hPa 0,0 mm 0,0 km/h (0 Bft) W-NW 294 ° 0 min 0,000 mm 0,0 UV-I 0 W/m² 9,5 °C 0,0 km/h (0 Bft)
15.10.2016 21:08 10,9 °C 10,9 °C 91 % 1017,4 hPa 0,0 mm 0,0 km/h (0 Bft) W-NW 294 ° 0 min 0,000 mm 0,0 UV-I 0 W/m² 9,5 °C 0,0 km/h (0 Bft)
15.10.2016 21:09 10,9 °C 10,9 °C 91 % 1017,4 hPa 0,0 mm 0,0 km/h (0 Bft) W-NW 294 ° 0 min 0,000 mm 0,0 UV-I 0 W/m² 9,5 °C 0,0 km/h (0 Bft)
15.10.2016 21:10 10,9 °C 10,9 °C 91 % 1017,5 hPa 0,0 mm 0,1 km/h (0 Bft) W-NW 294 ° 0 min 0,000 mm 0,0 UV-I 0 W/m² 9,5 °C 1,6 km/h (1 Bft)
15.10.2016 21:11 10,9 °C 10,9 °C 91 % 1017,5 hPa 0,0 mm 0,0 km/h (0 Bft) W-NW 294 ° 0 min 0,000 mm 0,0 UV-I 0 W/m² 9,5 °C 0,0 km/h (0 Bft)
15.10.2016 21:12 10,9 °C 10,9 °C 90 % 1017,5 hPa 0,0 mm 0,0 km/h (0 Bft) W-NW 294 ° 0 min 0,000 mm 0,0 UV-I 0 W/m² 9,3 °C 0,0 km/h (0 Bft)
15.10.2016 21:13 10,9 °C 10,9 °C 91 % 1017,4 hPa 0,0 mm 0,0 km/h (0 Bft) W-NW 294 ° 0 min 0,000 mm 0,0 UV-I 0 W/m² 9,5 °C 0,0 km/h (0 Bft)
15.10.2016 21:14 11,0 °C 11,0 °C 91 % 1017,5 hPa 0,0 mm 0,0 km/h (0 Bft) W-NW 294 ° 0 min 0,000 mm 0,0 UV-I 0 W/m² 9,6 °C 0,0 km/h (0 Bft)
15.10.2016 21:15 11,0 °C 11,0 °C 91 % 1017,6 hPa 0,0 mm 0,0 km/h (0 Bft) W-NW 294 ° 0 min 0,000 mm 0,0 UV-I 0 W/m² 9,6 °C 0,0 km/h (0 Bft)
15.10.2016 21:16 11,0 °C 11,0 °C 90 % 1017,5 hPa 0,0 mm 0,0 km/h (0 Bft) W-NW 294 ° 0 min 0,000 mm 0,0 UV-I 0 W/m² 9,4 °C 0,0 km/h (0 Bft)
15.10.2016 21:17 11,0 °C 11,0 °C 91 % 1017,6 hPa 0,0 mm 0,0 km/h (0 Bft) W-NW 294 ° 0 min 0,000 mm 0,0 UV-I 0 W/m² 9,6 °C 0,0 km/h (0 Bft)
15.10.2016 21:18 10,9 °C 11,0 °C 91 % 1017,5 hPa 0,0 mm 0,0 km/h (0 Bft) W-NW 294 ° 0 min 0,000 mm 0,0 UV-I 0 W/m² 9,5 °C 0,0 km/h (0 Bft)
15.10.2016 21:19 10,9 °C 10,9 °C 91 % 1017,5 hPa 0,0 mm 0,0 km/h (0 Bft) W-NW 294 ° 0 min 0,000 mm 0,0 UV-I 0 W/m² 9,5 °C 0,0 km/h (0 Bft)
15.10.2016 21:20 10,9 °C 10,9 °C 91 % 1017,5 hPa 0,0 mm 0,0 km/h (0 Bft) W-NW 294 ° 0 min 0,000 mm 0,0 UV-I 0 W/m² 9,5 °C 0,0 km/h (0 Bft)
15.10.2016 21:21 10,9 °C 10,9 °C 91 % 1017,5 hPa 0,0 mm 0,2 km/h (0 Bft) W-NW 294 ° 0 min 0,000 mm 0,0 UV-I 0 W/m² 9,5 °C 1,6 km/h (1 Bft)
15.10.2016 21:22 10,9 °C 10,9 °C 91 % 1017,6 hPa 0,0 mm 0,4 km/h (0 Bft) W-NW 294 ° 0 min 0,000 mm 0,0 UV-I 0 W/m² 9,5 °C 1,6 km/h (1 Bft)
15.10.2016 21:23 10,9 °C 10,9 °C 91 % 1017,6 hPa 0,0 mm 0,0 km/h (0 Bft) W-NW 294 ° 0 min 0,000 mm 0,0 UV-I 0 W/m² 9,5 °C 0,0 km/h (0 Bft)
15.10.2016 21:24 10,9 °C 10,9 °C 91 % 1017,6 hPa 0,0 mm 0,0 km/h (0 Bft) W-NW 294 ° 0 min 0,000 mm 0,0 UV-I 0 W/m² 9,5 °C 0,0 km/h (0 Bft)
15.10.2016 21:25 10,9 °C 10,9 °C 91 % 1017,6 hPa 0,0 mm 0,0 km/h (0 Bft) W-NW 294 ° 0 min 0,000 mm 0,0 UV-I 0 W/m² 9,5 °C 0,0 km/h (0 Bft)
15.10.2016 21:26 10,8 °C 10,9 °C 91 % 1017,6 hPa 0,0 mm 0,0 km/h (0 Bft) W-NW 294 ° 0 min 0,000 mm 0,0 UV-I 0 W/m² 9,4 °C 0,0 km/h (0 Bft)
15.10.2016 21:27 10,8 °C 10,9 °C 91 % 1017,6 hPa 0,0 mm 0,0 km/h (0 Bft) W-NW 294 ° 0 min 0,000 mm 0,0 UV-I 0 W/m² 9,4 °C 0,0 km/h (0 Bft)
15.10.2016 21:28 10,9 °C 10,9 °C 91 % 1017,7 hPa 0,0 mm 0,0 km/h (0 Bft) W-NW 294 ° 0 min 0,000 mm 0,0 UV-I 0 W/m² 9,5 °C 0,0 km/h (0 Bft)
15.10.2016 21:29 10,9 °C 10,9 °C 91 % 1017,7 hPa 0,0 mm 0,2 km/h (0 Bft) W-NW 294 ° 0 min 0,000 mm 0,0 UV-I 0 W/m² 9,5 °C 1,6 km/h (1 Bft)
15.10.2016 21:30 10,9 °C 10,9 °C 91 % 1017,7 hPa 0,0 mm 0,2 km/h (0 Bft) W-NW 294 ° 0 min 0,000 mm 0,0 UV-I 0 W/m² 9,5 °C 1,6 km/h (1 Bft)
15.10.2016 21:31 11,0 °C 11,0 °C 90 % 1017,7 hPa 0,0 mm 1,2 km/h (1 Bft) W-NW 294 ° 0 min 0,000 mm 0,0 UV-I 0 W/m² 9,4 °C 3,2 km/h (1 Bft)
15.10.2016 21:32 11,0 °C 11,0 °C 90 % 1017,7 hPa 0,0 mm 3,0 km/h (1 Bft) W-NW 294 ° 0 min 0,000 mm 0,0 UV-I 0 W/m² 9,4 °C 3,2 km/h (1 Bft)
15.10.2016 21:33 11,1 °C 11,1 °C 90 % 1017,7 hPa 0,0 mm 2,9 km/h (1 Bft) W-NW 294 ° 0 min 0,000 mm 0,0 UV-I 0 W/m² 9,5 °C 3,2 km/h (1 Bft)
15.10.2016 21:34 11,2 °C 11,2 °C 90 % 1017,7 hPa 0,0 mm 1,3 km/h (1 Bft) W-NW 294 ° 0 min 0,000 mm 0,0 UV-I 0 W/m² 9,6 °C 3,2 km/h (1 Bft)
15.10.2016 21:35 11,2 °C 11,2 °C 90 % 1017,8 hPa 0,0 mm 1,3 km/h (1 Bft) W-NW 294 ° 0 min 0,000 mm 0,0 UV-I 0 W/m² 9,6 °C 3,2 km/h (1 Bft)
15.10.2016 21:36 11,2 °C 11,2 °C 90 % 1017,7 hPa 0,0 mm 2,5 km/h (1 Bft) W-NW 286 ° 0 min 0,000 mm 0,0 UV-I 0 W/m² 9,6 °C 3,2 km/h (1 Bft)
15.10.2016 21:37 11,3 °C 11,3 °C 89 % 1017,8 hPa 0,0 mm 0,4 km/h (0 Bft) W-NW 286 ° 0 min 0,000 mm 0,0 UV-I 0 W/m² 9,6 °C 1,6 km/h (1 Bft)
15.10.2016 21:38 11,3 °C 11,3 °C 89 % 1017,8 hPa 0,0 mm 0,0 km/h (0 Bft) W-NW 286 ° 0 min 0,000 mm 0,0 UV-I 0 W/m² 9,6 °C 0,0 km/h (0 Bft)
15.10.2016 21:39 11,3 °C 11,3 °C 89 % 1017,8 hPa 0,0 mm 0,0 km/h (0 Bft) W-NW 286 ° 0 min 0,000 mm 0,0 UV-I 0 W/m² 9,6 °C 0,0 km/h (0 Bft)
15.10.2016 21:40 11,3 °C 11,3 °C 90 % 1017,8 hPa 0,0 mm 0,0 km/h (0 Bft) W-NW 286 ° 0 min 0,000 mm 0,0 UV-I 0 W/m² 9,7 °C 0,0 km/h (0 Bft)
15.10.2016 21:41 11,2 °C 11,3 °C 90 % 1017,8 hPa 0,0 mm 0,0 km/h (0 Bft) W-NW 287 ° 0 min 0,000 mm 0,0 UV-I 0 W/m² 9,6 °C 0,0 km/h (0 Bft)
15.10.2016 21:42 11,2 °C 11,2 °C 90 % 1017,8 hPa 0,0 mm 0,0 km/h (0 Bft) W-NW 286 ° 0 min 0,000 mm 0,0 UV-I 0 W/m² 9,6 °C 0,0 km/h (0 Bft)
15.10.2016 21:43 11,1 °C 11,2 °C 90 % 1017,8 hPa 0,0 mm 0,0 km/h (0 Bft) W-NW 287 ° 0 min 0,000 mm 0,0 UV-I 0 W/m² 9,5 °C 0,0 km/h (0 Bft)
15.10.2016 21:44 11,1 °C 11,2 °C 90 % 1017,8 hPa 0,0 mm 0,0 km/h (0 Bft) W-NW 286 ° 0 min 0,000 mm 0,0 UV-I 0 W/m² 9,5 °C 0,0 km/h (0 Bft)
15.10.2016 21:45 11,1 °C 11,1 °C 90 % 1017,8 hPa 0,0 mm 0,0 km/h (0 Bft) W-NW 287 ° 0 min 0,000 mm 0,0 UV-I 0 W/m² 9,5 °C 0,0 km/h (0 Bft)
15.10.2016 21:46 11,1 °C 11,1 °C 90 % 1017,8 hPa 0,0 mm 0,0 km/h (0 Bft) W-NW 286 ° 0 min 0,000 mm 0,0 UV-I 0 W/m² 9,5 °C 0,0 km/h (0 Bft)
15.10.2016 21:47 11,1 °C 11,1 °C 90 % 1017,8 hPa 0,0 mm 0,0 km/h (0 Bft) W-NW 286 ° 0 min 0,000 mm 0,0 UV-I 0 W/m² 9,5 °C 0,0 km/h (0 Bft)
15.10.2016 21:48 11,1 °C 11,1 °C 90 % 1017,8 hPa 0,0 mm 0,0 km/h (0 Bft) W-NW 286 ° 0 min 0,000 mm 0,0 UV-I 0 W/m² 9,5 °C 0,0 km/h (0 Bft)
15.10.2016 21:49 11,1 °C 11,1 °C 90 % 1017,8 hPa 0,0 mm 0,0 km/h (0 Bft) W-NW 286 ° 0 min 0,000 mm 0,0 UV-I 0 W/m² 9,5 °C 0,0 km/h (0 Bft)
15.10.2016 21:50 11,1 °C 11,1 °C 90 % 1017,8 hPa 0,0 mm 0,0 km/h (0 Bft) W-NW 286 ° 0 min 0,000 mm 0,0 UV-I 0 W/m² 9,5 °C 0,0 km/h (0 Bft)
15.10.2016 21:51 11,1 °C 11,2 °C 90 % 1017,8 hPa 0,0 mm 0,1 km/h (0 Bft) W-NW 286 ° 0 min 0,000 mm 0,0 UV-I 0 W/m² 9,5 °C 1,6 km/h (1 Bft)
15.10.2016 21:52 11,1 °C 11,1 °C 89 % 1017,8 hPa 0,0 mm 0,0 km/h (0 Bft) W-NW 286 ° 0 min 0,000 mm 0,0 UV-I 0 W/m² 9,4 °C 0,0 km/h (0 Bft)
15.10.2016 21:53 11,2 °C 11,2 °C 90 % 1017,8 hPa 0,0 mm 0,1 km/h (0 Bft) W-NW 286 ° 0 min 0,000 mm 0,0 UV-I 0 W/m² 9,6 °C 1,6 km/h (1 Bft)
15.10.2016 21:54 11,2 °C 11,2 °C 90 % 1017,8 hPa 0,0 mm 0,0 km/h (0 Bft) W-NW 286 ° 0 min 0,000 mm 0,0 UV-I 0 W/m² 9,6 °C 0,0 km/h (0 Bft)
15.10.2016 21:55 11,2 °C 11,2 °C 90 % 1017,8 hPa 0,0 mm 0,1 km/h (0 Bft) W-NW 286 ° 0 min 0,000 mm 0,0 UV-I 0 W/m² 9,6 °C 1,6 km/h (1 Bft)
15.10.2016 21:56 11,1 °C 11,2 °C 90 % 1017,8 hPa 0,0 mm 0,5 km/h (0 Bft) W-NW 286 ° 0 min 0,000 mm 0,0 UV-I 0 W/m² 9,5 °C 1,6 km/h (1 Bft)
15.10.2016 21:57 11,1 °C 11,1 °C 90 % 1017,8 hPa 0,0 mm 0,0 km/h (0 Bft) W-NW 286 ° 0 min 0,000 mm 0,0 UV-I 0 W/m² 9,5 °C 0,0 km/h (0 Bft)
15.10.2016 21:58 11,1 °C 11,1 °C 90 % 1017,8 hPa 0,0 mm 0,0 km/h (0 Bft) W-NW 286 ° 0 min 0,000 mm 0,0 UV-I 0 W/m² 9,5 °C 0,0 km/h (0 Bft)
15.10.2016 21:59 11,1 °C 11,1 °C 90 % 1017,9 hPa 0,0 mm 0,3 km/h (0 Bft) W-NW 287 ° 0 min 0,000 mm 0,0 UV-I 0 W/m² 9,5 °C 1,6 km/h (1 Bft)
15.10.2016 22:00 11,1 °C 11,1 °C 90 % 1017,8 hPa 0,0 mm 0,2 km/h (0 Bft) W-NW 286 ° 0 min 0,000 mm 0,0 UV-I 0 W/m² 9,5 °C 1,6 km/h (1 Bft)
15.10.2016 22:01 11,1 °C 11,1 °C 90 % 1017,8 hPa 0,0 mm 0,0 km/h (0 Bft) W-NW 286 ° 0 min 0,000 mm 0,0 UV-I 0 W/m² 9,5 °C 0,0 km/h (0 Bft)
15.10.2016 22:02 11,1 °C 11,1 °C 90 % 1017,8 hPa 0,0 mm 0,0 km/h (0 Bft) W-NW 286 ° 0 min 0,000 mm 0,0 UV-I 0 W/m² 9,5 °C 0,0 km/h (0 Bft)
15.10.2016 22:03 11,0 °C 11,1 °C 90 % 1017,8 hPa 0,0 mm 0,0 km/h (0 Bft) W-NW 287 ° 0 min 0,000 mm 0,0 UV-I 0 W/m² 9,4 °C 0,0 km/h (0 Bft)
15.10.2016 22:04 11,0 °C 11,0 °C 90 % 1017,9 hPa 0,0 mm 0,0 km/h (0 Bft) W-NW 287 ° 0 min 0,000 mm 0,0 UV-I 0 W/m² 9,4 °C 0,0 km/h (0 Bft)
15.10.2016 22:05 11,0 °C 11,0 °C 90 % 1017,9 hPa 0,0 mm 0,0 km/h (0 Bft) W-NW 287 ° 0 min 0,000 mm 0,0 UV-I 0 W/m² 9,4 °C 0,0 km/h (0 Bft)
15.10.2016 22:06 11,0 °C 11,0 °C 90 % 1017,9 hPa 0,0 mm 0,0 km/h (0 Bft) W-NW 286 ° 0 min 0,000 mm 0,0 UV-I 0 W/m² 9,4 °C 0,0 km/h (0 Bft)
15.10.2016 22:07 10,9 °C 11,0 °C 90 % 1017,9 hPa 0,0 mm 0,0 km/h (0 Bft) W-NW 287 ° 0 min 0,000 mm 0,0 UV-I 0 W/m² 9,3 °C 0,0 km/h (0 Bft)
15.10.2016 22:08 10,9 °C 10,9 °C 90 % 1017,9 hPa 0,0 mm 0,0 km/h (0 Bft) W-NW 286 ° 0 min 0,000 mm 0,0 UV-I 0 W/m² 9,3 °C 0,0 km/h (0 Bft)
15.10.2016 22:09 10,9 °C 10,9 °C 90 % 1017,8 hPa 0,0 mm 0,0 km/h (0 Bft) W-NW 286 ° 0 min 0,000 mm 0,0 UV-I 0 W/m² 9,3 °C 0,0 km/h (0 Bft)
15.10.2016 22:10 10,9 °C 10,9 °C 90 % 1017,9 hPa 0,0 mm 0,0 km/h (0 Bft) W-NW 286 ° 0 min 0,000 mm 0,0 UV-I 0 W/m² 9,3 °C 0,0 km/h (0 Bft)
15.10.2016 22:11 10,9 °C 10,9 °C 90 % 1017,9 hPa 0,0 mm 0,0 km/h (0 Bft) W-NW 286 ° 0 min 0,000 mm 0,0 UV-I 0 W/m² 9,3 °C 0,0 km/h (0 Bft)
15.10.2016 22:12 10,9 °C 10,9 °C 90 % 1017,9 hPa 0,0 mm 0,3 km/h (0 Bft) W-NW 286 ° 0 min 0,000 mm 0,0 UV-I 0 W/m² 9,3 °C 1,6 km/h (1 Bft)
15.10.2016 22:13 10,9 °C 10,9 °C 90 % 1017,8 hPa 0,0 mm 0,2 km/h (0 Bft) W-NW 287 ° 0 min 0,000 mm 0,0 UV-I 0 W/m² 9,3 °C 1,6 km/h (1 Bft)
15.10.2016 22:14 10,9 °C 10,9 °C 90 % 1017,8 hPa 0,0 mm 0,0 km/h (0 Bft) W-NW 287 ° 0 min 0,000 mm 0,0 UV-I 0 W/m² 9,3 °C 0,0 km/h (0 Bft)
15.10.2016 22:15 10,9 °C 10,9 °C 90 % 1017,9 hPa 0,0 mm 0,0 km/h (0 Bft) W-NW 286 ° 0 min 0,000 mm 0,0 UV-I 0 W/m² 9,3 °C 0,0 km/h (0 Bft)
15.10.2016 22:16 10,9 °C 10,9 °C 90 % 1017,8 hPa 0,0 mm 0,0 km/h (0 Bft) W-NW 286 ° 0 min 0,000 mm 0,0 UV-I 0 W/m² 9,3 °C 0,0 km/h (0 Bft)
15.10.2016 22:17 10,9 °C 10,9 °C 90 % 1017,9 hPa 0,0 mm 0,0 km/h (0 Bft) W-NW 286 ° 0 min 0,000 mm 0,0 UV-I 0 W/m² 9,3 °C 0,0 km/h (0 Bft)
15.10.2016 22:18 10,9 °C 10,9 °C 90 % 1017,9 hPa 0,0 mm 0,0 km/h (0 Bft) W-NW 287 ° 0 min 0,000 mm 0,0 UV-I 0 W/m² 9,3 °C 0,0 km/h (0 Bft)
15.10.2016 22:19 10,9 °C 10,9 °C 90 % 1017,9 hPa 0,0 mm 0,0 km/h (0 Bft) W-NW 287 ° 0 min 0,000 mm 0,0 UV-I 0 W/m² 9,3 °C 0,0 km/h (0 Bft)
15.10.2016 22:20 10,9 °C 10,9 °C 90 % 1017,9 hPa 0,0 mm 0,0 km/h (0 Bft) W-NW 287 ° 0 min 0,000 mm 0,0 UV-I 0 W/m² 9,3 °C 0,0 km/h (0 Bft)
15.10.2016 22:21 10,9 °C 10,9 °C 90 % 1017,9 hPa 0,0 mm 0,0 km/h (0 Bft) W-NW 286 ° 0 min 0,000 mm 0,0 UV-I 0 W/m² 9,3 °C 0,0 km/h (0 Bft)
15.10.2016 22:22 10,9 °C 10,9 °C 90 % 1017,9 hPa 0,0 mm 0,0 km/h (0 Bft) W-NW 287 ° 0 min 0,000 mm 0,0 UV-I 0 W/m² 9,3 °C 0,0 km/h (0 Bft)
15.10.2016 22:23 10,9 °C 10,9 °C 90 % 1018,0 hPa 0,0 mm 0,0 km/h (0 Bft) W-NW 286 ° 0 min 0,000 mm 0,0 UV-I 0 W/m² 9,3 °C 0,0 km/h (0 Bft)
15.10.2016 22:24 10,9 °C 10,9 °C 90 % 1017,9 hPa 0,0 mm 0,0 km/h (0 Bft) W-NW 286 ° 0 min 0,000 mm 0,0 UV-I 0 W/m² 9,3 °C 0,0 km/h (0 Bft)
15.10.2016 22:25 10,9 °C 10,9 °C 90 % 1018,0 hPa 0,0 mm 0,0 km/h (0 Bft) W-NW 286 ° 0 min 0,000 mm 0,0 UV-I 0 W/m² 9,3 °C 0,0 km/h (0 Bft)
15.10.2016 22:26 10,8 °C 10,9 °C 90 % 1018,0 hPa 0,0 mm 0,0 km/h (0 Bft) W-NW 287 ° 0 min 0,000 mm 0,0 UV-I 0 W/m² 9,2 °C 0,0 km/h (0 Bft)
15.10.2016 22:27 10,9 °C 10,9 °C 90 % 1018,0 hPa 0,0 mm 0,0 km/h (0 Bft) W-NW 287 ° 0 min 0,000 mm 0,0 UV-I 0 W/m² 9,3 °C 0,0 km/h (0 Bft)
15.10.2016 22:28 10,9 °C 10,9 °C 90 % 1018,0 hPa 0,0 mm 0,0 km/h (0 Bft) W-NW 286 ° 0 min 0,000 mm 0,0 UV-I 0 W/m² 9,3 °C 0,0 km/h (0 Bft)
15.10.2016 22:29 10,9 °C 10,9 °C 90 % 1018,0 hPa 0,0 mm 0,0 km/h (0 Bft) W-NW 286 ° 0 min 0,000 mm 0,0 UV-I 0 W/m² 9,3 °C 0,0 km/h (0 Bft)
15.10.2016 22:30 10,9 °C 10,9 °C 90 % 1018,0 hPa 0,0 mm 0,0 km/h (0 Bft) W-NW 287 ° 0 min 0,000 mm 0,0 UV-I 0 W/m² 9,3 °C 0,0 km/h (0 Bft)
15.10.2016 22:31 10,8 °C 10,9 °C 90 % 1018,0 hPa 0,0 mm 0,0 km/h (0 Bft) W-NW 287 ° 0 min 0,000 mm 0,0 UV-I 0 W/m² 9,2 °C 0,0 km/h (0 Bft)
15.10.2016 22:32 10,8 °C 10,8 °C 90 % 1018,0 hPa 0,0 mm 0,0 km/h (0 Bft) W-NW 287 ° 0 min 0,000 mm 0,0 UV-I 0 W/m² 9,2 °C 0,0 km/h (0 Bft)
15.10.2016 22:33 10,8 °C 10,8 °C 90 % 1018,1 hPa 0,0 mm 0,0 km/h (0 Bft) W-NW 286 ° 0 min 0,000 mm 0,0 UV-I 0 W/m² 9,2 °C 0,0 km/h (0 Bft)
15.10.2016 22:34 10,8 °C 10,8 °C 90 % 1018,1 hPa 0,0 mm 0,0 km/h (0 Bft) W-NW 286 ° 0 min 0,000 mm 0,0 UV-I 0 W/m² 9,2 °C 0,0 km/h (0 Bft)
15.10.2016 22:35 10,8 °C 10,8 °C 90 % 1018,1 hPa 0,0 mm 0,0 km/h (0 Bft) W-NW 286 ° 0 min 0,000 mm 0,0 UV-I 0 W/m² 9,2 °C 0,0 km/h (0 Bft)
15.10.2016 22:36 10,8 °C 10,8 °C 90 % 1018,1 hPa 0,0 mm 0,0 km/h (0 Bft) W-NW 286 ° 0 min 0,000 mm 0,0 UV-I 0 W/m² 9,2 °C 0,0 km/h (0 Bft)
15.10.2016 22:37 10,8 °C 10,8 °C 90 % 1018,1 hPa 0,0 mm 0,0 km/h (0 Bft) W-NW 286 ° 0 min 0,000 mm 0,0 UV-I 0 W/m² 9,2 °C 0,0 km/h (0 Bft)
15.10.2016 22:38 10,8 °C 10,8 °C 90 % 1018,1 hPa 0,0 mm 0,0 km/h (0 Bft) W-NW 286 ° 0 min 0,000 mm 0,0 UV-I 0 W/m² 9,2 °C 0,0 km/h (0 Bft)
15.10.2016 22:39 10,8 °C 10,8 °C 90 % 1018,1 hPa 0,0 mm 0,1 km/h (0 Bft) W-NW 286 ° 0 min 0,000 mm 0,0 UV-I 0 W/m² 9,2 °C 1,6 km/h (1 Bft)
15.10.2016 22:40 10,8 °C 10,8 °C 90 % 1018,1 hPa 0,0 mm 0,3 km/h (0 Bft) W-NW 286 ° 0 min 0,000 mm 0,0 UV-I 0 W/m² 9,2 °C 1,6 km/h (1 Bft)
15.10.2016 22:41 10,8 °C 10,8 °C 90 % 1018,1 hPa 0,0 mm 0,0 km/h (0 Bft) W-NW 287 ° 0 min 0,000 mm 0,0 UV-I 0 W/m² 9,2 °C 0,0 km/h (0 Bft)
15.10.2016 22:42 10,8 °C 10,8 °C 90 % 1018,1 hPa 0,0 mm 0,0 km/h (0 Bft) W-NW 287 ° 0 min 0,000 mm 0,0 UV-I 0 W/m² 9,2 °C 0,0 km/h (0 Bft)
15.10.2016 22:43 10,7 °C 10,8 °C 90 % 1018,1 hPa 0,0 mm 0,0 km/h (0 Bft) W-NW 287 ° 0 min 0,000 mm 0,0 UV-I 0 W/m² 9,1 °C 0,0 km/h (0 Bft)
15.10.2016 22:44 10,7 °C 10,8 °C 90 % 1018,1 hPa 0,0 mm 0,0 km/h (0 Bft) W-NW 286 ° 0 min 0,000 mm 0,0 UV-I 0 W/m² 9,1 °C 0,0 km/h (0 Bft)
15.10.2016 22:45 10,8 °C 10,8 °C 90 % 1018,1 hPa 0,0 mm 0,0 km/h (0 Bft) W-NW 286 ° 0 min 0,000 mm 0,0 UV-I 0 W/m² 9,2 °C 0,0 km/h (0 Bft)
15.10.2016 22:46 10,8 °C 10,8 °C 90 % 1018,1 hPa 0,0 mm 0,1 km/h (0 Bft) W-NW 287 ° 0 min 0,000 mm 0,0 UV-I 0 W/m² 9,2 °C 1,6 km/h (1 Bft)
15.10.2016 22:47 10,8 °C 10,8 °C 90 % 1018,1 hPa 0,0 mm 0,1 km/h (0 Bft) W-NW 287 ° 0 min 0,000 mm 0,0 UV-I 0 W/m² 9,2 °C 1,6 km/h (1 Bft)
15.10.2016 22:48 10,7 °C 10,8 °C 90 % 1018,1 hPa 0,0 mm 0,0 km/h (0 Bft) W-NW 286 ° 0 min 0,000 mm 0,0 UV-I 0 W/m² 9,1 °C 0,0 km/h (0 Bft)
15.10.2016 22:49 10,8 °C 10,8 °C 90 % 1018,2 hPa 0,0 mm 0,0 km/h (0 Bft) W-NW 287 ° 0 min 0,000 mm 0,0 UV-I 0 W/m² 9,2 °C 0,0 km/h (0 Bft)
15.10.2016 22:50 10,8 °C 10,8 °C 90 % 1018,2 hPa 0,0 mm 0,0 km/h (0 Bft) W-NW 286 ° 0 min 0,000 mm 0,0 UV-I 0 W/m² 9,2 °C 0,0 km/h (0 Bft)
15.10.2016 22:51 10,8 °C 10,8 °C 90 % 1018,2 hPa 0,0 mm 0,0 km/h (0 Bft) W-NW 286 ° 0 min 0,000 mm 0,0 UV-I 0 W/m² 9,2 °C 0,0 km/h (0 Bft)
15.10.2016 22:52 10,7 °C 10,8 °C 90 % 1018,2 hPa 0,0 mm 0,0 km/h (0 Bft) W-NW 287 ° 0 min 0,000 mm 0,0 UV-I 0 W/m² 9,1 °C 0,0 km/h (0 Bft)
15.10.2016 22:53 10,7 °C 10,7 °C 90 % 1018,1 hPa 0,0 mm 0,0 km/h (0 Bft) W-NW 286 ° 0 min 0,000 mm 0,0 UV-I 0 W/m² 9,1 °C 0,0 km/h (0 Bft)
15.10.2016 22:54 10,7 °C 10,7 °C 90 % 1018,1 hPa 0,0 mm 0,0 km/h (0 Bft) W-NW 286 ° 0 min 0,000 mm 0,0 UV-I 0 W/m² 9,1 °C 0,0 km/h (0 Bft)
15.10.2016 22:55 10,7 °C 10,7 °C 90 % 1018,1 hPa 0,0 mm 0,0 km/h (0 Bft) W-NW 287 ° 0 min 0,000 mm 0,0 UV-I 0 W/m² 9,1 °C 0,0 km/h (0 Bft)
15.10.2016 22:56 10,7 °C 10,7 °C 90 % 1018,1 hPa 0,0 mm 0,0 km/h (0 Bft) W-NW 286 ° 0 min 0,000 mm 0,0 UV-I 0 W/m² 9,1 °C 0,0 km/h (0 Bft)
15.10.2016 22:57 10,7 °C 10,7 °C 90 % 1018,1 hPa 0,0 mm 0,3 km/h (0 Bft) W-NW 286 ° 0 min 0,000 mm 0,0 UV-I 0 W/m² 9,1 °C 1,6 km/h (1 Bft)
15.10.2016 22:58 10,7 °C 10,7 °C 90 % 1018,1 hPa 0,0 mm 0,0 km/h (0 Bft) W-NW 286 ° 0 min 0,000 mm 0,0 UV-I 0 W/m² 9,1 °C 0,0 km/h (0 Bft)
15.10.2016 22:59 10,7 °C 10,7 °C 89 % 1018,1 hPa 0,0 mm 0,0 km/h (0 Bft) W-NW 286 ° 0 min 0,000 mm 0,0 UV-I 0 W/m² 9,0 °C 0,0 km/h (0 Bft)
15.10.2016 23:00 10,7 °C 10,7 °C 90 % 1018,0 hPa 0,0 mm 0,0 km/h (0 Bft) W-NW 287 ° 0 min 0,000 mm 0,0 UV-I 0 W/m² 9,1 °C 0,0 km/h (0 Bft)
15.10.2016 23:01 10,7 °C 10,7 °C 90 % 1018,0 hPa 0,0 mm 0,0 km/h (0 Bft) W-NW 287 ° 0 min 0,000 mm 0,0 UV-I 0 W/m² 9,1 °C 0,0 km/h (0 Bft)
15.10.2016 23:02 10,7 °C 10,7 °C 90 % 1018,0 hPa 0,0 mm 0,0 km/h (0 Bft) W-NW 287 ° 0 min 0,000 mm 0,0 UV-I 0 W/m² 9,1 °C 0,0 km/h (0 Bft)
15.10.2016 23:03 10,7 °C 10,7 °C 90 % 1018,0 hPa 0,0 mm 0,0 km/h (0 Bft) W-NW 286 ° 0 min 0,000 mm 0,0 UV-I 0 W/m² 9,1 °C 0,0 km/h (0 Bft)
15.10.2016 23:04 10,7 °C 10,7 °C 90 % 1018,0 hPa 0,0 mm 0,0 km/h (0 Bft) W-NW 286 ° 0 min 0,000 mm 0,0 UV-I 0 W/m² 9,1 °C 0,0 km/h (0 Bft)
15.10.2016 23:05 10,6 °C 10,7 °C 90 % 1018,1 hPa 0,0 mm 0,0 km/h (0 Bft) W-NW 287 ° 0 min 0,000 mm 0,0 UV-I 0 W/m² 9,0 °C 0,0 km/h (0 Bft)
15.10.2016 23:06 10,6 °C 10,6 °C 90 % 1018,0 hPa 0,0 mm 0,0 km/h (0 Bft) W-NW 286 ° 0 min 0,000 mm 0,0 UV-I 0 W/m² 9,0 °C 0,0 km/h (0 Bft)
15.10.2016 23:07 10,5 °C 10,6 °C 90 % 1018,0 hPa 0,0 mm 0,0 km/h (0 Bft) W-NW 286 ° 0 min 0,000 mm 0,0 UV-I 0 W/m² 8,9 °C 0,0 km/h (0 Bft)
15.10.2016 23:08 10,4 °C 10,5 °C 90 % 1018,0 hPa 0,0 mm 0,0 km/h (0 Bft) W-NW 287 ° 0 min 0,000 mm 0,0 UV-I 0 W/m² 8,8 °C 0,0 km/h (0 Bft)
15.10.2016 23:09 10,4 °C 10,4 °C 90 % 1018,1 hPa 0,0 mm 0,0 km/h (0 Bft) W-NW 287 ° 0 min 0,000 mm 0,0 UV-I 0 W/m² 8,8 °C 0,0 km/h (0 Bft)
15.10.2016 23:10 10,4 °C 10,4 °C 90 % 1018,2 hPa 0,0 mm 0,0 km/h (0 Bft) W-NW 287 ° 0 min 0,000 mm 0,0 UV-I 0 W/m² 8,8 °C 0,0 km/h (0 Bft)
15.10.2016 23:11 10,4 °C 10,4 °C 90 % 1018,2 hPa 0,0 mm 0,0 km/h (0 Bft) W-NW 287 ° 0 min 0,000 mm 0,0 UV-I 0 W/m² 8,8 °C 0,0 km/h (0 Bft)
15.10.2016 23:12 10,3 °C 10,4 °C 89 % 1018,2 hPa 0,0 mm 0,0 km/h (0 Bft) W-NW 286 ° 0 min 0,000 mm 0,0 UV-I 0 W/m² 8,6 °C 0,0 km/h (0 Bft)
15.10.2016 23:13 10,3 °C 10,3 °C 89 % 1018,2 hPa 0,0 mm 0,0 km/h (0 Bft) W-NW 287 ° 0 min 0,000 mm 0,0 UV-I 0 W/m² 8,6 °C 0,0 km/h (0 Bft)
15.10.2016 23:14 10,3 °C 10,3 °C 89 % 1018,2 hPa 0,0 mm 0,0 km/h (0 Bft) W-NW 286 ° 0 min 0,000 mm 0,0 UV-I 0 W/m² 8,6 °C 0,0 km/h (0 Bft)
15.10.2016 23:15 10,3 °C 10,4 °C 89 % 1018,3 hPa 0,0 mm 0,0 km/h (0 Bft) W-NW 286 ° 0 min 0,000 mm 0,0 UV-I 0 W/m² 8,6 °C 0,0 km/h (0 Bft)
15.10.2016 23:16 10,3 °C 10,3 °C 88 % 1018,3 hPa 0,0 mm 0,0 km/h (0 Bft) W-NW 287 ° 0 min 0,000 mm 0,0 UV-I 0 W/m² 8,4 °C 0,0 km/h (0 Bft)
15.10.2016 23:17 10,3 °C 10,3 °C 89 % 1018,3 hPa 0,0 mm 0,9 km/h (0 Bft) W-NW 286 ° 0 min 0,000 mm 0,0 UV-I 0 W/m² 8,6 °C 3,2 km/h (1 Bft)
15.10.2016 23:18 10,3 °C 10,3 °C 89 % 1018,3 hPa 0,0 mm 0,1 km/h (0 Bft) W-NW 286 ° 0 min 0,000 mm 0,0 UV-I 0 W/m² 8,6 °C 1,6 km/h (1 Bft)
15.10.2016 23:19 10,2 °C 10,3 °C 89 % 1018,3 hPa 0,0 mm 0,1 km/h (0 Bft) W-NW 286 ° 0 min 0,000 mm 0,0 UV-I 0 W/m² 8,5 °C 1,6 km/h (1 Bft)
15.10.2016 23:20 10,1 °C 10,2 °C 89 % 1018,3 hPa 0,0 mm 0,1 km/h (0 Bft) W-NW 286 ° 0 min 0,000 mm 0,0 UV-I 0 W/m² 8,4 °C 1,6 km/h (1 Bft)
15.10.2016 23:21 10,1 °C 10,1 °C 89 % 1018,3 hPa 0,0 mm 0,0 km/h (0 Bft) W-NW 286 ° 0 min 0,000 mm 0,0 UV-I 0 W/m² 8,4 °C 0,0 km/h (0 Bft)
15.10.2016 23:22 9,9 °C 10,1 °C 89 % 1018,3 hPa 0,0 mm 0,0 km/h (0 Bft) W-NW 286 ° 0 min 0,000 mm 0,0 UV-I 0 W/m² 8,2 °C 0,0 km/h (0 Bft)
15.10.2016 23:23 9,8 °C 9,9 °C 89 % 1018,3 hPa 0,0 mm 0,0 km/h (0 Bft) W-NW 286 ° 0 min 0,000 mm 0,0 UV-I 0 W/m² 8,1 °C 0,0 km/h (0 Bft)
15.10.2016 23:24 9,8 °C 9,8 °C 90 % 1018,3 hPa 0,0 mm 0,2 km/h (0 Bft) W-NW 286 ° 0 min 0,000 mm 0,0 UV-I 0 W/m² 8,2 °C 1,6 km/h (1 Bft)
15.10.2016 23:25 9,8 °C 9,8 °C 90 % 1018,3 hPa 0,0 mm 0,3 km/h (0 Bft) W-NW 286 ° 0 min 0,000 mm 0,0 UV-I 0 W/m² 8,2 °C 1,6 km/h (1 Bft)
15.10.2016 23:26 9,8 °C 9,8 °C 90 % 1018,3 hPa 0,0 mm 0,0 km/h (0 Bft) W-NW 286 ° 0 min 0,000 mm 0,0 UV-I 0 W/m² 8,2 °C 0,0 km/h (0 Bft)
15.10.2016 23:27 9,8 °C 9,8 °C 90 % 1018,3 hPa 0,0 mm 0,1 km/h (0 Bft) W-NW 286 ° 0 min 0,000 mm 0,0 UV-I 0 W/m² 8,2 °C 1,6 km/h (1 Bft)
15.10.2016 23:28 9,8 °C 9,8 °C 90 % 1018,3 hPa 0,0 mm 0,0 km/h (0 Bft) W-NW 286 ° 0 min 0,000 mm 0,0 UV-I 0 W/m² 8,2 °C 0,0 km/h (0 Bft)
15.10.2016 23:29 9,8 °C 9,8 °C 90 % 1018,3 hPa 0,0 mm 0,0 km/h (0 Bft) W-NW 286 ° 0 min 0,000 mm 0,0 UV-I 0 W/m² 8,2 °C 0,0 km/h (0 Bft)
15.10.2016 23:30 9,8 °C 9,8 °C 90 % 1018,4 hPa 0,0 mm 0,0 km/h (0 Bft) W-NW 286 ° 0 min 0,000 mm 0,0 UV-I 0 W/m² 8,2 °C 0,0 km/h (0 Bft)
15.10.2016 23:31 9,7 °C 9,8 °C 91 % 1018,4 hPa 0,0 mm 0,0 km/h (0 Bft) W-NW 286 ° 0 min 0,000 mm 0,0 UV-I 0 W/m² 8,3 °C 0,0 km/h (0 Bft)
15.10.2016 23:32 9,8 °C 9,8 °C 91 % 1018,4 hPa 0,0 mm 0,0 km/h (0 Bft) W-NW 286 ° 0 min 0,000 mm 0,0 UV-I 0 W/m² 8,4 °C 0,0 km/h (0 Bft)
15.10.2016 23:33 9,8 °C 9,8 °C 91 % 1018,4 hPa 0,0 mm 0,0 km/h (0 Bft) W-NW 286 ° 0 min 0,000 mm 0,0 UV-I 0 W/m² 8,4 °C 0,0 km/h (0 Bft)
15.10.2016 23:34 9,7 °C 9,8 °C 90 % 1018,4 hPa 0,0 mm 0,0 km/h (0 Bft) W-NW 286 ° 0 min 0,000 mm 0,0 UV-I 0 W/m² 8,1 °C 0,0 km/h (0 Bft)
15.10.2016 23:35 9,7 °C 9,7 °C 90 % 1018,4 hPa 0,0 mm 0,1 km/h (0 Bft) W-NW 286 ° 0 min 0,000 mm 0,0 UV-I 0 W/m² 8,1 °C 1,6 km/h (1 Bft)
15.10.2016 23:36 9,7 °C 9,7 °C 91 % 1018,5 hPa 0,0 mm 0,0 km/h (0 Bft) W-NW 286 ° 0 min 0,000 mm 0,0 UV-I 0 W/m² 8,3 °C 0,0 km/h (0 Bft)
15.10.2016 23:37 9,7 °C 9,7 °C 91 % 1018,4 hPa 0,0 mm 0,0 km/h (0 Bft) W-NW 286 ° 0 min 0,000 mm 0,0 UV-I 0 W/m² 8,3 °C 0,0 km/h (0 Bft)
15.10.2016 23:38 9,7 °C 9,7 °C 91 % 1018,4 hPa 0,0 mm 0,1 km/h (0 Bft) W-NW 286 ° 0 min 0,000 mm 0,0 UV-I 0 W/m² 8,3 °C 1,6 km/h (1 Bft)
15.10.2016 23:39 9,7 °C 9,7 °C 91 % 1018,4 hPa 0,0 mm 0,5 km/h (0 Bft) W-NW 286 ° 0 min 0,000 mm 0,0 UV-I 0 W/m² 8,3 °C 1,6 km/h (1 Bft)
15.10.2016 23:40 9,7 °C 9,7 °C 91 % 1018,4 hPa 0,0 mm 0,3 km/h (0 Bft) W-NW 286 ° 0 min 0,000 mm 0,0 UV-I 0 W/m² 8,3 °C 1,6 km/h (1 Bft)
15.10.2016 23:41 9,7 °C 9,7 °C 91 % 1018,4 hPa 0,0 mm 0,1 km/h (0 Bft) W-NW 286 ° 0 min 0,000 mm 0,0 UV-I 0 W/m² 8,3 °C 1,6 km/h (1 Bft)
15.10.2016 23:42 9,8 °C 9,8 °C 91 % 1018,4 hPa 0,0 mm 0,0 km/h (0 Bft) W-NW 286 ° 0 min 0,000 mm 0,0 UV-I 0 W/m² 8,4 °C 0,0 km/h (0 Bft)
15.10.2016 23:43 9,7 °C 9,8 °C 91 % 1018,4 hPa 0,0 mm 0,0 km/h (0 Bft) W-NW 286 ° 0 min 0,000 mm 0,0 UV-I 0 W/m² 8,3 °C 0,0 km/h (0 Bft)
15.10.2016 23:44 9,7 °C 9,7 °C 91 % 1018,5 hPa 0,0 mm 0,0 km/h (0 Bft) W-NW 286 ° 0 min 0,000 mm 0,0 UV-I 0 W/m² 8,3 °C 0,0 km/h (0 Bft)
15.10.2016 23:45 9,6 °C 9,7 °C 91 % 1018,5 hPa 0,0 mm 0,0 km/h (0 Bft) W-NW 286 ° 0 min 0,000 mm 0,0 UV-I 0 W/m² 8,2 °C 0,0 km/h (0 Bft)
15.10.2016 23:46 9,6 °C 9,6 °C 91 % 1018,5 hPa 0,0 mm 0,0 km/h (0 Bft) W-NW 286 ° 0 min 0,000 mm 0,0 UV-I 0 W/m² 8,2 °C 0,0 km/h (0 Bft)
15.10.2016 23:47 9,5 °C 9,6 °C 91 % 1018,5 hPa 0,0 mm 0,0 km/h (0 Bft) W-NW 286 ° 0 min 0,000 mm 0,0 UV-I 0 W/m² 8,1 °C 0,0 km/h (0 Bft)
15.10.2016 23:48 9,4 °C 9,5 °C 91 % 1018,5 hPa 0,0 mm 0,0 km/h (0 Bft) W-NW 286 ° 0 min 0,000 mm 0,0 UV-I 0 W/m² 8,0 °C 0,0 km/h (0 Bft)
15.10.2016 23:49 9,4 °C 9,4 °C 91 % 1018,4 hPa 0,0 mm 0,0 km/h (0 Bft) W-NW 286 ° 0 min 0,000 mm 0,0 UV-I 0 W/m² 8,0 °C 0,0 km/h (0 Bft)
15.10.2016 23:50 9,4 °C 9,5 °C 92 % 1018,4 hPa 0,0 mm 0,0 km/h (0 Bft) W-NW 286 ° 0 min 0,000 mm 0,0 UV-I 0 W/m² 8,2 °C 0,0 km/h (0 Bft)
15.10.2016 23:51 9,6 °C 9,6 °C 92 % 1018,5 hPa 0,0 mm 0,0 km/h (0 Bft) W-NW 286 ° 0 min 0,000 mm 0,0 UV-I 0 W/m² 8,4 °C 0,0 km/h (0 Bft)
15.10.2016 23:52 9,6 °C 9,6 °C 91 % 1018,4 hPa 0,0 mm 0,0 km/h (0 Bft) W-NW 286 ° 0 min 0,000 mm 0,0 UV-I 0 W/m² 8,2 °C 0,0 km/h (0 Bft)
15.10.2016 23:53 9,6 °C 9,6 °C 91 % 1018,4 hPa 0,0 mm 0,4 km/h (0 Bft) W-NW 286 ° 0 min 0,000 mm 0,0 UV-I 0 W/m² 8,2 °C 1,6 km/h (1 Bft)
15.10.2016 23:54 9,6 °C 9,6 °C 91 % 1018,4 hPa 0,0 mm 1,3 km/h (1 Bft) W-NW 286 ° 0 min 0,000 mm 0,0 UV-I 0 W/m² 8,2 °C 3,2 km/h (1 Bft)
15.10.2016 23:55 9,4 °C 9,6 °C 90 % 1018,4 hPa 0,0 mm 0,9 km/h (0 Bft) W-NW 286 ° 0 min 0,000 mm 0,0 UV-I 0 W/m² 7,8 °C 1,6 km/h (1 Bft)
15.10.2016 23:56 9,4 °C 9,4 °C 90 % 1018,4 hPa 0,0 mm 0,9 km/h (0 Bft) W-NW 286 ° 0 min 0,000 mm 0,0 UV-I 0 W/m² 7,8 °C 3,2 km/h (1 Bft)
15.10.2016 23:57 9,3 °C 9,4 °C 90 % 1018,4 hPa 0,0 mm 0,5 km/h (0 Bft) W-NW 286 ° 0 min 0,000 mm 0,0 UV-I 0 W/m² 7,7 °C 1,6 km/h (1 Bft)
15.10.2016 23:58 9,3 °C 9,3 °C 90 % 1018,4 hPa 0,0 mm 1,2 km/h (1 Bft) W-NW 286 ° 0 min 0,000 mm 0,0 UV-I 0 W/m² 7,7 °C 3,2 km/h (1 Bft)
15.10.2016 23:59 9,2 °C 9,3 °C 91 % 1018,5 hPa 0,0 mm 0,5 km/h (0 Bft) W-NW 286 ° 0 min 0,000 mm 0,0 UV-I 0 W/m² 7,8 °C 1,6 km/h (1 Bft)
_ Min-Zeit 08:17 08:16 01:29 00:41 - 23:52 - - - - - - 08:13 23:52
Minimum _ 6,3 °C 6,3 °C 60 % 1005,1 hPa - 0,0 km/h (0 Bft) - - - - - - 4,9 °C 0,0 km/h (0 Bft)
_ Max-Zeit 12:26 12:27 08:22 23:59 23:59 13:15 - - 13:57 13:01 12:24 12:23 13:14 14:15
Maximum _ 15,6 °C 15,6 °C 93 % 1018,5 hPa 0,0 mm 13,8 km/h
W-SW (3 Bft)
- - 1 min 0,203 mm 3,8 UV-I 744 W/m² 10,8 °C 17,7 km/h
W-SW (3 Bft)
Durchschnitt _ 11,4 °C 11,4 °C 83 % 1012,5 hPa #0,0 mm 2,2 km/h (1 Bft) W-NW - #1:16 h #1,016 mm 1,6 UV-I 64 W/m² 8,4 °C 3,8 km/h (1 Bft)